<?xml version="1.0" encoding="UTF-8" standalone="no" ?>
<gpx xmlns="http://www.topografix.com/GPX/1/1" xmlns:xsi="http://www.w3.org/2001/XMLSchema-instance" xsi:schemaLocation="http://www.topografix.com/GPX/1/1 http://www.topografix.com/GPX/1/1/gpx.xsd" version="1.1" creator="VisuGPX - https://www.visugpx.com">
  <metadata>
    <name>Trail de l'Aigoual</name>
  </metadata>
  <wpt lat="44.09038" lon="3.55495">
    <ele>1227.60546875</ele>
    <name><![CDATA[Rav 1]]></name>
    <type><![CDATA[user]]></type>
  </wpt>
  <wpt lat="44.12102" lon="3.5814">
    <ele>1529.32421875</ele>
    <name><![CDATA[Rav 2]]></name>
    <type><![CDATA[user]]></type>
  </wpt>
  <wpt lat="44.11284" lon="3.50351">
    <ele>1123.80078125</ele>
    <name><![CDATA[Rav 3]]></name>
    <type><![CDATA[user]]></type>
  </wpt>
  <trk>
    <name><![CDATA[Trail de l'Aigoual]]></name>
    <trkseg>
      <trkpt lat="44.0911" lon="3.54503">
        <ele>1225</ele>
        <time>2013-07-07T07:17:21Z</time>
      </trkpt>
      <trkpt lat="44.0911" lon="3.545">
        <ele>1225</ele>
        <time>2013-07-07T07:17:26Z</time>
      </trkpt>
      <trkpt lat="44.09107" lon="3.54494">
        <ele>1225</ele>
        <time>2013-07-07T07:17:31Z</time>
      </trkpt>
      <trkpt lat="44.091" lon="3.54484">
        <ele>1225</ele>
        <time>2013-07-07T07:17:36Z</time>
      </trkpt>
      <trkpt lat="44.09094" lon="3.54473">
        <ele>1224.6138569944</ele>
        <time>2013-07-07T07:17:40Z</time>
      </trkpt>
      <trkpt lat="44.09091" lon="3.54459">
        <ele>1224</ele>
        <time>2013-07-07T07:17:44Z</time>
      </trkpt>
      <trkpt lat="44.09087" lon="3.54447">
        <ele>1224</ele>
        <time>2013-07-07T07:17:48Z</time>
      </trkpt>
      <trkpt lat="44.09081" lon="3.54436">
        <ele>1222</ele>
        <time>2013-07-07T07:17:52Z</time>
      </trkpt>
      <trkpt lat="44.09073" lon="3.54414">
        <ele>1222</ele>
        <time>2013-07-07T07:17:59Z</time>
      </trkpt>
      <trkpt lat="44.09068" lon="3.54401">
        <ele>1221</ele>
        <time>2013-07-07T07:18:03Z</time>
      </trkpt>
      <trkpt lat="44.09062" lon="3.54381">
        <ele>1221</ele>
        <time>2013-07-07T07:18:09Z</time>
      </trkpt>
      <trkpt lat="44.09057" lon="3.54369">
        <ele>1221</ele>
        <time>2013-07-07T07:18:13Z</time>
      </trkpt>
      <trkpt lat="44.09052" lon="3.54356">
        <ele>1221</ele>
        <time>2013-07-07T07:18:17Z</time>
      </trkpt>
      <trkpt lat="44.09049" lon="3.54345">
        <ele>1221</ele>
        <time>2013-07-07T07:18:21Z</time>
      </trkpt>
      <trkpt lat="44.09045" lon="3.54334">
        <ele>1221</ele>
        <time>2013-07-07T07:18:25Z</time>
      </trkpt>
      <trkpt lat="44.09042" lon="3.54321">
        <ele>1220</ele>
        <time>2013-07-07T07:18:31Z</time>
      </trkpt>
      <trkpt lat="44.09037" lon="3.54311">
        <ele>1220</ele>
        <time>2013-07-07T07:18:35Z</time>
      </trkpt>
      <trkpt lat="44.0903" lon="3.54301">
        <ele>1220</ele>
        <time>2013-07-07T07:18:39Z</time>
      </trkpt>
      <trkpt lat="44.09023" lon="3.54291">
        <ele>1220</ele>
        <time>2013-07-07T07:18:44Z</time>
      </trkpt>
      <trkpt lat="44.09017" lon="3.54282">
        <ele>1220</ele>
        <time>2013-07-07T07:18:49Z</time>
      </trkpt>
      <trkpt lat="44.0901" lon="3.54273">
        <ele>1221</ele>
        <time>2013-07-07T07:18:53Z</time>
      </trkpt>
      <trkpt lat="44.09003" lon="3.54262">
        <ele>1221</ele>
        <time>2013-07-07T07:18:58Z</time>
      </trkpt>
      <trkpt lat="44.08996" lon="3.54251">
        <ele>1222</ele>
        <time>2013-07-07T07:19:03Z</time>
      </trkpt>
      <trkpt lat="44.0899" lon="3.54241">
        <ele>1222</ele>
        <time>2013-07-07T07:19:08Z</time>
      </trkpt>
      <trkpt lat="44.08984" lon="3.54229">
        <ele>1224</ele>
        <time>2013-07-07T07:19:13Z</time>
      </trkpt>
      <trkpt lat="44.08978" lon="3.54214">
        <ele>1224</ele>
        <time>2013-07-07T07:19:19Z</time>
      </trkpt>
      <trkpt lat="44.08972" lon="3.54203">
        <ele>1225</ele>
        <time>2013-07-07T07:19:24Z</time>
      </trkpt>
      <trkpt lat="44.08965" lon="3.5419">
        <ele>1226.4699904</ele>
        <time>2013-07-07T07:19:30Z</time>
      </trkpt>
      <trkpt lat="44.08957" lon="3.5418">
        <ele>1228.48</ele>
        <time>2013-07-07T07:19:35Z</time>
      </trkpt>
      <trkpt lat="44.0895" lon="3.5417">
        <ele>1229.4851468836</ele>
        <time>2013-07-07T07:19:40Z</time>
      </trkpt>
      <trkpt lat="44.08944" lon="3.54158">
        <ele>1230</ele>
        <time>2013-07-07T07:19:45Z</time>
      </trkpt>
      <trkpt lat="44.08937" lon="3.54146">
        <ele>1232</ele>
        <time>2013-07-07T07:19:51Z</time>
      </trkpt>
      <trkpt lat="44.08929" lon="3.54134">
        <ele>1232</ele>
        <time>2013-07-07T07:19:57Z</time>
      </trkpt>
      <trkpt lat="44.08919" lon="3.54127">
        <ele>1233</ele>
        <time>2013-07-07T07:20:02Z</time>
      </trkpt>
      <trkpt lat="44.08911" lon="3.54121">
        <ele>1233</ele>
        <time>2013-07-07T07:20:07Z</time>
      </trkpt>
      <trkpt lat="44.08901" lon="3.54118">
        <ele>1234</ele>
        <time>2013-07-07T07:20:12Z</time>
      </trkpt>
      <trkpt lat="44.0889" lon="3.54115">
        <ele>1234</ele>
        <time>2013-07-07T07:20:18Z</time>
      </trkpt>
      <trkpt lat="44.08877" lon="3.54116">
        <ele>1235</ele>
        <time>2013-07-07T07:20:26Z</time>
      </trkpt>
      <trkpt lat="44.08865" lon="3.54119">
        <ele>1237</ele>
        <time>2013-07-07T07:20:31Z</time>
      </trkpt>
      <trkpt lat="44.08852" lon="3.54121">
        <ele>1237</ele>
        <time>2013-07-07T07:20:38Z</time>
      </trkpt>
      <trkpt lat="44.08842" lon="3.54123">
        <ele>1239</ele>
        <time>2013-07-07T07:20:43Z</time>
      </trkpt>
      <trkpt lat="44.08828" lon="3.54125">
        <ele>1239.4183744106</ele>
        <time>2013-07-07T07:20:50Z</time>
      </trkpt>
      <trkpt lat="44.0881" lon="3.54129">
        <ele>1240.8712898892</ele>
        <time>2013-07-07T07:21:00Z</time>
      </trkpt>
      <trkpt lat="44.08794" lon="3.54133">
        <ele>1242</ele>
        <time>2013-07-07T07:21:07Z</time>
      </trkpt>
      <trkpt lat="44.08777" lon="3.54134">
        <ele>1243</ele>
        <time>2013-07-07T07:21:15Z</time>
      </trkpt>
      <trkpt lat="44.08759" lon="3.54132">
        <ele>1243</ele>
        <time>2013-07-07T07:21:23Z</time>
      </trkpt>
      <trkpt lat="44.08743" lon="3.54132">
        <ele>1243</ele>
        <time>2013-07-07T07:21:29Z</time>
      </trkpt>
      <trkpt lat="44.08725" lon="3.5413">
        <ele>1241</ele>
        <time>2013-07-07T07:21:36Z</time>
      </trkpt>
      <trkpt lat="44.08708" lon="3.54131">
        <ele>1240</ele>
        <time>2013-07-07T07:21:43Z</time>
      </trkpt>
      <trkpt lat="44.08693" lon="3.5413">
        <ele>1240</ele>
        <time>2013-07-07T07:21:49Z</time>
      </trkpt>
      <trkpt lat="44.08679" lon="3.5413">
        <ele>1239</ele>
        <time>2013-07-07T07:21:55Z</time>
      </trkpt>
      <trkpt lat="44.08661" lon="3.54129">
        <ele>1239</ele>
        <time>2013-07-07T07:22:02Z</time>
      </trkpt>
      <trkpt lat="44.08643" lon="3.54132">
        <ele>1239</ele>
        <time>2013-07-07T07:22:08Z</time>
      </trkpt>
      <trkpt lat="44.08626" lon="3.54127">
        <ele>1239</ele>
        <time>2013-07-07T07:22:14Z</time>
      </trkpt>
      <trkpt lat="44.08611" lon="3.54121">
        <ele>1238.6138569944</ele>
        <time>2013-07-07T07:22:20Z</time>
      </trkpt>
      <trkpt lat="44.08595" lon="3.54109">
        <ele>1238</ele>
        <time>2013-07-07T07:22:29Z</time>
      </trkpt>
      <trkpt lat="44.08581" lon="3.54099">
        <ele>1238</ele>
        <time>2013-07-07T07:22:35Z</time>
      </trkpt>
      <trkpt lat="44.08564" lon="3.54086">
        <ele>1238</ele>
        <time>2013-07-07T07:22:43Z</time>
      </trkpt>
      <trkpt lat="44.08547" lon="3.54075">
        <ele>1238</ele>
        <time>2013-07-07T07:22:50Z</time>
      </trkpt>
      <trkpt lat="44.08532" lon="3.54059">
        <ele>1238</ele>
        <time>2013-07-07T07:22:58Z</time>
      </trkpt>
      <trkpt lat="44.08514" lon="3.54047">
        <ele>1239</ele>
        <time>2013-07-07T07:23:06Z</time>
      </trkpt>
      <trkpt lat="44.08499" lon="3.54044">
        <ele>1240</ele>
        <time>2013-07-07T07:23:13Z</time>
      </trkpt>
      <trkpt lat="44.08483" lon="3.54056">
        <ele>1239</ele>
        <time>2013-07-07T07:23:22Z</time>
      </trkpt>
      <trkpt lat="44.08471" lon="3.54073">
        <ele>1239</ele>
        <time>2013-07-07T07:23:29Z</time>
      </trkpt>
      <trkpt lat="44.08462" lon="3.54089">
        <ele>1240</ele>
        <time>2013-07-07T07:23:35Z</time>
      </trkpt>
      <trkpt lat="44.08454" lon="3.54111">
        <ele>1241</ele>
        <time>2013-07-07T07:23:43Z</time>
      </trkpt>
      <trkpt lat="44.0844" lon="3.54129">
        <ele>1241</ele>
        <time>2013-07-07T07:23:51Z</time>
      </trkpt>
      <trkpt lat="44.08425" lon="3.54143">
        <ele>1241</ele>
        <time>2013-07-07T07:23:58Z</time>
      </trkpt>
      <trkpt lat="44.08411" lon="3.54152">
        <ele>1239</ele>
        <time>2013-07-07T07:24:04Z</time>
      </trkpt>
      <trkpt lat="44.08398" lon="3.54166">
        <ele>1238</ele>
        <time>2013-07-07T07:24:11Z</time>
      </trkpt>
      <trkpt lat="44.08388" lon="3.54184">
        <ele>1238</ele>
        <time>2013-07-07T07:24:17Z</time>
      </trkpt>
      <trkpt lat="44.08381" lon="3.54202">
        <ele>1236</ele>
        <time>2013-07-07T07:24:22Z</time>
      </trkpt>
      <trkpt lat="44.08369" lon="3.54222">
        <ele>1235.6138569944</ele>
        <time>2013-07-07T07:24:30Z</time>
      </trkpt>
      <trkpt lat="44.08361" lon="3.54242">
        <ele>1235</ele>
        <time>2013-07-07T07:24:36Z</time>
      </trkpt>
      <trkpt lat="44.0836" lon="3.5426">
        <ele>1235</ele>
        <time>2013-07-07T07:24:41Z</time>
      </trkpt>
      <trkpt lat="44.08366" lon="3.54283">
        <ele>1235</ele>
        <time>2013-07-07T07:24:48Z</time>
      </trkpt>
      <trkpt lat="44.08369" lon="3.54305">
        <ele>1234</ele>
        <time>2013-07-07T07:24:55Z</time>
      </trkpt>
      <trkpt lat="44.08358" lon="3.54326">
        <ele>1233</ele>
        <time>2013-07-07T07:25:03Z</time>
      </trkpt>
      <trkpt lat="44.08341" lon="3.54343">
        <ele>1233</ele>
        <time>2013-07-07T07:25:11Z</time>
      </trkpt>
      <trkpt lat="44.08325" lon="3.54357">
        <ele>1233</ele>
        <time>2013-07-07T07:25:18Z</time>
      </trkpt>
      <trkpt lat="44.08314" lon="3.54376">
        <ele>1232</ele>
        <time>2013-07-07T07:25:25Z</time>
      </trkpt>
      <trkpt lat="44.08306" lon="3.54399">
        <ele>1231</ele>
        <time>2013-07-07T07:25:33Z</time>
      </trkpt>
      <trkpt lat="44.08302" lon="3.54422">
        <ele>1230.2399872</ele>
        <time>2013-07-07T07:25:40Z</time>
      </trkpt>
      <trkpt lat="44.08299" lon="3.54445">
        <ele>1229</ele>
        <time>2013-07-07T07:25:47Z</time>
      </trkpt>
      <trkpt lat="44.083" lon="3.54469">
        <ele>1228</ele>
        <time>2013-07-07T07:25:54Z</time>
      </trkpt>
      <trkpt lat="44.08299" lon="3.54491">
        <ele>1225</ele>
        <time>2013-07-07T07:26:01Z</time>
      </trkpt>
      <trkpt lat="44.08297" lon="3.54516">
        <ele>1225</ele>
        <time>2013-07-07T07:26:09Z</time>
      </trkpt>
      <trkpt lat="44.08292" lon="3.54542">
        <ele>1224</ele>
        <time>2013-07-07T07:26:17Z</time>
      </trkpt>
      <trkpt lat="44.08289" lon="3.54569">
        <ele>1223</ele>
        <time>2013-07-07T07:26:24Z</time>
      </trkpt>
      <trkpt lat="44.08288" lon="3.54589">
        <ele>1222.2277139888</ele>
        <time>2013-07-07T07:26:30Z</time>
      </trkpt>
      <trkpt lat="44.08293" lon="3.54612">
        <ele>1221</ele>
        <time>2013-07-07T07:26:37Z</time>
      </trkpt>
      <trkpt lat="44.08296" lon="3.54631">
        <ele>1220</ele>
        <time>2013-07-07T07:26:42Z</time>
      </trkpt>
      <trkpt lat="44.08296" lon="3.5465">
        <ele>1220</ele>
        <time>2013-07-07T07:26:48Z</time>
      </trkpt>
      <trkpt lat="44.08295" lon="3.54668">
        <ele>1219</ele>
        <time>2013-07-07T07:26:54Z</time>
      </trkpt>
      <trkpt lat="44.08295" lon="3.54686">
        <ele>1219</ele>
        <time>2013-07-07T07:26:59Z</time>
      </trkpt>
      <trkpt lat="44.08298" lon="3.54703">
        <ele>1217</ele>
        <time>2013-07-07T07:27:03Z</time>
      </trkpt>
      <trkpt lat="44.08302" lon="3.54718">
        <ele>1217</ele>
        <time>2013-07-07T07:27:08Z</time>
      </trkpt>
      <trkpt lat="44.08311" lon="3.54729">
        <ele>1216</ele>
        <time>2013-07-07T07:27:13Z</time>
      </trkpt>
      <trkpt lat="44.08324" lon="3.54735">
        <ele>1216</ele>
        <time>2013-07-07T07:27:19Z</time>
      </trkpt>
      <trkpt lat="44.08336" lon="3.54738">
        <ele>1213</ele>
        <time>2013-07-07T07:27:24Z</time>
      </trkpt>
      <trkpt lat="44.08349" lon="3.54743">
        <ele>1213</ele>
        <time>2013-07-07T07:27:29Z</time>
      </trkpt>
      <trkpt lat="44.08362" lon="3.54751">
        <ele>1212</ele>
        <time>2013-07-07T07:27:35Z</time>
      </trkpt>
      <trkpt lat="44.08381" lon="3.5476">
        <ele>1211</ele>
        <time>2013-07-07T07:27:43Z</time>
      </trkpt>
      <trkpt lat="44.084" lon="3.54769">
        <ele>1210.4081475386</ele>
        <time>2013-07-07T07:27:50Z</time>
      </trkpt>
      <trkpt lat="44.08416" lon="3.54774">
        <ele>1209</ele>
        <time>2013-07-07T07:27:56Z</time>
      </trkpt>
      <trkpt lat="44.08429" lon="3.54777">
        <ele>1208</ele>
        <time>2013-07-07T07:28:01Z</time>
      </trkpt>
      <trkpt lat="44.08442" lon="3.54782">
        <ele>1208</ele>
        <time>2013-07-07T07:28:06Z</time>
      </trkpt>
      <trkpt lat="44.08453" lon="3.54787">
        <ele>1207.6199936</ele>
        <time>2013-07-07T07:28:10Z</time>
      </trkpt>
      <trkpt lat="44.08465" lon="3.54793">
        <ele>1207</ele>
        <time>2013-07-07T07:28:15Z</time>
      </trkpt>
      <trkpt lat="44.08482" lon="3.54798">
        <ele>1205</ele>
        <time>2013-07-07T07:28:23Z</time>
      </trkpt>
      <trkpt lat="44.08497" lon="3.54802">
        <ele>1205</ele>
        <time>2013-07-07T07:28:28Z</time>
      </trkpt>
      <trkpt lat="44.08515" lon="3.54805">
        <ele>1204</ele>
        <time>2013-07-07T07:28:34Z</time>
      </trkpt>
      <trkpt lat="44.08535" lon="3.54808">
        <ele>1202</ele>
        <time>2013-07-07T07:28:41Z</time>
      </trkpt>
      <trkpt lat="44.08553" lon="3.54811">
        <ele>1202</ele>
        <time>2013-07-07T07:28:47Z</time>
      </trkpt>
      <trkpt lat="44.08573" lon="3.54815">
        <ele>1201</ele>
        <time>2013-07-07T07:28:54Z</time>
      </trkpt>
      <trkpt lat="44.08593" lon="3.54824">
        <ele>1201</ele>
        <time>2013-07-07T07:29:02Z</time>
      </trkpt>
      <trkpt lat="44.08604" lon="3.54849">
        <ele>1201</ele>
        <time>2013-07-07T07:29:09Z</time>
      </trkpt>
      <trkpt lat="44.08612" lon="3.54874">
        <ele>1199</ele>
        <time>2013-07-07T07:29:17Z</time>
      </trkpt>
      <trkpt lat="44.08608" lon="3.54893">
        <ele>1196</ele>
        <time>2013-07-07T07:29:24Z</time>
      </trkpt>
      <trkpt lat="44.08604" lon="3.54904">
        <ele>1195</ele>
        <time>2013-07-07T07:29:28Z</time>
      </trkpt>
      <trkpt lat="44.0859" lon="3.54917">
        <ele>1197</ele>
        <time>2013-07-07T07:29:35Z</time>
      </trkpt>
      <trkpt lat="44.08574" lon="3.54919">
        <ele>1197</ele>
        <time>2013-07-07T07:29:40Z</time>
      </trkpt>
      <trkpt lat="44.08561" lon="3.54915">
        <ele>1197</ele>
        <time>2013-07-07T07:29:45Z</time>
      </trkpt>
      <trkpt lat="44.08549" lon="3.54909">
        <ele>1197</ele>
        <time>2013-07-07T07:29:50Z</time>
      </trkpt>
      <trkpt lat="44.08536" lon="3.54905">
        <ele>1197</ele>
        <time>2013-07-07T07:29:55Z</time>
      </trkpt>
      <trkpt lat="44.08525" lon="3.54901">
        <ele>1197</ele>
        <time>2013-07-07T07:29:59Z</time>
      </trkpt>
      <trkpt lat="44.08514" lon="3.54895">
        <ele>1194</ele>
        <time>2013-07-07T07:30:03Z</time>
      </trkpt>
      <trkpt lat="44.08503" lon="3.54892">
        <ele>1194</ele>
        <time>2013-07-07T07:30:07Z</time>
      </trkpt>
      <trkpt lat="44.0849" lon="3.5489">
        <ele>1194</ele>
        <time>2013-07-07T07:30:12Z</time>
      </trkpt>
      <trkpt lat="44.0848" lon="3.54887">
        <ele>1194</ele>
        <time>2013-07-07T07:30:16Z</time>
      </trkpt>
      <trkpt lat="44.0847" lon="3.54884">
        <ele>1193.2399872</ele>
        <time>2013-07-07T07:30:20Z</time>
      </trkpt>
      <trkpt lat="44.0846" lon="3.54884">
        <ele>1192</ele>
        <time>2013-07-07T07:30:24Z</time>
      </trkpt>
      <trkpt lat="44.08451" lon="3.54885">
        <ele>1192</ele>
        <time>2013-07-07T07:30:28Z</time>
      </trkpt>
      <trkpt lat="44.08437" lon="3.54888">
        <ele>1189</ele>
        <time>2013-07-07T07:30:34Z</time>
      </trkpt>
      <trkpt lat="44.08425" lon="3.54887">
        <ele>1187</ele>
        <time>2013-07-07T07:30:39Z</time>
      </trkpt>
      <trkpt lat="44.08405" lon="3.5489">
        <ele>1187</ele>
        <time>2013-07-07T07:30:48Z</time>
      </trkpt>
      <trkpt lat="44.08385" lon="3.54891">
        <ele>1187</ele>
        <time>2013-07-07T07:30:57Z</time>
      </trkpt>
      <trkpt lat="44.08365" lon="3.54892">
        <ele>1185</ele>
        <time>2013-07-07T07:31:03Z</time>
      </trkpt>
      <trkpt lat="44.08348" lon="3.54888">
        <ele>1185</ele>
        <time>2013-07-07T07:31:09Z</time>
      </trkpt>
      <trkpt lat="44.08331" lon="3.54886">
        <ele>1186</ele>
        <time>2013-07-07T07:31:16Z</time>
      </trkpt>
      <trkpt lat="44.08314" lon="3.54894">
        <ele>1186</ele>
        <time>2013-07-07T07:31:26Z</time>
      </trkpt>
      <trkpt lat="44.083" lon="3.54905">
        <ele>1186</ele>
        <time>2013-07-07T07:31:31Z</time>
      </trkpt>
      <trkpt lat="44.08282" lon="3.54915">
        <ele>1186</ele>
        <time>2013-07-07T07:31:39Z</time>
      </trkpt>
      <trkpt lat="44.08264" lon="3.54926">
        <ele>1186</ele>
        <time>2013-07-07T07:31:46Z</time>
      </trkpt>
      <trkpt lat="44.08245" lon="3.54936">
        <ele>1184</ele>
        <time>2013-07-07T07:31:53Z</time>
      </trkpt>
      <trkpt lat="44.08226" lon="3.54941">
        <ele>1183</ele>
        <time>2013-07-07T07:32:02Z</time>
      </trkpt>
      <trkpt lat="44.08207" lon="3.54947">
        <ele>1183</ele>
        <time>2013-07-07T07:32:09Z</time>
      </trkpt>
      <trkpt lat="44.08191" lon="3.54938">
        <ele>1181</ele>
        <time>2013-07-07T07:32:17Z</time>
      </trkpt>
      <trkpt lat="44.08173" lon="3.54928">
        <ele>1176</ele>
        <time>2013-07-07T07:32:26Z</time>
      </trkpt>
      <trkpt lat="44.08152" lon="3.54922">
        <ele>1175</ele>
        <time>2013-07-07T07:32:32Z</time>
      </trkpt>
      <trkpt lat="44.08134" lon="3.54915">
        <ele>1175</ele>
        <time>2013-07-07T07:32:38Z</time>
      </trkpt>
      <trkpt lat="44.08117" lon="3.54908">
        <ele>1176</ele>
        <time>2013-07-07T07:32:45Z</time>
      </trkpt>
      <trkpt lat="44.081" lon="3.54914">
        <ele>1176</ele>
        <time>2013-07-07T07:32:56Z</time>
      </trkpt>
      <trkpt lat="44.08083" lon="3.54925">
        <ele>1177</ele>
        <time>2013-07-07T07:33:08Z</time>
      </trkpt>
      <trkpt lat="44.08069" lon="3.54939">
        <ele>1178</ele>
        <time>2013-07-07T07:33:14Z</time>
      </trkpt>
      <trkpt lat="44.08051" lon="3.54947">
        <ele>1178</ele>
        <time>2013-07-07T07:33:21Z</time>
      </trkpt>
      <trkpt lat="44.08033" lon="3.54953">
        <ele>1178</ele>
        <time>2013-07-07T07:33:27Z</time>
      </trkpt>
      <trkpt lat="44.08012" lon="3.54954">
        <ele>1179</ele>
        <time>2013-07-07T07:33:35Z</time>
      </trkpt>
      <trkpt lat="44.07994" lon="3.54954">
        <ele>1181</ele>
        <time>2013-07-07T07:33:44Z</time>
      </trkpt>
      <trkpt lat="44.07975" lon="3.54954">
        <ele>1182</ele>
        <time>2013-07-07T07:33:51Z</time>
      </trkpt>
      <trkpt lat="44.07957" lon="3.54954">
        <ele>1182</ele>
        <time>2013-07-07T07:33:57Z</time>
      </trkpt>
      <trkpt lat="44.07938" lon="3.54956">
        <ele>1181</ele>
        <time>2013-07-07T07:34:03Z</time>
      </trkpt>
      <trkpt lat="44.07919" lon="3.54953">
        <ele>1181</ele>
        <time>2013-07-07T07:34:09Z</time>
      </trkpt>
      <trkpt lat="44.07901" lon="3.54946">
        <ele>1183</ele>
        <time>2013-07-07T07:34:15Z</time>
      </trkpt>
      <trkpt lat="44.0789" lon="3.54943">
        <ele>1183</ele>
        <time>2013-07-07T07:34:19Z</time>
      </trkpt>
      <trkpt lat="44.07876" lon="3.54939">
        <ele>1182</ele>
        <time>2013-07-07T07:34:24Z</time>
      </trkpt>
      <trkpt lat="44.0786" lon="3.5493">
        <ele>1181.6138569944</ele>
        <time>2013-07-07T07:34:30Z</time>
      </trkpt>
      <trkpt lat="44.07848" lon="3.54929">
        <ele>1181</ele>
        <time>2013-07-07T07:34:41Z</time>
      </trkpt>
      <trkpt lat="44.07839" lon="3.54933">
        <ele>1181</ele>
        <time>2013-07-07T07:34:47Z</time>
      </trkpt>
      <trkpt lat="44.07838" lon="3.54944">
        <ele>1181</ele>
        <time>2013-07-07T07:34:58Z</time>
      </trkpt>
      <trkpt lat="44.07829" lon="3.54953">
        <ele>1182</ele>
        <time>2013-07-07T07:35:08Z</time>
      </trkpt>
      <trkpt lat="44.07819" lon="3.54963">
        <ele>1184</ele>
        <time>2013-07-07T07:35:15Z</time>
      </trkpt>
      <trkpt lat="44.07812" lon="3.54975">
        <ele>1186</ele>
        <time>2013-07-07T07:35:24Z</time>
      </trkpt>
      <trkpt lat="44.07801" lon="3.5498">
        <ele>1186.7722860112</ele>
        <time>2013-07-07T07:35:30Z</time>
      </trkpt>
      <trkpt lat="44.07791" lon="3.54986">
        <ele>1188</ele>
        <time>2013-07-07T07:35:36Z</time>
      </trkpt>
      <trkpt lat="44.07784" lon="3.55001">
        <ele>1191.2653109204</ele>
        <time>2013-07-07T07:35:50Z</time>
      </trkpt>
      <trkpt lat="44.07773" lon="3.55006">
        <ele>1196.7722860112</ele>
        <time>2013-07-07T07:36:00Z</time>
      </trkpt>
      <trkpt lat="44.07764" lon="3.55007">
        <ele>1198</ele>
        <time>2013-07-07T07:36:08Z</time>
      </trkpt>
      <trkpt lat="44.07758" lon="3.55008">
        <ele>1200</ele>
        <time>2013-07-07T07:36:15Z</time>
      </trkpt>
      <trkpt lat="44.07752" lon="3.55014">
        <ele>1201</ele>
        <time>2013-07-07T07:36:23Z</time>
      </trkpt>
      <trkpt lat="44.07744" lon="3.55013">
        <ele>1204</ele>
        <time>2013-07-07T07:36:33Z</time>
      </trkpt>
      <trkpt lat="44.07735" lon="3.55013">
        <ele>1208</ele>
        <time>2013-07-07T07:36:42Z</time>
      </trkpt>
      <trkpt lat="44.07726" lon="3.55016">
        <ele>1210</ele>
        <time>2013-07-07T07:36:52Z</time>
      </trkpt>
      <trkpt lat="44.07717" lon="3.55017">
        <ele>1211.1584290168</ele>
        <time>2013-07-07T07:37:00Z</time>
      </trkpt>
      <trkpt lat="44.07708" lon="3.55021">
        <ele>1215</ele>
        <time>2013-07-07T07:37:09Z</time>
      </trkpt>
      <trkpt lat="44.07699" lon="3.55024">
        <ele>1217</ele>
        <time>2013-07-07T07:37:16Z</time>
      </trkpt>
      <trkpt lat="44.07695" lon="3.55033">
        <ele>1218</ele>
        <time>2013-07-07T07:37:25Z</time>
      </trkpt>
      <trkpt lat="44.07692" lon="3.55046">
        <ele>1219</ele>
        <time>2013-07-07T07:37:38Z</time>
      </trkpt>
      <trkpt lat="44.07684" lon="3.55055">
        <ele>1224</ele>
        <time>2013-07-07T07:37:53Z</time>
      </trkpt>
      <trkpt lat="44.07676" lon="3.55061">
        <ele>1228.3838306785</ele>
        <time>2013-07-07T07:38:05Z</time>
      </trkpt>
      <trkpt lat="44.07668" lon="3.55067">
        <ele>1231</ele>
        <time>2013-07-07T07:38:12Z</time>
      </trkpt>
      <trkpt lat="44.07659" lon="3.55072">
        <ele>1233</ele>
        <time>2013-07-07T07:38:19Z</time>
      </trkpt>
      <trkpt lat="44.07651" lon="3.55072">
        <ele>1233</ele>
        <time>2013-07-07T07:38:24Z</time>
      </trkpt>
      <trkpt lat="44.07642" lon="3.55072">
        <ele>1233</ele>
        <time>2013-07-07T07:38:32Z</time>
      </trkpt>
      <trkpt lat="44.07635" lon="3.5508">
        <ele>1236</ele>
        <time>2013-07-07T07:38:42Z</time>
      </trkpt>
      <trkpt lat="44.07627" lon="3.55082">
        <ele>1239</ele>
        <time>2013-07-07T07:38:47Z</time>
      </trkpt>
      <trkpt lat="44.07616" lon="3.55084">
        <ele>1240</ele>
        <time>2013-07-07T07:38:52Z</time>
      </trkpt>
      <trkpt lat="44.07605" lon="3.55082">
        <ele>1240</ele>
        <time>2013-07-07T07:38:56Z</time>
      </trkpt>
      <trkpt lat="44.07593" lon="3.55077">
        <ele>1239</ele>
        <time>2013-07-07T07:39:01Z</time>
      </trkpt>
      <trkpt lat="44.07585" lon="3.55066">
        <ele>1239</ele>
        <time>2013-07-07T07:39:06Z</time>
      </trkpt>
      <trkpt lat="44.07575" lon="3.55053">
        <ele>1240</ele>
        <time>2013-07-07T07:39:11Z</time>
      </trkpt>
      <trkpt lat="44.07564" lon="3.55042">
        <ele>1240</ele>
        <time>2013-07-07T07:39:15Z</time>
      </trkpt>
      <trkpt lat="44.07557" lon="3.55031">
        <ele>1240</ele>
        <time>2013-07-07T07:39:19Z</time>
      </trkpt>
      <trkpt lat="44.07549" lon="3.55018">
        <ele>1240</ele>
        <time>2013-07-07T07:39:24Z</time>
      </trkpt>
      <trkpt lat="44.07541" lon="3.5501">
        <ele>1241</ele>
        <time>2013-07-07T07:39:28Z</time>
      </trkpt>
      <trkpt lat="44.07533" lon="3.55002">
        <ele>1241</ele>
        <time>2013-07-07T07:39:32Z</time>
      </trkpt>
      <trkpt lat="44.07525" lon="3.54993">
        <ele>1241</ele>
        <time>2013-07-07T07:39:36Z</time>
      </trkpt>
      <trkpt lat="44.07517" lon="3.54984">
        <ele>1241</ele>
        <time>2013-07-07T07:39:40Z</time>
      </trkpt>
      <trkpt lat="44.07508" lon="3.54978">
        <ele>1241</ele>
        <time>2013-07-07T07:39:44Z</time>
      </trkpt>
      <trkpt lat="44.075" lon="3.54968">
        <ele>1241</ele>
        <time>2013-07-07T07:39:49Z</time>
      </trkpt>
      <trkpt lat="44.0749" lon="3.54961">
        <ele>1241</ele>
        <time>2013-07-07T07:39:53Z</time>
      </trkpt>
      <trkpt lat="44.07482" lon="3.54956">
        <ele>1241</ele>
        <time>2013-07-07T07:39:56Z</time>
      </trkpt>
      <trkpt lat="44.07474" lon="3.54947">
        <ele>1242</ele>
        <time>2013-07-07T07:40:01Z</time>
      </trkpt>
      <trkpt lat="44.07467" lon="3.54937">
        <ele>1242</ele>
        <time>2013-07-07T07:40:05Z</time>
      </trkpt>
      <trkpt lat="44.0746" lon="3.54926">
        <ele>1242</ele>
        <time>2013-07-07T07:40:09Z</time>
      </trkpt>
      <trkpt lat="44.07451" lon="3.54915">
        <ele>1242</ele>
        <time>2013-07-07T07:40:14Z</time>
      </trkpt>
      <trkpt lat="44.07443" lon="3.54902">
        <ele>1242</ele>
        <time>2013-07-07T07:40:19Z</time>
      </trkpt>
      <trkpt lat="44.07437" lon="3.54888">
        <ele>1243</ele>
        <time>2013-07-07T07:40:24Z</time>
      </trkpt>
      <trkpt lat="44.0743" lon="3.54874">
        <ele>1243</ele>
        <time>2013-07-07T07:40:29Z</time>
      </trkpt>
      <trkpt lat="44.0742" lon="3.54862">
        <ele>1244</ele>
        <time>2013-07-07T07:40:33Z</time>
      </trkpt>
      <trkpt lat="44.07411" lon="3.54855">
        <ele>1244</ele>
        <time>2013-07-07T07:40:37Z</time>
      </trkpt>
      <trkpt lat="44.07404" lon="3.54865">
        <ele>1246</ele>
        <time>2013-07-07T07:40:47Z</time>
      </trkpt>
      <trkpt lat="44.07404" lon="3.54879">
        <ele>1248</ele>
        <time>2013-07-07T07:40:53Z</time>
      </trkpt>
      <trkpt lat="44.07405" lon="3.54895">
        <ele>1248.7722860112</ele>
        <time>2013-07-07T07:41:00Z</time>
      </trkpt>
      <trkpt lat="44.07404" lon="3.5491">
        <ele>1250</ele>
        <time>2013-07-07T07:41:07Z</time>
      </trkpt>
      <trkpt lat="44.07403" lon="3.54927">
        <ele>1252</ele>
        <time>2013-07-07T07:41:17Z</time>
      </trkpt>
      <trkpt lat="44.074" lon="3.54939">
        <ele>1254</ele>
        <time>2013-07-07T07:41:24Z</time>
      </trkpt>
      <trkpt lat="44.07399" lon="3.54955">
        <ele>1257</ele>
        <time>2013-07-07T07:41:34Z</time>
      </trkpt>
      <trkpt lat="44.07399" lon="3.54969">
        <ele>1259</ele>
        <time>2013-07-07T07:41:43Z</time>
      </trkpt>
      <trkpt lat="44.07399" lon="3.54984">
        <ele>1261</ele>
        <time>2013-07-07T07:41:52Z</time>
      </trkpt>
      <trkpt lat="44.07396" lon="3.54999">
        <ele>1261</ele>
        <time>2013-07-07T07:41:59Z</time>
      </trkpt>
      <trkpt lat="44.07396" lon="3.55014">
        <ele>1264</ele>
        <time>2013-07-07T07:42:07Z</time>
      </trkpt>
      <trkpt lat="44.07396" lon="3.55028">
        <ele>1265.4851468836</ele>
        <time>2013-07-07T07:42:20Z</time>
      </trkpt>
      <trkpt lat="44.07393" lon="3.55041">
        <ele>1266.4851468836</ele>
        <time>2013-07-07T07:42:40Z</time>
      </trkpt>
      <trkpt lat="44.07386" lon="3.55046">
        <ele>1269</ele>
        <time>2013-07-07T07:42:54Z</time>
      </trkpt>
      <trkpt lat="44.07386" lon="3.5506">
        <ele>1272</ele>
        <time>2013-07-07T07:43:16Z</time>
      </trkpt>
      <trkpt lat="44.07386" lon="3.55077">
        <ele>1275.4554406509</ele>
        <time>2013-07-07T07:43:30Z</time>
      </trkpt>
      <trkpt lat="44.07385" lon="3.55096">
        <ele>1281</ele>
        <time>2013-07-07T07:43:42Z</time>
      </trkpt>
      <trkpt lat="44.07382" lon="3.55111">
        <ele>1282.9702937673</ele>
        <time>2013-07-07T07:44:00Z</time>
      </trkpt>
      <trkpt lat="44.0738" lon="3.55125">
        <ele>1287</ele>
        <time>2013-07-07T07:44:25Z</time>
      </trkpt>
      <trkpt lat="44.07376" lon="3.55143">
        <ele>1291</ele>
        <time>2013-07-07T07:44:43Z</time>
      </trkpt>
      <trkpt lat="44.07378" lon="3.55161">
        <ele>1295</ele>
        <time>2013-07-07T07:44:58Z</time>
      </trkpt>
      <trkpt lat="44.07379" lon="3.55177">
        <ele>1296</ele>
        <time>2013-07-07T07:45:08Z</time>
      </trkpt>
      <trkpt lat="44.07376" lon="3.55196">
        <ele>1299</ele>
        <time>2013-07-07T07:45:23Z</time>
      </trkpt>
      <trkpt lat="44.07373" lon="3.55208">
        <ele>1299.4851468836</ele>
        <time>2013-07-07T07:45:30Z</time>
      </trkpt>
      <trkpt lat="44.07368" lon="3.55219">
        <ele>1300</ele>
        <time>2013-07-07T07:45:39Z</time>
      </trkpt>
      <trkpt lat="44.07366" lon="3.5523">
        <ele>1302</ele>
        <time>2013-07-07T07:45:45Z</time>
      </trkpt>
      <trkpt lat="44.07369" lon="3.55247">
        <ele>1305</ele>
        <time>2013-07-07T07:45:54Z</time>
      </trkpt>
      <trkpt lat="44.0737" lon="3.55265">
        <ele>1305</ele>
        <time>2013-07-07T07:45:58Z</time>
      </trkpt>
      <trkpt lat="44.07369" lon="3.55281">
        <ele>1302</ele>
        <time>2013-07-07T07:46:01Z</time>
      </trkpt>
      <trkpt lat="44.07366" lon="3.55297">
        <ele>1300</ele>
        <time>2013-07-07T07:46:07Z</time>
      </trkpt>
      <trkpt lat="44.0736" lon="3.55308">
        <ele>1296.5242705175</ele>
        <time>2013-07-07T07:46:15Z</time>
      </trkpt>
      <trkpt lat="44.07356" lon="3.55317">
        <ele>1293</ele>
        <time>2013-07-07T07:46:21Z</time>
      </trkpt>
      <trkpt lat="44.07354" lon="3.5533">
        <ele>1291</ele>
        <time>2013-07-07T07:46:26Z</time>
      </trkpt>
      <trkpt lat="44.07354" lon="3.55345">
        <ele>1289</ele>
        <time>2013-07-07T07:46:32Z</time>
      </trkpt>
      <trkpt lat="44.07354" lon="3.55365">
        <ele>1285</ele>
        <time>2013-07-07T07:46:39Z</time>
      </trkpt>
      <trkpt lat="44.07353" lon="3.55385">
        <ele>1278</ele>
        <time>2013-07-07T07:46:45Z</time>
      </trkpt>
      <trkpt lat="44.07351" lon="3.55404">
        <ele>1275</ele>
        <time>2013-07-07T07:46:51Z</time>
      </trkpt>
      <trkpt lat="44.07348" lon="3.55424">
        <ele>1270</ele>
        <time>2013-07-07T07:46:57Z</time>
      </trkpt>
      <trkpt lat="44.07341" lon="3.55442">
        <ele>1269</ele>
        <time>2013-07-07T07:47:02Z</time>
      </trkpt>
      <trkpt lat="44.07335" lon="3.55461">
        <ele>1268</ele>
        <time>2013-07-07T07:47:07Z</time>
      </trkpt>
      <trkpt lat="44.07332" lon="3.5548">
        <ele>1267</ele>
        <time>2013-07-07T07:47:11Z</time>
      </trkpt>
      <trkpt lat="44.07327" lon="3.55499">
        <ele>1267</ele>
        <time>2013-07-07T07:47:15Z</time>
      </trkpt>
      <trkpt lat="44.07323" lon="3.55521">
        <ele>1268</ele>
        <time>2013-07-07T07:47:21Z</time>
      </trkpt>
      <trkpt lat="44.07317" lon="3.55544">
        <ele>1268</ele>
        <time>2013-07-07T07:47:29Z</time>
      </trkpt>
      <trkpt lat="44.07317" lon="3.55566">
        <ele>1270</ele>
        <time>2013-07-07T07:47:36Z</time>
      </trkpt>
      <trkpt lat="44.07309" lon="3.55584">
        <ele>1274.4851468836</ele>
        <time>2013-07-07T07:47:45Z</time>
      </trkpt>
      <trkpt lat="44.07304" lon="3.55603">
        <ele>1278.9702937673</ele>
        <time>2013-07-07T07:48:00Z</time>
      </trkpt>
      <trkpt lat="44.073" lon="3.55619">
        <ele>1281</ele>
        <time>2013-07-07T07:48:11Z</time>
      </trkpt>
      <trkpt lat="44.07296" lon="3.55635">
        <ele>1283</ele>
        <time>2013-07-07T07:48:23Z</time>
      </trkpt>
      <trkpt lat="44.0729" lon="3.55653">
        <ele>1288.4851468836</ele>
        <time>2013-07-07T07:48:40Z</time>
      </trkpt>
      <trkpt lat="44.07288" lon="3.5567">
        <ele>1290</ele>
        <time>2013-07-07T07:48:54Z</time>
      </trkpt>
      <trkpt lat="44.07285" lon="3.55689">
        <ele>1294</ele>
        <time>2013-07-07T07:49:07Z</time>
      </trkpt>
      <trkpt lat="44.07279" lon="3.55706">
        <ele>1295</ele>
        <time>2013-07-07T07:49:18Z</time>
      </trkpt>
      <trkpt lat="44.07274" lon="3.55724">
        <ele>1297.96</ele>
        <time>2013-07-07T07:49:30Z</time>
      </trkpt>
      <trkpt lat="44.07274" lon="3.5574">
        <ele>1301</ele>
        <time>2013-07-07T07:49:42Z</time>
      </trkpt>
      <trkpt lat="44.07271" lon="3.55758">
        <ele>1303</ele>
        <time>2013-07-07T07:49:56Z</time>
      </trkpt>
      <trkpt lat="44.07266" lon="3.55776">
        <ele>1307</ele>
        <time>2013-07-07T07:50:07Z</time>
      </trkpt>
      <trkpt lat="44.07263" lon="3.55793">
        <ele>1308</ele>
        <time>2013-07-07T07:50:15Z</time>
      </trkpt>
      <trkpt lat="44.07261" lon="3.55807">
        <ele>1310</ele>
        <time>2013-07-07T07:50:22Z</time>
      </trkpt>
      <trkpt lat="44.07258" lon="3.55825">
        <ele>1310</ele>
        <time>2013-07-07T07:50:29Z</time>
      </trkpt>
      <trkpt lat="44.07256" lon="3.55842">
        <ele>1312</ele>
        <time>2013-07-07T07:50:35Z</time>
      </trkpt>
      <trkpt lat="44.07252" lon="3.5586">
        <ele>1313</ele>
        <time>2013-07-07T07:50:41Z</time>
      </trkpt>
      <trkpt lat="44.07249" lon="3.55875">
        <ele>1313</ele>
        <time>2013-07-07T07:50:47Z</time>
      </trkpt>
      <trkpt lat="44.07243" lon="3.55891">
        <ele>1314</ele>
        <time>2013-07-07T07:50:53Z</time>
      </trkpt>
      <trkpt lat="44.07238" lon="3.55905">
        <ele>1314</ele>
        <time>2013-07-07T07:50:58Z</time>
      </trkpt>
      <trkpt lat="44.07232" lon="3.55919">
        <ele>1312</ele>
        <time>2013-07-07T07:51:03Z</time>
      </trkpt>
      <trkpt lat="44.07224" lon="3.55933">
        <ele>1312</ele>
        <time>2013-07-07T07:51:08Z</time>
      </trkpt>
      <trkpt lat="44.07218" lon="3.55947">
        <ele>1310</ele>
        <time>2013-07-07T07:51:13Z</time>
      </trkpt>
      <trkpt lat="44.0721" lon="3.55961">
        <ele>1310</ele>
        <time>2013-07-07T07:51:18Z</time>
      </trkpt>
      <trkpt lat="44.07201" lon="3.55976">
        <ele>1307</ele>
        <time>2013-07-07T07:51:23Z</time>
      </trkpt>
      <trkpt lat="44.07192" lon="3.5599">
        <ele>1306</ele>
        <time>2013-07-07T07:51:28Z</time>
      </trkpt>
      <trkpt lat="44.07186" lon="3.56005">
        <ele>1304</ele>
        <time>2013-07-07T07:51:33Z</time>
      </trkpt>
      <trkpt lat="44.07178" lon="3.56018">
        <ele>1303</ele>
        <time>2013-07-07T07:51:37Z</time>
      </trkpt>
      <trkpt lat="44.0717" lon="3.56031">
        <ele>1302</ele>
        <time>2013-07-07T07:51:41Z</time>
      </trkpt>
      <trkpt lat="44.07163" lon="3.56044">
        <ele>1302</ele>
        <time>2013-07-07T07:51:45Z</time>
      </trkpt>
      <trkpt lat="44.07151" lon="3.56054">
        <ele>1301.6263819732</ele>
        <time>2013-07-07T07:51:50Z</time>
      </trkpt>
      <trkpt lat="44.07136" lon="3.56056">
        <ele>1301</ele>
        <time>2013-07-07T07:51:56Z</time>
      </trkpt>
      <trkpt lat="44.07122" lon="3.56063">
        <ele>1300</ele>
        <time>2013-07-07T07:52:01Z</time>
      </trkpt>
      <trkpt lat="44.07107" lon="3.56068">
        <ele>1300</ele>
        <time>2013-07-07T07:52:06Z</time>
      </trkpt>
      <trkpt lat="44.07094" lon="3.56075">
        <ele>1301</ele>
        <time>2013-07-07T07:52:11Z</time>
      </trkpt>
      <trkpt lat="44.07077" lon="3.56081">
        <ele>1301</ele>
        <time>2013-07-07T07:52:17Z</time>
      </trkpt>
      <trkpt lat="44.07061" lon="3.56091">
        <ele>1301</ele>
        <time>2013-07-07T07:52:24Z</time>
      </trkpt>
      <trkpt lat="44.07045" lon="3.561">
        <ele>1303</ele>
        <time>2013-07-07T07:52:32Z</time>
      </trkpt>
      <trkpt lat="44.07027" lon="3.56107">
        <ele>1303</ele>
        <time>2013-07-07T07:52:41Z</time>
      </trkpt>
      <trkpt lat="44.07012" lon="3.56115">
        <ele>1303</ele>
        <time>2013-07-07T07:52:48Z</time>
      </trkpt>
      <trkpt lat="44.06994" lon="3.56119">
        <ele>1303</ele>
        <time>2013-07-07T07:52:56Z</time>
      </trkpt>
      <trkpt lat="44.06977" lon="3.5612">
        <ele>1303</ele>
        <time>2013-07-07T07:53:03Z</time>
      </trkpt>
      <trkpt lat="44.06957" lon="3.56118">
        <ele>1303</ele>
        <time>2013-07-07T07:53:11Z</time>
      </trkpt>
      <trkpt lat="44.06939" lon="3.56118">
        <ele>1303</ele>
        <time>2013-07-07T07:53:17Z</time>
      </trkpt>
      <trkpt lat="44.06922" lon="3.56119">
        <ele>1304</ele>
        <time>2013-07-07T07:53:23Z</time>
      </trkpt>
      <trkpt lat="44.06905" lon="3.56115">
        <ele>1304</ele>
        <time>2013-07-07T07:53:31Z</time>
      </trkpt>
      <trkpt lat="44.0689" lon="3.56112">
        <ele>1304</ele>
        <time>2013-07-07T07:53:37Z</time>
      </trkpt>
      <trkpt lat="44.06872" lon="3.56107">
        <ele>1305</ele>
        <time>2013-07-07T07:53:44Z</time>
      </trkpt>
      <trkpt lat="44.06856" lon="3.56101">
        <ele>1305.3912904348</ele>
        <time>2013-07-07T07:53:50Z</time>
      </trkpt>
      <trkpt lat="44.06841" lon="3.56097">
        <ele>1307</ele>
        <time>2013-07-07T07:53:56Z</time>
      </trkpt>
      <trkpt lat="44.06827" lon="3.56096">
        <ele>1307</ele>
        <time>2013-07-07T07:54:02Z</time>
      </trkpt>
      <trkpt lat="44.06814" lon="3.56095">
        <ele>1307</ele>
        <time>2013-07-07T07:54:07Z</time>
      </trkpt>
      <trkpt lat="44.068" lon="3.56094">
        <ele>1307</ele>
        <time>2013-07-07T07:54:13Z</time>
      </trkpt>
      <trkpt lat="44.06787" lon="3.56098">
        <ele>1306</ele>
        <time>2013-07-07T07:54:21Z</time>
      </trkpt>
      <trkpt lat="44.06774" lon="3.56103">
        <ele>1306</ele>
        <time>2013-07-07T07:54:26Z</time>
      </trkpt>
      <trkpt lat="44.06763" lon="3.56112">
        <ele>1305</ele>
        <time>2013-07-07T07:54:32Z</time>
      </trkpt>
      <trkpt lat="44.06748" lon="3.56116">
        <ele>1305</ele>
        <time>2013-07-07T07:54:38Z</time>
      </trkpt>
      <trkpt lat="44.06732" lon="3.56125">
        <ele>1304</ele>
        <time>2013-07-07T07:54:44Z</time>
      </trkpt>
      <trkpt lat="44.06719" lon="3.56135">
        <ele>1304</ele>
        <time>2013-07-07T07:54:50Z</time>
      </trkpt>
      <trkpt lat="44.06705" lon="3.5615">
        <ele>1304</ele>
        <time>2013-07-07T07:54:56Z</time>
      </trkpt>
      <trkpt lat="44.06696" lon="3.56168">
        <ele>1304</ele>
        <time>2013-07-07T07:55:01Z</time>
      </trkpt>
      <trkpt lat="44.06689" lon="3.56185">
        <ele>1304</ele>
        <time>2013-07-07T07:55:06Z</time>
      </trkpt>
      <trkpt lat="44.06682" lon="3.56204">
        <ele>1304</ele>
        <time>2013-07-07T07:55:12Z</time>
      </trkpt>
      <trkpt lat="44.06679" lon="3.56223">
        <ele>1304</ele>
        <time>2013-07-07T07:55:19Z</time>
      </trkpt>
      <trkpt lat="44.06675" lon="3.56239">
        <ele>1303</ele>
        <time>2013-07-07T07:55:23Z</time>
      </trkpt>
      <trkpt lat="44.06668" lon="3.56254">
        <ele>1303</ele>
        <time>2013-07-07T07:55:27Z</time>
      </trkpt>
      <trkpt lat="44.06659" lon="3.56269">
        <ele>1303</ele>
        <time>2013-07-07T07:55:32Z</time>
      </trkpt>
      <trkpt lat="44.06649" lon="3.56284">
        <ele>1303</ele>
        <time>2013-07-07T07:55:37Z</time>
      </trkpt>
      <trkpt lat="44.0664" lon="3.56301">
        <ele>1304</ele>
        <time>2013-07-07T07:55:42Z</time>
      </trkpt>
      <trkpt lat="44.06631" lon="3.56321">
        <ele>1304</ele>
        <time>2013-07-07T07:55:48Z</time>
      </trkpt>
      <trkpt lat="44.06627" lon="3.56337">
        <ele>1304</ele>
        <time>2013-07-07T07:55:53Z</time>
      </trkpt>
      <trkpt lat="44.06624" lon="3.56359">
        <ele>1304</ele>
        <time>2013-07-07T07:56:01Z</time>
      </trkpt>
      <trkpt lat="44.06628" lon="3.56381">
        <ele>1304.4851468836</ele>
        <time>2013-07-07T07:56:08Z</time>
      </trkpt>
      <trkpt lat="44.06635" lon="3.56404">
        <ele>1305</ele>
        <time>2013-07-07T07:56:16Z</time>
      </trkpt>
      <trkpt lat="44.06639" lon="3.56433">
        <ele>1304</ele>
        <time>2013-07-07T07:56:23Z</time>
      </trkpt>
      <trkpt lat="44.06638" lon="3.56456">
        <ele>1304</ele>
        <time>2013-07-07T07:56:30Z</time>
      </trkpt>
      <trkpt lat="44.06624" lon="3.56472">
        <ele>1304</ele>
        <time>2013-07-07T07:56:37Z</time>
      </trkpt>
      <trkpt lat="44.06611" lon="3.56483">
        <ele>1304</ele>
        <time>2013-07-07T07:56:43Z</time>
      </trkpt>
      <trkpt lat="44.06601" lon="3.56499">
        <ele>1304</ele>
        <time>2013-07-07T07:56:48Z</time>
      </trkpt>
      <trkpt lat="44.06594" lon="3.56516">
        <ele>1305</ele>
        <time>2013-07-07T07:56:53Z</time>
      </trkpt>
      <trkpt lat="44.06589" lon="3.56533">
        <ele>1305</ele>
        <time>2013-07-07T07:56:58Z</time>
      </trkpt>
      <trkpt lat="44.06583" lon="3.56554">
        <ele>1305</ele>
        <time>2013-07-07T07:57:05Z</time>
      </trkpt>
      <trkpt lat="44.06581" lon="3.56575">
        <ele>1305</ele>
        <time>2013-07-07T07:57:11Z</time>
      </trkpt>
      <trkpt lat="44.06577" lon="3.56595">
        <ele>1305</ele>
        <time>2013-07-07T07:57:16Z</time>
      </trkpt>
      <trkpt lat="44.06576" lon="3.56614">
        <ele>1305</ele>
        <time>2013-07-07T07:57:21Z</time>
      </trkpt>
      <trkpt lat="44.06582" lon="3.56634">
        <ele>1305</ele>
        <time>2013-07-07T07:57:26Z</time>
      </trkpt>
      <trkpt lat="44.06591" lon="3.56651">
        <ele>1304</ele>
        <time>2013-07-07T07:57:32Z</time>
      </trkpt>
      <trkpt lat="44.06603" lon="3.56666">
        <ele>1304</ele>
        <time>2013-07-07T07:57:39Z</time>
      </trkpt>
      <trkpt lat="44.06615" lon="3.56678">
        <ele>1304</ele>
        <time>2013-07-07T07:57:45Z</time>
      </trkpt>
      <trkpt lat="44.06627" lon="3.56688">
        <ele>1304</ele>
        <time>2013-07-07T07:57:50Z</time>
      </trkpt>
      <trkpt lat="44.06639" lon="3.56682">
        <ele>1304</ele>
        <time>2013-07-07T07:57:56Z</time>
      </trkpt>
      <trkpt lat="44.06651" lon="3.56675">
        <ele>1304</ele>
        <time>2013-07-07T07:58:01Z</time>
      </trkpt>
      <trkpt lat="44.06663" lon="3.56663">
        <ele>1304</ele>
        <time>2013-07-07T07:58:07Z</time>
      </trkpt>
      <trkpt lat="44.06674" lon="3.56652">
        <ele>1305</ele>
        <time>2013-07-07T07:58:13Z</time>
      </trkpt>
      <trkpt lat="44.06686" lon="3.56639">
        <ele>1305.4851468836</ele>
        <time>2013-07-07T07:58:20Z</time>
      </trkpt>
      <trkpt lat="44.06697" lon="3.56624">
        <ele>1307</ele>
        <time>2013-07-07T07:58:26Z</time>
      </trkpt>
      <trkpt lat="44.06709" lon="3.56614">
        <ele>1308</ele>
        <time>2013-07-07T07:58:31Z</time>
      </trkpt>
      <trkpt lat="44.06724" lon="3.56609">
        <ele>1308</ele>
        <time>2013-07-07T07:58:38Z</time>
      </trkpt>
      <trkpt lat="44.0674" lon="3.56604">
        <ele>1308</ele>
        <time>2013-07-07T07:58:45Z</time>
      </trkpt>
      <trkpt lat="44.06756" lon="3.56601">
        <ele>1309</ele>
        <time>2013-07-07T07:58:52Z</time>
      </trkpt>
      <trkpt lat="44.06772" lon="3.56598">
        <ele>1309</ele>
        <time>2013-07-07T07:58:58Z</time>
      </trkpt>
      <trkpt lat="44.06792" lon="3.56591">
        <ele>1308</ele>
        <time>2013-07-07T07:59:04Z</time>
      </trkpt>
      <trkpt lat="44.06809" lon="3.56592">
        <ele>1308</ele>
        <time>2013-07-07T07:59:10Z</time>
      </trkpt>
      <trkpt lat="44.06827" lon="3.56597">
        <ele>1308</ele>
        <time>2013-07-07T07:59:18Z</time>
      </trkpt>
      <trkpt lat="44.06844" lon="3.566">
        <ele>1308</ele>
        <time>2013-07-07T07:59:25Z</time>
      </trkpt>
      <trkpt lat="44.06858" lon="3.56603">
        <ele>1308</ele>
        <time>2013-07-07T07:59:33Z</time>
      </trkpt>
      <trkpt lat="44.06872" lon="3.56608">
        <ele>1308</ele>
        <time>2013-07-07T07:59:38Z</time>
      </trkpt>
      <trkpt lat="44.06886" lon="3.56613">
        <ele>1309</ele>
        <time>2013-07-07T07:59:44Z</time>
      </trkpt>
      <trkpt lat="44.06904" lon="3.56615">
        <ele>1309</ele>
        <time>2013-07-07T07:59:52Z</time>
      </trkpt>
      <trkpt lat="44.0692" lon="3.56619">
        <ele>1309</ele>
        <time>2013-07-07T07:59:58Z</time>
      </trkpt>
      <trkpt lat="44.06939" lon="3.56628">
        <ele>1309</ele>
        <time>2013-07-07T08:00:04Z</time>
      </trkpt>
      <trkpt lat="44.06954" lon="3.56638">
        <ele>1309</ele>
        <time>2013-07-07T08:00:10Z</time>
      </trkpt>
      <trkpt lat="44.06968" lon="3.56643">
        <ele>1309</ele>
        <time>2013-07-07T08:00:16Z</time>
      </trkpt>
      <trkpt lat="44.06983" lon="3.56648">
        <ele>1308</ele>
        <time>2013-07-07T08:00:23Z</time>
      </trkpt>
      <trkpt lat="44.06998" lon="3.56653">
        <ele>1308</ele>
        <time>2013-07-07T08:00:29Z</time>
      </trkpt>
      <trkpt lat="44.07012" lon="3.56656">
        <ele>1308</ele>
        <time>2013-07-07T08:00:34Z</time>
      </trkpt>
      <trkpt lat="44.07024" lon="3.56659">
        <ele>1308</ele>
        <time>2013-07-07T08:00:38Z</time>
      </trkpt>
      <trkpt lat="44.07039" lon="3.56666">
        <ele>1307</ele>
        <time>2013-07-07T08:00:43Z</time>
      </trkpt>
      <trkpt lat="44.07054" lon="3.56666">
        <ele>1307</ele>
        <time>2013-07-07T08:00:49Z</time>
      </trkpt>
      <trkpt lat="44.07072" lon="3.56661">
        <ele>1303.2400128</ele>
        <time>2013-07-07T08:00:55Z</time>
      </trkpt>
      <trkpt lat="44.0709" lon="3.56656">
        <ele>1301.2277139888</ele>
        <time>2013-07-07T08:01:00Z</time>
      </trkpt>
      <trkpt lat="44.07108" lon="3.56654">
        <ele>1299.2400128</ele>
        <time>2013-07-07T08:01:05Z</time>
      </trkpt>
      <trkpt lat="44.07126" lon="3.56649">
        <ele>1297.2399872</ele>
        <time>2013-07-07T08:01:10Z</time>
      </trkpt>
      <trkpt lat="44.07145" lon="3.5664">
        <ele>1293</ele>
        <time>2013-07-07T08:01:16Z</time>
      </trkpt>
      <trkpt lat="44.07164" lon="3.5663">
        <ele>1292</ele>
        <time>2013-07-07T08:01:22Z</time>
      </trkpt>
      <trkpt lat="44.07183" lon="3.56621">
        <ele>1289</ele>
        <time>2013-07-07T08:01:27Z</time>
      </trkpt>
      <trkpt lat="44.072" lon="3.56605">
        <ele>1287</ele>
        <time>2013-07-07T08:01:33Z</time>
      </trkpt>
      <trkpt lat="44.07217" lon="3.56593">
        <ele>1285</ele>
        <time>2013-07-07T08:01:38Z</time>
      </trkpt>
      <trkpt lat="44.07231" lon="3.56573">
        <ele>1281.8416090031</ele>
        <time>2013-07-07T08:01:45Z</time>
      </trkpt>
      <trkpt lat="44.07239" lon="3.56554">
        <ele>1278</ele>
        <time>2013-07-07T08:01:52Z</time>
      </trkpt>
      <trkpt lat="44.07254" lon="3.56539">
        <ele>1272</ele>
        <time>2013-07-07T08:02:01Z</time>
      </trkpt>
      <trkpt lat="44.0727" lon="3.56537">
        <ele>1269.633665374</ele>
        <time>2013-07-07T08:02:09Z</time>
      </trkpt>
      <trkpt lat="44.07286" lon="3.56527">
        <ele>1269</ele>
        <time>2013-07-07T08:02:17Z</time>
      </trkpt>
      <trkpt lat="44.07302" lon="3.56527">
        <ele>1268</ele>
        <time>2013-07-07T08:02:23Z</time>
      </trkpt>
      <trkpt lat="44.07315" lon="3.56517">
        <ele>1266.8415709832</ele>
        <time>2013-07-07T08:02:30Z</time>
      </trkpt>
      <trkpt lat="44.07329" lon="3.56509">
        <ele>1263</ele>
        <time>2013-07-07T08:02:36Z</time>
      </trkpt>
      <trkpt lat="44.07343" lon="3.56499">
        <ele>1261</ele>
        <time>2013-07-07T08:02:42Z</time>
      </trkpt>
      <trkpt lat="44.07356" lon="3.56491">
        <ele>1259</ele>
        <time>2013-07-07T08:02:48Z</time>
      </trkpt>
      <trkpt lat="44.07367" lon="3.56479">
        <ele>1258</ele>
        <time>2013-07-07T08:02:54Z</time>
      </trkpt>
      <trkpt lat="44.07378" lon="3.56467">
        <ele>1257</ele>
        <time>2013-07-07T08:02:59Z</time>
      </trkpt>
      <trkpt lat="44.07389" lon="3.56452">
        <ele>1254</ele>
        <time>2013-07-07T08:03:05Z</time>
      </trkpt>
      <trkpt lat="44.074" lon="3.56438">
        <ele>1253</ele>
        <time>2013-07-07T08:03:11Z</time>
      </trkpt>
      <trkpt lat="44.07409" lon="3.56424">
        <ele>1253</ele>
        <time>2013-07-07T08:03:16Z</time>
      </trkpt>
      <trkpt lat="44.0742" lon="3.56409">
        <ele>1249</ele>
        <time>2013-07-07T08:03:22Z</time>
      </trkpt>
      <trkpt lat="44.07431" lon="3.564">
        <ele>1246</ele>
        <time>2013-07-07T08:03:27Z</time>
      </trkpt>
      <trkpt lat="44.07443" lon="3.56388">
        <ele>1245</ele>
        <time>2013-07-07T08:03:34Z</time>
      </trkpt>
      <trkpt lat="44.07456" lon="3.56381">
        <ele>1241</ele>
        <time>2013-07-07T08:03:41Z</time>
      </trkpt>
      <trkpt lat="44.07471" lon="3.56368">
        <ele>1241</ele>
        <time>2013-07-07T08:03:49Z</time>
      </trkpt>
      <trkpt lat="44.07486" lon="3.56357">
        <ele>1240</ele>
        <time>2013-07-07T08:03:57Z</time>
      </trkpt>
      <trkpt lat="44.07501" lon="3.56347">
        <ele>1236</ele>
        <time>2013-07-07T08:04:03Z</time>
      </trkpt>
      <trkpt lat="44.07515" lon="3.56339">
        <ele>1234</ele>
        <time>2013-07-07T08:04:09Z</time>
      </trkpt>
      <trkpt lat="44.0753" lon="3.56332">
        <ele>1232.6213650147</ele>
        <time>2013-07-07T08:04:15Z</time>
      </trkpt>
      <trkpt lat="44.07545" lon="3.56325">
        <ele>1230</ele>
        <time>2013-07-07T08:04:21Z</time>
      </trkpt>
      <trkpt lat="44.07563" lon="3.56317">
        <ele>1228</ele>
        <time>2013-07-07T08:04:28Z</time>
      </trkpt>
      <trkpt lat="44.07584" lon="3.56311">
        <ele>1226</ele>
        <time>2013-07-07T08:04:34Z</time>
      </trkpt>
      <trkpt lat="44.07602" lon="3.56305">
        <ele>1224</ele>
        <time>2013-07-07T08:04:41Z</time>
      </trkpt>
      <trkpt lat="44.0762" lon="3.56299">
        <ele>1225</ele>
        <time>2013-07-07T08:04:48Z</time>
      </trkpt>
      <trkpt lat="44.07637" lon="3.56292">
        <ele>1219</ele>
        <time>2013-07-07T08:04:56Z</time>
      </trkpt>
      <trkpt lat="44.07654" lon="3.56286">
        <ele>1219</ele>
        <time>2013-07-07T08:05:04Z</time>
      </trkpt>
      <trkpt lat="44.07674" lon="3.56282">
        <ele>1218</ele>
        <time>2013-07-07T08:05:12Z</time>
      </trkpt>
      <trkpt lat="44.07691" lon="3.5627">
        <ele>1218</ele>
        <time>2013-07-07T08:05:19Z</time>
      </trkpt>
      <trkpt lat="44.07705" lon="3.56258">
        <ele>1218</ele>
        <time>2013-07-07T08:05:25Z</time>
      </trkpt>
      <trkpt lat="44.0772" lon="3.56241">
        <ele>1217</ele>
        <time>2013-07-07T08:05:33Z</time>
      </trkpt>
      <trkpt lat="44.07724" lon="3.56218">
        <ele>1216.2399872</ele>
        <time>2013-07-07T08:05:40Z</time>
      </trkpt>
      <trkpt lat="44.07731" lon="3.56196">
        <ele>1215</ele>
        <time>2013-07-07T08:05:47Z</time>
      </trkpt>
      <trkpt lat="44.07743" lon="3.56178">
        <ele>1214</ele>
        <time>2013-07-07T08:05:54Z</time>
      </trkpt>
      <trkpt lat="44.07754" lon="3.56161">
        <ele>1213.2277139888</ele>
        <time>2013-07-07T08:06:00Z</time>
      </trkpt>
      <trkpt lat="44.07766" lon="3.56143">
        <ele>1212</ele>
        <time>2013-07-07T08:06:05Z</time>
      </trkpt>
      <trkpt lat="44.07783" lon="3.56128">
        <ele>1212</ele>
        <time>2013-07-07T08:06:10Z</time>
      </trkpt>
      <trkpt lat="44.07796" lon="3.56111">
        <ele>1212</ele>
        <time>2013-07-07T08:06:17Z</time>
      </trkpt>
      <trkpt lat="44.07815" lon="3.561">
        <ele>1211</ele>
        <time>2013-07-07T08:06:25Z</time>
      </trkpt>
      <trkpt lat="44.07828" lon="3.56083">
        <ele>1210</ele>
        <time>2013-07-07T08:06:33Z</time>
      </trkpt>
      <trkpt lat="44.07833" lon="3.56057">
        <ele>1210</ele>
        <time>2013-07-07T08:06:41Z</time>
      </trkpt>
      <trkpt lat="44.07833" lon="3.56032">
        <ele>1210</ele>
        <time>2013-07-07T08:06:49Z</time>
      </trkpt>
      <trkpt lat="44.07825" lon="3.56008">
        <ele>1210</ele>
        <time>2013-07-07T08:06:57Z</time>
      </trkpt>
      <trkpt lat="44.07817" lon="3.55986">
        <ele>1209</ele>
        <time>2013-07-07T08:07:04Z</time>
      </trkpt>
      <trkpt lat="44.07814" lon="3.55964">
        <ele>1209</ele>
        <time>2013-07-07T08:07:09Z</time>
      </trkpt>
      <trkpt lat="44.07812" lon="3.55939">
        <ele>1209</ele>
        <time>2013-07-07T08:07:15Z</time>
      </trkpt>
      <trkpt lat="44.07806" lon="3.55914">
        <ele>1209</ele>
        <time>2013-07-07T08:07:21Z</time>
      </trkpt>
      <trkpt lat="44.07801" lon="3.55893">
        <ele>1209</ele>
        <time>2013-07-07T08:07:27Z</time>
      </trkpt>
      <trkpt lat="44.07798" lon="3.55875">
        <ele>1209</ele>
        <time>2013-07-07T08:07:32Z</time>
      </trkpt>
      <trkpt lat="44.07794" lon="3.55852">
        <ele>1209</ele>
        <time>2013-07-07T08:07:39Z</time>
      </trkpt>
      <trkpt lat="44.07786" lon="3.5583">
        <ele>1208</ele>
        <time>2013-07-07T08:07:46Z</time>
      </trkpt>
      <trkpt lat="44.07778" lon="3.55808">
        <ele>1208</ele>
        <time>2013-07-07T08:07:53Z</time>
      </trkpt>
      <trkpt lat="44.07776" lon="3.55783">
        <ele>1207</ele>
        <time>2013-07-07T08:08:01Z</time>
      </trkpt>
      <trkpt lat="44.07783" lon="3.55759">
        <ele>1207</ele>
        <time>2013-07-07T08:08:08Z</time>
      </trkpt>
      <trkpt lat="44.07787" lon="3.55733">
        <ele>1207</ele>
        <time>2013-07-07T08:08:15Z</time>
      </trkpt>
      <trkpt lat="44.07784" lon="3.55708">
        <ele>1207</ele>
        <time>2013-07-07T08:08:22Z</time>
      </trkpt>
      <trkpt lat="44.07781" lon="3.5569">
        <ele>1207</ele>
        <time>2013-07-07T08:08:27Z</time>
      </trkpt>
      <trkpt lat="44.07779" lon="3.55671">
        <ele>1206</ele>
        <time>2013-07-07T08:08:32Z</time>
      </trkpt>
      <trkpt lat="44.07777" lon="3.55652">
        <ele>1206</ele>
        <time>2013-07-07T08:08:38Z</time>
      </trkpt>
      <trkpt lat="44.07778" lon="3.55633">
        <ele>1205</ele>
        <time>2013-07-07T08:08:43Z</time>
      </trkpt>
      <trkpt lat="44.07775" lon="3.55613">
        <ele>1205</ele>
        <time>2013-07-07T08:08:48Z</time>
      </trkpt>
      <trkpt lat="44.07774" lon="3.55592">
        <ele>1205</ele>
        <time>2013-07-07T08:08:54Z</time>
      </trkpt>
      <trkpt lat="44.07771" lon="3.55571">
        <ele>1205</ele>
        <time>2013-07-07T08:09:00Z</time>
      </trkpt>
      <trkpt lat="44.0777" lon="3.55552">
        <ele>1205</ele>
        <time>2013-07-07T08:09:06Z</time>
      </trkpt>
      <trkpt lat="44.07772" lon="3.55535">
        <ele>1205</ele>
        <time>2013-07-07T08:09:10Z</time>
      </trkpt>
      <trkpt lat="44.07776" lon="3.55514">
        <ele>1205</ele>
        <time>2013-07-07T08:09:17Z</time>
      </trkpt>
      <trkpt lat="44.07783" lon="3.5549">
        <ele>1205</ele>
        <time>2013-07-07T08:09:25Z</time>
      </trkpt>
      <trkpt lat="44.07796" lon="3.55471">
        <ele>1205</ele>
        <time>2013-07-07T08:09:31Z</time>
      </trkpt>
      <trkpt lat="44.07811" lon="3.55456">
        <ele>1205</ele>
        <time>2013-07-07T08:09:36Z</time>
      </trkpt>
      <trkpt lat="44.07826" lon="3.5544">
        <ele>1204</ele>
        <time>2013-07-07T08:09:43Z</time>
      </trkpt>
      <trkpt lat="44.07841" lon="3.55425">
        <ele>1203</ele>
        <time>2013-07-07T08:09:51Z</time>
      </trkpt>
      <trkpt lat="44.07859" lon="3.55421">
        <ele>1202.2277139888</ele>
        <time>2013-07-07T08:10:00Z</time>
      </trkpt>
      <trkpt lat="44.07875" lon="3.55409">
        <ele>1201</ele>
        <time>2013-07-07T08:10:06Z</time>
      </trkpt>
      <trkpt lat="44.07893" lon="3.55396">
        <ele>1202</ele>
        <time>2013-07-07T08:10:12Z</time>
      </trkpt>
      <trkpt lat="44.07912" lon="3.55398">
        <ele>1202</ele>
        <time>2013-07-07T08:10:21Z</time>
      </trkpt>
      <trkpt lat="44.07929" lon="3.55389">
        <ele>1201</ele>
        <time>2013-07-07T08:10:36Z</time>
      </trkpt>
      <trkpt lat="44.07939" lon="3.55376">
        <ele>1201</ele>
        <time>2013-07-07T08:10:42Z</time>
      </trkpt>
      <trkpt lat="44.07946" lon="3.55359">
        <ele>1201</ele>
        <time>2013-07-07T08:10:48Z</time>
      </trkpt>
      <trkpt lat="44.07956" lon="3.55346">
        <ele>1201</ele>
        <time>2013-07-07T08:10:54Z</time>
      </trkpt>
      <trkpt lat="44.0797" lon="3.5534">
        <ele>1203</ele>
        <time>2013-07-07T08:11:01Z</time>
      </trkpt>
      <trkpt lat="44.07985" lon="3.55344">
        <ele>1203.6000128</ele>
        <time>2013-07-07T08:11:10Z</time>
      </trkpt>
      <trkpt lat="44.07996" lon="3.55353">
        <ele>1208</ele>
        <time>2013-07-07T08:11:21Z</time>
      </trkpt>
      <trkpt lat="44.08007" lon="3.55357">
        <ele>1210</ele>
        <time>2013-07-07T08:11:31Z</time>
      </trkpt>
      <trkpt lat="44.08017" lon="3.55368">
        <ele>1212</ele>
        <time>2013-07-07T08:11:45Z</time>
      </trkpt>
      <trkpt lat="44.08028" lon="3.55377">
        <ele>1217</ele>
        <time>2013-07-07T08:11:59Z</time>
      </trkpt>
      <trkpt lat="44.08036" lon="3.55392">
        <ele>1220.3861430056</ele>
        <time>2013-07-07T08:12:10Z</time>
      </trkpt>
      <trkpt lat="44.08044" lon="3.55404">
        <ele>1223</ele>
        <time>2013-07-07T08:12:23Z</time>
      </trkpt>
      <trkpt lat="44.08051" lon="3.55417">
        <ele>1225</ele>
        <time>2013-07-07T08:12:37Z</time>
      </trkpt>
      <trkpt lat="44.08057" lon="3.5543">
        <ele>1228</ele>
        <time>2013-07-07T08:12:49Z</time>
      </trkpt>
      <trkpt lat="44.08057" lon="3.55447">
        <ele>1230.9702937673</ele>
        <time>2013-07-07T08:13:00Z</time>
      </trkpt>
      <trkpt lat="44.08055" lon="3.55464">
        <ele>1232</ele>
        <time>2013-07-07T08:13:06Z</time>
      </trkpt>
      <trkpt lat="44.08053" lon="3.55483">
        <ele>1233</ele>
        <time>2013-07-07T08:13:12Z</time>
      </trkpt>
      <trkpt lat="44.08049" lon="3.55501">
        <ele>1233</ele>
        <time>2013-07-07T08:13:18Z</time>
      </trkpt>
      <trkpt lat="44.08046" lon="3.55521">
        <ele>1235</ele>
        <time>2013-07-07T08:13:25Z</time>
      </trkpt>
      <trkpt lat="44.08049" lon="3.55539">
        <ele>1235</ele>
        <time>2013-07-07T08:13:31Z</time>
      </trkpt>
      <trkpt lat="44.08056" lon="3.5556">
        <ele>1235</ele>
        <time>2013-07-07T08:13:38Z</time>
      </trkpt>
      <trkpt lat="44.08052" lon="3.55584">
        <ele>1237</ele>
        <time>2013-07-07T08:13:46Z</time>
      </trkpt>
      <trkpt lat="44.08049" lon="3.55604">
        <ele>1237</ele>
        <time>2013-07-07T08:13:51Z</time>
      </trkpt>
      <trkpt lat="44.08047" lon="3.55625">
        <ele>1237</ele>
        <time>2013-07-07T08:13:57Z</time>
      </trkpt>
      <trkpt lat="44.08049" lon="3.55646">
        <ele>1238</ele>
        <time>2013-07-07T08:14:03Z</time>
      </trkpt>
      <trkpt lat="44.08053" lon="3.55666">
        <ele>1238</ele>
        <time>2013-07-07T08:14:09Z</time>
      </trkpt>
      <trkpt lat="44.08059" lon="3.55684">
        <ele>1239</ele>
        <time>2013-07-07T08:14:15Z</time>
      </trkpt>
      <trkpt lat="44.08071" lon="3.55695">
        <ele>1239</ele>
        <time>2013-07-07T08:14:20Z</time>
      </trkpt>
      <trkpt lat="44.08082" lon="3.55703">
        <ele>1239</ele>
        <time>2013-07-07T08:14:25Z</time>
      </trkpt>
      <trkpt lat="44.08095" lon="3.55708">
        <ele>1239</ele>
        <time>2013-07-07T08:14:30Z</time>
      </trkpt>
      <trkpt lat="44.08107" lon="3.55714">
        <ele>1239</ele>
        <time>2013-07-07T08:14:35Z</time>
      </trkpt>
      <trkpt lat="44.08117" lon="3.55725">
        <ele>1239</ele>
        <time>2013-07-07T08:14:39Z</time>
      </trkpt>
      <trkpt lat="44.08123" lon="3.5574">
        <ele>1239</ele>
        <time>2013-07-07T08:14:43Z</time>
      </trkpt>
      <trkpt lat="44.0813" lon="3.55757">
        <ele>1239</ele>
        <time>2013-07-07T08:14:48Z</time>
      </trkpt>
      <trkpt lat="44.08133" lon="3.55774">
        <ele>1239</ele>
        <time>2013-07-07T08:14:53Z</time>
      </trkpt>
      <trkpt lat="44.08132" lon="3.55791">
        <ele>1239</ele>
        <time>2013-07-07T08:14:58Z</time>
      </trkpt>
      <trkpt lat="44.08127" lon="3.55809">
        <ele>1240</ele>
        <time>2013-07-07T08:15:03Z</time>
      </trkpt>
      <trkpt lat="44.08123" lon="3.55827">
        <ele>1240</ele>
        <time>2013-07-07T08:15:09Z</time>
      </trkpt>
      <trkpt lat="44.0812" lon="3.55843">
        <ele>1241</ele>
        <time>2013-07-07T08:15:14Z</time>
      </trkpt>
      <trkpt lat="44.08118" lon="3.55858">
        <ele>1241</ele>
        <time>2013-07-07T08:15:19Z</time>
      </trkpt>
      <trkpt lat="44.08117" lon="3.55871">
        <ele>1241</ele>
        <time>2013-07-07T08:15:23Z</time>
      </trkpt>
      <trkpt lat="44.08118" lon="3.55884">
        <ele>1241</ele>
        <time>2013-07-07T08:15:27Z</time>
      </trkpt>
      <trkpt lat="44.08123" lon="3.55895">
        <ele>1242</ele>
        <time>2013-07-07T08:15:31Z</time>
      </trkpt>
      <trkpt lat="44.08129" lon="3.55906">
        <ele>1242</ele>
        <time>2013-07-07T08:15:35Z</time>
      </trkpt>
      <trkpt lat="44.08137" lon="3.55914">
        <ele>1242</ele>
        <time>2013-07-07T08:15:39Z</time>
      </trkpt>
      <trkpt lat="44.08146" lon="3.55926">
        <ele>1243</ele>
        <time>2013-07-07T08:15:44Z</time>
      </trkpt>
      <trkpt lat="44.08153" lon="3.55936">
        <ele>1243</ele>
        <time>2013-07-07T08:15:48Z</time>
      </trkpt>
      <trkpt lat="44.08162" lon="3.55945">
        <ele>1243</ele>
        <time>2013-07-07T08:15:52Z</time>
      </trkpt>
      <trkpt lat="44.08174" lon="3.55958">
        <ele>1243</ele>
        <time>2013-07-07T08:15:58Z</time>
      </trkpt>
      <trkpt lat="44.08186" lon="3.55962">
        <ele>1241</ele>
        <time>2013-07-07T08:16:04Z</time>
      </trkpt>
      <trkpt lat="44.08195" lon="3.55958">
        <ele>1241</ele>
        <time>2013-07-07T08:16:08Z</time>
      </trkpt>
      <trkpt lat="44.08208" lon="3.55953">
        <ele>1243</ele>
        <time>2013-07-07T08:16:14Z</time>
      </trkpt>
      <trkpt lat="44.0822" lon="3.55948">
        <ele>1243.3861430056</ele>
        <time>2013-07-07T08:16:20Z</time>
      </trkpt>
      <trkpt lat="44.08236" lon="3.55942">
        <ele>1246</ele>
        <time>2013-07-07T08:16:32Z</time>
      </trkpt>
      <trkpt lat="44.08253" lon="3.55947">
        <ele>1246.7722860112</ele>
        <time>2013-07-07T08:16:40Z</time>
      </trkpt>
      <trkpt lat="44.08268" lon="3.55952">
        <ele>1248</ele>
        <time>2013-07-07T08:16:46Z</time>
      </trkpt>
      <trkpt lat="44.08283" lon="3.55966">
        <ele>1248</ele>
        <time>2013-07-07T08:16:54Z</time>
      </trkpt>
      <trkpt lat="44.08298" lon="3.55981">
        <ele>1250</ele>
        <time>2013-07-07T08:17:02Z</time>
      </trkpt>
      <trkpt lat="44.08315" lon="3.55996">
        <ele>1250</ele>
        <time>2013-07-07T08:17:10Z</time>
      </trkpt>
      <trkpt lat="44.08327" lon="3.56003">
        <ele>1250</ele>
        <time>2013-07-07T08:17:15Z</time>
      </trkpt>
      <trkpt lat="44.08341" lon="3.56014">
        <ele>1250</ele>
        <time>2013-07-07T08:17:21Z</time>
      </trkpt>
      <trkpt lat="44.08352" lon="3.56022">
        <ele>1250</ele>
        <time>2013-07-07T08:17:26Z</time>
      </trkpt>
      <trkpt lat="44.08364" lon="3.5603">
        <ele>1250</ele>
        <time>2013-07-07T08:17:31Z</time>
      </trkpt>
      <trkpt lat="44.08377" lon="3.56036">
        <ele>1250</ele>
        <time>2013-07-07T08:17:36Z</time>
      </trkpt>
      <trkpt lat="44.08387" lon="3.56044">
        <ele>1251</ele>
        <time>2013-07-07T08:17:43Z</time>
      </trkpt>
      <trkpt lat="44.084" lon="3.56049">
        <ele>1251</ele>
        <time>2013-07-07T08:17:49Z</time>
      </trkpt>
      <trkpt lat="44.08413" lon="3.56046">
        <ele>1254</ele>
        <time>2013-07-07T08:18:01Z</time>
      </trkpt>
      <trkpt lat="44.08424" lon="3.56041">
        <ele>1257</ele>
        <time>2013-07-07T08:18:12Z</time>
      </trkpt>
      <trkpt lat="44.08437" lon="3.56033">
        <ele>1258</ele>
        <time>2013-07-07T08:18:23Z</time>
      </trkpt>
      <trkpt lat="44.08444" lon="3.56019">
        <ele>1259</ele>
        <time>2013-07-07T08:18:34Z</time>
      </trkpt>
      <trkpt lat="44.08442" lon="3.56003">
        <ele>1261</ele>
        <time>2013-07-07T08:18:48Z</time>
      </trkpt>
      <trkpt lat="44.08445" lon="3.55987">
        <ele>1263</ele>
        <time>2013-07-07T08:18:57Z</time>
      </trkpt>
      <trkpt lat="44.08456" lon="3.55973">
        <ele>1267</ele>
        <time>2013-07-07T08:19:08Z</time>
      </trkpt>
      <trkpt lat="44.08471" lon="3.55965">
        <ele>1267</ele>
        <time>2013-07-07T08:19:19Z</time>
      </trkpt>
      <trkpt lat="44.08489" lon="3.5596">
        <ele>1267</ele>
        <time>2013-07-07T08:19:27Z</time>
      </trkpt>
      <trkpt lat="44.08507" lon="3.5596">
        <ele>1268</ele>
        <time>2013-07-07T08:19:36Z</time>
      </trkpt>
      <trkpt lat="44.08526" lon="3.55954">
        <ele>1269</ele>
        <time>2013-07-07T08:19:45Z</time>
      </trkpt>
      <trkpt lat="44.08546" lon="3.55953">
        <ele>1270</ele>
        <time>2013-07-07T08:19:54Z</time>
      </trkpt>
      <trkpt lat="44.08564" lon="3.55959">
        <ele>1269.6138569944</ele>
        <time>2013-07-07T08:20:00Z</time>
      </trkpt>
      <trkpt lat="44.08582" lon="3.55957">
        <ele>1269</ele>
        <time>2013-07-07T08:20:06Z</time>
      </trkpt>
      <trkpt lat="44.08601" lon="3.55957">
        <ele>1270</ele>
        <time>2013-07-07T08:20:15Z</time>
      </trkpt>
      <trkpt lat="44.08618" lon="3.55962">
        <ele>1269.6138569944</ele>
        <time>2013-07-07T08:20:20Z</time>
      </trkpt>
      <trkpt lat="44.08634" lon="3.55964">
        <ele>1269</ele>
        <time>2013-07-07T08:20:25Z</time>
      </trkpt>
      <trkpt lat="44.08647" lon="3.55963">
        <ele>1268.2277139888</ele>
        <time>2013-07-07T08:20:30Z</time>
      </trkpt>
      <trkpt lat="44.0866" lon="3.55961">
        <ele>1268</ele>
        <time>2013-07-07T08:20:35Z</time>
      </trkpt>
      <trkpt lat="44.08675" lon="3.55952">
        <ele>1267</ele>
        <time>2013-07-07T08:20:42Z</time>
      </trkpt>
      <trkpt lat="44.08689" lon="3.55941">
        <ele>1267</ele>
        <time>2013-07-07T08:20:49Z</time>
      </trkpt>
      <trkpt lat="44.08704" lon="3.5593">
        <ele>1266</ele>
        <time>2013-07-07T08:20:56Z</time>
      </trkpt>
      <trkpt lat="44.08723" lon="3.55919">
        <ele>1264</ele>
        <time>2013-07-07T08:21:03Z</time>
      </trkpt>
      <trkpt lat="44.08739" lon="3.55906">
        <ele>1264</ele>
        <time>2013-07-07T08:21:08Z</time>
      </trkpt>
      <trkpt lat="44.08751" lon="3.55889">
        <ele>1262</ele>
        <time>2013-07-07T08:21:14Z</time>
      </trkpt>
      <trkpt lat="44.08764" lon="3.55872">
        <ele>1260.069284972</ele>
        <time>2013-07-07T08:21:20Z</time>
      </trkpt>
      <trkpt lat="44.0878" lon="3.55853">
        <ele>1255</ele>
        <time>2013-07-07T08:21:26Z</time>
      </trkpt>
      <trkpt lat="44.08796" lon="3.55836">
        <ele>1255</ele>
        <time>2013-07-07T08:21:33Z</time>
      </trkpt>
      <trkpt lat="44.08812" lon="3.55823">
        <ele>1252</ele>
        <time>2013-07-07T08:21:41Z</time>
      </trkpt>
      <trkpt lat="44.08827" lon="3.55806">
        <ele>1249</ele>
        <time>2013-07-07T08:21:48Z</time>
      </trkpt>
      <trkpt lat="44.0884" lon="3.55785">
        <ele>1248</ele>
        <time>2013-07-07T08:21:54Z</time>
      </trkpt>
      <trkpt lat="44.0885" lon="3.55764">
        <ele>1246.2277139888</ele>
        <time>2013-07-07T08:22:00Z</time>
      </trkpt>
      <trkpt lat="44.08856" lon="3.55746">
        <ele>1245</ele>
        <time>2013-07-07T08:22:05Z</time>
      </trkpt>
      <trkpt lat="44.08864" lon="3.5573">
        <ele>1244.6199936</ele>
        <time>2013-07-07T08:22:10Z</time>
      </trkpt>
      <trkpt lat="44.08872" lon="3.55715">
        <ele>1244</ele>
        <time>2013-07-07T08:22:15Z</time>
      </trkpt>
      <trkpt lat="44.08882" lon="3.55698">
        <ele>1243.6138569944</ele>
        <time>2013-07-07T08:22:20Z</time>
      </trkpt>
      <trkpt lat="44.0889" lon="3.55683">
        <ele>1243</ele>
        <time>2013-07-07T08:22:25Z</time>
      </trkpt>
      <trkpt lat="44.08899" lon="3.55666">
        <ele>1243</ele>
        <time>2013-07-07T08:22:30Z</time>
      </trkpt>
      <trkpt lat="44.08907" lon="3.55646">
        <ele>1243</ele>
        <time>2013-07-07T08:22:36Z</time>
      </trkpt>
      <trkpt lat="44.0892" lon="3.55629">
        <ele>1241</ele>
        <time>2013-07-07T08:22:43Z</time>
      </trkpt>
      <trkpt lat="44.08932" lon="3.55608">
        <ele>1241.7391304348</ele>
        <time>2013-07-07T08:22:50Z</time>
      </trkpt>
      <trkpt lat="44.08939" lon="3.55584">
        <ele>1241</ele>
        <time>2013-07-07T08:22:56Z</time>
      </trkpt>
      <trkpt lat="44.08945" lon="3.55558">
        <ele>1241</ele>
        <time>2013-07-07T08:23:03Z</time>
      </trkpt>
      <trkpt lat="44.08949" lon="3.55538">
        <ele>1241.3800064</ele>
        <time>2013-07-07T08:23:10Z</time>
      </trkpt>
      <trkpt lat="44.08957" lon="3.55517">
        <ele>1242</ele>
        <time>2013-07-07T08:23:16Z</time>
      </trkpt>
      <trkpt lat="44.08962" lon="3.55501">
        <ele>1241.6138569944</ele>
        <time>2013-07-07T08:23:20Z</time>
      </trkpt>
      <trkpt lat="44.08963" lon="3.55485">
        <ele>1241</ele>
        <time>2013-07-07T08:23:24Z</time>
      </trkpt>
      <trkpt lat="44.08971" lon="3.55478">
        <ele>1241</ele>
        <time>2013-07-07T08:23:28Z</time>
      </trkpt>
      <trkpt lat="44.08981" lon="3.55477">
        <ele>1240</ele>
        <time>2013-07-07T08:23:32Z</time>
      </trkpt>
      <trkpt lat="44.0899" lon="3.55478">
        <ele>1240</ele>
        <time>2013-07-07T08:23:35Z</time>
      </trkpt>
      <trkpt lat="44.08999" lon="3.55477">
        <ele>1240</ele>
        <time>2013-07-07T08:23:38Z</time>
      </trkpt>
      <trkpt lat="44.09008" lon="3.55475">
        <ele>1239</ele>
        <time>2013-07-07T08:23:41Z</time>
      </trkpt>
      <trkpt lat="44.09014" lon="3.55473">
        <ele>1239</ele>
        <time>2013-07-07T08:23:46Z</time>
      </trkpt>
      <trkpt lat="44.09018" lon="3.5548">
        <ele>1238.2277139888</ele>
        <time>2013-07-07T08:24:00Z</time>
      </trkpt>
      <trkpt lat="44.09024" lon="3.55486">
        <ele>1237</ele>
        <time>2013-07-07T08:24:03Z</time>
      </trkpt>
      <trkpt lat="44.09031" lon="3.55491">
        <ele>1237</ele>
        <time>2013-07-07T08:24:06Z</time>
      </trkpt>
      <trkpt lat="44.09038" lon="3.55495">
        <ele>1237</ele>
        <time>2013-07-07T08:24:09Z</time>
      </trkpt>
      <trkpt lat="44.09046" lon="3.55499">
        <ele>1237</ele>
        <time>2013-07-07T08:24:12Z</time>
      </trkpt>
      <trkpt lat="44.09054" lon="3.55503">
        <ele>1237</ele>
        <time>2013-07-07T08:24:15Z</time>
      </trkpt>
      <trkpt lat="44.09061" lon="3.55506">
        <ele>1237</ele>
        <time>2013-07-07T08:24:18Z</time>
      </trkpt>
      <trkpt lat="44.0907" lon="3.55509">
        <ele>1238</ele>
        <time>2013-07-07T08:24:21Z</time>
      </trkpt>
      <trkpt lat="44.09082" lon="3.55515">
        <ele>1238</ele>
        <time>2013-07-07T08:24:26Z</time>
      </trkpt>
      <trkpt lat="44.09095" lon="3.55517">
        <ele>1238</ele>
        <time>2013-07-07T08:24:32Z</time>
      </trkpt>
      <trkpt lat="44.09106" lon="3.55512">
        <ele>1238</ele>
        <time>2013-07-07T08:24:39Z</time>
      </trkpt>
      <trkpt lat="44.09118" lon="3.55507">
        <ele>1238</ele>
        <time>2013-07-07T08:24:46Z</time>
      </trkpt>
      <trkpt lat="44.09132" lon="3.55504">
        <ele>1239</ele>
        <time>2013-07-07T08:24:54Z</time>
      </trkpt>
      <trkpt lat="44.09147" lon="3.555">
        <ele>1239.7722860112</ele>
        <time>2013-07-07T08:25:00Z</time>
      </trkpt>
      <trkpt lat="44.09161" lon="3.55496">
        <ele>1241</ele>
        <time>2013-07-07T08:25:07Z</time>
      </trkpt>
      <trkpt lat="44.09175" lon="3.55489">
        <ele>1241</ele>
        <time>2013-07-07T08:25:15Z</time>
      </trkpt>
      <trkpt lat="44.09189" lon="3.55479">
        <ele>1242</ele>
        <time>2013-07-07T08:25:23Z</time>
      </trkpt>
      <trkpt lat="44.09202" lon="3.55468">
        <ele>1242.3861430056</ele>
        <time>2013-07-07T08:25:30Z</time>
      </trkpt>
      <trkpt lat="44.09214" lon="3.55456">
        <ele>1243</ele>
        <time>2013-07-07T08:25:36Z</time>
      </trkpt>
      <trkpt lat="44.09224" lon="3.55443">
        <ele>1243</ele>
        <time>2013-07-07T08:25:40Z</time>
      </trkpt>
      <trkpt lat="44.09233" lon="3.55432">
        <ele>1243</ele>
        <time>2013-07-07T08:25:44Z</time>
      </trkpt>
      <trkpt lat="44.09246" lon="3.55423">
        <ele>1243</ele>
        <time>2013-07-07T08:25:50Z</time>
      </trkpt>
      <trkpt lat="44.09258" lon="3.55415">
        <ele>1243</ele>
        <time>2013-07-07T08:25:55Z</time>
      </trkpt>
      <trkpt lat="44.09271" lon="3.55407">
        <ele>1243.3861430056</ele>
        <time>2013-07-07T08:26:00Z</time>
      </trkpt>
      <trkpt lat="44.09284" lon="3.55402">
        <ele>1244</ele>
        <time>2013-07-07T08:26:06Z</time>
      </trkpt>
      <trkpt lat="44.09297" lon="3.55395">
        <ele>1245</ele>
        <time>2013-07-07T08:26:12Z</time>
      </trkpt>
      <trkpt lat="44.09309" lon="3.55389">
        <ele>1245</ele>
        <time>2013-07-07T08:26:17Z</time>
      </trkpt>
      <trkpt lat="44.0932" lon="3.55385">
        <ele>1245</ele>
        <time>2013-07-07T08:26:20Z</time>
      </trkpt>
      <trkpt lat="44.09332" lon="3.55376">
        <ele>1245</ele>
        <time>2013-07-07T08:26:25Z</time>
      </trkpt>
      <trkpt lat="44.09342" lon="3.55369">
        <ele>1243.8415709832</ele>
        <time>2013-07-07T08:26:30Z</time>
      </trkpt>
      <trkpt lat="44.09355" lon="3.55363">
        <ele>1241</ele>
        <time>2013-07-07T08:26:36Z</time>
      </trkpt>
      <trkpt lat="44.09369" lon="3.55359">
        <ele>1240</ele>
        <time>2013-07-07T08:26:42Z</time>
      </trkpt>
      <trkpt lat="44.09383" lon="3.55356">
        <ele>1240</ele>
        <time>2013-07-07T08:26:48Z</time>
      </trkpt>
      <trkpt lat="44.09397" lon="3.55351">
        <ele>1238</ele>
        <time>2013-07-07T08:26:54Z</time>
      </trkpt>
      <trkpt lat="44.0941" lon="3.5534">
        <ele>1237.2277139888</ele>
        <time>2013-07-07T08:27:00Z</time>
      </trkpt>
      <trkpt lat="44.0942" lon="3.55326">
        <ele>1236</ele>
        <time>2013-07-07T08:27:06Z</time>
      </trkpt>
      <trkpt lat="44.09421" lon="3.55309">
        <ele>1238</ele>
        <time>2013-07-07T08:27:15Z</time>
      </trkpt>
      <trkpt lat="44.09414" lon="3.55292">
        <ele>1241</ele>
        <time>2013-07-07T08:27:23Z</time>
      </trkpt>
      <trkpt lat="44.09408" lon="3.55278">
        <ele>1241</ele>
        <time>2013-07-07T08:27:28Z</time>
      </trkpt>
      <trkpt lat="44.09405" lon="3.55261">
        <ele>1240</ele>
        <time>2013-07-07T08:27:34Z</time>
      </trkpt>
      <trkpt lat="44.094" lon="3.55246">
        <ele>1240</ele>
        <time>2013-07-07T08:27:38Z</time>
      </trkpt>
      <trkpt lat="44.09399" lon="3.5523">
        <ele>1239</ele>
        <time>2013-07-07T08:27:42Z</time>
      </trkpt>
      <trkpt lat="44.09398" lon="3.55213">
        <ele>1239</ele>
        <time>2013-07-07T08:27:49Z</time>
      </trkpt>
      <trkpt lat="44.09402" lon="3.55194">
        <ele>1240</ele>
        <time>2013-07-07T08:27:55Z</time>
      </trkpt>
      <trkpt lat="44.09415" lon="3.55183">
        <ele>1237</ele>
        <time>2013-07-07T08:28:04Z</time>
      </trkpt>
      <trkpt lat="44.09425" lon="3.55172">
        <ele>1236.2399872</ele>
        <time>2013-07-07T08:28:10Z</time>
      </trkpt>
      <trkpt lat="44.09435" lon="3.55161">
        <ele>1235</ele>
        <time>2013-07-07T08:28:16Z</time>
      </trkpt>
      <trkpt lat="44.09448" lon="3.55157">
        <ele>1231</ele>
        <time>2013-07-07T08:28:22Z</time>
      </trkpt>
      <trkpt lat="44.0946" lon="3.55157">
        <ele>1229</ele>
        <time>2013-07-07T08:28:26Z</time>
      </trkpt>
      <trkpt lat="44.0947" lon="3.55163">
        <ele>1229</ele>
        <time>2013-07-07T08:28:29Z</time>
      </trkpt>
      <trkpt lat="44.09484" lon="3.55156">
        <ele>1224</ele>
        <time>2013-07-07T08:28:39Z</time>
      </trkpt>
      <trkpt lat="44.09495" lon="3.55141">
        <ele>1223</ele>
        <time>2013-07-07T08:28:44Z</time>
      </trkpt>
      <trkpt lat="44.09507" lon="3.55127">
        <ele>1224</ele>
        <time>2013-07-07T08:28:50Z</time>
      </trkpt>
      <trkpt lat="44.09521" lon="3.55115">
        <ele>1224</ele>
        <time>2013-07-07T08:28:55Z</time>
      </trkpt>
      <trkpt lat="44.09536" lon="3.55104">
        <ele>1222</ele>
        <time>2013-07-07T08:29:01Z</time>
      </trkpt>
      <trkpt lat="44.09549" lon="3.55094">
        <ele>1222</ele>
        <time>2013-07-07T08:29:06Z</time>
      </trkpt>
      <trkpt lat="44.09561" lon="3.55082">
        <ele>1222</ele>
        <time>2013-07-07T08:29:11Z</time>
      </trkpt>
      <trkpt lat="44.09568" lon="3.55066">
        <ele>1222</ele>
        <time>2013-07-07T08:29:16Z</time>
      </trkpt>
      <trkpt lat="44.09567" lon="3.55045">
        <ele>1220</ele>
        <time>2013-07-07T08:29:22Z</time>
      </trkpt>
      <trkpt lat="44.09559" lon="3.55028">
        <ele>1220</ele>
        <time>2013-07-07T08:29:27Z</time>
      </trkpt>
      <trkpt lat="44.09559" lon="3.55016">
        <ele>1219.6138569944</ele>
        <time>2013-07-07T08:29:30Z</time>
      </trkpt>
      <trkpt lat="44.09566" lon="3.55003">
        <ele>1219</ele>
        <time>2013-07-07T08:29:34Z</time>
      </trkpt>
      <trkpt lat="44.09578" lon="3.54998">
        <ele>1219</ele>
        <time>2013-07-07T08:29:39Z</time>
      </trkpt>
      <trkpt lat="44.09591" lon="3.54996">
        <ele>1217</ele>
        <time>2013-07-07T08:29:43Z</time>
      </trkpt>
      <trkpt lat="44.09605" lon="3.54997">
        <ele>1217</ele>
        <time>2013-07-07T08:29:47Z</time>
      </trkpt>
      <trkpt lat="44.09617" lon="3.54997">
        <ele>1216</ele>
        <time>2013-07-07T08:29:51Z</time>
      </trkpt>
      <trkpt lat="44.0963" lon="3.54996">
        <ele>1216</ele>
        <time>2013-07-07T08:29:55Z</time>
      </trkpt>
      <trkpt lat="44.09641" lon="3.54992">
        <ele>1216</ele>
        <time>2013-07-07T08:29:59Z</time>
      </trkpt>
      <trkpt lat="44.09653" lon="3.54988">
        <ele>1212</ele>
        <time>2013-07-07T08:30:03Z</time>
      </trkpt>
      <trkpt lat="44.09668" lon="3.54984">
        <ele>1212</ele>
        <time>2013-07-07T08:30:09Z</time>
      </trkpt>
      <trkpt lat="44.09684" lon="3.54978">
        <ele>1211</ele>
        <time>2013-07-07T08:30:16Z</time>
      </trkpt>
      <trkpt lat="44.097" lon="3.5497">
        <ele>1210</ele>
        <time>2013-07-07T08:30:24Z</time>
      </trkpt>
      <trkpt lat="44.09717" lon="3.54964">
        <ele>1209.6199936</ele>
        <time>2013-07-07T08:30:30Z</time>
      </trkpt>
      <trkpt lat="44.09734" lon="3.54961">
        <ele>1209</ele>
        <time>2013-07-07T08:30:35Z</time>
      </trkpt>
      <trkpt lat="44.09753" lon="3.54961">
        <ele>1207</ele>
        <time>2013-07-07T08:30:41Z</time>
      </trkpt>
      <trkpt lat="44.09772" lon="3.54959">
        <ele>1207</ele>
        <time>2013-07-07T08:30:48Z</time>
      </trkpt>
      <trkpt lat="44.09792" lon="3.5496">
        <ele>1206</ele>
        <time>2013-07-07T08:30:54Z</time>
      </trkpt>
      <trkpt lat="44.09807" lon="3.54956">
        <ele>1206</ele>
        <time>2013-07-07T08:30:59Z</time>
      </trkpt>
      <trkpt lat="44.09822" lon="3.54948">
        <ele>1203</ele>
        <time>2013-07-07T08:31:04Z</time>
      </trkpt>
      <trkpt lat="44.09836" lon="3.54935">
        <ele>1202.6237548475</ele>
        <time>2013-07-07T08:31:10Z</time>
      </trkpt>
      <trkpt lat="44.09852" lon="3.54923">
        <ele>1202</ele>
        <time>2013-07-07T08:31:17Z</time>
      </trkpt>
      <trkpt lat="44.0987" lon="3.54911">
        <ele>1202</ele>
        <time>2013-07-07T08:31:27Z</time>
      </trkpt>
      <trkpt lat="44.09885" lon="3.54919">
        <ele>1203</ele>
        <time>2013-07-07T08:31:35Z</time>
      </trkpt>
      <trkpt lat="44.09897" lon="3.54917">
        <ele>1206</ele>
        <time>2013-07-07T08:31:44Z</time>
      </trkpt>
      <trkpt lat="44.09907" lon="3.54908">
        <ele>1209</ele>
        <time>2013-07-07T08:31:52Z</time>
      </trkpt>
      <trkpt lat="44.0991" lon="3.54894">
        <ele>1209.3861430056</ele>
        <time>2013-07-07T08:32:00Z</time>
      </trkpt>
      <trkpt lat="44.09912" lon="3.54878">
        <ele>1210.7722860112</ele>
        <time>2013-07-07T08:32:10Z</time>
      </trkpt>
      <trkpt lat="44.09913" lon="3.54862">
        <ele>1213</ele>
        <time>2013-07-07T08:32:21Z</time>
      </trkpt>
      <trkpt lat="44.09915" lon="3.54847">
        <ele>1213</ele>
        <time>2013-07-07T08:32:29Z</time>
      </trkpt>
      <trkpt lat="44.09925" lon="3.54828">
        <ele>1217</ele>
        <time>2013-07-07T08:32:45Z</time>
      </trkpt>
      <trkpt lat="44.09939" lon="3.54811">
        <ele>1220.1700096</ele>
        <time>2013-07-07T08:33:00Z</time>
      </trkpt>
      <trkpt lat="44.09949" lon="3.54795">
        <ele>1224</ele>
        <time>2013-07-07T08:33:12Z</time>
      </trkpt>
      <trkpt lat="44.09962" lon="3.54775">
        <ele>1225</ele>
        <time>2013-07-07T08:33:28Z</time>
      </trkpt>
      <trkpt lat="44.09974" lon="3.54756">
        <ele>1228</ele>
        <time>2013-07-07T08:33:41Z</time>
      </trkpt>
      <trkpt lat="44.09988" lon="3.54742">
        <ele>1230</ele>
        <time>2013-07-07T08:33:54Z</time>
      </trkpt>
      <trkpt lat="44.09999" lon="3.54725">
        <ele>1233</ele>
        <time>2013-07-07T08:34:07Z</time>
      </trkpt>
      <trkpt lat="44.10013" lon="3.54714">
        <ele>1234</ele>
        <time>2013-07-07T08:34:16Z</time>
      </trkpt>
      <trkpt lat="44.10026" lon="3.54698">
        <ele>1235</ele>
        <time>2013-07-07T08:34:27Z</time>
      </trkpt>
      <trkpt lat="44.1004" lon="3.54683">
        <ele>1235</ele>
        <time>2013-07-07T08:34:35Z</time>
      </trkpt>
      <trkpt lat="44.10052" lon="3.54663">
        <ele>1237</ele>
        <time>2013-07-07T08:34:45Z</time>
      </trkpt>
      <trkpt lat="44.10067" lon="3.54645">
        <ele>1238</ele>
        <time>2013-07-07T08:34:57Z</time>
      </trkpt>
      <trkpt lat="44.10081" lon="3.54628">
        <ele>1241</ele>
        <time>2013-07-07T08:35:07Z</time>
      </trkpt>
      <trkpt lat="44.10094" lon="3.54611">
        <ele>1242</ele>
        <time>2013-07-07T08:35:17Z</time>
      </trkpt>
      <trkpt lat="44.10107" lon="3.5459">
        <ele>1244</ele>
        <time>2013-07-07T08:35:33Z</time>
      </trkpt>
      <trkpt lat="44.1012" lon="3.54576">
        <ele>1246</ele>
        <time>2013-07-07T08:35:42Z</time>
      </trkpt>
      <trkpt lat="44.10133" lon="3.54566">
        <ele>1249</ele>
        <time>2013-07-07T08:35:51Z</time>
      </trkpt>
      <trkpt lat="44.10144" lon="3.5455">
        <ele>1250</ele>
        <time>2013-07-07T08:36:02Z</time>
      </trkpt>
      <trkpt lat="44.10154" lon="3.54532">
        <ele>1252.3861430056</ele>
        <time>2013-07-07T08:36:20Z</time>
      </trkpt>
      <trkpt lat="44.10164" lon="3.54518">
        <ele>1254.1584290168</ele>
        <time>2013-07-07T08:36:30Z</time>
      </trkpt>
      <trkpt lat="44.10174" lon="3.54502">
        <ele>1258</ele>
        <time>2013-07-07T08:36:43Z</time>
      </trkpt>
      <trkpt lat="44.10183" lon="3.54485">
        <ele>1259</ele>
        <time>2013-07-07T08:36:57Z</time>
      </trkpt>
      <trkpt lat="44.10192" lon="3.54467">
        <ele>1264</ele>
        <time>2013-07-07T08:37:08Z</time>
      </trkpt>
      <trkpt lat="44.10203" lon="3.54454">
        <ele>1266</ele>
        <time>2013-07-07T08:37:17Z</time>
      </trkpt>
      <trkpt lat="44.10207" lon="3.54437">
        <ele>1268.3899904</ele>
        <time>2013-07-07T08:37:25Z</time>
      </trkpt>
      <trkpt lat="44.10212" lon="3.54419">
        <ele>1270</ele>
        <time>2013-07-07T08:37:35Z</time>
      </trkpt>
      <trkpt lat="44.10217" lon="3.54401">
        <ele>1271</ele>
        <time>2013-07-07T08:37:44Z</time>
      </trkpt>
      <trkpt lat="44.10223" lon="3.54385">
        <ele>1273</ele>
        <time>2013-07-07T08:37:53Z</time>
      </trkpt>
      <trkpt lat="44.10225" lon="3.54367">
        <ele>1275</ele>
        <time>2013-07-07T08:38:03Z</time>
      </trkpt>
      <trkpt lat="44.10228" lon="3.54349">
        <ele>1276</ele>
        <time>2013-07-07T08:38:12Z</time>
      </trkpt>
      <trkpt lat="44.10232" lon="3.5433">
        <ele>1278</ele>
        <time>2013-07-07T08:38:22Z</time>
      </trkpt>
      <trkpt lat="44.10235" lon="3.54313">
        <ele>1281</ele>
        <time>2013-07-07T08:38:32Z</time>
      </trkpt>
      <trkpt lat="44.10237" lon="3.54294">
        <ele>1283</ele>
        <time>2013-07-07T08:38:41Z</time>
      </trkpt>
      <trkpt lat="44.10236" lon="3.54278">
        <ele>1282</ele>
        <time>2013-07-07T08:38:49Z</time>
      </trkpt>
      <trkpt lat="44.10232" lon="3.5426">
        <ele>1286</ele>
        <time>2013-07-07T08:39:02Z</time>
      </trkpt>
      <trkpt lat="44.10233" lon="3.54242">
        <ele>1287</ele>
        <time>2013-07-07T08:39:14Z</time>
      </trkpt>
      <trkpt lat="44.10241" lon="3.54224">
        <ele>1290</ele>
        <time>2013-07-07T08:39:26Z</time>
      </trkpt>
      <trkpt lat="44.10254" lon="3.54213">
        <ele>1291</ele>
        <time>2013-07-07T08:39:37Z</time>
      </trkpt>
      <trkpt lat="44.10268" lon="3.54203">
        <ele>1293</ele>
        <time>2013-07-07T08:39:44Z</time>
      </trkpt>
      <trkpt lat="44.10279" lon="3.5419">
        <ele>1295</ele>
        <time>2013-07-07T08:39:53Z</time>
      </trkpt>
      <trkpt lat="44.10288" lon="3.54179">
        <ele>1298</ele>
        <time>2013-07-07T08:40:02Z</time>
      </trkpt>
      <trkpt lat="44.10299" lon="3.54175">
        <ele>1299</ele>
        <time>2013-07-07T08:40:14Z</time>
      </trkpt>
      <trkpt lat="44.10309" lon="3.54182">
        <ele>1300</ele>
        <time>2013-07-07T08:40:21Z</time>
      </trkpt>
      <trkpt lat="44.10316" lon="3.54192">
        <ele>1300</ele>
        <time>2013-07-07T08:40:26Z</time>
      </trkpt>
      <trkpt lat="44.10322" lon="3.54201">
        <ele>1301</ele>
        <time>2013-07-07T08:40:31Z</time>
      </trkpt>
      <trkpt lat="44.10326" lon="3.54211">
        <ele>1301</ele>
        <time>2013-07-07T08:40:35Z</time>
      </trkpt>
      <trkpt lat="44.10331" lon="3.5422">
        <ele>1301.4851468836</ele>
        <time>2013-07-07T08:40:40Z</time>
      </trkpt>
      <trkpt lat="44.10333" lon="3.54206">
        <ele>1302</ele>
        <time>2013-07-07T08:40:49Z</time>
      </trkpt>
      <trkpt lat="44.1033" lon="3.54192">
        <ele>1304</ele>
        <time>2013-07-07T08:40:54Z</time>
      </trkpt>
      <trkpt lat="44.10329" lon="3.54178">
        <ele>1304</ele>
        <time>2013-07-07T08:40:58Z</time>
      </trkpt>
      <trkpt lat="44.10327" lon="3.54167">
        <ele>1305</ele>
        <time>2013-07-07T08:41:01Z</time>
      </trkpt>
      <trkpt lat="44.10329" lon="3.54156">
        <ele>1305</ele>
        <time>2013-07-07T08:41:04Z</time>
      </trkpt>
      <trkpt lat="44.10331" lon="3.54147">
        <ele>1305</ele>
        <time>2013-07-07T08:41:07Z</time>
      </trkpt>
      <trkpt lat="44.10331" lon="3.54136">
        <ele>1305</ele>
        <time>2013-07-07T08:41:11Z</time>
      </trkpt>
      <trkpt lat="44.10337" lon="3.54132">
        <ele>1305</ele>
        <time>2013-07-07T08:41:16Z</time>
      </trkpt>
      <trkpt lat="44.10344" lon="3.54132">
        <ele>1305.9702937673</ele>
        <time>2013-07-07T08:41:20Z</time>
      </trkpt>
      <trkpt lat="44.1035" lon="3.54132">
        <ele>1307</ele>
        <time>2013-07-07T08:41:24Z</time>
      </trkpt>
      <trkpt lat="44.10358" lon="3.54132">
        <ele>1308.4554406509</ele>
        <time>2013-07-07T08:41:30Z</time>
      </trkpt>
      <trkpt lat="44.10364" lon="3.54132">
        <ele>1310</ele>
        <time>2013-07-07T08:41:34Z</time>
      </trkpt>
      <trkpt lat="44.1037" lon="3.54133">
        <ele>1310</ele>
        <time>2013-07-07T08:41:38Z</time>
      </trkpt>
      <trkpt lat="44.10376" lon="3.54135">
        <ele>1310</ele>
        <time>2013-07-07T08:41:42Z</time>
      </trkpt>
      <trkpt lat="44.1038" lon="3.54137">
        <ele>1310</ele>
        <time>2013-07-07T08:41:46Z</time>
      </trkpt>
      <trkpt lat="44.10386" lon="3.54139">
        <ele>1312</ele>
        <time>2013-07-07T08:41:52Z</time>
      </trkpt>
      <trkpt lat="44.10394" lon="3.54143">
        <ele>1312</ele>
        <time>2013-07-07T08:41:59Z</time>
      </trkpt>
      <trkpt lat="44.10403" lon="3.54145">
        <ele>1316</ele>
        <time>2013-07-07T08:42:08Z</time>
      </trkpt>
      <trkpt lat="44.10411" lon="3.54147">
        <ele>1317</ele>
        <time>2013-07-07T08:42:15Z</time>
      </trkpt>
      <trkpt lat="44.10418" lon="3.5415">
        <ele>1318</ele>
        <time>2013-07-07T08:42:22Z</time>
      </trkpt>
      <trkpt lat="44.10427" lon="3.54154">
        <ele>1321</ele>
        <time>2013-07-07T08:42:32Z</time>
      </trkpt>
      <trkpt lat="44.10436" lon="3.54156">
        <ele>1324</ele>
        <time>2013-07-07T08:42:41Z</time>
      </trkpt>
      <trkpt lat="44.10444" lon="3.54159">
        <ele>1324.6734845813</ele>
        <time>2013-07-07T08:42:50Z</time>
      </trkpt>
      <trkpt lat="44.10451" lon="3.54163">
        <ele>1326</ele>
        <time>2013-07-07T08:42:58Z</time>
      </trkpt>
      <trkpt lat="44.1046" lon="3.54167">
        <ele>1328</ele>
        <time>2013-07-07T08:43:08Z</time>
      </trkpt>
      <trkpt lat="44.10469" lon="3.54169">
        <ele>1329</ele>
        <time>2013-07-07T08:43:19Z</time>
      </trkpt>
      <trkpt lat="44.10477" lon="3.54171">
        <ele>1333</ele>
        <time>2013-07-07T08:43:27Z</time>
      </trkpt>
      <trkpt lat="44.10484" lon="3.54173">
        <ele>1334</ele>
        <time>2013-07-07T08:43:34Z</time>
      </trkpt>
      <trkpt lat="44.10491" lon="3.54176">
        <ele>1334.4851468836</ele>
        <time>2013-07-07T08:43:40Z</time>
      </trkpt>
      <trkpt lat="44.10499" lon="3.54179">
        <ele>1335</ele>
        <time>2013-07-07T08:43:49Z</time>
      </trkpt>
      <trkpt lat="44.10507" lon="3.54182">
        <ele>1337</ele>
        <time>2013-07-07T08:43:57Z</time>
      </trkpt>
      <trkpt lat="44.10516" lon="3.54187">
        <ele>1341</ele>
        <time>2013-07-07T08:44:04Z</time>
      </trkpt>
      <trkpt lat="44.10525" lon="3.54191">
        <ele>1341</ele>
        <time>2013-07-07T08:44:12Z</time>
      </trkpt>
      <trkpt lat="44.10536" lon="3.54192">
        <ele>1343</ele>
        <time>2013-07-07T08:44:23Z</time>
      </trkpt>
      <trkpt lat="44.10546" lon="3.54196">
        <ele>1344</ele>
        <time>2013-07-07T08:44:36Z</time>
      </trkpt>
      <trkpt lat="44.10558" lon="3.54196">
        <ele>1346</ele>
        <time>2013-07-07T08:44:46Z</time>
      </trkpt>
      <trkpt lat="44.10571" lon="3.54199">
        <ele>1348</ele>
        <time>2013-07-07T08:44:53Z</time>
      </trkpt>
      <trkpt lat="44.10585" lon="3.54199">
        <ele>1348.366334626</ele>
        <time>2013-07-07T08:45:00Z</time>
      </trkpt>
      <trkpt lat="44.10596" lon="3.54202">
        <ele>1349</ele>
        <time>2013-07-07T08:45:06Z</time>
      </trkpt>
      <trkpt lat="44.10607" lon="3.54205">
        <ele>1351</ele>
        <time>2013-07-07T08:45:16Z</time>
      </trkpt>
      <trkpt lat="44.1062" lon="3.54208">
        <ele>1356.3861430056</ele>
        <time>2013-07-07T08:45:30Z</time>
      </trkpt>
      <trkpt lat="44.10632" lon="3.54211">
        <ele>1357</ele>
        <time>2013-07-07T08:45:38Z</time>
      </trkpt>
      <trkpt lat="44.10644" lon="3.54211">
        <ele>1358</ele>
        <time>2013-07-07T08:45:47Z</time>
      </trkpt>
      <trkpt lat="44.10655" lon="3.54213">
        <ele>1360</ele>
        <time>2013-07-07T08:45:55Z</time>
      </trkpt>
      <trkpt lat="44.10665" lon="3.54219">
        <ele>1360.3861430056</ele>
        <time>2013-07-07T08:46:00Z</time>
      </trkpt>
      <trkpt lat="44.10674" lon="3.54223">
        <ele>1361</ele>
        <time>2013-07-07T08:46:05Z</time>
      </trkpt>
      <trkpt lat="44.10682" lon="3.54227">
        <ele>1361</ele>
        <time>2013-07-07T08:46:09Z</time>
      </trkpt>
      <trkpt lat="44.10692" lon="3.54231">
        <ele>1363</ele>
        <time>2013-07-07T08:46:14Z</time>
      </trkpt>
      <trkpt lat="44.10701" lon="3.54236">
        <ele>1363</ele>
        <time>2013-07-07T08:46:20Z</time>
      </trkpt>
      <trkpt lat="44.10712" lon="3.54238">
        <ele>1363</ele>
        <time>2013-07-07T08:46:27Z</time>
      </trkpt>
      <trkpt lat="44.10721" lon="3.54242">
        <ele>1364</ele>
        <time>2013-07-07T08:46:31Z</time>
      </trkpt>
      <trkpt lat="44.1073" lon="3.54247">
        <ele>1364</ele>
        <time>2013-07-07T08:46:35Z</time>
      </trkpt>
      <trkpt lat="44.10738" lon="3.5425">
        <ele>1364</ele>
        <time>2013-07-07T08:46:39Z</time>
      </trkpt>
      <trkpt lat="44.10747" lon="3.54254">
        <ele>1366</ele>
        <time>2013-07-07T08:46:45Z</time>
      </trkpt>
      <trkpt lat="44.10756" lon="3.5426">
        <ele>1367</ele>
        <time>2013-07-07T08:46:51Z</time>
      </trkpt>
      <trkpt lat="44.10765" lon="3.54264">
        <ele>1367</ele>
        <time>2013-07-07T08:46:56Z</time>
      </trkpt>
      <trkpt lat="44.10775" lon="3.5427">
        <ele>1369</ele>
        <time>2013-07-07T08:47:03Z</time>
      </trkpt>
      <trkpt lat="44.10786" lon="3.54276">
        <ele>1369</ele>
        <time>2013-07-07T08:47:09Z</time>
      </trkpt>
      <trkpt lat="44.10794" lon="3.54285">
        <ele>1370</ele>
        <time>2013-07-07T08:47:14Z</time>
      </trkpt>
      <trkpt lat="44.10801" lon="3.54292">
        <ele>1370</ele>
        <time>2013-07-07T08:47:19Z</time>
      </trkpt>
      <trkpt lat="44.1081" lon="3.54298">
        <ele>1372</ele>
        <time>2013-07-07T08:47:23Z</time>
      </trkpt>
      <trkpt lat="44.10819" lon="3.54305">
        <ele>1372</ele>
        <time>2013-07-07T08:47:28Z</time>
      </trkpt>
      <trkpt lat="44.1083" lon="3.5431">
        <ele>1373</ele>
        <time>2013-07-07T08:47:35Z</time>
      </trkpt>
      <trkpt lat="44.1084" lon="3.54313">
        <ele>1374</ele>
        <time>2013-07-07T08:47:42Z</time>
      </trkpt>
      <trkpt lat="44.1085" lon="3.54314">
        <ele>1374.6122539608</ele>
        <time>2013-07-07T08:47:50Z</time>
      </trkpt>
      <trkpt lat="44.1086" lon="3.54315">
        <ele>1376</ele>
        <time>2013-07-07T08:47:57Z</time>
      </trkpt>
      <trkpt lat="44.10868" lon="3.54319">
        <ele>1377</ele>
        <time>2013-07-07T08:48:04Z</time>
      </trkpt>
      <trkpt lat="44.10877" lon="3.54325">
        <ele>1378</ele>
        <time>2013-07-07T08:48:12Z</time>
      </trkpt>
      <trkpt lat="44.10883" lon="3.54334">
        <ele>1378</ele>
        <time>2013-07-07T08:48:18Z</time>
      </trkpt>
      <trkpt lat="44.10889" lon="3.54342">
        <ele>1379</ele>
        <time>2013-07-07T08:48:24Z</time>
      </trkpt>
      <trkpt lat="44.10895" lon="3.54343">
        <ele>1379</ele>
        <time>2013-07-07T08:48:29Z</time>
      </trkpt>
      <trkpt lat="44.10902" lon="3.54341">
        <ele>1379</ele>
        <time>2013-07-07T08:48:34Z</time>
      </trkpt>
      <trkpt lat="44.10909" lon="3.5434">
        <ele>1379</ele>
        <time>2013-07-07T08:48:38Z</time>
      </trkpt>
      <trkpt lat="44.10918" lon="3.54338">
        <ele>1381</ele>
        <time>2013-07-07T08:48:43Z</time>
      </trkpt>
      <trkpt lat="44.10927" lon="3.5434">
        <ele>1381</ele>
        <time>2013-07-07T08:48:49Z</time>
      </trkpt>
      <trkpt lat="44.10937" lon="3.54345">
        <ele>1383</ele>
        <time>2013-07-07T08:48:56Z</time>
      </trkpt>
      <trkpt lat="44.10946" lon="3.54348">
        <ele>1385</ele>
        <time>2013-07-07T08:49:03Z</time>
      </trkpt>
      <trkpt lat="44.10953" lon="3.54354">
        <ele>1385</ele>
        <time>2013-07-07T08:49:08Z</time>
      </trkpt>
      <trkpt lat="44.10961" lon="3.5436">
        <ele>1386</ele>
        <time>2013-07-07T08:49:15Z</time>
      </trkpt>
      <trkpt lat="44.10968" lon="3.54365">
        <ele>1386.7722860112</ele>
        <time>2013-07-07T08:49:20Z</time>
      </trkpt>
      <trkpt lat="44.10974" lon="3.54372">
        <ele>1388</ele>
        <time>2013-07-07T08:49:26Z</time>
      </trkpt>
      <trkpt lat="44.10978" lon="3.54377">
        <ele>1388.7722860112</ele>
        <time>2013-07-07T08:49:30Z</time>
      </trkpt>
      <trkpt lat="44.10983" lon="3.54384">
        <ele>1390</ele>
        <time>2013-07-07T08:49:35Z</time>
      </trkpt>
      <trkpt lat="44.10988" lon="3.5439">
        <ele>1390</ele>
        <time>2013-07-07T08:49:39Z</time>
      </trkpt>
      <trkpt lat="44.10993" lon="3.54397">
        <ele>1391</ele>
        <time>2013-07-07T08:49:44Z</time>
      </trkpt>
      <trkpt lat="44.10997" lon="3.54404">
        <ele>1391</ele>
        <time>2013-07-07T08:49:49Z</time>
      </trkpt>
      <trkpt lat="44.11001" lon="3.54413">
        <ele>1393</ele>
        <time>2013-07-07T08:49:54Z</time>
      </trkpt>
      <trkpt lat="44.11006" lon="3.54419">
        <ele>1393</ele>
        <time>2013-07-07T08:49:59Z</time>
      </trkpt>
      <trkpt lat="44.11011" lon="3.54426">
        <ele>1394</ele>
        <time>2013-07-07T08:50:04Z</time>
      </trkpt>
      <trkpt lat="44.11016" lon="3.54434">
        <ele>1394.3861430056</ele>
        <time>2013-07-07T08:50:10Z</time>
      </trkpt>
      <trkpt lat="44.11022" lon="3.54441">
        <ele>1395</ele>
        <time>2013-07-07T08:50:15Z</time>
      </trkpt>
      <trkpt lat="44.1103" lon="3.54451">
        <ele>1395.3861430056</ele>
        <time>2013-07-07T08:50:20Z</time>
      </trkpt>
      <trkpt lat="44.11038" lon="3.54461">
        <ele>1396</ele>
        <time>2013-07-07T08:50:25Z</time>
      </trkpt>
      <trkpt lat="44.11045" lon="3.54473">
        <ele>1397</ele>
        <time>2013-07-07T08:50:31Z</time>
      </trkpt>
      <trkpt lat="44.11054" lon="3.54483">
        <ele>1397</ele>
        <time>2013-07-07T08:50:36Z</time>
      </trkpt>
      <trkpt lat="44.11062" lon="3.54495">
        <ele>1398</ele>
        <time>2013-07-07T08:50:43Z</time>
      </trkpt>
      <trkpt lat="44.11069" lon="3.54507">
        <ele>1400</ele>
        <time>2013-07-07T08:50:53Z</time>
      </trkpt>
      <trkpt lat="44.11078" lon="3.54513">
        <ele>1400</ele>
        <time>2013-07-07T08:50:59Z</time>
      </trkpt>
      <trkpt lat="44.11087" lon="3.54517">
        <ele>1401</ele>
        <time>2013-07-07T08:51:04Z</time>
      </trkpt>
      <trkpt lat="44.11096" lon="3.54521">
        <ele>1401.7722860112</ele>
        <time>2013-07-07T08:51:10Z</time>
      </trkpt>
      <trkpt lat="44.11105" lon="3.54523">
        <ele>1403</ele>
        <time>2013-07-07T08:51:16Z</time>
      </trkpt>
      <trkpt lat="44.11116" lon="3.54526">
        <ele>1405</ele>
        <time>2013-07-07T08:51:24Z</time>
      </trkpt>
      <trkpt lat="44.11125" lon="3.54528">
        <ele>1405</ele>
        <time>2013-07-07T08:51:28Z</time>
      </trkpt>
      <trkpt lat="44.11134" lon="3.5453">
        <ele>1405</ele>
        <time>2013-07-07T08:51:32Z</time>
      </trkpt>
      <trkpt lat="44.11144" lon="3.54532">
        <ele>1405</ele>
        <time>2013-07-07T08:51:36Z</time>
      </trkpt>
      <trkpt lat="44.11151" lon="3.54535">
        <ele>1406</ele>
        <time>2013-07-07T08:51:43Z</time>
      </trkpt>
      <trkpt lat="44.1116" lon="3.54537">
        <ele>1406</ele>
        <time>2013-07-07T08:51:47Z</time>
      </trkpt>
      <trkpt lat="44.11169" lon="3.54541">
        <ele>1406</ele>
        <time>2013-07-07T08:51:51Z</time>
      </trkpt>
      <trkpt lat="44.11181" lon="3.54546">
        <ele>1406</ele>
        <time>2013-07-07T08:51:59Z</time>
      </trkpt>
      <trkpt lat="44.11195" lon="3.54547">
        <ele>1405</ele>
        <time>2013-07-07T08:52:05Z</time>
      </trkpt>
      <trkpt lat="44.11207" lon="3.54549">
        <ele>1405</ele>
        <time>2013-07-07T08:52:10Z</time>
      </trkpt>
      <trkpt lat="44.11219" lon="3.5455">
        <ele>1405</ele>
        <time>2013-07-07T08:52:16Z</time>
      </trkpt>
      <trkpt lat="44.1123" lon="3.54549">
        <ele>1405</ele>
        <time>2013-07-07T08:52:21Z</time>
      </trkpt>
      <trkpt lat="44.11242" lon="3.54548">
        <ele>1405</ele>
        <time>2013-07-07T08:52:25Z</time>
      </trkpt>
      <trkpt lat="44.11253" lon="3.54546">
        <ele>1405</ele>
        <time>2013-07-07T08:52:30Z</time>
      </trkpt>
      <trkpt lat="44.11265" lon="3.54543">
        <ele>1405</ele>
        <time>2013-07-07T08:52:35Z</time>
      </trkpt>
      <trkpt lat="44.11276" lon="3.54539">
        <ele>1405.48</ele>
        <time>2013-07-07T08:52:40Z</time>
      </trkpt>
      <trkpt lat="44.11288" lon="3.54534">
        <ele>1406</ele>
        <time>2013-07-07T08:52:46Z</time>
      </trkpt>
      <trkpt lat="44.11302" lon="3.54525">
        <ele>1407</ele>
        <time>2013-07-07T08:52:53Z</time>
      </trkpt>
      <trkpt lat="44.11317" lon="3.54527">
        <ele>1407</ele>
        <time>2013-07-07T08:52:58Z</time>
      </trkpt>
      <trkpt lat="44.1133" lon="3.54535">
        <ele>1405</ele>
        <time>2013-07-07T08:53:02Z</time>
      </trkpt>
      <trkpt lat="44.1134" lon="3.5454">
        <ele>1405</ele>
        <time>2013-07-07T08:53:06Z</time>
      </trkpt>
      <trkpt lat="44.11349" lon="3.54546">
        <ele>1406</ele>
        <time>2013-07-07T08:53:11Z</time>
      </trkpt>
      <trkpt lat="44.11356" lon="3.5455">
        <ele>1406</ele>
        <time>2013-07-07T08:53:15Z</time>
      </trkpt>
      <trkpt lat="44.11365" lon="3.54553">
        <ele>1406</ele>
        <time>2013-07-07T08:53:19Z</time>
      </trkpt>
      <trkpt lat="44.11374" lon="3.54556">
        <ele>1407</ele>
        <time>2013-07-07T08:53:24Z</time>
      </trkpt>
      <trkpt lat="44.11385" lon="3.5456">
        <ele>1407</ele>
        <time>2013-07-07T08:53:29Z</time>
      </trkpt>
      <trkpt lat="44.11394" lon="3.54566">
        <ele>1409</ele>
        <time>2013-07-07T08:53:33Z</time>
      </trkpt>
      <trkpt lat="44.11405" lon="3.54575">
        <ele>1409</ele>
        <time>2013-07-07T08:53:38Z</time>
      </trkpt>
      <trkpt lat="44.11414" lon="3.54584">
        <ele>1407</ele>
        <time>2013-07-07T08:53:42Z</time>
      </trkpt>
      <trkpt lat="44.11425" lon="3.54591">
        <ele>1407</ele>
        <time>2013-07-07T08:53:46Z</time>
      </trkpt>
      <trkpt lat="44.11436" lon="3.54596">
        <ele>1406.1836788005</ele>
        <time>2013-07-07T08:53:50Z</time>
      </trkpt>
      <trkpt lat="44.11449" lon="3.54611">
        <ele>1405</ele>
        <time>2013-07-07T08:53:56Z</time>
      </trkpt>
      <trkpt lat="44.11455" lon="3.54629">
        <ele>1405</ele>
        <time>2013-07-07T08:54:01Z</time>
      </trkpt>
      <trkpt lat="44.1146" lon="3.54646">
        <ele>1405</ele>
        <time>2013-07-07T08:54:06Z</time>
      </trkpt>
      <trkpt lat="44.11468" lon="3.54661">
        <ele>1404</ele>
        <time>2013-07-07T08:54:11Z</time>
      </trkpt>
      <trkpt lat="44.11475" lon="3.54677">
        <ele>1404</ele>
        <time>2013-07-07T08:54:17Z</time>
      </trkpt>
      <trkpt lat="44.1148" lon="3.54694">
        <ele>1404</ele>
        <time>2013-07-07T08:54:24Z</time>
      </trkpt>
      <trkpt lat="44.11484" lon="3.54713">
        <ele>1406</ele>
        <time>2013-07-07T08:54:31Z</time>
      </trkpt>
      <trkpt lat="44.11491" lon="3.5473">
        <ele>1406</ele>
        <time>2013-07-07T08:54:38Z</time>
      </trkpt>
      <trkpt lat="44.11499" lon="3.54746">
        <ele>1408</ele>
        <time>2013-07-07T08:54:44Z</time>
      </trkpt>
      <trkpt lat="44.11507" lon="3.54761">
        <ele>1408</ele>
        <time>2013-07-07T08:54:50Z</time>
      </trkpt>
      <trkpt lat="44.11516" lon="3.54781">
        <ele>1408</ele>
        <time>2013-07-07T08:54:58Z</time>
      </trkpt>
      <trkpt lat="44.11522" lon="3.54801">
        <ele>1410.4455427978</ele>
        <time>2013-07-07T08:55:07Z</time>
      </trkpt>
      <trkpt lat="44.11531" lon="3.54816">
        <ele>1411</ele>
        <time>2013-07-07T08:55:14Z</time>
      </trkpt>
      <trkpt lat="44.11538" lon="3.54828">
        <ele>1411</ele>
        <time>2013-07-07T08:55:19Z</time>
      </trkpt>
      <trkpt lat="44.11547" lon="3.5484">
        <ele>1410</ele>
        <time>2013-07-07T08:55:24Z</time>
      </trkpt>
      <trkpt lat="44.11555" lon="3.54851">
        <ele>1410</ele>
        <time>2013-07-07T08:55:29Z</time>
      </trkpt>
      <trkpt lat="44.11563" lon="3.54862">
        <ele>1409</ele>
        <time>2013-07-07T08:55:34Z</time>
      </trkpt>
      <trkpt lat="44.1157" lon="3.54873">
        <ele>1409</ele>
        <time>2013-07-07T08:55:38Z</time>
      </trkpt>
      <trkpt lat="44.11578" lon="3.54884">
        <ele>1408</ele>
        <time>2013-07-07T08:55:42Z</time>
      </trkpt>
      <trkpt lat="44.11589" lon="3.54897">
        <ele>1408</ele>
        <time>2013-07-07T08:55:47Z</time>
      </trkpt>
      <trkpt lat="44.11598" lon="3.54911">
        <ele>1407</ele>
        <time>2013-07-07T08:55:52Z</time>
      </trkpt>
      <trkpt lat="44.11606" lon="3.54928">
        <ele>1407</ele>
        <time>2013-07-07T08:55:58Z</time>
      </trkpt>
      <trkpt lat="44.11619" lon="3.54944">
        <ele>1407</ele>
        <time>2013-07-07T08:56:05Z</time>
      </trkpt>
      <trkpt lat="44.11627" lon="3.54953">
        <ele>1409</ele>
        <time>2013-07-07T08:56:11Z</time>
      </trkpt>
      <trkpt lat="44.11635" lon="3.54961">
        <ele>1409.9702937673</ele>
        <time>2013-07-07T08:56:20Z</time>
      </trkpt>
      <trkpt lat="44.1164" lon="3.54969">
        <ele>1411</ele>
        <time>2013-07-07T08:56:26Z</time>
      </trkpt>
      <trkpt lat="44.11642" lon="3.54976">
        <ele>1411</ele>
        <time>2013-07-07T08:56:29Z</time>
      </trkpt>
      <trkpt lat="44.11645" lon="3.54985">
        <ele>1412</ele>
        <time>2013-07-07T08:56:32Z</time>
      </trkpt>
      <trkpt lat="44.11648" lon="3.54995">
        <ele>1412</ele>
        <time>2013-07-07T08:56:35Z</time>
      </trkpt>
      <trkpt lat="44.11651" lon="3.55005">
        <ele>1412</ele>
        <time>2013-07-07T08:56:38Z</time>
      </trkpt>
      <trkpt lat="44.11653" lon="3.55016">
        <ele>1412</ele>
        <time>2013-07-07T08:56:41Z</time>
      </trkpt>
      <trkpt lat="44.11655" lon="3.55028">
        <ele>1412</ele>
        <time>2013-07-07T08:56:44Z</time>
      </trkpt>
      <trkpt lat="44.11657" lon="3.55039">
        <ele>1412</ele>
        <time>2013-07-07T08:56:47Z</time>
      </trkpt>
      <trkpt lat="44.11658" lon="3.55049">
        <ele>1412</ele>
        <time>2013-07-07T08:56:50Z</time>
      </trkpt>
      <trkpt lat="44.11659" lon="3.5506">
        <ele>1412</ele>
        <time>2013-07-07T08:56:53Z</time>
      </trkpt>
      <trkpt lat="44.1166" lon="3.55071">
        <ele>1412</ele>
        <time>2013-07-07T08:56:56Z</time>
      </trkpt>
      <trkpt lat="44.1166" lon="3.55081">
        <ele>1412</ele>
        <time>2013-07-07T08:56:59Z</time>
      </trkpt>
      <trkpt lat="44.11662" lon="3.55101">
        <ele>1412</ele>
        <time>2013-07-07T08:57:05Z</time>
      </trkpt>
      <trkpt lat="44.11663" lon="3.55113">
        <ele>1412</ele>
        <time>2013-07-07T08:57:09Z</time>
      </trkpt>
      <trkpt lat="44.11664" lon="3.55123">
        <ele>1412</ele>
        <time>2013-07-07T08:57:13Z</time>
      </trkpt>
      <trkpt lat="44.11668" lon="3.55134">
        <ele>1412</ele>
        <time>2013-07-07T08:57:18Z</time>
      </trkpt>
      <trkpt lat="44.11672" lon="3.55143">
        <ele>1413</ele>
        <time>2013-07-07T08:57:22Z</time>
      </trkpt>
      <trkpt lat="44.11674" lon="3.55152">
        <ele>1413</ele>
        <time>2013-07-07T08:57:26Z</time>
      </trkpt>
      <trkpt lat="44.11675" lon="3.55163">
        <ele>1413.9702937673</ele>
        <time>2013-07-07T08:57:30Z</time>
      </trkpt>
      <trkpt lat="44.11674" lon="3.55174">
        <ele>1415</ele>
        <time>2013-07-07T08:57:34Z</time>
      </trkpt>
      <trkpt lat="44.1167" lon="3.55189">
        <ele>1415</ele>
        <time>2013-07-07T08:57:39Z</time>
      </trkpt>
      <trkpt lat="44.11668" lon="3.55202">
        <ele>1416</ele>
        <time>2013-07-07T08:57:43Z</time>
      </trkpt>
      <trkpt lat="44.11666" lon="3.55211">
        <ele>1416</ele>
        <time>2013-07-07T08:57:46Z</time>
      </trkpt>
      <trkpt lat="44.11661" lon="3.55222">
        <ele>1416</ele>
        <time>2013-07-07T08:57:50Z</time>
      </trkpt>
      <trkpt lat="44.11655" lon="3.5523">
        <ele>1416</ele>
        <time>2013-07-07T08:57:54Z</time>
      </trkpt>
      <trkpt lat="44.11649" lon="3.55239">
        <ele>1416</ele>
        <time>2013-07-07T08:57:58Z</time>
      </trkpt>
      <trkpt lat="44.11644" lon="3.55254">
        <ele>1415</ele>
        <time>2013-07-07T08:58:03Z</time>
      </trkpt>
      <trkpt lat="44.1164" lon="3.55275">
        <ele>1415</ele>
        <time>2013-07-07T08:58:10Z</time>
      </trkpt>
      <trkpt lat="44.11638" lon="3.55299">
        <ele>1415</ele>
        <time>2013-07-07T08:58:19Z</time>
      </trkpt>
      <trkpt lat="44.1165" lon="3.55316">
        <ele>1414</ele>
        <time>2013-07-07T08:58:26Z</time>
      </trkpt>
      <trkpt lat="44.11659" lon="3.55331">
        <ele>1412</ele>
        <time>2013-07-07T08:58:31Z</time>
      </trkpt>
      <trkpt lat="44.11667" lon="3.55343">
        <ele>1412</ele>
        <time>2013-07-07T08:58:35Z</time>
      </trkpt>
      <trkpt lat="44.11677" lon="3.55356">
        <ele>1411.52</ele>
        <time>2013-07-07T08:58:40Z</time>
      </trkpt>
      <trkpt lat="44.11684" lon="3.55374">
        <ele>1411</ele>
        <time>2013-07-07T08:58:48Z</time>
      </trkpt>
      <trkpt lat="44.1169" lon="3.55393">
        <ele>1412</ele>
        <time>2013-07-07T08:58:56Z</time>
      </trkpt>
      <trkpt lat="44.11697" lon="3.55412">
        <ele>1413</ele>
        <time>2013-07-07T08:59:04Z</time>
      </trkpt>
      <trkpt lat="44.11705" lon="3.55433">
        <ele>1413</ele>
        <time>2013-07-07T08:59:13Z</time>
      </trkpt>
      <trkpt lat="44.11713" lon="3.55454">
        <ele>1413.4851468836</ele>
        <time>2013-07-07T08:59:20Z</time>
      </trkpt>
      <trkpt lat="44.11722" lon="3.55475">
        <ele>1414</ele>
        <time>2013-07-07T08:59:26Z</time>
      </trkpt>
      <trkpt lat="44.11726" lon="3.55495">
        <ele>1416</ele>
        <time>2013-07-07T08:59:32Z</time>
      </trkpt>
      <trkpt lat="44.11726" lon="3.55507">
        <ele>1416</ele>
        <time>2013-07-07T08:59:36Z</time>
      </trkpt>
      <trkpt lat="44.11726" lon="3.55519">
        <ele>1416.4851468836</ele>
        <time>2013-07-07T08:59:40Z</time>
      </trkpt>
      <trkpt lat="44.11727" lon="3.55533">
        <ele>1417</ele>
        <time>2013-07-07T08:59:45Z</time>
      </trkpt>
      <trkpt lat="44.11721" lon="3.55547">
        <ele>1417</ele>
        <time>2013-07-07T08:59:50Z</time>
      </trkpt>
      <trkpt lat="44.11714" lon="3.55561">
        <ele>1417</ele>
        <time>2013-07-07T08:59:55Z</time>
      </trkpt>
      <trkpt lat="44.11711" lon="3.55579">
        <ele>1416</ele>
        <time>2013-07-07T09:00:01Z</time>
      </trkpt>
      <trkpt lat="44.11711" lon="3.55601">
        <ele>1416</ele>
        <time>2013-07-07T09:00:08Z</time>
      </trkpt>
      <trkpt lat="44.11713" lon="3.55619">
        <ele>1416</ele>
        <time>2013-07-07T09:00:15Z</time>
      </trkpt>
      <trkpt lat="44.11722" lon="3.55633">
        <ele>1416</ele>
        <time>2013-07-07T09:00:20Z</time>
      </trkpt>
      <trkpt lat="44.11731" lon="3.55644">
        <ele>1416</ele>
        <time>2013-07-07T09:00:24Z</time>
      </trkpt>
      <trkpt lat="44.1174" lon="3.55658">
        <ele>1416</ele>
        <time>2013-07-07T09:00:29Z</time>
      </trkpt>
      <trkpt lat="44.11748" lon="3.55668">
        <ele>1415</ele>
        <time>2013-07-07T09:00:34Z</time>
      </trkpt>
      <trkpt lat="44.11756" lon="3.55681">
        <ele>1415</ele>
        <time>2013-07-07T09:00:42Z</time>
      </trkpt>
      <trkpt lat="44.11761" lon="3.557">
        <ele>1415</ele>
        <time>2013-07-07T09:00:48Z</time>
      </trkpt>
      <trkpt lat="44.11765" lon="3.55723">
        <ele>1416</ele>
        <time>2013-07-07T09:00:55Z</time>
      </trkpt>
      <trkpt lat="44.11769" lon="3.55742">
        <ele>1415.04</ele>
        <time>2013-07-07T09:01:00Z</time>
      </trkpt>
      <trkpt lat="44.11775" lon="3.55764">
        <ele>1414</ele>
        <time>2013-07-07T09:01:07Z</time>
      </trkpt>
      <trkpt lat="44.11781" lon="3.55785">
        <ele>1414</ele>
        <time>2013-07-07T09:01:12Z</time>
      </trkpt>
      <trkpt lat="44.11784" lon="3.55805">
        <ele>1414</ele>
        <time>2013-07-07T09:01:18Z</time>
      </trkpt>
      <trkpt lat="44.11787" lon="3.55823">
        <ele>1414</ele>
        <time>2013-07-07T09:01:25Z</time>
      </trkpt>
      <trkpt lat="44.11789" lon="3.55837">
        <ele>1414</ele>
        <time>2013-07-07T09:01:30Z</time>
      </trkpt>
      <trkpt lat="44.11791" lon="3.55851">
        <ele>1414</ele>
        <time>2013-07-07T09:01:35Z</time>
      </trkpt>
      <trkpt lat="44.11793" lon="3.55865">
        <ele>1415</ele>
        <time>2013-07-07T09:01:41Z</time>
      </trkpt>
      <trkpt lat="44.11795" lon="3.55881">
        <ele>1415</ele>
        <time>2013-07-07T09:01:47Z</time>
      </trkpt>
      <trkpt lat="44.11798" lon="3.55896">
        <ele>1416</ele>
        <time>2013-07-07T09:01:53Z</time>
      </trkpt>
      <trkpt lat="44.118" lon="3.55912">
        <ele>1416</ele>
        <time>2013-07-07T09:01:59Z</time>
      </trkpt>
      <trkpt lat="44.11797" lon="3.55928">
        <ele>1417</ele>
        <time>2013-07-07T09:02:04Z</time>
      </trkpt>
      <trkpt lat="44.1179" lon="3.55941">
        <ele>1417</ele>
        <time>2013-07-07T09:02:09Z</time>
      </trkpt>
      <trkpt lat="44.11775" lon="3.55927">
        <ele>1417</ele>
        <time>2013-07-07T09:02:18Z</time>
      </trkpt>
      <trkpt lat="44.11771" lon="3.55912">
        <ele>1414</ele>
        <time>2013-07-07T09:02:23Z</time>
      </trkpt>
      <trkpt lat="44.11761" lon="3.55896">
        <ele>1413</ele>
        <time>2013-07-07T09:02:29Z</time>
      </trkpt>
      <trkpt lat="44.11752" lon="3.55885">
        <ele>1413</ele>
        <time>2013-07-07T09:02:34Z</time>
      </trkpt>
      <trkpt lat="44.11742" lon="3.55874">
        <ele>1413</ele>
        <time>2013-07-07T09:02:39Z</time>
      </trkpt>
      <trkpt lat="44.11733" lon="3.55859">
        <ele>1408.5445593491</ele>
        <time>2013-07-07T09:02:45Z</time>
      </trkpt>
      <trkpt lat="44.11726" lon="3.55848">
        <ele>1407</ele>
        <time>2013-07-07T09:02:49Z</time>
      </trkpt>
      <trkpt lat="44.1172" lon="3.55837">
        <ele>1406</ele>
        <time>2013-07-07T09:02:53Z</time>
      </trkpt>
      <trkpt lat="44.11711" lon="3.55823">
        <ele>1404</ele>
        <time>2013-07-07T09:02:58Z</time>
      </trkpt>
      <trkpt lat="44.11703" lon="3.5581">
        <ele>1402</ele>
        <time>2013-07-07T09:03:03Z</time>
      </trkpt>
      <trkpt lat="44.11694" lon="3.55827">
        <ele>1401</ele>
        <time>2013-07-07T09:03:14Z</time>
      </trkpt>
      <trkpt lat="44.11691" lon="3.55851">
        <ele>1399</ele>
        <time>2013-07-07T09:03:21Z</time>
      </trkpt>
      <trkpt lat="44.11689" lon="3.55871">
        <ele>1399</ele>
        <time>2013-07-07T09:03:27Z</time>
      </trkpt>
      <trkpt lat="44.11682" lon="3.55889">
        <ele>1395</ele>
        <time>2013-07-07T09:03:33Z</time>
      </trkpt>
      <trkpt lat="44.11679" lon="3.5591">
        <ele>1393</ele>
        <time>2013-07-07T09:03:39Z</time>
      </trkpt>
      <trkpt lat="44.11672" lon="3.55929">
        <ele>1391.5148531164</ele>
        <time>2013-07-07T09:03:45Z</time>
      </trkpt>
      <trkpt lat="44.11661" lon="3.55944">
        <ele>1392</ele>
        <time>2013-07-07T09:03:51Z</time>
      </trkpt>
      <trkpt lat="44.11654" lon="3.55957">
        <ele>1392</ele>
        <time>2013-07-07T09:03:56Z</time>
      </trkpt>
      <trkpt lat="44.11647" lon="3.55971">
        <ele>1391</ele>
        <time>2013-07-07T09:04:01Z</time>
      </trkpt>
      <trkpt lat="44.11636" lon="3.55985">
        <ele>1391</ele>
        <time>2013-07-07T09:04:07Z</time>
      </trkpt>
      <trkpt lat="44.11628" lon="3.55995">
        <ele>1391</ele>
        <time>2013-07-07T09:04:11Z</time>
      </trkpt>
      <trkpt lat="44.11618" lon="3.56003">
        <ele>1391</ele>
        <time>2013-07-07T09:04:15Z</time>
      </trkpt>
      <trkpt lat="44.11609" lon="3.5601">
        <ele>1391</ele>
        <time>2013-07-07T09:04:19Z</time>
      </trkpt>
      <trkpt lat="44.11598" lon="3.56014">
        <ele>1390</ele>
        <time>2013-07-07T09:04:24Z</time>
      </trkpt>
      <trkpt lat="44.11588" lon="3.56017">
        <ele>1390</ele>
        <time>2013-07-07T09:04:29Z</time>
      </trkpt>
      <trkpt lat="44.11576" lon="3.56016">
        <ele>1389</ele>
        <time>2013-07-07T09:04:35Z</time>
      </trkpt>
      <trkpt lat="44.11565" lon="3.56019">
        <ele>1389</ele>
        <time>2013-07-07T09:04:39Z</time>
      </trkpt>
      <trkpt lat="44.11553" lon="3.56029">
        <ele>1387</ele>
        <time>2013-07-07T09:04:44Z</time>
      </trkpt>
      <trkpt lat="44.11545" lon="3.56039">
        <ele>1386</ele>
        <time>2013-07-07T09:04:48Z</time>
      </trkpt>
      <trkpt lat="44.11535" lon="3.5605">
        <ele>1384</ele>
        <time>2013-07-07T09:04:53Z</time>
      </trkpt>
      <trkpt lat="44.11527" lon="3.5606">
        <ele>1384</ele>
        <time>2013-07-07T09:04:57Z</time>
      </trkpt>
      <trkpt lat="44.11517" lon="3.56072">
        <ele>1381</ele>
        <time>2013-07-07T09:05:01Z</time>
      </trkpt>
      <trkpt lat="44.1151" lon="3.56084">
        <ele>1381</ele>
        <time>2013-07-07T09:05:05Z</time>
      </trkpt>
      <trkpt lat="44.11504" lon="3.56095">
        <ele>1381</ele>
        <time>2013-07-07T09:05:09Z</time>
      </trkpt>
      <trkpt lat="44.11497" lon="3.56106">
        <ele>1380</ele>
        <time>2013-07-07T09:05:13Z</time>
      </trkpt>
      <trkpt lat="44.11492" lon="3.56115">
        <ele>1380</ele>
        <time>2013-07-07T09:05:17Z</time>
      </trkpt>
      <trkpt lat="44.11486" lon="3.56129">
        <ele>1377</ele>
        <time>2013-07-07T09:05:22Z</time>
      </trkpt>
      <trkpt lat="44.11482" lon="3.56142">
        <ele>1376.48</ele>
        <time>2013-07-07T09:05:26Z</time>
      </trkpt>
      <trkpt lat="44.11476" lon="3.56159">
        <ele>1375</ele>
        <time>2013-07-07T09:05:31Z</time>
      </trkpt>
      <trkpt lat="44.11473" lon="3.56172">
        <ele>1374.52</ele>
        <time>2013-07-07T09:05:35Z</time>
      </trkpt>
      <trkpt lat="44.11472" lon="3.56186">
        <ele>1374</ele>
        <time>2013-07-07T09:05:39Z</time>
      </trkpt>
      <trkpt lat="44.11476" lon="3.56207">
        <ele>1373</ele>
        <time>2013-07-07T09:05:47Z</time>
      </trkpt>
      <trkpt lat="44.11489" lon="3.56222">
        <ele>1370</ele>
        <time>2013-07-07T09:05:53Z</time>
      </trkpt>
      <trkpt lat="44.11501" lon="3.56235">
        <ele>1368</ele>
        <time>2013-07-07T09:05:59Z</time>
      </trkpt>
      <trkpt lat="44.11499" lon="3.56255">
        <ele>1368</ele>
        <time>2013-07-07T09:06:06Z</time>
      </trkpt>
      <trkpt lat="44.11486" lon="3.56266">
        <ele>1368</ele>
        <time>2013-07-07T09:06:12Z</time>
      </trkpt>
      <trkpt lat="44.1147" lon="3.56266">
        <ele>1368.4851468836</ele>
        <time>2013-07-07T09:06:20Z</time>
      </trkpt>
      <trkpt lat="44.11455" lon="3.56261">
        <ele>1369</ele>
        <time>2013-07-07T09:06:27Z</time>
      </trkpt>
      <trkpt lat="44.11443" lon="3.5626">
        <ele>1370</ele>
        <time>2013-07-07T09:06:33Z</time>
      </trkpt>
      <trkpt lat="44.11432" lon="3.56259">
        <ele>1370</ele>
        <time>2013-07-07T09:06:39Z</time>
      </trkpt>
      <trkpt lat="44.11422" lon="3.56256">
        <ele>1372.4851468836</ele>
        <time>2013-07-07T09:06:46Z</time>
      </trkpt>
      <trkpt lat="44.11411" lon="3.56253">
        <ele>1373</ele>
        <time>2013-07-07T09:06:53Z</time>
      </trkpt>
      <trkpt lat="44.114" lon="3.56251">
        <ele>1373</ele>
        <time>2013-07-07T09:06:59Z</time>
      </trkpt>
      <trkpt lat="44.1139" lon="3.56252">
        <ele>1374</ele>
        <time>2013-07-07T09:07:06Z</time>
      </trkpt>
      <trkpt lat="44.1138" lon="3.56247">
        <ele>1376</ele>
        <time>2013-07-07T09:07:12Z</time>
      </trkpt>
      <trkpt lat="44.11371" lon="3.5624">
        <ele>1376</ele>
        <time>2013-07-07T09:07:18Z</time>
      </trkpt>
      <trkpt lat="44.11364" lon="3.56231">
        <ele>1377</ele>
        <time>2013-07-07T09:07:25Z</time>
      </trkpt>
      <trkpt lat="44.11357" lon="3.56223">
        <ele>1377</ele>
        <time>2013-07-07T09:07:29Z</time>
      </trkpt>
      <trkpt lat="44.11351" lon="3.56215">
        <ele>1377</ele>
        <time>2013-07-07T09:07:34Z</time>
      </trkpt>
      <trkpt lat="44.11345" lon="3.56208">
        <ele>1377</ele>
        <time>2013-07-07T09:07:39Z</time>
      </trkpt>
      <trkpt lat="44.11339" lon="3.56203">
        <ele>1379</ele>
        <time>2013-07-07T09:07:44Z</time>
      </trkpt>
      <trkpt lat="44.11332" lon="3.56195">
        <ele>1379.3061269804</ele>
        <time>2013-07-07T09:07:50Z</time>
      </trkpt>
      <trkpt lat="44.11325" lon="3.56187">
        <ele>1380</ele>
        <time>2013-07-07T09:07:56Z</time>
      </trkpt>
      <trkpt lat="44.1132" lon="3.56178">
        <ele>1382</ele>
        <time>2013-07-07T09:08:02Z</time>
      </trkpt>
      <trkpt lat="44.11313" lon="3.56172">
        <ele>1382</ele>
        <time>2013-07-07T09:08:06Z</time>
      </trkpt>
      <trkpt lat="44.11309" lon="3.56164">
        <ele>1382</ele>
        <time>2013-07-07T09:08:11Z</time>
      </trkpt>
      <trkpt lat="44.11303" lon="3.56155">
        <ele>1382</ele>
        <time>2013-07-07T09:08:17Z</time>
      </trkpt>
      <trkpt lat="44.11299" lon="3.56147">
        <ele>1384</ele>
        <time>2013-07-07T09:08:22Z</time>
      </trkpt>
      <trkpt lat="44.11294" lon="3.5614">
        <ele>1384</ele>
        <time>2013-07-07T09:08:27Z</time>
      </trkpt>
      <trkpt lat="44.11287" lon="3.56133">
        <ele>1386</ele>
        <time>2013-07-07T09:08:33Z</time>
      </trkpt>
      <trkpt lat="44.11279" lon="3.56128">
        <ele>1386</ele>
        <time>2013-07-07T09:08:38Z</time>
      </trkpt>
      <trkpt lat="44.1127" lon="3.56119">
        <ele>1386</ele>
        <time>2013-07-07T09:08:44Z</time>
      </trkpt>
      <trkpt lat="44.11262" lon="3.56115">
        <ele>1386</ele>
        <time>2013-07-07T09:08:49Z</time>
      </trkpt>
      <trkpt lat="44.11254" lon="3.5611">
        <ele>1388</ele>
        <time>2013-07-07T09:08:54Z</time>
      </trkpt>
      <trkpt lat="44.11245" lon="3.56106">
        <ele>1388</ele>
        <time>2013-07-07T09:08:59Z</time>
      </trkpt>
      <trkpt lat="44.11235" lon="3.56102">
        <ele>1388</ele>
        <time>2013-07-07T09:09:04Z</time>
      </trkpt>
      <trkpt lat="44.11227" lon="3.56097">
        <ele>1388</ele>
        <time>2013-07-07T09:09:08Z</time>
      </trkpt>
      <trkpt lat="44.11216" lon="3.56094">
        <ele>1388</ele>
        <time>2013-07-07T09:09:13Z</time>
      </trkpt>
      <trkpt lat="44.11205" lon="3.56094">
        <ele>1388</ele>
        <time>2013-07-07T09:09:19Z</time>
      </trkpt>
      <trkpt lat="44.11194" lon="3.56098">
        <ele>1388</ele>
        <time>2013-07-07T09:09:24Z</time>
      </trkpt>
      <trkpt lat="44.11185" lon="3.56103">
        <ele>1388</ele>
        <time>2013-07-07T09:09:28Z</time>
      </trkpt>
      <trkpt lat="44.11174" lon="3.56111">
        <ele>1387</ele>
        <time>2013-07-07T09:09:33Z</time>
      </trkpt>
      <trkpt lat="44.11166" lon="3.56119">
        <ele>1387</ele>
        <time>2013-07-07T09:09:38Z</time>
      </trkpt>
      <trkpt lat="44.11159" lon="3.56128">
        <ele>1387</ele>
        <time>2013-07-07T09:09:42Z</time>
      </trkpt>
      <trkpt lat="44.11151" lon="3.56137">
        <ele>1387</ele>
        <time>2013-07-07T09:09:46Z</time>
      </trkpt>
      <trkpt lat="44.11144" lon="3.56145">
        <ele>1386.7391304348</ele>
        <time>2013-07-07T09:09:50Z</time>
      </trkpt>
      <trkpt lat="44.11137" lon="3.56155">
        <ele>1386</ele>
        <time>2013-07-07T09:09:54Z</time>
      </trkpt>
      <trkpt lat="44.11132" lon="3.56163">
        <ele>1386</ele>
        <time>2013-07-07T09:09:57Z</time>
      </trkpt>
      <trkpt lat="44.11124" lon="3.56171">
        <ele>1386.3861303323</ele>
        <time>2013-07-07T09:10:01Z</time>
      </trkpt>
      <trkpt lat="44.11118" lon="3.56179">
        <ele>1387</ele>
        <time>2013-07-07T09:10:05Z</time>
      </trkpt>
      <trkpt lat="44.11109" lon="3.5619">
        <ele>1387</ele>
        <time>2013-07-07T09:10:10Z</time>
      </trkpt>
      <trkpt lat="44.11099" lon="3.56198">
        <ele>1387</ele>
        <time>2013-07-07T09:10:15Z</time>
      </trkpt>
      <trkpt lat="44.1109" lon="3.56207">
        <ele>1387</ele>
        <time>2013-07-07T09:10:20Z</time>
      </trkpt>
      <trkpt lat="44.11079" lon="3.56216">
        <ele>1387</ele>
        <time>2013-07-07T09:10:25Z</time>
      </trkpt>
      <trkpt lat="44.11068" lon="3.56222">
        <ele>1387</ele>
        <time>2013-07-07T09:10:29Z</time>
      </trkpt>
      <trkpt lat="44.11059" lon="3.5623">
        <ele>1387</ele>
        <time>2013-07-07T09:10:34Z</time>
      </trkpt>
      <trkpt lat="44.1105" lon="3.56236">
        <ele>1387</ele>
        <time>2013-07-07T09:10:38Z</time>
      </trkpt>
      <trkpt lat="44.11038" lon="3.56241">
        <ele>1387</ele>
        <time>2013-07-07T09:10:43Z</time>
      </trkpt>
      <trkpt lat="44.11027" lon="3.56247">
        <ele>1387</ele>
        <time>2013-07-07T09:10:47Z</time>
      </trkpt>
      <trkpt lat="44.11016" lon="3.56251">
        <ele>1386</ele>
        <time>2013-07-07T09:10:51Z</time>
      </trkpt>
      <trkpt lat="44.11002" lon="3.56254">
        <ele>1386</ele>
        <time>2013-07-07T09:10:57Z</time>
      </trkpt>
      <trkpt lat="44.10989" lon="3.56257">
        <ele>1385</ele>
        <time>2013-07-07T09:11:02Z</time>
      </trkpt>
      <trkpt lat="44.10978" lon="3.56262">
        <ele>1385</ele>
        <time>2013-07-07T09:11:08Z</time>
      </trkpt>
      <trkpt lat="44.10966" lon="3.56269">
        <ele>1386</ele>
        <time>2013-07-07T09:11:14Z</time>
      </trkpt>
      <trkpt lat="44.1096" lon="3.56284">
        <ele>1386</ele>
        <time>2013-07-07T09:11:22Z</time>
      </trkpt>
      <trkpt lat="44.10966" lon="3.56298">
        <ele>1386</ele>
        <time>2013-07-07T09:11:29Z</time>
      </trkpt>
      <trkpt lat="44.10971" lon="3.56315">
        <ele>1387</ele>
        <time>2013-07-07T09:11:37Z</time>
      </trkpt>
      <trkpt lat="44.10977" lon="3.56332">
        <ele>1387</ele>
        <time>2013-07-07T09:11:45Z</time>
      </trkpt>
      <trkpt lat="44.10982" lon="3.56346">
        <ele>1387</ele>
        <time>2013-07-07T09:11:51Z</time>
      </trkpt>
      <trkpt lat="44.10988" lon="3.56359">
        <ele>1387</ele>
        <time>2013-07-07T09:11:56Z</time>
      </trkpt>
      <trkpt lat="44.10995" lon="3.56371">
        <ele>1387.3861430056</ele>
        <time>2013-07-07T09:12:00Z</time>
      </trkpt>
      <trkpt lat="44.11002" lon="3.56381">
        <ele>1388</ele>
        <time>2013-07-07T09:12:04Z</time>
      </trkpt>
      <trkpt lat="44.11009" lon="3.56391">
        <ele>1388</ele>
        <time>2013-07-07T09:12:09Z</time>
      </trkpt>
      <trkpt lat="44.11015" lon="3.56403">
        <ele>1388</ele>
        <time>2013-07-07T09:12:15Z</time>
      </trkpt>
      <trkpt lat="44.11022" lon="3.56413">
        <ele>1388</ele>
        <time>2013-07-07T09:12:19Z</time>
      </trkpt>
      <trkpt lat="44.11036" lon="3.56433">
        <ele>1388</ele>
        <time>2013-07-07T09:12:27Z</time>
      </trkpt>
      <trkpt lat="44.11043" lon="3.56447">
        <ele>1388</ele>
        <time>2013-07-07T09:12:33Z</time>
      </trkpt>
      <trkpt lat="44.1105" lon="3.5646">
        <ele>1388</ele>
        <time>2013-07-07T09:12:39Z</time>
      </trkpt>
      <trkpt lat="44.11058" lon="3.56475">
        <ele>1389</ele>
        <time>2013-07-07T09:12:46Z</time>
      </trkpt>
      <trkpt lat="44.11067" lon="3.56488">
        <ele>1389</ele>
        <time>2013-07-07T09:12:52Z</time>
      </trkpt>
      <trkpt lat="44.11076" lon="3.56499">
        <ele>1389</ele>
        <time>2013-07-07T09:12:58Z</time>
      </trkpt>
      <trkpt lat="44.11085" lon="3.5651">
        <ele>1390</ele>
        <time>2013-07-07T09:13:04Z</time>
      </trkpt>
      <trkpt lat="44.11097" lon="3.5652">
        <ele>1391</ele>
        <time>2013-07-07T09:13:13Z</time>
      </trkpt>
      <trkpt lat="44.11108" lon="3.56525">
        <ele>1391</ele>
        <time>2013-07-07T09:13:20Z</time>
      </trkpt>
      <trkpt lat="44.1112" lon="3.56526">
        <ele>1391</ele>
        <time>2013-07-07T09:13:26Z</time>
      </trkpt>
      <trkpt lat="44.11131" lon="3.56527">
        <ele>1391</ele>
        <time>2013-07-07T09:13:32Z</time>
      </trkpt>
      <trkpt lat="44.11141" lon="3.5653">
        <ele>1391</ele>
        <time>2013-07-07T09:13:38Z</time>
      </trkpt>
      <trkpt lat="44.1115" lon="3.56531">
        <ele>1392</ele>
        <time>2013-07-07T09:13:43Z</time>
      </trkpt>
      <trkpt lat="44.1116" lon="3.56531">
        <ele>1392</ele>
        <time>2013-07-07T09:13:49Z</time>
      </trkpt>
      <trkpt lat="44.11169" lon="3.56534">
        <ele>1393</ele>
        <time>2013-07-07T09:13:54Z</time>
      </trkpt>
      <trkpt lat="44.11183" lon="3.5654">
        <ele>1393</ele>
        <time>2013-07-07T09:14:02Z</time>
      </trkpt>
      <trkpt lat="44.11194" lon="3.56545">
        <ele>1393</ele>
        <time>2013-07-07T09:14:08Z</time>
      </trkpt>
      <trkpt lat="44.11204" lon="3.56551">
        <ele>1393</ele>
        <time>2013-07-07T09:14:13Z</time>
      </trkpt>
      <trkpt lat="44.11214" lon="3.56558">
        <ele>1393</ele>
        <time>2013-07-07T09:14:17Z</time>
      </trkpt>
      <trkpt lat="44.11224" lon="3.56564">
        <ele>1393</ele>
        <time>2013-07-07T09:14:26Z</time>
      </trkpt>
      <trkpt lat="44.11233" lon="3.56577">
        <ele>1394</ele>
        <time>2013-07-07T09:14:35Z</time>
      </trkpt>
      <trkpt lat="44.11241" lon="3.56585">
        <ele>1394.4851468836</ele>
        <time>2013-07-07T09:14:40Z</time>
      </trkpt>
      <trkpt lat="44.11246" lon="3.56595">
        <ele>1395</ele>
        <time>2013-07-07T09:14:44Z</time>
      </trkpt>
      <trkpt lat="44.11252" lon="3.56606">
        <ele>1395</ele>
        <time>2013-07-07T09:14:49Z</time>
      </trkpt>
      <trkpt lat="44.11258" lon="3.56617">
        <ele>1395</ele>
        <time>2013-07-07T09:14:53Z</time>
      </trkpt>
      <trkpt lat="44.11264" lon="3.56628">
        <ele>1395</ele>
        <time>2013-07-07T09:14:57Z</time>
      </trkpt>
      <trkpt lat="44.11271" lon="3.5664">
        <ele>1394</ele>
        <time>2013-07-07T09:15:02Z</time>
      </trkpt>
      <trkpt lat="44.11278" lon="3.56652">
        <ele>1394</ele>
        <time>2013-07-07T09:15:08Z</time>
      </trkpt>
      <trkpt lat="44.11286" lon="3.56661">
        <ele>1396</ele>
        <time>2013-07-07T09:15:14Z</time>
      </trkpt>
      <trkpt lat="44.11293" lon="3.56668">
        <ele>1396</ele>
        <time>2013-07-07T09:15:18Z</time>
      </trkpt>
      <trkpt lat="44.113" lon="3.56677">
        <ele>1397</ele>
        <time>2013-07-07T09:15:22Z</time>
      </trkpt>
      <trkpt lat="44.11306" lon="3.56686">
        <ele>1397</ele>
        <time>2013-07-07T09:15:26Z</time>
      </trkpt>
      <trkpt lat="44.11312" lon="3.56697">
        <ele>1397</ele>
        <time>2013-07-07T09:15:31Z</time>
      </trkpt>
      <trkpt lat="44.11315" lon="3.5671">
        <ele>1397</ele>
        <time>2013-07-07T09:15:36Z</time>
      </trkpt>
      <trkpt lat="44.11317" lon="3.56726">
        <ele>1397</ele>
        <time>2013-07-07T09:15:41Z</time>
      </trkpt>
      <trkpt lat="44.1132" lon="3.56741">
        <ele>1397</ele>
        <time>2013-07-07T09:15:46Z</time>
      </trkpt>
      <trkpt lat="44.11323" lon="3.56753">
        <ele>1398</ele>
        <time>2013-07-07T09:15:55Z</time>
      </trkpt>
      <trkpt lat="44.11329" lon="3.56763">
        <ele>1398</ele>
        <time>2013-07-07T09:16:37Z</time>
      </trkpt>
      <trkpt lat="44.1133" lon="3.56772">
        <ele>1400</ele>
        <time>2013-07-07T09:16:41Z</time>
      </trkpt>
      <trkpt lat="44.11331" lon="3.56782">
        <ele>1400</ele>
        <time>2013-07-07T09:16:46Z</time>
      </trkpt>
      <trkpt lat="44.11333" lon="3.56794">
        <ele>1400</ele>
        <time>2013-07-07T09:16:52Z</time>
      </trkpt>
      <trkpt lat="44.11333" lon="3.56805">
        <ele>1400</ele>
        <time>2013-07-07T09:16:58Z</time>
      </trkpt>
      <trkpt lat="44.11331" lon="3.56819">
        <ele>1399</ele>
        <time>2013-07-07T09:17:05Z</time>
      </trkpt>
      <trkpt lat="44.1133" lon="3.56835">
        <ele>1399</ele>
        <time>2013-07-07T09:17:10Z</time>
      </trkpt>
      <trkpt lat="44.11331" lon="3.5685">
        <ele>1399</ele>
        <time>2013-07-07T09:17:14Z</time>
      </trkpt>
      <trkpt lat="44.11327" lon="3.5687">
        <ele>1399</ele>
        <time>2013-07-07T09:17:20Z</time>
      </trkpt>
      <trkpt lat="44.11323" lon="3.56879">
        <ele>1399</ele>
        <time>2013-07-07T09:17:23Z</time>
      </trkpt>
      <trkpt lat="44.11317" lon="3.56895">
        <ele>1398.5148531164</ele>
        <time>2013-07-07T09:17:30Z</time>
      </trkpt>
      <trkpt lat="44.11308" lon="3.56906">
        <ele>1398</ele>
        <time>2013-07-07T09:17:34Z</time>
      </trkpt>
      <trkpt lat="44.11301" lon="3.56919">
        <ele>1398</ele>
        <time>2013-07-07T09:17:38Z</time>
      </trkpt>
      <trkpt lat="44.11293" lon="3.5693">
        <ele>1397</ele>
        <time>2013-07-07T09:17:42Z</time>
      </trkpt>
      <trkpt lat="44.11286" lon="3.56941">
        <ele>1397</ele>
        <time>2013-07-07T09:17:46Z</time>
      </trkpt>
      <trkpt lat="44.11277" lon="3.56953">
        <ele>1396</ele>
        <time>2013-07-07T09:17:51Z</time>
      </trkpt>
      <trkpt lat="44.11267" lon="3.56965">
        <ele>1396</ele>
        <time>2013-07-07T09:17:56Z</time>
      </trkpt>
      <trkpt lat="44.11258" lon="3.56977">
        <ele>1394</ele>
        <time>2013-07-07T09:18:01Z</time>
      </trkpt>
      <trkpt lat="44.1125" lon="3.56991">
        <ele>1394</ele>
        <time>2013-07-07T09:18:06Z</time>
      </trkpt>
      <trkpt lat="44.11244" lon="3.57002">
        <ele>1394</ele>
        <time>2013-07-07T09:18:10Z</time>
      </trkpt>
      <trkpt lat="44.11239" lon="3.57016">
        <ele>1394</ele>
        <time>2013-07-07T09:18:14Z</time>
      </trkpt>
      <trkpt lat="44.11236" lon="3.57033">
        <ele>1394</ele>
        <time>2013-07-07T09:18:19Z</time>
      </trkpt>
      <trkpt lat="44.11238" lon="3.5705">
        <ele>1393</ele>
        <time>2013-07-07T09:18:25Z</time>
      </trkpt>
      <trkpt lat="44.11247" lon="3.57066">
        <ele>1392</ele>
        <time>2013-07-07T09:18:31Z</time>
      </trkpt>
      <trkpt lat="44.11254" lon="3.57083">
        <ele>1392</ele>
        <time>2013-07-07T09:18:36Z</time>
      </trkpt>
      <trkpt lat="44.11258" lon="3.571">
        <ele>1392</ele>
        <time>2013-07-07T09:18:41Z</time>
      </trkpt>
      <trkpt lat="44.11261" lon="3.57121">
        <ele>1392</ele>
        <time>2013-07-07T09:18:46Z</time>
      </trkpt>
      <trkpt lat="44.1126" lon="3.57144">
        <ele>1391</ele>
        <time>2013-07-07T09:18:52Z</time>
      </trkpt>
      <trkpt lat="44.11259" lon="3.57164">
        <ele>1391</ele>
        <time>2013-07-07T09:18:57Z</time>
      </trkpt>
      <trkpt lat="44.11253" lon="3.5718">
        <ele>1390</ele>
        <time>2013-07-07T09:19:02Z</time>
      </trkpt>
      <trkpt lat="44.11243" lon="3.57197">
        <ele>1390</ele>
        <time>2013-07-07T09:19:08Z</time>
      </trkpt>
      <trkpt lat="44.11237" lon="3.57211">
        <ele>1390</ele>
        <time>2013-07-07T09:19:12Z</time>
      </trkpt>
      <trkpt lat="44.11226" lon="3.57228">
        <ele>1390</ele>
        <time>2013-07-07T09:19:18Z</time>
      </trkpt>
      <trkpt lat="44.11224" lon="3.57241">
        <ele>1390</ele>
        <time>2013-07-07T09:19:22Z</time>
      </trkpt>
      <trkpt lat="44.11224" lon="3.57251">
        <ele>1390</ele>
        <time>2013-07-07T09:19:25Z</time>
      </trkpt>
      <trkpt lat="44.11226" lon="3.5726">
        <ele>1390</ele>
        <time>2013-07-07T09:19:28Z</time>
      </trkpt>
      <trkpt lat="44.11232" lon="3.57271">
        <ele>1389</ele>
        <time>2013-07-07T09:19:32Z</time>
      </trkpt>
      <trkpt lat="44.11242" lon="3.57279">
        <ele>1389</ele>
        <time>2013-07-07T09:19:37Z</time>
      </trkpt>
      <trkpt lat="44.11253" lon="3.57282">
        <ele>1387</ele>
        <time>2013-07-07T09:19:42Z</time>
      </trkpt>
      <trkpt lat="44.11263" lon="3.57283">
        <ele>1387</ele>
        <time>2013-07-07T09:19:50Z</time>
      </trkpt>
      <trkpt lat="44.11273" lon="3.57284">
        <ele>1387</ele>
        <time>2013-07-07T09:19:56Z</time>
      </trkpt>
      <trkpt lat="44.11282" lon="3.57286">
        <ele>1387</ele>
        <time>2013-07-07T09:20:00Z</time>
      </trkpt>
      <trkpt lat="44.11291" lon="3.57288">
        <ele>1387</ele>
        <time>2013-07-07T09:20:04Z</time>
      </trkpt>
      <trkpt lat="44.113" lon="3.57289">
        <ele>1387</ele>
        <time>2013-07-07T09:20:08Z</time>
      </trkpt>
      <trkpt lat="44.11309" lon="3.57291">
        <ele>1387</ele>
        <time>2013-07-07T09:20:12Z</time>
      </trkpt>
      <trkpt lat="44.11319" lon="3.57293">
        <ele>1387</ele>
        <time>2013-07-07T09:20:16Z</time>
      </trkpt>
      <trkpt lat="44.11328" lon="3.57296">
        <ele>1387</ele>
        <time>2013-07-07T09:20:20Z</time>
      </trkpt>
      <trkpt lat="44.11339" lon="3.57299">
        <ele>1387</ele>
        <time>2013-07-07T09:20:26Z</time>
      </trkpt>
      <trkpt lat="44.1135" lon="3.57301">
        <ele>1387</ele>
        <time>2013-07-07T09:20:32Z</time>
      </trkpt>
      <trkpt lat="44.11362" lon="3.57305">
        <ele>1387</ele>
        <time>2013-07-07T09:20:37Z</time>
      </trkpt>
      <trkpt lat="44.11372" lon="3.57309">
        <ele>1386</ele>
        <time>2013-07-07T09:20:41Z</time>
      </trkpt>
      <trkpt lat="44.11384" lon="3.57312">
        <ele>1386</ele>
        <time>2013-07-07T09:20:46Z</time>
      </trkpt>
      <trkpt lat="44.11398" lon="3.57309">
        <ele>1386</ele>
        <time>2013-07-07T09:20:51Z</time>
      </trkpt>
      <trkpt lat="44.11414" lon="3.57311">
        <ele>1386.4257344182</ele>
        <time>2013-07-07T09:21:00Z</time>
      </trkpt>
      <trkpt lat="44.11431" lon="3.57319">
        <ele>1387</ele>
        <time>2013-07-07T09:21:07Z</time>
      </trkpt>
      <trkpt lat="44.11444" lon="3.57324">
        <ele>1387</ele>
        <time>2013-07-07T09:21:11Z</time>
      </trkpt>
      <trkpt lat="44.11457" lon="3.57334">
        <ele>1387</ele>
        <time>2013-07-07T09:21:17Z</time>
      </trkpt>
      <trkpt lat="44.11468" lon="3.57349">
        <ele>1386</ele>
        <time>2013-07-07T09:21:22Z</time>
      </trkpt>
      <trkpt lat="44.1148" lon="3.57362">
        <ele>1386</ele>
        <time>2013-07-07T09:21:27Z</time>
      </trkpt>
      <trkpt lat="44.11493" lon="3.57373">
        <ele>1386</ele>
        <time>2013-07-07T09:21:34Z</time>
      </trkpt>
      <trkpt lat="44.11509" lon="3.57379">
        <ele>1385</ele>
        <time>2013-07-07T09:21:42Z</time>
      </trkpt>
      <trkpt lat="44.11528" lon="3.57386">
        <ele>1385</ele>
        <time>2013-07-07T09:21:53Z</time>
      </trkpt>
      <trkpt lat="44.11545" lon="3.57395">
        <ele>1384.5148531164</ele>
        <time>2013-07-07T09:22:00Z</time>
      </trkpt>
      <trkpt lat="44.11561" lon="3.57402">
        <ele>1384</ele>
        <time>2013-07-07T09:22:07Z</time>
      </trkpt>
      <trkpt lat="44.11574" lon="3.5741">
        <ele>1384</ele>
        <time>2013-07-07T09:22:13Z</time>
      </trkpt>
      <trkpt lat="44.11586" lon="3.5742">
        <ele>1384</ele>
        <time>2013-07-07T09:22:19Z</time>
      </trkpt>
      <trkpt lat="44.11599" lon="3.57432">
        <ele>1384</ele>
        <time>2013-07-07T09:22:25Z</time>
      </trkpt>
      <trkpt lat="44.11607" lon="3.57442">
        <ele>1384</ele>
        <time>2013-07-07T09:22:29Z</time>
      </trkpt>
      <trkpt lat="44.11615" lon="3.57454">
        <ele>1384</ele>
        <time>2013-07-07T09:22:34Z</time>
      </trkpt>
      <trkpt lat="44.11625" lon="3.57463">
        <ele>1383.52</ele>
        <time>2013-07-07T09:22:40Z</time>
      </trkpt>
      <trkpt lat="44.11636" lon="3.57471">
        <ele>1383</ele>
        <time>2013-07-07T09:22:46Z</time>
      </trkpt>
      <trkpt lat="44.11648" lon="3.57479">
        <ele>1384</ele>
        <time>2013-07-07T09:22:51Z</time>
      </trkpt>
      <trkpt lat="44.11661" lon="3.57486">
        <ele>1384</ele>
        <time>2013-07-07T09:22:56Z</time>
      </trkpt>
      <trkpt lat="44.11672" lon="3.57495">
        <ele>1383</ele>
        <time>2013-07-07T09:23:01Z</time>
      </trkpt>
      <trkpt lat="44.1168" lon="3.57508">
        <ele>1383</ele>
        <time>2013-07-07T09:23:06Z</time>
      </trkpt>
      <trkpt lat="44.11689" lon="3.5752">
        <ele>1383</ele>
        <time>2013-07-07T09:23:12Z</time>
      </trkpt>
      <trkpt lat="44.11696" lon="3.57534">
        <ele>1383</ele>
        <time>2013-07-07T09:23:17Z</time>
      </trkpt>
      <trkpt lat="44.11703" lon="3.57549">
        <ele>1383</ele>
        <time>2013-07-07T09:23:23Z</time>
      </trkpt>
      <trkpt lat="44.1171" lon="3.57565">
        <ele>1382</ele>
        <time>2013-07-07T09:23:31Z</time>
      </trkpt>
      <trkpt lat="44.11712" lon="3.57583">
        <ele>1382</ele>
        <time>2013-07-07T09:23:37Z</time>
      </trkpt>
      <trkpt lat="44.11703" lon="3.57603">
        <ele>1382</ele>
        <time>2013-07-07T09:23:42Z</time>
      </trkpt>
      <trkpt lat="44.11694" lon="3.57625">
        <ele>1382</ele>
        <time>2013-07-07T09:23:49Z</time>
      </trkpt>
      <trkpt lat="44.11683" lon="3.57646">
        <ele>1382</ele>
        <time>2013-07-07T09:23:57Z</time>
      </trkpt>
      <trkpt lat="44.11668" lon="3.57662">
        <ele>1381</ele>
        <time>2013-07-07T09:24:04Z</time>
      </trkpt>
      <trkpt lat="44.11656" lon="3.57685">
        <ele>1381</ele>
        <time>2013-07-07T09:24:13Z</time>
      </trkpt>
      <trkpt lat="44.11642" lon="3.57704">
        <ele>1381</ele>
        <time>2013-07-07T09:24:21Z</time>
      </trkpt>
      <trkpt lat="44.11636" lon="3.57728">
        <ele>1381</ele>
        <time>2013-07-07T09:24:29Z</time>
      </trkpt>
      <trkpt lat="44.11634" lon="3.57737">
        <ele>1381</ele>
        <time>2013-07-07T09:24:32Z</time>
      </trkpt>
      <trkpt lat="44.11629" lon="3.5775">
        <ele>1381</ele>
        <time>2013-07-07T09:24:36Z</time>
      </trkpt>
      <trkpt lat="44.11624" lon="3.57766">
        <ele>1380</ele>
        <time>2013-07-07T09:24:41Z</time>
      </trkpt>
      <trkpt lat="44.11621" lon="3.57783">
        <ele>1380</ele>
        <time>2013-07-07T09:24:46Z</time>
      </trkpt>
      <trkpt lat="44.11627" lon="3.57798">
        <ele>1379</ele>
        <time>2013-07-07T09:24:52Z</time>
      </trkpt>
      <trkpt lat="44.11636" lon="3.57808">
        <ele>1379</ele>
        <time>2013-07-07T09:24:58Z</time>
      </trkpt>
      <trkpt lat="44.11649" lon="3.57815">
        <ele>1378</ele>
        <time>2013-07-07T09:25:04Z</time>
      </trkpt>
      <trkpt lat="44.11663" lon="3.57821">
        <ele>1378</ele>
        <time>2013-07-07T09:25:10Z</time>
      </trkpt>
      <trkpt lat="44.11676" lon="3.57828">
        <ele>1378</ele>
        <time>2013-07-07T09:25:17Z</time>
      </trkpt>
      <trkpt lat="44.11688" lon="3.57837">
        <ele>1377</ele>
        <time>2013-07-07T09:25:23Z</time>
      </trkpt>
      <trkpt lat="44.117" lon="3.57846">
        <ele>1377</ele>
        <time>2013-07-07T09:25:32Z</time>
      </trkpt>
      <trkpt lat="44.11712" lon="3.57858">
        <ele>1377</ele>
        <time>2013-07-07T09:25:38Z</time>
      </trkpt>
      <trkpt lat="44.11726" lon="3.5787">
        <ele>1377</ele>
        <time>2013-07-07T09:25:45Z</time>
      </trkpt>
      <trkpt lat="44.11738" lon="3.57884">
        <ele>1376</ele>
        <time>2013-07-07T09:25:52Z</time>
      </trkpt>
      <trkpt lat="44.11751" lon="3.57902">
        <ele>1376</ele>
        <time>2013-07-07T09:25:59Z</time>
      </trkpt>
      <trkpt lat="44.11759" lon="3.57925">
        <ele>1377</ele>
        <time>2013-07-07T09:26:05Z</time>
      </trkpt>
      <trkpt lat="44.11762" lon="3.57951">
        <ele>1377</ele>
        <time>2013-07-07T09:26:13Z</time>
      </trkpt>
      <trkpt lat="44.11771" lon="3.57976">
        <ele>1376</ele>
        <time>2013-07-07T09:26:21Z</time>
      </trkpt>
      <trkpt lat="44.11781" lon="3.57997">
        <ele>1375.5148531164</ele>
        <time>2013-07-07T09:26:30Z</time>
      </trkpt>
      <trkpt lat="44.11788" lon="3.58022">
        <ele>1375</ele>
        <time>2013-07-07T09:26:39Z</time>
      </trkpt>
      <trkpt lat="44.11786" lon="3.58049">
        <ele>1376</ele>
        <time>2013-07-07T09:26:47Z</time>
      </trkpt>
      <trkpt lat="44.11788" lon="3.58075">
        <ele>1376</ele>
        <time>2013-07-07T09:26:55Z</time>
      </trkpt>
      <trkpt lat="44.11792" lon="3.58096">
        <ele>1376</ele>
        <time>2013-07-07T09:27:02Z</time>
      </trkpt>
      <trkpt lat="44.11799" lon="3.58111">
        <ele>1376</ele>
        <time>2013-07-07T09:27:09Z</time>
      </trkpt>
      <trkpt lat="44.11808" lon="3.58127">
        <ele>1377</ele>
        <time>2013-07-07T09:27:18Z</time>
      </trkpt>
      <trkpt lat="44.11804" lon="3.58144">
        <ele>1378</ele>
        <time>2013-07-07T09:27:28Z</time>
      </trkpt>
      <trkpt lat="44.11789" lon="3.5816">
        <ele>1376.5445593491</ele>
        <time>2013-07-07T09:27:40Z</time>
      </trkpt>
      <trkpt lat="44.11776" lon="3.58179">
        <ele>1374</ele>
        <time>2013-07-07T09:27:50Z</time>
      </trkpt>
      <trkpt lat="44.1177" lon="3.58204">
        <ele>1374</ele>
        <time>2013-07-07T09:27:59Z</time>
      </trkpt>
      <trkpt lat="44.11775" lon="3.58227">
        <ele>1374</ele>
        <time>2013-07-07T09:28:08Z</time>
      </trkpt>
      <trkpt lat="44.1178" lon="3.58252">
        <ele>1374</ele>
        <time>2013-07-07T09:28:21Z</time>
      </trkpt>
      <trkpt lat="44.11769" lon="3.58273">
        <ele>1374</ele>
        <time>2013-07-07T09:28:29Z</time>
      </trkpt>
      <trkpt lat="44.11762" lon="3.58299">
        <ele>1373</ele>
        <time>2013-07-07T09:28:36Z</time>
      </trkpt>
      <trkpt lat="44.11762" lon="3.58326">
        <ele>1372</ele>
        <time>2013-07-07T09:28:46Z</time>
      </trkpt>
      <trkpt lat="44.11769" lon="3.58352">
        <ele>1371</ele>
        <time>2013-07-07T09:28:55Z</time>
      </trkpt>
      <trkpt lat="44.11771" lon="3.58379">
        <ele>1370</ele>
        <time>2013-07-07T09:29:03Z</time>
      </trkpt>
      <trkpt lat="44.11782" lon="3.58402">
        <ele>1371</ele>
        <time>2013-07-07T09:29:14Z</time>
      </trkpt>
      <trkpt lat="44.11786" lon="3.58427">
        <ele>1371</ele>
        <time>2013-07-07T09:29:22Z</time>
      </trkpt>
      <trkpt lat="44.11781" lon="3.58452">
        <ele>1370.0297062327</ele>
        <time>2013-07-07T09:29:30Z</time>
      </trkpt>
      <trkpt lat="44.11782" lon="3.58478">
        <ele>1369</ele>
        <time>2013-07-07T09:29:37Z</time>
      </trkpt>
      <trkpt lat="44.11771" lon="3.58501">
        <ele>1365.5148531164</ele>
        <time>2013-07-07T09:29:45Z</time>
      </trkpt>
      <trkpt lat="44.11757" lon="3.58518">
        <ele>1365</ele>
        <time>2013-07-07T09:29:55Z</time>
      </trkpt>
      <trkpt lat="44.11739" lon="3.58522">
        <ele>1364</ele>
        <time>2013-07-07T09:30:07Z</time>
      </trkpt>
      <trkpt lat="44.11721" lon="3.58518">
        <ele>1363</ele>
        <time>2013-07-07T09:30:15Z</time>
      </trkpt>
      <trkpt lat="44.11702" lon="3.58524">
        <ele>1360</ele>
        <time>2013-07-07T09:30:23Z</time>
      </trkpt>
      <trkpt lat="44.11683" lon="3.58514">
        <ele>1358.5148531164</ele>
        <time>2013-07-07T09:30:30Z</time>
      </trkpt>
      <trkpt lat="44.11666" lon="3.58508">
        <ele>1358</ele>
        <time>2013-07-07T09:30:39Z</time>
      </trkpt>
      <trkpt lat="44.11647" lon="3.58504">
        <ele>1356</ele>
        <time>2013-07-07T09:30:46Z</time>
      </trkpt>
      <trkpt lat="44.11629" lon="3.585">
        <ele>1355</ele>
        <time>2013-07-07T09:30:53Z</time>
      </trkpt>
      <trkpt lat="44.11609" lon="3.58498">
        <ele>1353</ele>
        <time>2013-07-07T09:31:02Z</time>
      </trkpt>
      <trkpt lat="44.11591" lon="3.58489">
        <ele>1351</ele>
        <time>2013-07-07T09:31:11Z</time>
      </trkpt>
      <trkpt lat="44.11572" lon="3.58484">
        <ele>1351</ele>
        <time>2013-07-07T09:31:18Z</time>
      </trkpt>
      <trkpt lat="44.11556" lon="3.58497">
        <ele>1351.9702937673</ele>
        <time>2013-07-07T09:31:40Z</time>
      </trkpt>
      <trkpt lat="44.1154" lon="3.58508">
        <ele>1355</ele>
        <time>2013-07-07T09:32:04Z</time>
      </trkpt>
      <trkpt lat="44.11523" lon="3.58514">
        <ele>1359</ele>
        <time>2013-07-07T09:32:22Z</time>
      </trkpt>
      <trkpt lat="44.11505" lon="3.58522">
        <ele>1364</ele>
        <time>2013-07-07T09:32:42Z</time>
      </trkpt>
      <trkpt lat="44.11491" lon="3.58533">
        <ele>1365</ele>
        <time>2013-07-07T09:32:56Z</time>
      </trkpt>
      <trkpt lat="44.11476" lon="3.58548">
        <ele>1370</ele>
        <time>2013-07-07T09:33:14Z</time>
      </trkpt>
      <trkpt lat="44.11466" lon="3.58565">
        <ele>1373</ele>
        <time>2013-07-07T09:33:31Z</time>
      </trkpt>
      <trkpt lat="44.11462" lon="3.58587">
        <ele>1375</ele>
        <time>2013-07-07T09:33:47Z</time>
      </trkpt>
      <trkpt lat="44.11456" lon="3.58604">
        <ele>1378</ele>
        <time>2013-07-07T09:34:03Z</time>
      </trkpt>
      <trkpt lat="44.11448" lon="3.58617">
        <ele>1379</ele>
        <time>2013-07-07T09:34:15Z</time>
      </trkpt>
      <trkpt lat="44.11443" lon="3.58632">
        <ele>1381</ele>
        <time>2013-07-07T09:34:28Z</time>
      </trkpt>
      <trkpt lat="44.11448" lon="3.58642">
        <ele>1383</ele>
        <time>2013-07-07T09:34:38Z</time>
      </trkpt>
      <trkpt lat="44.11452" lon="3.58651">
        <ele>1384</ele>
        <time>2013-07-07T09:34:47Z</time>
      </trkpt>
      <trkpt lat="44.11458" lon="3.58661">
        <ele>1386.6599936</ele>
        <time>2013-07-07T09:35:00Z</time>
      </trkpt>
      <trkpt lat="44.11469" lon="3.58668">
        <ele>1389</ele>
        <time>2013-07-07T09:35:18Z</time>
      </trkpt>
      <trkpt lat="44.11478" lon="3.58668">
        <ele>1393</ele>
        <time>2013-07-07T09:35:41Z</time>
      </trkpt>
      <trkpt lat="44.11488" lon="3.5867">
        <ele>1394</ele>
        <time>2013-07-07T09:36:07Z</time>
      </trkpt>
      <trkpt lat="44.11501" lon="3.58682">
        <ele>1400</ele>
        <time>2013-07-07T09:36:28Z</time>
      </trkpt>
      <trkpt lat="44.11511" lon="3.58692">
        <ele>1401</ele>
        <time>2013-07-07T09:36:44Z</time>
      </trkpt>
      <trkpt lat="44.11524" lon="3.58703">
        <ele>1405</ele>
        <time>2013-07-07T09:37:07Z</time>
      </trkpt>
      <trkpt lat="44.11533" lon="3.5871">
        <ele>1409</ele>
        <time>2013-07-07T09:37:22Z</time>
      </trkpt>
      <trkpt lat="44.11541" lon="3.58719">
        <ele>1410</ele>
        <time>2013-07-07T09:37:33Z</time>
      </trkpt>
      <trkpt lat="44.11552" lon="3.58732">
        <ele>1414</ele>
        <time>2013-07-07T09:37:59Z</time>
      </trkpt>
      <trkpt lat="44.11562" lon="3.58743">
        <ele>1417</ele>
        <time>2013-07-07T09:38:18Z</time>
      </trkpt>
      <trkpt lat="44.11571" lon="3.58756">
        <ele>1419</ele>
        <time>2013-07-07T09:38:34Z</time>
      </trkpt>
      <trkpt lat="44.11581" lon="3.58769">
        <ele>1423</ele>
        <time>2013-07-07T09:38:51Z</time>
      </trkpt>
      <trkpt lat="44.11591" lon="3.58777">
        <ele>1427</ele>
        <time>2013-07-07T09:39:10Z</time>
      </trkpt>
      <trkpt lat="44.116" lon="3.58789">
        <ele>1429</ele>
        <time>2013-07-07T09:39:27Z</time>
      </trkpt>
      <trkpt lat="44.11605" lon="3.58799">
        <ele>1431</ele>
        <time>2013-07-07T09:39:38Z</time>
      </trkpt>
      <trkpt lat="44.11614" lon="3.58809">
        <ele>1433</ele>
        <time>2013-07-07T09:39:55Z</time>
      </trkpt>
      <trkpt lat="44.11622" lon="3.58819">
        <ele>1437</ele>
        <time>2013-07-07T09:40:17Z</time>
      </trkpt>
      <trkpt lat="44.11632" lon="3.5881">
        <ele>1438</ele>
        <time>2013-07-07T09:40:46Z</time>
      </trkpt>
      <trkpt lat="44.11642" lon="3.58805">
        <ele>1440</ele>
        <time>2013-07-07T09:40:57Z</time>
      </trkpt>
      <trkpt lat="44.11655" lon="3.58797">
        <ele>1444</ele>
        <time>2013-07-07T09:41:16Z</time>
      </trkpt>
      <trkpt lat="44.1167" lon="3.58792">
        <ele>1447</ele>
        <time>2013-07-07T09:41:36Z</time>
      </trkpt>
      <trkpt lat="44.11682" lon="3.58791">
        <ele>1447</ele>
        <time>2013-07-07T09:41:49Z</time>
      </trkpt>
      <trkpt lat="44.11693" lon="3.58786">
        <ele>1450</ele>
        <time>2013-07-07T09:42:02Z</time>
      </trkpt>
      <trkpt lat="44.11703" lon="3.58781">
        <ele>1452.4851468836</ele>
        <time>2013-07-07T09:42:20Z</time>
      </trkpt>
      <trkpt lat="44.11709" lon="3.58777">
        <ele>1454</ele>
        <time>2013-07-07T09:43:13Z</time>
      </trkpt>
      <trkpt lat="44.11719" lon="3.58774">
        <ele>1455</ele>
        <time>2013-07-07T09:45:08Z</time>
      </trkpt>
      <trkpt lat="44.1173" lon="3.58772">
        <ele>1457</ele>
        <time>2013-07-07T09:45:19Z</time>
      </trkpt>
      <trkpt lat="44.11742" lon="3.58768">
        <ele>1460</ele>
        <time>2013-07-07T09:45:33Z</time>
      </trkpt>
      <trkpt lat="44.11749" lon="3.58768">
        <ele>1461</ele>
        <time>2013-07-07T09:45:41Z</time>
      </trkpt>
      <trkpt lat="44.11765" lon="3.58766">
        <ele>1464</ele>
        <time>2013-07-07T09:46:01Z</time>
      </trkpt>
      <trkpt lat="44.11778" lon="3.58763">
        <ele>1465</ele>
        <time>2013-07-07T09:46:19Z</time>
      </trkpt>
      <trkpt lat="44.1179" lon="3.58762">
        <ele>1469</ele>
        <time>2013-07-07T09:46:31Z</time>
      </trkpt>
      <trkpt lat="44.11801" lon="3.5876">
        <ele>1470</ele>
        <time>2013-07-07T09:46:44Z</time>
      </trkpt>
      <trkpt lat="44.11812" lon="3.58758">
        <ele>1471</ele>
        <time>2013-07-07T09:46:56Z</time>
      </trkpt>
      <trkpt lat="44.11821" lon="3.58755">
        <ele>1473</ele>
        <time>2013-07-07T09:47:07Z</time>
      </trkpt>
      <trkpt lat="44.11832" lon="3.58752">
        <ele>1476</ele>
        <time>2013-07-07T09:47:25Z</time>
      </trkpt>
      <trkpt lat="44.11842" lon="3.58748">
        <ele>1477.732669252</ele>
        <time>2013-07-07T09:47:40Z</time>
      </trkpt>
      <trkpt lat="44.11852" lon="3.58742">
        <ele>1480</ele>
        <time>2013-07-07T09:47:57Z</time>
      </trkpt>
      <trkpt lat="44.11866" lon="3.58737">
        <ele>1483</ele>
        <time>2013-07-07T09:48:13Z</time>
      </trkpt>
      <trkpt lat="44.11875" lon="3.58732">
        <ele>1485</ele>
        <time>2013-07-07T09:48:23Z</time>
      </trkpt>
      <trkpt lat="44.11886" lon="3.58727">
        <ele>1487</ele>
        <time>2013-07-07T09:48:41Z</time>
      </trkpt>
      <trkpt lat="44.11897" lon="3.58725">
        <ele>1489</ele>
        <time>2013-07-07T09:48:53Z</time>
      </trkpt>
      <trkpt lat="44.11905" lon="3.58721">
        <ele>1490</ele>
        <time>2013-07-07T09:49:01Z</time>
      </trkpt>
      <trkpt lat="44.11911" lon="3.58713">
        <ele>1490</ele>
        <time>2013-07-07T09:49:08Z</time>
      </trkpt>
      <trkpt lat="44.11918" lon="3.58708">
        <ele>1492</ele>
        <time>2013-07-07T09:49:16Z</time>
      </trkpt>
      <trkpt lat="44.11924" lon="3.58702">
        <ele>1494</ele>
        <time>2013-07-07T09:49:23Z</time>
      </trkpt>
      <trkpt lat="44.1193" lon="3.58695">
        <ele>1495</ele>
        <time>2013-07-07T09:49:32Z</time>
      </trkpt>
      <trkpt lat="44.11934" lon="3.58688">
        <ele>1496.1584290168</ele>
        <time>2013-07-07T09:49:40Z</time>
      </trkpt>
      <trkpt lat="44.11938" lon="3.58682">
        <ele>1498</ele>
        <time>2013-07-07T09:49:49Z</time>
      </trkpt>
      <trkpt lat="44.11943" lon="3.58675">
        <ele>1499</ele>
        <time>2013-07-07T09:49:55Z</time>
      </trkpt>
      <trkpt lat="44.11946" lon="3.58672">
        <ele>1500.366334626</ele>
        <time>2013-07-07T09:50:40Z</time>
      </trkpt>
      <trkpt lat="44.1195" lon="3.58669">
        <ele>1501</ele>
        <time>2013-07-07T09:51:01Z</time>
      </trkpt>
      <trkpt lat="44.11954" lon="3.58663">
        <ele>1501</ele>
        <time>2013-07-07T09:51:06Z</time>
      </trkpt>
      <trkpt lat="44.11958" lon="3.58657">
        <ele>1503</ele>
        <time>2013-07-07T09:51:12Z</time>
      </trkpt>
      <trkpt lat="44.11965" lon="3.58649">
        <ele>1503</ele>
        <time>2013-07-07T09:51:19Z</time>
      </trkpt>
      <trkpt lat="44.11971" lon="3.58638">
        <ele>1504</ele>
        <time>2013-07-07T09:51:27Z</time>
      </trkpt>
      <trkpt lat="44.11975" lon="3.58625">
        <ele>1506</ele>
        <time>2013-07-07T09:51:33Z</time>
      </trkpt>
      <trkpt lat="44.1198" lon="3.58615">
        <ele>1506</ele>
        <time>2013-07-07T09:51:38Z</time>
      </trkpt>
      <trkpt lat="44.11982" lon="3.58606">
        <ele>1507</ele>
        <time>2013-07-07T09:51:44Z</time>
      </trkpt>
      <trkpt lat="44.11985" lon="3.58597">
        <ele>1507</ele>
        <time>2013-07-07T09:51:49Z</time>
      </trkpt>
      <trkpt lat="44.11987" lon="3.58588">
        <ele>1510</ele>
        <time>2013-07-07T09:51:55Z</time>
      </trkpt>
      <trkpt lat="44.1199" lon="3.58576">
        <ele>1511</ele>
        <time>2013-07-07T09:52:04Z</time>
      </trkpt>
      <trkpt lat="44.11994" lon="3.58563">
        <ele>1512</ele>
        <time>2013-07-07T09:52:15Z</time>
      </trkpt>
      <trkpt lat="44.11998" lon="3.58551">
        <ele>1514</ele>
        <time>2013-07-07T09:52:25Z</time>
      </trkpt>
      <trkpt lat="44.12001" lon="3.58539">
        <ele>1515</ele>
        <time>2013-07-07T09:52:37Z</time>
      </trkpt>
      <trkpt lat="44.12004" lon="3.58528">
        <ele>1516</ele>
        <time>2013-07-07T09:52:46Z</time>
      </trkpt>
      <trkpt lat="44.12007" lon="3.58517">
        <ele>1518</ele>
        <time>2013-07-07T09:52:54Z</time>
      </trkpt>
      <trkpt lat="44.1201" lon="3.58504">
        <ele>1519</ele>
        <time>2013-07-07T09:53:05Z</time>
      </trkpt>
      <trkpt lat="44.12014" lon="3.58493">
        <ele>1520</ele>
        <time>2013-07-07T09:53:15Z</time>
      </trkpt>
      <trkpt lat="44.12019" lon="3.58479">
        <ele>1521</ele>
        <time>2013-07-07T09:53:28Z</time>
      </trkpt>
      <trkpt lat="44.12022" lon="3.58463">
        <ele>1523</ele>
        <time>2013-07-07T09:53:38Z</time>
      </trkpt>
      <trkpt lat="44.12026" lon="3.58454">
        <ele>1525</ele>
        <time>2013-07-07T09:53:45Z</time>
      </trkpt>
      <trkpt lat="44.12031" lon="3.58443">
        <ele>1527</ele>
        <time>2013-07-07T09:53:54Z</time>
      </trkpt>
      <trkpt lat="44.12037" lon="3.58426">
        <ele>1528</ele>
        <time>2013-07-07T09:54:07Z</time>
      </trkpt>
      <trkpt lat="44.1204" lon="3.58417">
        <ele>1529</ele>
        <time>2013-07-07T09:54:14Z</time>
      </trkpt>
      <trkpt lat="44.12043" lon="3.58406">
        <ele>1531</ele>
        <time>2013-07-07T09:54:22Z</time>
      </trkpt>
      <trkpt lat="44.12047" lon="3.58398">
        <ele>1532.5445720224</ele>
        <time>2013-07-07T09:54:30Z</time>
      </trkpt>
      <trkpt lat="44.12049" lon="3.58388">
        <ele>1534</ele>
        <time>2013-07-07T09:54:41Z</time>
      </trkpt>
      <trkpt lat="44.12052" lon="3.58378">
        <ele>1534</ele>
        <time>2013-07-07T09:54:48Z</time>
      </trkpt>
      <trkpt lat="44.12057" lon="3.58367">
        <ele>1535</ele>
        <time>2013-07-07T09:54:56Z</time>
      </trkpt>
      <trkpt lat="44.12061" lon="3.58357">
        <ele>1536</ele>
        <time>2013-07-07T09:55:05Z</time>
      </trkpt>
      <trkpt lat="44.12067" lon="3.58341">
        <ele>1537</ele>
        <time>2013-07-07T09:55:18Z</time>
      </trkpt>
      <trkpt lat="44.1207" lon="3.5833">
        <ele>1539</ele>
        <time>2013-07-07T09:55:26Z</time>
      </trkpt>
      <trkpt lat="44.12074" lon="3.58317">
        <ele>1540</ele>
        <time>2013-07-07T09:55:35Z</time>
      </trkpt>
      <trkpt lat="44.12078" lon="3.58307">
        <ele>1541</ele>
        <time>2013-07-07T09:55:43Z</time>
      </trkpt>
      <trkpt lat="44.12081" lon="3.58298">
        <ele>1542</ele>
        <time>2013-07-07T09:55:51Z</time>
      </trkpt>
      <trkpt lat="44.12085" lon="3.58285">
        <ele>1543.7128735457</ele>
        <time>2013-07-07T09:56:00Z</time>
      </trkpt>
      <trkpt lat="44.12088" lon="3.58274">
        <ele>1545</ele>
        <time>2013-07-07T09:56:09Z</time>
      </trkpt>
      <trkpt lat="44.12092" lon="3.58262">
        <ele>1546</ele>
        <time>2013-07-07T09:56:19Z</time>
      </trkpt>
      <trkpt lat="44.12093" lon="3.58249">
        <ele>1546</ele>
        <time>2013-07-07T09:56:28Z</time>
      </trkpt>
      <trkpt lat="44.12096" lon="3.58237">
        <ele>1548</ele>
        <time>2013-07-07T09:56:36Z</time>
      </trkpt>
      <trkpt lat="44.12098" lon="3.58229">
        <ele>1549</ele>
        <time>2013-07-07T09:56:42Z</time>
      </trkpt>
      <trkpt lat="44.12101" lon="3.58221">
        <ele>1549</ele>
        <time>2013-07-07T09:56:49Z</time>
      </trkpt>
      <trkpt lat="44.12106" lon="3.58213">
        <ele>1553</ele>
        <time>2013-07-07T09:57:02Z</time>
      </trkpt>
      <trkpt lat="44.12105" lon="3.58206">
        <ele>1553</ele>
        <time>2013-07-07T09:57:06Z</time>
      </trkpt>
      <trkpt lat="44.12103" lon="3.582">
        <ele>1553.4851468836</ele>
        <time>2013-07-07T09:57:10Z</time>
      </trkpt>
      <trkpt lat="44.12101" lon="3.58194">
        <ele>1554</ele>
        <time>2013-07-07T09:57:14Z</time>
      </trkpt>
      <trkpt lat="44.121" lon="3.58187">
        <ele>1554</ele>
        <time>2013-07-07T09:57:18Z</time>
      </trkpt>
      <trkpt lat="44.121" lon="3.58181">
        <ele>1554</ele>
        <time>2013-07-07T09:57:22Z</time>
      </trkpt>
      <trkpt lat="44.12098" lon="3.58173">
        <ele>1554</ele>
        <time>2013-07-07T09:57:28Z</time>
      </trkpt>
      <trkpt lat="44.12096" lon="3.58168">
        <ele>1553</ele>
        <time>2013-07-07T09:57:33Z</time>
      </trkpt>
      <trkpt lat="44.12097" lon="3.58163">
        <ele>1555</ele>
        <time>2013-07-07T09:58:58Z</time>
      </trkpt>
      <trkpt lat="44.12099" lon="3.58148">
        <ele>1554</ele>
        <time>2013-07-07T10:02:02Z</time>
      </trkpt>
      <trkpt lat="44.121" lon="3.58134">
        <ele>1554</ele>
        <time>2013-07-07T10:02:10Z</time>
      </trkpt>
      <trkpt lat="44.12102" lon="3.58127">
        <ele>1554</ele>
        <time>2013-07-07T10:02:15Z</time>
      </trkpt>
      <trkpt lat="44.12102" lon="3.58119">
        <ele>1554.3861430056</ele>
        <time>2013-07-07T10:02:20Z</time>
      </trkpt>
      <trkpt lat="44.12104" lon="3.58109">
        <ele>1555</ele>
        <time>2013-07-07T10:02:39Z</time>
      </trkpt>
      <trkpt lat="44.12105" lon="3.58098">
        <ele>1554</ele>
        <time>2013-07-07T10:02:45Z</time>
      </trkpt>
      <trkpt lat="44.12107" lon="3.58086">
        <ele>1554</ele>
        <time>2013-07-07T10:02:52Z</time>
      </trkpt>
      <trkpt lat="44.12107" lon="3.58074">
        <ele>1554</ele>
        <time>2013-07-07T10:02:58Z</time>
      </trkpt>
      <trkpt lat="44.12108" lon="3.58063">
        <ele>1554</ele>
        <time>2013-07-07T10:03:04Z</time>
      </trkpt>
      <trkpt lat="44.1211" lon="3.58051">
        <ele>1554.7722860112</ele>
        <time>2013-07-07T10:03:10Z</time>
      </trkpt>
      <trkpt lat="44.12112" lon="3.5804">
        <ele>1556</ele>
        <time>2013-07-07T10:03:16Z</time>
      </trkpt>
      <trkpt lat="44.12113" lon="3.58029">
        <ele>1556</ele>
        <time>2013-07-07T10:03:22Z</time>
      </trkpt>
      <trkpt lat="44.12113" lon="3.5802">
        <ele>1556</ele>
        <time>2013-07-07T10:03:27Z</time>
      </trkpt>
      <trkpt lat="44.12113" lon="3.58011">
        <ele>1556</ele>
        <time>2013-07-07T10:03:31Z</time>
      </trkpt>
      <trkpt lat="44.12113" lon="3.58">
        <ele>1556</ele>
        <time>2013-07-07T10:03:35Z</time>
      </trkpt>
      <trkpt lat="44.12111" lon="3.57988">
        <ele>1556</ele>
        <time>2013-07-07T10:03:39Z</time>
      </trkpt>
      <trkpt lat="44.1211" lon="3.57971">
        <ele>1557</ele>
        <time>2013-07-07T10:03:45Z</time>
      </trkpt>
      <trkpt lat="44.12109" lon="3.57953">
        <ele>1558</ele>
        <time>2013-07-07T10:03:52Z</time>
      </trkpt>
      <trkpt lat="44.12109" lon="3.57938">
        <ele>1558</ele>
        <time>2013-07-07T10:03:58Z</time>
      </trkpt>
      <trkpt lat="44.12109" lon="3.57924">
        <ele>1560</ele>
        <time>2013-07-07T10:04:05Z</time>
      </trkpt>
      <trkpt lat="44.1211" lon="3.57911">
        <ele>1560</ele>
        <time>2013-07-07T10:04:12Z</time>
      </trkpt>
      <trkpt lat="44.1211" lon="3.579">
        <ele>1560</ele>
        <time>2013-07-07T10:04:18Z</time>
      </trkpt>
      <trkpt lat="44.1211" lon="3.57889">
        <ele>1561</ele>
        <time>2013-07-07T10:04:24Z</time>
      </trkpt>
      <trkpt lat="44.12107" lon="3.57879">
        <ele>1561</ele>
        <time>2013-07-07T10:04:29Z</time>
      </trkpt>
      <trkpt lat="44.12102" lon="3.57865">
        <ele>1561</ele>
        <time>2013-07-07T10:04:35Z</time>
      </trkpt>
      <trkpt lat="44.12095" lon="3.57854">
        <ele>1561</ele>
        <time>2013-07-07T10:04:40Z</time>
      </trkpt>
      <trkpt lat="44.12089" lon="3.57847">
        <ele>1561</ele>
        <time>2013-07-07T10:04:44Z</time>
      </trkpt>
      <trkpt lat="44.12081" lon="3.57843">
        <ele>1561</ele>
        <time>2013-07-07T10:04:48Z</time>
      </trkpt>
      <trkpt lat="44.12073" lon="3.57838">
        <ele>1560</ele>
        <time>2013-07-07T10:04:52Z</time>
      </trkpt>
      <trkpt lat="44.12069" lon="3.57825">
        <ele>1560</ele>
        <time>2013-07-07T10:04:59Z</time>
      </trkpt>
      <trkpt lat="44.12069" lon="3.57815">
        <ele>1558</ele>
        <time>2013-07-07T10:05:10Z</time>
      </trkpt>
      <trkpt lat="44.12067" lon="3.57803">
        <ele>1558</ele>
        <time>2013-07-07T10:05:15Z</time>
      </trkpt>
      <trkpt lat="44.12066" lon="3.57791">
        <ele>1558</ele>
        <time>2013-07-07T10:05:19Z</time>
      </trkpt>
      <trkpt lat="44.12065" lon="3.57778">
        <ele>1557</ele>
        <time>2013-07-07T10:05:23Z</time>
      </trkpt>
      <trkpt lat="44.12063" lon="3.57765">
        <ele>1557</ele>
        <time>2013-07-07T10:05:27Z</time>
      </trkpt>
      <trkpt lat="44.12064" lon="3.57743">
        <ele>1556</ele>
        <time>2013-07-07T10:05:33Z</time>
      </trkpt>
      <trkpt lat="44.12066" lon="3.57723">
        <ele>1556</ele>
        <time>2013-07-07T10:05:39Z</time>
      </trkpt>
      <trkpt lat="44.12067" lon="3.57702">
        <ele>1552.6138696677</ele>
        <time>2013-07-07T10:05:45Z</time>
      </trkpt>
      <trkpt lat="44.12066" lon="3.5769">
        <ele>1552</ele>
        <time>2013-07-07T10:05:49Z</time>
      </trkpt>
      <trkpt lat="44.12064" lon="3.57677">
        <ele>1551</ele>
        <time>2013-07-07T10:05:53Z</time>
      </trkpt>
      <trkpt lat="44.12063" lon="3.57664">
        <ele>1551</ele>
        <time>2013-07-07T10:05:57Z</time>
      </trkpt>
      <trkpt lat="44.12063" lon="3.5765">
        <ele>1548</ele>
        <time>2013-07-07T10:06:01Z</time>
      </trkpt>
      <trkpt lat="44.12062" lon="3.57636">
        <ele>1547.6200064</ele>
        <time>2013-07-07T10:06:05Z</time>
      </trkpt>
      <trkpt lat="44.12061" lon="3.57623">
        <ele>1547</ele>
        <time>2013-07-07T10:06:09Z</time>
      </trkpt>
      <trkpt lat="44.1206" lon="3.57613">
        <ele>1546</ele>
        <time>2013-07-07T10:06:12Z</time>
      </trkpt>
      <trkpt lat="44.12059" lon="3.57595">
        <ele>1546</ele>
        <time>2013-07-07T10:06:17Z</time>
      </trkpt>
      <trkpt lat="44.12057" lon="3.57582">
        <ele>1545</ele>
        <time>2013-07-07T10:06:21Z</time>
      </trkpt>
      <trkpt lat="44.12055" lon="3.57566">
        <ele>1545</ele>
        <time>2013-07-07T10:06:26Z</time>
      </trkpt>
      <trkpt lat="44.12053" lon="3.57546">
        <ele>1542</ele>
        <time>2013-07-07T10:06:32Z</time>
      </trkpt>
      <trkpt lat="44.12051" lon="3.57526">
        <ele>1541</ele>
        <time>2013-07-07T10:06:38Z</time>
      </trkpt>
      <trkpt lat="44.1205" lon="3.57506">
        <ele>1540</ele>
        <time>2013-07-07T10:06:44Z</time>
      </trkpt>
      <trkpt lat="44.12048" lon="3.5749">
        <ele>1540</ele>
        <time>2013-07-07T10:06:49Z</time>
      </trkpt>
      <trkpt lat="44.12042" lon="3.57475">
        <ele>1539</ele>
        <time>2013-07-07T10:06:54Z</time>
      </trkpt>
      <trkpt lat="44.12038" lon="3.57465">
        <ele>1539</ele>
        <time>2013-07-07T10:06:58Z</time>
      </trkpt>
      <trkpt lat="44.12034" lon="3.57458">
        <ele>1537</ele>
        <time>2013-07-07T10:07:01Z</time>
      </trkpt>
      <trkpt lat="44.1203" lon="3.57449">
        <ele>1537</ele>
        <time>2013-07-07T10:07:05Z</time>
      </trkpt>
      <trkpt lat="44.12024" lon="3.57435">
        <ele>1535</ele>
        <time>2013-07-07T10:07:11Z</time>
      </trkpt>
      <trkpt lat="44.12018" lon="3.57427">
        <ele>1535</ele>
        <time>2013-07-07T10:07:15Z</time>
      </trkpt>
      <trkpt lat="44.12012" lon="3.5742">
        <ele>1535</ele>
        <time>2013-07-07T10:07:19Z</time>
      </trkpt>
      <trkpt lat="44.12005" lon="3.57418">
        <ele>1533</ele>
        <time>2013-07-07T10:07:22Z</time>
      </trkpt>
      <trkpt lat="44.11998" lon="3.57414">
        <ele>1533</ele>
        <time>2013-07-07T10:07:25Z</time>
      </trkpt>
      <trkpt lat="44.11992" lon="3.5741">
        <ele>1533</ele>
        <time>2013-07-07T10:07:28Z</time>
      </trkpt>
      <trkpt lat="44.11986" lon="3.57404">
        <ele>1531</ele>
        <time>2013-07-07T10:07:31Z</time>
      </trkpt>
      <trkpt lat="44.11977" lon="3.57396">
        <ele>1531</ele>
        <time>2013-07-07T10:07:35Z</time>
      </trkpt>
      <trkpt lat="44.1197" lon="3.57388">
        <ele>1531</ele>
        <time>2013-07-07T10:07:39Z</time>
      </trkpt>
      <trkpt lat="44.11963" lon="3.5738">
        <ele>1529</ele>
        <time>2013-07-07T10:07:43Z</time>
      </trkpt>
      <trkpt lat="44.11957" lon="3.57371">
        <ele>1529</ele>
        <time>2013-07-07T10:07:47Z</time>
      </trkpt>
      <trkpt lat="44.1195" lon="3.57363">
        <ele>1527</ele>
        <time>2013-07-07T10:07:51Z</time>
      </trkpt>
      <trkpt lat="44.11946" lon="3.57355">
        <ele>1527</ele>
        <time>2013-07-07T10:07:54Z</time>
      </trkpt>
      <trkpt lat="44.1194" lon="3.57346">
        <ele>1527</ele>
        <time>2013-07-07T10:07:58Z</time>
      </trkpt>
      <trkpt lat="44.11935" lon="3.57337">
        <ele>1524</ele>
        <time>2013-07-07T10:08:02Z</time>
      </trkpt>
      <trkpt lat="44.1193" lon="3.57326">
        <ele>1524</ele>
        <time>2013-07-07T10:08:06Z</time>
      </trkpt>
      <trkpt lat="44.11927" lon="3.57314">
        <ele>1523.6199936</ele>
        <time>2013-07-07T10:08:10Z</time>
      </trkpt>
      <trkpt lat="44.11922" lon="3.57301">
        <ele>1523</ele>
        <time>2013-07-07T10:08:14Z</time>
      </trkpt>
      <trkpt lat="44.11919" lon="3.5729">
        <ele>1523</ele>
        <time>2013-07-07T10:08:18Z</time>
      </trkpt>
      <trkpt lat="44.11915" lon="3.57273">
        <ele>1520</ele>
        <time>2013-07-07T10:08:23Z</time>
      </trkpt>
      <trkpt lat="44.11913" lon="3.57257">
        <ele>1519</ele>
        <time>2013-07-07T10:08:28Z</time>
      </trkpt>
      <trkpt lat="44.11913" lon="3.57238">
        <ele>1518</ele>
        <time>2013-07-07T10:08:34Z</time>
      </trkpt>
      <trkpt lat="44.11912" lon="3.57221">
        <ele>1516.8599808</ele>
        <time>2013-07-07T10:08:40Z</time>
      </trkpt>
      <trkpt lat="44.11912" lon="3.57198">
        <ele>1515</ele>
        <time>2013-07-07T10:08:49Z</time>
      </trkpt>
      <trkpt lat="44.11913" lon="3.57177">
        <ele>1514</ele>
        <time>2013-07-07T10:08:56Z</time>
      </trkpt>
      <trkpt lat="44.11916" lon="3.57159">
        <ele>1509</ele>
        <time>2013-07-07T10:09:01Z</time>
      </trkpt>
      <trkpt lat="44.11919" lon="3.57143">
        <ele>1509</ele>
        <time>2013-07-07T10:09:06Z</time>
      </trkpt>
      <trkpt lat="44.11922" lon="3.57118">
        <ele>1508</ele>
        <time>2013-07-07T10:09:13Z</time>
      </trkpt>
      <trkpt lat="44.11926" lon="3.57099">
        <ele>1508</ele>
        <time>2013-07-07T10:09:19Z</time>
      </trkpt>
      <trkpt lat="44.11937" lon="3.57078">
        <ele>1503</ele>
        <time>2013-07-07T10:09:27Z</time>
      </trkpt>
      <trkpt lat="44.11942" lon="3.57059">
        <ele>1502</ele>
        <time>2013-07-07T10:09:33Z</time>
      </trkpt>
      <trkpt lat="44.11945" lon="3.57038">
        <ele>1500</ele>
        <time>2013-07-07T10:09:39Z</time>
      </trkpt>
      <trkpt lat="44.1195" lon="3.57011">
        <ele>1498</ele>
        <time>2013-07-07T10:09:47Z</time>
      </trkpt>
      <trkpt lat="44.11958" lon="3.56993">
        <ele>1496</ele>
        <time>2013-07-07T10:09:54Z</time>
      </trkpt>
      <trkpt lat="44.11967" lon="3.56977">
        <ele>1494.8415709832</ele>
        <time>2013-07-07T10:10:00Z</time>
      </trkpt>
      <trkpt lat="44.11976" lon="3.56958">
        <ele>1493</ele>
        <time>2013-07-07T10:10:07Z</time>
      </trkpt>
      <trkpt lat="44.11987" lon="3.56943">
        <ele>1492</ele>
        <time>2013-07-07T10:10:13Z</time>
      </trkpt>
      <trkpt lat="44.11997" lon="3.56928">
        <ele>1492</ele>
        <time>2013-07-07T10:10:19Z</time>
      </trkpt>
      <trkpt lat="44.1201" lon="3.56913">
        <ele>1487.267330748</ele>
        <time>2013-07-07T10:10:25Z</time>
      </trkpt>
      <trkpt lat="44.12024" lon="3.56899">
        <ele>1485</ele>
        <time>2013-07-07T10:10:32Z</time>
      </trkpt>
      <trkpt lat="44.12036" lon="3.56894">
        <ele>1484</ele>
        <time>2013-07-07T10:10:36Z</time>
      </trkpt>
      <trkpt lat="44.12045" lon="3.56889">
        <ele>1483.6199936</ele>
        <time>2013-07-07T10:10:40Z</time>
      </trkpt>
      <trkpt lat="44.12056" lon="3.56883">
        <ele>1483</ele>
        <time>2013-07-07T10:10:45Z</time>
      </trkpt>
      <trkpt lat="44.1206" lon="3.56866">
        <ele>1481</ele>
        <time>2013-07-07T10:10:52Z</time>
      </trkpt>
      <trkpt lat="44.12055" lon="3.56852">
        <ele>1481</ele>
        <time>2013-07-07T10:10:58Z</time>
      </trkpt>
      <trkpt lat="44.12049" lon="3.56846">
        <ele>1478</ele>
        <time>2013-07-07T10:11:01Z</time>
      </trkpt>
      <trkpt lat="44.12043" lon="3.56835">
        <ele>1477</ele>
        <time>2013-07-07T10:11:06Z</time>
      </trkpt>
      <trkpt lat="44.12038" lon="3.56824">
        <ele>1475.8599808</ele>
        <time>2013-07-07T10:11:10Z</time>
      </trkpt>
      <trkpt lat="44.12034" lon="3.56812">
        <ele>1474</ele>
        <time>2013-07-07T10:11:14Z</time>
      </trkpt>
      <trkpt lat="44.12031" lon="3.56799">
        <ele>1472</ele>
        <time>2013-07-07T10:11:18Z</time>
      </trkpt>
      <trkpt lat="44.12028" lon="3.56782">
        <ele>1470</ele>
        <time>2013-07-07T10:11:23Z</time>
      </trkpt>
      <trkpt lat="44.12028" lon="3.5676">
        <ele>1468.6138569944</ele>
        <time>2013-07-07T10:11:30Z</time>
      </trkpt>
      <trkpt lat="44.12031" lon="3.56734">
        <ele>1468</ele>
        <time>2013-07-07T10:11:37Z</time>
      </trkpt>
      <trkpt lat="44.12031" lon="3.56706">
        <ele>1466</ele>
        <time>2013-07-07T10:11:44Z</time>
      </trkpt>
      <trkpt lat="44.12033" lon="3.56683">
        <ele>1466</ele>
        <time>2013-07-07T10:11:49Z</time>
      </trkpt>
      <trkpt lat="44.12039" lon="3.56663">
        <ele>1461</ele>
        <time>2013-07-07T10:11:56Z</time>
      </trkpt>
      <trkpt lat="44.12048" lon="3.56645">
        <ele>1462</ele>
        <time>2013-07-07T10:12:03Z</time>
      </trkpt>
      <trkpt lat="44.12057" lon="3.56629">
        <ele>1462</ele>
        <time>2013-07-07T10:12:11Z</time>
      </trkpt>
      <trkpt lat="44.12068" lon="3.56611">
        <ele>1462.3861430056</ele>
        <time>2013-07-07T10:12:20Z</time>
      </trkpt>
      <trkpt lat="44.12077" lon="3.56595">
        <ele>1463</ele>
        <time>2013-07-07T10:12:27Z</time>
      </trkpt>
      <trkpt lat="44.12084" lon="3.56579">
        <ele>1463</ele>
        <time>2013-07-07T10:12:35Z</time>
      </trkpt>
      <trkpt lat="44.12096" lon="3.56563">
        <ele>1464</ele>
        <time>2013-07-07T10:12:43Z</time>
      </trkpt>
      <trkpt lat="44.12105" lon="3.56549">
        <ele>1464</ele>
        <time>2013-07-07T10:12:52Z</time>
      </trkpt>
      <trkpt lat="44.12113" lon="3.56536">
        <ele>1464</ele>
        <time>2013-07-07T10:13:01Z</time>
      </trkpt>
      <trkpt lat="44.12123" lon="3.56523">
        <ele>1465</ele>
        <time>2013-07-07T10:13:11Z</time>
      </trkpt>
      <trkpt lat="44.1213" lon="3.56506">
        <ele>1465</ele>
        <time>2013-07-07T10:13:19Z</time>
      </trkpt>
      <trkpt lat="44.12133" lon="3.56488">
        <ele>1466</ele>
        <time>2013-07-07T10:13:26Z</time>
      </trkpt>
      <trkpt lat="44.12134" lon="3.56469">
        <ele>1466</ele>
        <time>2013-07-07T10:13:32Z</time>
      </trkpt>
      <trkpt lat="44.12135" lon="3.5645">
        <ele>1466</ele>
        <time>2013-07-07T10:13:38Z</time>
      </trkpt>
      <trkpt lat="44.12135" lon="3.56431">
        <ele>1466</ele>
        <time>2013-07-07T10:13:45Z</time>
      </trkpt>
      <trkpt lat="44.12138" lon="3.56412">
        <ele>1467</ele>
        <time>2013-07-07T10:13:53Z</time>
      </trkpt>
      <trkpt lat="44.12138" lon="3.56392">
        <ele>1468</ele>
        <time>2013-07-07T10:14:01Z</time>
      </trkpt>
      <trkpt lat="44.12138" lon="3.56373">
        <ele>1468</ele>
        <time>2013-07-07T10:14:09Z</time>
      </trkpt>
      <trkpt lat="44.1214" lon="3.56357">
        <ele>1468</ele>
        <time>2013-07-07T10:14:16Z</time>
      </trkpt>
      <trkpt lat="44.1214" lon="3.56338">
        <ele>1469</ele>
        <time>2013-07-07T10:14:24Z</time>
      </trkpt>
      <trkpt lat="44.12141" lon="3.5632">
        <ele>1469</ele>
        <time>2013-07-07T10:14:30Z</time>
      </trkpt>
      <trkpt lat="44.12141" lon="3.56304">
        <ele>1469</ele>
        <time>2013-07-07T10:14:36Z</time>
      </trkpt>
      <trkpt lat="44.12145" lon="3.56286">
        <ele>1469</ele>
        <time>2013-07-07T10:14:44Z</time>
      </trkpt>
      <trkpt lat="44.12148" lon="3.56268">
        <ele>1469</ele>
        <time>2013-07-07T10:14:52Z</time>
      </trkpt>
      <trkpt lat="44.1215" lon="3.5625">
        <ele>1469</ele>
        <time>2013-07-07T10:14:59Z</time>
      </trkpt>
      <trkpt lat="44.12155" lon="3.56228">
        <ele>1470</ele>
        <time>2013-07-07T10:15:08Z</time>
      </trkpt>
      <trkpt lat="44.12158" lon="3.56217">
        <ele>1470</ele>
        <time>2013-07-07T10:15:12Z</time>
      </trkpt>
      <trkpt lat="44.12162" lon="3.56206">
        <ele>1470</ele>
        <time>2013-07-07T10:15:16Z</time>
      </trkpt>
      <trkpt lat="44.12165" lon="3.56196">
        <ele>1470</ele>
        <time>2013-07-07T10:15:20Z</time>
      </trkpt>
      <trkpt lat="44.12168" lon="3.56185">
        <ele>1470</ele>
        <time>2013-07-07T10:15:24Z</time>
      </trkpt>
      <trkpt lat="44.12169" lon="3.56174">
        <ele>1470</ele>
        <time>2013-07-07T10:15:28Z</time>
      </trkpt>
      <trkpt lat="44.12162" lon="3.56165">
        <ele>1470</ele>
        <time>2013-07-07T10:15:32Z</time>
      </trkpt>
      <trkpt lat="44.12156" lon="3.56159">
        <ele>1470</ele>
        <time>2013-07-07T10:15:35Z</time>
      </trkpt>
      <trkpt lat="44.12149" lon="3.56154">
        <ele>1470</ele>
        <time>2013-07-07T10:15:38Z</time>
      </trkpt>
      <trkpt lat="44.12142" lon="3.56149">
        <ele>1469</ele>
        <time>2013-07-07T10:15:41Z</time>
      </trkpt>
      <trkpt lat="44.12135" lon="3.56144">
        <ele>1469</ele>
        <time>2013-07-07T10:15:44Z</time>
      </trkpt>
      <trkpt lat="44.12128" lon="3.56139">
        <ele>1469</ele>
        <time>2013-07-07T10:15:47Z</time>
      </trkpt>
      <trkpt lat="44.12121" lon="3.56135">
        <ele>1467.7754920784</ele>
        <time>2013-07-07T10:15:50Z</time>
      </trkpt>
      <trkpt lat="44.12114" lon="3.56129">
        <ele>1465</ele>
        <time>2013-07-07T10:15:53Z</time>
      </trkpt>
      <trkpt lat="44.12107" lon="3.56124">
        <ele>1462</ele>
        <time>2013-07-07T10:15:56Z</time>
      </trkpt>
      <trkpt lat="44.121" lon="3.56118">
        <ele>1462</ele>
        <time>2013-07-07T10:15:59Z</time>
      </trkpt>
      <trkpt lat="44.12093" lon="3.56113">
        <ele>1461</ele>
        <time>2013-07-07T10:16:02Z</time>
      </trkpt>
      <trkpt lat="44.12086" lon="3.56106">
        <ele>1460.6200064</ele>
        <time>2013-07-07T10:16:05Z</time>
      </trkpt>
      <trkpt lat="44.1208" lon="3.56098">
        <ele>1460</ele>
        <time>2013-07-07T10:16:08Z</time>
      </trkpt>
      <trkpt lat="44.12076" lon="3.56089">
        <ele>1458</ele>
        <time>2013-07-07T10:16:11Z</time>
      </trkpt>
      <trkpt lat="44.1207" lon="3.5608">
        <ele>1458</ele>
        <time>2013-07-07T10:16:14Z</time>
      </trkpt>
      <trkpt lat="44.12064" lon="3.56072">
        <ele>1456</ele>
        <time>2013-07-07T10:16:17Z</time>
      </trkpt>
      <trkpt lat="44.12058" lon="3.56063">
        <ele>1456</ele>
        <time>2013-07-07T10:16:20Z</time>
      </trkpt>
      <trkpt lat="44.12053" lon="3.56055">
        <ele>1456</ele>
        <time>2013-07-07T10:16:23Z</time>
      </trkpt>
      <trkpt lat="44.12047" lon="3.56046">
        <ele>1456</ele>
        <time>2013-07-07T10:16:26Z</time>
      </trkpt>
      <trkpt lat="44.12041" lon="3.56038">
        <ele>1456</ele>
        <time>2013-07-07T10:16:29Z</time>
      </trkpt>
      <trkpt lat="44.12036" lon="3.5603">
        <ele>1454</ele>
        <time>2013-07-07T10:16:32Z</time>
      </trkpt>
      <trkpt lat="44.1203" lon="3.5602">
        <ele>1454</ele>
        <time>2013-07-07T10:16:35Z</time>
      </trkpt>
      <trkpt lat="44.12024" lon="3.56012">
        <ele>1454</ele>
        <time>2013-07-07T10:16:38Z</time>
      </trkpt>
      <trkpt lat="44.1202" lon="3.56003">
        <ele>1451</ele>
        <time>2013-07-07T10:16:41Z</time>
      </trkpt>
      <trkpt lat="44.12025" lon="3.55987">
        <ele>1450.2277393354</ele>
        <time>2013-07-07T10:16:45Z</time>
      </trkpt>
      <trkpt lat="44.12033" lon="3.55979">
        <ele>1449</ele>
        <time>2013-07-07T10:16:48Z</time>
      </trkpt>
      <trkpt lat="44.1204" lon="3.55972">
        <ele>1448</ele>
        <time>2013-07-07T10:16:51Z</time>
      </trkpt>
      <trkpt lat="44.12048" lon="3.55968">
        <ele>1448</ele>
        <time>2013-07-07T10:16:54Z</time>
      </trkpt>
      <trkpt lat="44.12055" lon="3.55964">
        <ele>1447</ele>
        <time>2013-07-07T10:16:57Z</time>
      </trkpt>
      <trkpt lat="44.12062" lon="3.55961">
        <ele>1447</ele>
        <time>2013-07-07T10:16:59Z</time>
      </trkpt>
      <trkpt lat="44.12068" lon="3.55958">
        <ele>1445</ele>
        <time>2013-07-07T10:17:01Z</time>
      </trkpt>
      <trkpt lat="44.12076" lon="3.55955">
        <ele>1445</ele>
        <time>2013-07-07T10:17:04Z</time>
      </trkpt>
      <trkpt lat="44.12082" lon="3.55952">
        <ele>1445</ele>
        <time>2013-07-07T10:17:07Z</time>
      </trkpt>
      <trkpt lat="44.1209" lon="3.55949">
        <ele>1446</ele>
        <time>2013-07-07T10:17:11Z</time>
      </trkpt>
      <trkpt lat="44.12097" lon="3.55948">
        <ele>1446</ele>
        <time>2013-07-07T10:17:14Z</time>
      </trkpt>
      <trkpt lat="44.12105" lon="3.55945">
        <ele>1446</ele>
        <time>2013-07-07T10:17:18Z</time>
      </trkpt>
      <trkpt lat="44.12112" lon="3.55945">
        <ele>1448</ele>
        <time>2013-07-07T10:17:22Z</time>
      </trkpt>
      <trkpt lat="44.1212" lon="3.55942">
        <ele>1448</ele>
        <time>2013-07-07T10:17:26Z</time>
      </trkpt>
      <trkpt lat="44.12128" lon="3.55937">
        <ele>1448</ele>
        <time>2013-07-07T10:17:31Z</time>
      </trkpt>
      <trkpt lat="44.12125" lon="3.55926">
        <ele>1448</ele>
        <time>2013-07-07T10:17:37Z</time>
      </trkpt>
      <trkpt lat="44.1212" lon="3.55916">
        <ele>1447.2277139888</ele>
        <time>2013-07-07T10:17:40Z</time>
      </trkpt>
      <trkpt lat="44.12116" lon="3.55907">
        <ele>1446</ele>
        <time>2013-07-07T10:17:43Z</time>
      </trkpt>
      <trkpt lat="44.12111" lon="3.55899">
        <ele>1446</ele>
        <time>2013-07-07T10:17:46Z</time>
      </trkpt>
      <trkpt lat="44.12104" lon="3.55895">
        <ele>1446</ele>
        <time>2013-07-07T10:17:49Z</time>
      </trkpt>
      <trkpt lat="44.12095" lon="3.55899">
        <ele>1444</ele>
        <time>2013-07-07T10:17:54Z</time>
      </trkpt>
      <trkpt lat="44.12087" lon="3.55907">
        <ele>1444</ele>
        <time>2013-07-07T10:17:58Z</time>
      </trkpt>
      <trkpt lat="44.12079" lon="3.55911">
        <ele>1439</ele>
        <time>2013-07-07T10:18:01Z</time>
      </trkpt>
      <trkpt lat="44.12069" lon="3.55914">
        <ele>1439</ele>
        <time>2013-07-07T10:18:04Z</time>
      </trkpt>
      <trkpt lat="44.12059" lon="3.55918">
        <ele>1438</ele>
        <time>2013-07-07T10:18:07Z</time>
      </trkpt>
      <trkpt lat="44.12048" lon="3.5592">
        <ele>1437.2399872</ele>
        <time>2013-07-07T10:18:10Z</time>
      </trkpt>
      <trkpt lat="44.12039" lon="3.55918">
        <ele>1436</ele>
        <time>2013-07-07T10:18:14Z</time>
      </trkpt>
      <trkpt lat="44.1203" lon="3.55911">
        <ele>1435</ele>
        <time>2013-07-07T10:18:19Z</time>
      </trkpt>
      <trkpt lat="44.12022" lon="3.55903">
        <ele>1437</ele>
        <time>2013-07-07T10:18:23Z</time>
      </trkpt>
      <trkpt lat="44.12015" lon="3.55893">
        <ele>1437</ele>
        <time>2013-07-07T10:18:27Z</time>
      </trkpt>
      <trkpt lat="44.12009" lon="3.55885">
        <ele>1436.2277139888</ele>
        <time>2013-07-07T10:18:30Z</time>
      </trkpt>
      <trkpt lat="44.12004" lon="3.55876">
        <ele>1435</ele>
        <time>2013-07-07T10:18:33Z</time>
      </trkpt>
      <trkpt lat="44.11998" lon="3.55868">
        <ele>1435</ele>
        <time>2013-07-07T10:18:36Z</time>
      </trkpt>
      <trkpt lat="44.11992" lon="3.55858">
        <ele>1435</ele>
        <time>2013-07-07T10:18:39Z</time>
      </trkpt>
      <trkpt lat="44.11986" lon="3.55848">
        <ele>1432</ele>
        <time>2013-07-07T10:18:42Z</time>
      </trkpt>
      <trkpt lat="44.1198" lon="3.55837">
        <ele>1430</ele>
        <time>2013-07-07T10:18:46Z</time>
      </trkpt>
      <trkpt lat="44.11974" lon="3.55829">
        <ele>1430</ele>
        <time>2013-07-07T10:18:49Z</time>
      </trkpt>
      <trkpt lat="44.11967" lon="3.55819">
        <ele>1430</ele>
        <time>2013-07-07T10:18:53Z</time>
      </trkpt>
      <trkpt lat="44.11959" lon="3.5581">
        <ele>1430</ele>
        <time>2013-07-07T10:18:57Z</time>
      </trkpt>
      <trkpt lat="44.11952" lon="3.558">
        <ele>1428</ele>
        <time>2013-07-07T10:19:01Z</time>
      </trkpt>
      <trkpt lat="44.11946" lon="3.55791">
        <ele>1428</ele>
        <time>2013-07-07T10:19:04Z</time>
      </trkpt>
      <trkpt lat="44.11942" lon="3.55781">
        <ele>1428</ele>
        <time>2013-07-07T10:19:07Z</time>
      </trkpt>
      <trkpt lat="44.11937" lon="3.55768">
        <ele>1426</ele>
        <time>2013-07-07T10:19:11Z</time>
      </trkpt>
      <trkpt lat="44.11932" lon="3.55757">
        <ele>1426</ele>
        <time>2013-07-07T10:19:14Z</time>
      </trkpt>
      <trkpt lat="44.11928" lon="3.55742">
        <ele>1426</ele>
        <time>2013-07-07T10:19:18Z</time>
      </trkpt>
      <trkpt lat="44.11927" lon="3.55728">
        <ele>1424</ele>
        <time>2013-07-07T10:19:21Z</time>
      </trkpt>
      <trkpt lat="44.11924" lon="3.55714">
        <ele>1424</ele>
        <time>2013-07-07T10:19:24Z</time>
      </trkpt>
      <trkpt lat="44.1192" lon="3.55702">
        <ele>1424</ele>
        <time>2013-07-07T10:19:27Z</time>
      </trkpt>
      <trkpt lat="44.11916" lon="3.5569">
        <ele>1422</ele>
        <time>2013-07-07T10:19:31Z</time>
      </trkpt>
      <trkpt lat="44.11911" lon="3.55679">
        <ele>1422</ele>
        <time>2013-07-07T10:19:35Z</time>
      </trkpt>
      <trkpt lat="44.11905" lon="3.5567">
        <ele>1422</ele>
        <time>2013-07-07T10:19:39Z</time>
      </trkpt>
      <trkpt lat="44.11899" lon="3.55663">
        <ele>1421</ele>
        <time>2013-07-07T10:19:43Z</time>
      </trkpt>
      <trkpt lat="44.11892" lon="3.55657">
        <ele>1421</ele>
        <time>2013-07-07T10:19:47Z</time>
      </trkpt>
      <trkpt lat="44.11885" lon="3.5565">
        <ele>1421</ele>
        <time>2013-07-07T10:19:51Z</time>
      </trkpt>
      <trkpt lat="44.11877" lon="3.55643">
        <ele>1421</ele>
        <time>2013-07-07T10:19:55Z</time>
      </trkpt>
      <trkpt lat="44.1187" lon="3.55636">
        <ele>1421</ele>
        <time>2013-07-07T10:19:59Z</time>
      </trkpt>
      <trkpt lat="44.11862" lon="3.55629">
        <ele>1420</ele>
        <time>2013-07-07T10:20:04Z</time>
      </trkpt>
      <trkpt lat="44.11854" lon="3.5562">
        <ele>1420</ele>
        <time>2013-07-07T10:20:09Z</time>
      </trkpt>
      <trkpt lat="44.11846" lon="3.55614">
        <ele>1420</ele>
        <time>2013-07-07T10:20:13Z</time>
      </trkpt>
      <trkpt lat="44.11838" lon="3.55606">
        <ele>1420</ele>
        <time>2013-07-07T10:20:17Z</time>
      </trkpt>
      <trkpt lat="44.11831" lon="3.55598">
        <ele>1420</ele>
        <time>2013-07-07T10:20:21Z</time>
      </trkpt>
      <trkpt lat="44.11826" lon="3.55585">
        <ele>1420</ele>
        <time>2013-07-07T10:20:25Z</time>
      </trkpt>
      <trkpt lat="44.11822" lon="3.55573">
        <ele>1420</ele>
        <time>2013-07-07T10:20:29Z</time>
      </trkpt>
      <trkpt lat="44.11819" lon="3.55562">
        <ele>1419</ele>
        <time>2013-07-07T10:20:33Z</time>
      </trkpt>
      <trkpt lat="44.11816" lon="3.55549">
        <ele>1419</ele>
        <time>2013-07-07T10:20:37Z</time>
      </trkpt>
      <trkpt lat="44.11812" lon="3.55538">
        <ele>1418</ele>
        <time>2013-07-07T10:20:41Z</time>
      </trkpt>
      <trkpt lat="44.11808" lon="3.55529">
        <ele>1418</ele>
        <time>2013-07-07T10:20:44Z</time>
      </trkpt>
      <trkpt lat="44.11803" lon="3.55521">
        <ele>1418</ele>
        <time>2013-07-07T10:20:47Z</time>
      </trkpt>
      <trkpt lat="44.11798" lon="3.55511">
        <ele>1418</ele>
        <time>2013-07-07T10:20:51Z</time>
      </trkpt>
      <trkpt lat="44.11792" lon="3.55501">
        <ele>1418</ele>
        <time>2013-07-07T10:20:55Z</time>
      </trkpt>
      <trkpt lat="44.11788" lon="3.55492">
        <ele>1418</ele>
        <time>2013-07-07T10:20:59Z</time>
      </trkpt>
      <trkpt lat="44.11782" lon="3.55484">
        <ele>1417</ele>
        <time>2013-07-07T10:21:03Z</time>
      </trkpt>
      <trkpt lat="44.11779" lon="3.55475">
        <ele>1417</ele>
        <time>2013-07-07T10:21:07Z</time>
      </trkpt>
      <trkpt lat="44.11774" lon="3.55465">
        <ele>1417</ele>
        <time>2013-07-07T10:21:11Z</time>
      </trkpt>
      <trkpt lat="44.1177" lon="3.55456">
        <ele>1417</ele>
        <time>2013-07-07T10:21:15Z</time>
      </trkpt>
      <trkpt lat="44.11765" lon="3.55448">
        <ele>1417</ele>
        <time>2013-07-07T10:21:19Z</time>
      </trkpt>
      <trkpt lat="44.11759" lon="3.55437">
        <ele>1418</ele>
        <time>2013-07-07T10:21:24Z</time>
      </trkpt>
      <trkpt lat="44.11755" lon="3.55426">
        <ele>1418</ele>
        <time>2013-07-07T10:21:28Z</time>
      </trkpt>
      <trkpt lat="44.11752" lon="3.55415">
        <ele>1418</ele>
        <time>2013-07-07T10:21:32Z</time>
      </trkpt>
      <trkpt lat="44.11748" lon="3.55405">
        <ele>1418</ele>
        <time>2013-07-07T10:21:36Z</time>
      </trkpt>
      <trkpt lat="44.11743" lon="3.55395">
        <ele>1417.633665374</ele>
        <time>2013-07-07T10:21:40Z</time>
      </trkpt>
      <trkpt lat="44.1174" lon="3.55385">
        <ele>1417</ele>
        <time>2013-07-07T10:21:44Z</time>
      </trkpt>
      <trkpt lat="44.11735" lon="3.55373">
        <ele>1417</ele>
        <time>2013-07-07T10:21:49Z</time>
      </trkpt>
      <trkpt lat="44.1173" lon="3.5536">
        <ele>1416</ele>
        <time>2013-07-07T10:21:54Z</time>
      </trkpt>
      <trkpt lat="44.11726" lon="3.55347">
        <ele>1416</ele>
        <time>2013-07-07T10:21:59Z</time>
      </trkpt>
      <trkpt lat="44.11725" lon="3.55336">
        <ele>1416</ele>
        <time>2013-07-07T10:22:03Z</time>
      </trkpt>
      <trkpt lat="44.11725" lon="3.55325">
        <ele>1416</ele>
        <time>2013-07-07T10:22:07Z</time>
      </trkpt>
      <trkpt lat="44.11723" lon="3.55312">
        <ele>1415</ele>
        <time>2013-07-07T10:22:14Z</time>
      </trkpt>
      <trkpt lat="44.11719" lon="3.55299">
        <ele>1415</ele>
        <time>2013-07-07T10:22:22Z</time>
      </trkpt>
      <trkpt lat="44.11716" lon="3.55285">
        <ele>1415.3861430056</ele>
        <time>2013-07-07T10:22:30Z</time>
      </trkpt>
      <trkpt lat="44.11714" lon="3.55273">
        <ele>1416</ele>
        <time>2013-07-07T10:22:38Z</time>
      </trkpt>
      <trkpt lat="44.11712" lon="3.55258">
        <ele>1416</ele>
        <time>2013-07-07T10:22:47Z</time>
      </trkpt>
      <trkpt lat="44.11712" lon="3.55244">
        <ele>1418</ele>
        <time>2013-07-07T10:22:54Z</time>
      </trkpt>
      <trkpt lat="44.11714" lon="3.5523">
        <ele>1419</ele>
        <time>2013-07-07T10:23:01Z</time>
      </trkpt>
      <trkpt lat="44.11715" lon="3.55217">
        <ele>1419</ele>
        <time>2013-07-07T10:23:08Z</time>
      </trkpt>
      <trkpt lat="44.11716" lon="3.55206">
        <ele>1420</ele>
        <time>2013-07-07T10:23:13Z</time>
      </trkpt>
      <trkpt lat="44.11716" lon="3.55194">
        <ele>1420</ele>
        <time>2013-07-07T10:23:20Z</time>
      </trkpt>
      <trkpt lat="44.11714" lon="3.55181">
        <ele>1420</ele>
        <time>2013-07-07T10:23:28Z</time>
      </trkpt>
      <trkpt lat="44.11712" lon="3.55167">
        <ele>1421</ele>
        <time>2013-07-07T10:23:36Z</time>
      </trkpt>
      <trkpt lat="44.11714" lon="3.55155">
        <ele>1422</ele>
        <time>2013-07-07T10:23:41Z</time>
      </trkpt>
      <trkpt lat="44.11716" lon="3.55144">
        <ele>1422</ele>
        <time>2013-07-07T10:23:48Z</time>
      </trkpt>
      <trkpt lat="44.11715" lon="3.55134">
        <ele>1422</ele>
        <time>2013-07-07T10:23:53Z</time>
      </trkpt>
      <trkpt lat="44.11712" lon="3.55122">
        <ele>1422.7800064</ele>
        <time>2013-07-07T10:24:00Z</time>
      </trkpt>
      <trkpt lat="44.11706" lon="3.55111">
        <ele>1424</ele>
        <time>2013-07-07T10:24:07Z</time>
      </trkpt>
      <trkpt lat="44.11701" lon="3.55102">
        <ele>1424</ele>
        <time>2013-07-07T10:24:11Z</time>
      </trkpt>
      <trkpt lat="44.11697" lon="3.55093">
        <ele>1424</ele>
        <time>2013-07-07T10:24:14Z</time>
      </trkpt>
      <trkpt lat="44.11698" lon="3.55078">
        <ele>1424</ele>
        <time>2013-07-07T10:24:18Z</time>
      </trkpt>
      <trkpt lat="44.117" lon="3.55066">
        <ele>1423</ele>
        <time>2013-07-07T10:24:22Z</time>
      </trkpt>
      <trkpt lat="44.11704" lon="3.55055">
        <ele>1423</ele>
        <time>2013-07-07T10:24:27Z</time>
      </trkpt>
      <trkpt lat="44.11709" lon="3.55043">
        <ele>1424</ele>
        <time>2013-07-07T10:24:32Z</time>
      </trkpt>
      <trkpt lat="44.11714" lon="3.55032">
        <ele>1424</ele>
        <time>2013-07-07T10:24:38Z</time>
      </trkpt>
      <trkpt lat="44.1172" lon="3.5502">
        <ele>1424</ele>
        <time>2013-07-07T10:24:43Z</time>
      </trkpt>
      <trkpt lat="44.11727" lon="3.55009">
        <ele>1424</ele>
        <time>2013-07-07T10:24:48Z</time>
      </trkpt>
      <trkpt lat="44.11732" lon="3.54997">
        <ele>1425</ele>
        <time>2013-07-07T10:24:54Z</time>
      </trkpt>
      <trkpt lat="44.11735" lon="3.54983">
        <ele>1426</ele>
        <time>2013-07-07T10:25:01Z</time>
      </trkpt>
      <trkpt lat="44.11733" lon="3.5497">
        <ele>1426</ele>
        <time>2013-07-07T10:25:09Z</time>
      </trkpt>
      <trkpt lat="44.11732" lon="3.54956">
        <ele>1427</ele>
        <time>2013-07-07T10:25:16Z</time>
      </trkpt>
      <trkpt lat="44.11729" lon="3.54944">
        <ele>1427</ele>
        <time>2013-07-07T10:25:22Z</time>
      </trkpt>
      <trkpt lat="44.11727" lon="3.54933">
        <ele>1427</ele>
        <time>2013-07-07T10:25:28Z</time>
      </trkpt>
      <trkpt lat="44.11725" lon="3.54922">
        <ele>1427</ele>
        <time>2013-07-07T10:25:35Z</time>
      </trkpt>
      <trkpt lat="44.11724" lon="3.54911">
        <ele>1427</ele>
        <time>2013-07-07T10:25:40Z</time>
      </trkpt>
      <trkpt lat="44.11723" lon="3.54899">
        <ele>1427</ele>
        <time>2013-07-07T10:25:47Z</time>
      </trkpt>
      <trkpt lat="44.11723" lon="3.54885">
        <ele>1428</ele>
        <time>2013-07-07T10:25:54Z</time>
      </trkpt>
      <trkpt lat="44.11722" lon="3.54874">
        <ele>1430</ele>
        <time>2013-07-07T10:26:02Z</time>
      </trkpt>
      <trkpt lat="44.11721" lon="3.54861">
        <ele>1430</ele>
        <time>2013-07-07T10:26:16Z</time>
      </trkpt>
      <trkpt lat="44.11721" lon="3.54851">
        <ele>1431</ele>
        <time>2013-07-07T10:26:22Z</time>
      </trkpt>
      <trkpt lat="44.1172" lon="3.54838">
        <ele>1431.7722860112</ele>
        <time>2013-07-07T10:26:30Z</time>
      </trkpt>
      <trkpt lat="44.11719" lon="3.54826">
        <ele>1433</ele>
        <time>2013-07-07T10:26:39Z</time>
      </trkpt>
      <trkpt lat="44.11717" lon="3.54817">
        <ele>1433</ele>
        <time>2013-07-07T10:26:46Z</time>
      </trkpt>
      <trkpt lat="44.11714" lon="3.54806">
        <ele>1435</ele>
        <time>2013-07-07T10:26:54Z</time>
      </trkpt>
      <trkpt lat="44.11711" lon="3.54796">
        <ele>1438</ele>
        <time>2013-07-07T10:27:03Z</time>
      </trkpt>
      <trkpt lat="44.11708" lon="3.54785">
        <ele>1438</ele>
        <time>2013-07-07T10:27:12Z</time>
      </trkpt>
      <trkpt lat="44.11707" lon="3.54773">
        <ele>1438.3900032</ele>
        <time>2013-07-07T10:27:20Z</time>
      </trkpt>
      <trkpt lat="44.11705" lon="3.54762">
        <ele>1439</ele>
        <time>2013-07-07T10:27:28Z</time>
      </trkpt>
      <trkpt lat="44.11702" lon="3.54753">
        <ele>1440</ele>
        <time>2013-07-07T10:27:35Z</time>
      </trkpt>
      <trkpt lat="44.11699" lon="3.54743">
        <ele>1442</ele>
        <time>2013-07-07T10:27:42Z</time>
      </trkpt>
      <trkpt lat="44.11695" lon="3.54734">
        <ele>1442</ele>
        <time>2013-07-07T10:27:49Z</time>
      </trkpt>
      <trkpt lat="44.11692" lon="3.54726">
        <ele>1444</ele>
        <time>2013-07-07T10:27:55Z</time>
      </trkpt>
      <trkpt lat="44.11689" lon="3.54717">
        <ele>1445</ele>
        <time>2013-07-07T10:28:02Z</time>
      </trkpt>
      <trkpt lat="44.11686" lon="3.54708">
        <ele>1445</ele>
        <time>2013-07-07T10:28:09Z</time>
      </trkpt>
      <trkpt lat="44.11683" lon="3.54697">
        <ele>1446</ele>
        <time>2013-07-07T10:28:18Z</time>
      </trkpt>
      <trkpt lat="44.11683" lon="3.54686">
        <ele>1447</ele>
        <time>2013-07-07T10:28:23Z</time>
      </trkpt>
      <trkpt lat="44.11683" lon="3.54675">
        <ele>1447</ele>
        <time>2013-07-07T10:28:29Z</time>
      </trkpt>
      <trkpt lat="44.11684" lon="3.54664">
        <ele>1449</ele>
        <time>2013-07-07T10:28:37Z</time>
      </trkpt>
      <trkpt lat="44.11687" lon="3.54652">
        <ele>1449</ele>
        <time>2013-07-07T10:28:46Z</time>
      </trkpt>
      <trkpt lat="44.11689" lon="3.54641">
        <ele>1451</ele>
        <time>2013-07-07T10:28:54Z</time>
      </trkpt>
      <trkpt lat="44.1169" lon="3.5463">
        <ele>1451.4899968</ele>
        <time>2013-07-07T10:29:00Z</time>
      </trkpt>
      <trkpt lat="44.11691" lon="3.5462">
        <ele>1452</ele>
        <time>2013-07-07T10:29:06Z</time>
      </trkpt>
      <trkpt lat="44.11693" lon="3.54608">
        <ele>1453</ele>
        <time>2013-07-07T10:29:13Z</time>
      </trkpt>
      <trkpt lat="44.11695" lon="3.54597">
        <ele>1453</ele>
        <time>2013-07-07T10:29:19Z</time>
      </trkpt>
      <trkpt lat="44.11698" lon="3.54588">
        <ele>1454</ele>
        <time>2013-07-07T10:29:24Z</time>
      </trkpt>
      <trkpt lat="44.11704" lon="3.54579">
        <ele>1455</ele>
        <time>2013-07-07T10:29:31Z</time>
      </trkpt>
      <trkpt lat="44.1171" lon="3.54571">
        <ele>1455</ele>
        <time>2013-07-07T10:29:38Z</time>
      </trkpt>
      <trkpt lat="44.11716" lon="3.54565">
        <ele>1456</ele>
        <time>2013-07-07T10:29:44Z</time>
      </trkpt>
      <trkpt lat="44.1172" lon="3.54557">
        <ele>1456.3516471151</ele>
        <time>2013-07-07T10:29:50Z</time>
      </trkpt>
      <trkpt lat="44.11724" lon="3.54549">
        <ele>1458</ele>
        <time>2013-07-07T10:29:56Z</time>
      </trkpt>
      <trkpt lat="44.11729" lon="3.5454">
        <ele>1457</ele>
        <time>2013-07-07T10:30:02Z</time>
      </trkpt>
      <trkpt lat="44.11735" lon="3.54534">
        <ele>1457</ele>
        <time>2013-07-07T10:30:09Z</time>
      </trkpt>
      <trkpt lat="44.11741" lon="3.54528">
        <ele>1458</ele>
        <time>2013-07-07T10:30:17Z</time>
      </trkpt>
      <trkpt lat="44.11748" lon="3.54519">
        <ele>1458</ele>
        <time>2013-07-07T10:30:23Z</time>
      </trkpt>
      <trkpt lat="44.11752" lon="3.54507">
        <ele>1458</ele>
        <time>2013-07-07T10:30:29Z</time>
      </trkpt>
      <trkpt lat="44.11753" lon="3.54494">
        <ele>1459</ele>
        <time>2013-07-07T10:30:35Z</time>
      </trkpt>
      <trkpt lat="44.11753" lon="3.54481">
        <ele>1459</ele>
        <time>2013-07-07T10:30:41Z</time>
      </trkpt>
      <trkpt lat="44.11753" lon="3.54468">
        <ele>1459</ele>
        <time>2013-07-07T10:30:47Z</time>
      </trkpt>
      <trkpt lat="44.11751" lon="3.54457">
        <ele>1460</ele>
        <time>2013-07-07T10:30:53Z</time>
      </trkpt>
      <trkpt lat="44.11751" lon="3.54444">
        <ele>1461</ele>
        <time>2013-07-07T10:31:01Z</time>
      </trkpt>
      <trkpt lat="44.11751" lon="3.54432">
        <ele>1461</ele>
        <time>2013-07-07T10:31:07Z</time>
      </trkpt>
      <trkpt lat="44.11752" lon="3.54421">
        <ele>1462</ele>
        <time>2013-07-07T10:31:14Z</time>
      </trkpt>
      <trkpt lat="44.11751" lon="3.54406">
        <ele>1462</ele>
        <time>2013-07-07T10:31:23Z</time>
      </trkpt>
      <trkpt lat="44.1175" lon="3.5439">
        <ele>1462.3900032</ele>
        <time>2013-07-07T10:31:30Z</time>
      </trkpt>
      <trkpt lat="44.11749" lon="3.54375">
        <ele>1463</ele>
        <time>2013-07-07T10:31:34Z</time>
      </trkpt>
      <trkpt lat="44.11748" lon="3.54361">
        <ele>1463</ele>
        <time>2013-07-07T10:31:37Z</time>
      </trkpt>
      <trkpt lat="44.11745" lon="3.54348">
        <ele>1463</ele>
        <time>2013-07-07T10:31:42Z</time>
      </trkpt>
      <trkpt lat="44.11744" lon="3.54336">
        <ele>1463</ele>
        <time>2013-07-07T10:31:49Z</time>
      </trkpt>
      <trkpt lat="44.11742" lon="3.54326">
        <ele>1465</ele>
        <time>2013-07-07T10:31:55Z</time>
      </trkpt>
      <trkpt lat="44.1174" lon="3.54316">
        <ele>1466</ele>
        <time>2013-07-07T10:32:03Z</time>
      </trkpt>
      <trkpt lat="44.11739" lon="3.54305">
        <ele>1466</ele>
        <time>2013-07-07T10:32:08Z</time>
      </trkpt>
      <trkpt lat="44.11736" lon="3.54294">
        <ele>1467</ele>
        <time>2013-07-07T10:32:14Z</time>
      </trkpt>
      <trkpt lat="44.11736" lon="3.54284">
        <ele>1467.3900032</ele>
        <time>2013-07-07T10:32:20Z</time>
      </trkpt>
      <trkpt lat="44.11735" lon="3.54272">
        <ele>1468</ele>
        <time>2013-07-07T10:32:26Z</time>
      </trkpt>
      <trkpt lat="44.11736" lon="3.5426">
        <ele>1469</ele>
        <time>2013-07-07T10:32:33Z</time>
      </trkpt>
      <trkpt lat="44.11738" lon="3.54249">
        <ele>1469</ele>
        <time>2013-07-07T10:32:39Z</time>
      </trkpt>
      <trkpt lat="44.1174" lon="3.54238">
        <ele>1469</ele>
        <time>2013-07-07T10:32:45Z</time>
      </trkpt>
      <trkpt lat="44.11743" lon="3.54229">
        <ele>1469</ele>
        <time>2013-07-07T10:32:50Z</time>
      </trkpt>
      <trkpt lat="44.11746" lon="3.5422">
        <ele>1469</ele>
        <time>2013-07-07T10:32:56Z</time>
      </trkpt>
      <trkpt lat="44.11747" lon="3.54211">
        <ele>1471</ele>
        <time>2013-07-07T10:33:02Z</time>
      </trkpt>
      <trkpt lat="44.11748" lon="3.542">
        <ele>1471</ele>
        <time>2013-07-07T10:33:09Z</time>
      </trkpt>
      <trkpt lat="44.11747" lon="3.54189">
        <ele>1471</ele>
        <time>2013-07-07T10:33:15Z</time>
      </trkpt>
      <trkpt lat="44.11745" lon="3.54179">
        <ele>1472</ele>
        <time>2013-07-07T10:33:21Z</time>
      </trkpt>
      <trkpt lat="44.11743" lon="3.5417">
        <ele>1472</ele>
        <time>2013-07-07T10:33:28Z</time>
      </trkpt>
      <trkpt lat="44.11741" lon="3.54162">
        <ele>1472</ele>
        <time>2013-07-07T10:33:33Z</time>
      </trkpt>
      <trkpt lat="44.11738" lon="3.54151">
        <ele>1472</ele>
        <time>2013-07-07T10:33:38Z</time>
      </trkpt>
      <trkpt lat="44.11736" lon="3.54138">
        <ele>1472</ele>
        <time>2013-07-07T10:33:43Z</time>
      </trkpt>
      <trkpt lat="44.11735" lon="3.54124">
        <ele>1472</ele>
        <time>2013-07-07T10:33:48Z</time>
      </trkpt>
      <trkpt lat="44.11735" lon="3.54115">
        <ele>1472</ele>
        <time>2013-07-07T10:33:51Z</time>
      </trkpt>
      <trkpt lat="44.11739" lon="3.54105">
        <ele>1472</ele>
        <time>2013-07-07T10:33:55Z</time>
      </trkpt>
      <trkpt lat="44.11746" lon="3.541">
        <ele>1472</ele>
        <time>2013-07-07T10:33:58Z</time>
      </trkpt>
      <trkpt lat="44.11755" lon="3.54098">
        <ele>1469</ele>
        <time>2013-07-07T10:34:02Z</time>
      </trkpt>
      <trkpt lat="44.11763" lon="3.54097">
        <ele>1469</ele>
        <time>2013-07-07T10:34:05Z</time>
      </trkpt>
      <trkpt lat="44.11773" lon="3.54096">
        <ele>1470</ele>
        <time>2013-07-07T10:34:09Z</time>
      </trkpt>
      <trkpt lat="44.11783" lon="3.54094">
        <ele>1468</ele>
        <time>2013-07-07T10:34:13Z</time>
      </trkpt>
      <trkpt lat="44.1179" lon="3.54091">
        <ele>1468</ele>
        <time>2013-07-07T10:34:16Z</time>
      </trkpt>
      <trkpt lat="44.11799" lon="3.5409">
        <ele>1468</ele>
        <time>2013-07-07T10:34:19Z</time>
      </trkpt>
      <trkpt lat="44.11808" lon="3.54089">
        <ele>1465</ele>
        <time>2013-07-07T10:34:22Z</time>
      </trkpt>
      <trkpt lat="44.11815" lon="3.54087">
        <ele>1464.5148531164</ele>
        <time>2013-07-07T10:34:25Z</time>
      </trkpt>
      <trkpt lat="44.11823" lon="3.54087">
        <ele>1464</ele>
        <time>2013-07-07T10:34:28Z</time>
      </trkpt>
      <trkpt lat="44.11831" lon="3.54086">
        <ele>1464</ele>
        <time>2013-07-07T10:34:31Z</time>
      </trkpt>
      <trkpt lat="44.11838" lon="3.54085">
        <ele>1464</ele>
        <time>2013-07-07T10:34:34Z</time>
      </trkpt>
      <trkpt lat="44.11845" lon="3.54084">
        <ele>1464</ele>
        <time>2013-07-07T10:34:37Z</time>
      </trkpt>
      <trkpt lat="44.11854" lon="3.54083">
        <ele>1463</ele>
        <time>2013-07-07T10:34:41Z</time>
      </trkpt>
      <trkpt lat="44.11862" lon="3.54081">
        <ele>1463</ele>
        <time>2013-07-07T10:34:44Z</time>
      </trkpt>
      <trkpt lat="44.11869" lon="3.54079">
        <ele>1463</ele>
        <time>2013-07-07T10:34:47Z</time>
      </trkpt>
      <trkpt lat="44.11878" lon="3.54077">
        <ele>1462</ele>
        <time>2013-07-07T10:34:51Z</time>
      </trkpt>
      <trkpt lat="44.11886" lon="3.54073">
        <ele>1462</ele>
        <time>2013-07-07T10:34:55Z</time>
      </trkpt>
      <trkpt lat="44.11894" lon="3.54069">
        <ele>1461.049501939</ele>
        <time>2013-07-07T10:35:00Z</time>
      </trkpt>
      <trkpt lat="44.11904" lon="3.5406">
        <ele>1460</ele>
        <time>2013-07-07T10:35:06Z</time>
      </trkpt>
      <trkpt lat="44.11911" lon="3.5405">
        <ele>1460</ele>
        <time>2013-07-07T10:35:11Z</time>
      </trkpt>
      <trkpt lat="44.11921" lon="3.5404">
        <ele>1460</ele>
        <time>2013-07-07T10:35:16Z</time>
      </trkpt>
      <trkpt lat="44.1193" lon="3.54028">
        <ele>1460</ele>
        <time>2013-07-07T10:35:22Z</time>
      </trkpt>
      <trkpt lat="44.11939" lon="3.54018">
        <ele>1460</ele>
        <time>2013-07-07T10:35:27Z</time>
      </trkpt>
      <trkpt lat="44.11947" lon="3.54011">
        <ele>1460</ele>
        <time>2013-07-07T10:35:31Z</time>
      </trkpt>
      <trkpt lat="44.11954" lon="3.54002">
        <ele>1460</ele>
        <time>2013-07-07T10:35:35Z</time>
      </trkpt>
      <trkpt lat="44.11962" lon="3.5399">
        <ele>1459.6199936</ele>
        <time>2013-07-07T10:35:40Z</time>
      </trkpt>
      <trkpt lat="44.11968" lon="3.53979">
        <ele>1459</ele>
        <time>2013-07-07T10:35:44Z</time>
      </trkpt>
      <trkpt lat="44.11974" lon="3.53968">
        <ele>1459</ele>
        <time>2013-07-07T10:35:48Z</time>
      </trkpt>
      <trkpt lat="44.1198" lon="3.5396">
        <ele>1457</ele>
        <time>2013-07-07T10:35:52Z</time>
      </trkpt>
      <trkpt lat="44.1199" lon="3.53951">
        <ele>1457</ele>
        <time>2013-07-07T10:35:57Z</time>
      </trkpt>
      <trkpt lat="44.11999" lon="3.53942">
        <ele>1454</ele>
        <time>2013-07-07T10:36:02Z</time>
      </trkpt>
      <trkpt lat="44.12007" lon="3.53934">
        <ele>1454</ele>
        <time>2013-07-07T10:36:07Z</time>
      </trkpt>
      <trkpt lat="44.12015" lon="3.53924">
        <ele>1454</ele>
        <time>2013-07-07T10:36:12Z</time>
      </trkpt>
      <trkpt lat="44.12022" lon="3.53916">
        <ele>1454</ele>
        <time>2013-07-07T10:36:16Z</time>
      </trkpt>
      <trkpt lat="44.12029" lon="3.53906">
        <ele>1454</ele>
        <time>2013-07-07T10:36:21Z</time>
      </trkpt>
      <trkpt lat="44.12033" lon="3.53896">
        <ele>1454</ele>
        <time>2013-07-07T10:36:26Z</time>
      </trkpt>
      <trkpt lat="44.12038" lon="3.53881">
        <ele>1454</ele>
        <time>2013-07-07T10:36:32Z</time>
      </trkpt>
      <trkpt lat="44.12041" lon="3.53871">
        <ele>1454</ele>
        <time>2013-07-07T10:36:36Z</time>
      </trkpt>
      <trkpt lat="44.12046" lon="3.53856">
        <ele>1454</ele>
        <time>2013-07-07T10:36:42Z</time>
      </trkpt>
      <trkpt lat="44.12048" lon="3.53844">
        <ele>1454</ele>
        <time>2013-07-07T10:36:46Z</time>
      </trkpt>
      <trkpt lat="44.12051" lon="3.53831">
        <ele>1454</ele>
        <time>2013-07-07T10:36:51Z</time>
      </trkpt>
      <trkpt lat="44.12055" lon="3.5382">
        <ele>1454</ele>
        <time>2013-07-07T10:36:55Z</time>
      </trkpt>
      <trkpt lat="44.12058" lon="3.53806">
        <ele>1454.3861430056</ele>
        <time>2013-07-07T10:37:00Z</time>
      </trkpt>
      <trkpt lat="44.1206" lon="3.53794">
        <ele>1455</ele>
        <time>2013-07-07T10:37:05Z</time>
      </trkpt>
      <trkpt lat="44.12062" lon="3.5378">
        <ele>1455</ele>
        <time>2013-07-07T10:37:10Z</time>
      </trkpt>
      <trkpt lat="44.12062" lon="3.53766">
        <ele>1455</ele>
        <time>2013-07-07T10:37:15Z</time>
      </trkpt>
      <trkpt lat="44.12062" lon="3.53751">
        <ele>1455</ele>
        <time>2013-07-07T10:37:21Z</time>
      </trkpt>
      <trkpt lat="44.12063" lon="3.53738">
        <ele>1455</ele>
        <time>2013-07-07T10:37:26Z</time>
      </trkpt>
      <trkpt lat="44.12064" lon="3.53722">
        <ele>1455</ele>
        <time>2013-07-07T10:37:31Z</time>
      </trkpt>
      <trkpt lat="44.12064" lon="3.53709">
        <ele>1455</ele>
        <time>2013-07-07T10:37:35Z</time>
      </trkpt>
      <trkpt lat="44.12066" lon="3.53698">
        <ele>1455</ele>
        <time>2013-07-07T10:37:39Z</time>
      </trkpt>
      <trkpt lat="44.12067" lon="3.53687">
        <ele>1456</ele>
        <time>2013-07-07T10:37:44Z</time>
      </trkpt>
      <trkpt lat="44.1207" lon="3.53676">
        <ele>1456</ele>
        <time>2013-07-07T10:37:49Z</time>
      </trkpt>
      <trkpt lat="44.12071" lon="3.53664">
        <ele>1456</ele>
        <time>2013-07-07T10:37:54Z</time>
      </trkpt>
      <trkpt lat="44.12074" lon="3.53653">
        <ele>1456</ele>
        <time>2013-07-07T10:37:59Z</time>
      </trkpt>
      <trkpt lat="44.12077" lon="3.53643">
        <ele>1456</ele>
        <time>2013-07-07T10:38:04Z</time>
      </trkpt>
      <trkpt lat="44.12079" lon="3.53634">
        <ele>1456</ele>
        <time>2013-07-07T10:38:09Z</time>
      </trkpt>
      <trkpt lat="44.12084" lon="3.53624">
        <ele>1457</ele>
        <time>2013-07-07T10:38:15Z</time>
      </trkpt>
      <trkpt lat="44.12088" lon="3.53613">
        <ele>1457</ele>
        <time>2013-07-07T10:38:20Z</time>
      </trkpt>
      <trkpt lat="44.12092" lon="3.53602">
        <ele>1457</ele>
        <time>2013-07-07T10:38:25Z</time>
      </trkpt>
      <trkpt lat="44.12097" lon="3.53591">
        <ele>1457.3900032</ele>
        <time>2013-07-07T10:38:30Z</time>
      </trkpt>
      <trkpt lat="44.12102" lon="3.5358">
        <ele>1458</ele>
        <time>2013-07-07T10:38:35Z</time>
      </trkpt>
      <trkpt lat="44.12106" lon="3.5357">
        <ele>1458</ele>
        <time>2013-07-07T10:38:39Z</time>
      </trkpt>
      <trkpt lat="44.1211" lon="3.53561">
        <ele>1459</ele>
        <time>2013-07-07T10:38:43Z</time>
      </trkpt>
      <trkpt lat="44.12113" lon="3.53552">
        <ele>1459</ele>
        <time>2013-07-07T10:38:47Z</time>
      </trkpt>
      <trkpt lat="44.12116" lon="3.53541">
        <ele>1460</ele>
        <time>2013-07-07T10:38:52Z</time>
      </trkpt>
      <trkpt lat="44.12119" lon="3.5353">
        <ele>1460</ele>
        <time>2013-07-07T10:38:57Z</time>
      </trkpt>
      <trkpt lat="44.1212" lon="3.53518">
        <ele>1460</ele>
        <time>2013-07-07T10:39:02Z</time>
      </trkpt>
      <trkpt lat="44.12121" lon="3.53506">
        <ele>1460</ele>
        <time>2013-07-07T10:39:07Z</time>
      </trkpt>
      <trkpt lat="44.12121" lon="3.53493">
        <ele>1462</ele>
        <time>2013-07-07T10:39:13Z</time>
      </trkpt>
      <trkpt lat="44.1212" lon="3.5348">
        <ele>1462.3861430056</ele>
        <time>2013-07-07T10:39:20Z</time>
      </trkpt>
      <trkpt lat="44.12119" lon="3.53466">
        <ele>1463</ele>
        <time>2013-07-07T10:39:28Z</time>
      </trkpt>
      <trkpt lat="44.12119" lon="3.53454">
        <ele>1463</ele>
        <time>2013-07-07T10:39:36Z</time>
      </trkpt>
      <trkpt lat="44.1212" lon="3.53441">
        <ele>1465</ele>
        <time>2013-07-07T10:39:46Z</time>
      </trkpt>
      <trkpt lat="44.1212" lon="3.5343">
        <ele>1467</ele>
        <time>2013-07-07T10:39:53Z</time>
      </trkpt>
      <trkpt lat="44.12123" lon="3.53416">
        <ele>1467</ele>
        <time>2013-07-07T10:40:02Z</time>
      </trkpt>
      <trkpt lat="44.12127" lon="3.53403">
        <ele>1469</ele>
        <time>2013-07-07T10:40:13Z</time>
      </trkpt>
      <trkpt lat="44.12133" lon="3.53392">
        <ele>1470</ele>
        <time>2013-07-07T10:40:21Z</time>
      </trkpt>
      <trkpt lat="44.12138" lon="3.53381">
        <ele>1470</ele>
        <time>2013-07-07T10:40:29Z</time>
      </trkpt>
      <trkpt lat="44.12142" lon="3.53369">
        <ele>1473</ele>
        <time>2013-07-07T10:40:50Z</time>
      </trkpt>
      <trkpt lat="44.12143" lon="3.53352">
        <ele>1475</ele>
        <time>2013-07-07T10:41:01Z</time>
      </trkpt>
      <trkpt lat="44.12146" lon="3.53338">
        <ele>1475</ele>
        <time>2013-07-07T10:41:11Z</time>
      </trkpt>
      <trkpt lat="44.1215" lon="3.53323">
        <ele>1475</ele>
        <time>2013-07-07T10:41:21Z</time>
      </trkpt>
      <trkpt lat="44.12153" lon="3.53309">
        <ele>1475</ele>
        <time>2013-07-07T10:41:29Z</time>
      </trkpt>
      <trkpt lat="44.12155" lon="3.53297">
        <ele>1477</ele>
        <time>2013-07-07T10:41:36Z</time>
      </trkpt>
      <trkpt lat="44.12159" lon="3.53285">
        <ele>1478</ele>
        <time>2013-07-07T10:41:42Z</time>
      </trkpt>
      <trkpt lat="44.12163" lon="3.53273">
        <ele>1478</ele>
        <time>2013-07-07T10:41:48Z</time>
      </trkpt>
      <trkpt lat="44.12165" lon="3.53263">
        <ele>1478</ele>
        <time>2013-07-07T10:41:54Z</time>
      </trkpt>
      <trkpt lat="44.12165" lon="3.53251">
        <ele>1478</ele>
        <time>2013-07-07T10:41:59Z</time>
      </trkpt>
      <trkpt lat="44.12164" lon="3.53236">
        <ele>1477</ele>
        <time>2013-07-07T10:42:04Z</time>
      </trkpt>
      <trkpt lat="44.12163" lon="3.53223">
        <ele>1478</ele>
        <time>2013-07-07T10:42:09Z</time>
      </trkpt>
      <trkpt lat="44.12162" lon="3.53207">
        <ele>1479</ele>
        <time>2013-07-07T10:42:15Z</time>
      </trkpt>
      <trkpt lat="44.12161" lon="3.53191">
        <ele>1479</ele>
        <time>2013-07-07T10:42:20Z</time>
      </trkpt>
      <trkpt lat="44.1216" lon="3.53173">
        <ele>1479</ele>
        <time>2013-07-07T10:42:25Z</time>
      </trkpt>
      <trkpt lat="44.12157" lon="3.53157">
        <ele>1478.5148531164</ele>
        <time>2013-07-07T10:42:30Z</time>
      </trkpt>
      <trkpt lat="44.12153" lon="3.53141">
        <ele>1478</ele>
        <time>2013-07-07T10:42:36Z</time>
      </trkpt>
      <trkpt lat="44.12149" lon="3.53124">
        <ele>1478</ele>
        <time>2013-07-07T10:42:42Z</time>
      </trkpt>
      <trkpt lat="44.12147" lon="3.53108">
        <ele>1478</ele>
        <time>2013-07-07T10:42:47Z</time>
      </trkpt>
      <trkpt lat="44.12143" lon="3.53091">
        <ele>1476</ele>
        <time>2013-07-07T10:42:52Z</time>
      </trkpt>
      <trkpt lat="44.12139" lon="3.53076">
        <ele>1476</ele>
        <time>2013-07-07T10:42:57Z</time>
      </trkpt>
      <trkpt lat="44.12136" lon="3.53059">
        <ele>1473</ele>
        <time>2013-07-07T10:43:02Z</time>
      </trkpt>
      <trkpt lat="44.12133" lon="3.53045">
        <ele>1472</ele>
        <time>2013-07-07T10:43:06Z</time>
      </trkpt>
      <trkpt lat="44.12129" lon="3.53028">
        <ele>1471</ele>
        <time>2013-07-07T10:43:11Z</time>
      </trkpt>
      <trkpt lat="44.12124" lon="3.53012">
        <ele>1471</ele>
        <time>2013-07-07T10:43:16Z</time>
      </trkpt>
      <trkpt lat="44.1212" lon="3.52995">
        <ele>1469</ele>
        <time>2013-07-07T10:43:21Z</time>
      </trkpt>
      <trkpt lat="44.12118" lon="3.52979">
        <ele>1469</ele>
        <time>2013-07-07T10:43:25Z</time>
      </trkpt>
      <trkpt lat="44.12114" lon="3.52963">
        <ele>1467.5445593491</ele>
        <time>2013-07-07T10:43:30Z</time>
      </trkpt>
      <trkpt lat="44.1211" lon="3.52946">
        <ele>1465</ele>
        <time>2013-07-07T10:43:36Z</time>
      </trkpt>
      <trkpt lat="44.1211" lon="3.52929">
        <ele>1465</ele>
        <time>2013-07-07T10:43:40Z</time>
      </trkpt>
      <trkpt lat="44.12112" lon="3.52911">
        <ele>1465</ele>
        <time>2013-07-07T10:43:45Z</time>
      </trkpt>
      <trkpt lat="44.12113" lon="3.52896">
        <ele>1465</ele>
        <time>2013-07-07T10:43:49Z</time>
      </trkpt>
      <trkpt lat="44.12117" lon="3.52877">
        <ele>1464</ele>
        <time>2013-07-07T10:43:54Z</time>
      </trkpt>
      <trkpt lat="44.1212" lon="3.5286">
        <ele>1464</ele>
        <time>2013-07-07T10:43:59Z</time>
      </trkpt>
      <trkpt lat="44.12124" lon="3.52846">
        <ele>1463</ele>
        <time>2013-07-07T10:44:03Z</time>
      </trkpt>
      <trkpt lat="44.12129" lon="3.52831">
        <ele>1463</ele>
        <time>2013-07-07T10:44:08Z</time>
      </trkpt>
      <trkpt lat="44.12133" lon="3.52816">
        <ele>1462</ele>
        <time>2013-07-07T10:44:13Z</time>
      </trkpt>
      <trkpt lat="44.12139" lon="3.528">
        <ele>1462</ele>
        <time>2013-07-07T10:44:19Z</time>
      </trkpt>
      <trkpt lat="44.12145" lon="3.52787">
        <ele>1461</ele>
        <time>2013-07-07T10:44:24Z</time>
      </trkpt>
      <trkpt lat="44.12151" lon="3.52775">
        <ele>1460.5148531164</ele>
        <time>2013-07-07T10:44:30Z</time>
      </trkpt>
      <trkpt lat="44.12155" lon="3.52759">
        <ele>1460</ele>
        <time>2013-07-07T10:44:36Z</time>
      </trkpt>
      <trkpt lat="44.1216" lon="3.52742">
        <ele>1459</ele>
        <time>2013-07-07T10:44:41Z</time>
      </trkpt>
      <trkpt lat="44.12166" lon="3.52727">
        <ele>1459</ele>
        <time>2013-07-07T10:44:46Z</time>
      </trkpt>
      <trkpt lat="44.12171" lon="3.52711">
        <ele>1458</ele>
        <time>2013-07-07T10:44:51Z</time>
      </trkpt>
      <trkpt lat="44.12175" lon="3.52692">
        <ele>1458</ele>
        <time>2013-07-07T10:44:57Z</time>
      </trkpt>
      <trkpt lat="44.12176" lon="3.52673">
        <ele>1456</ele>
        <time>2013-07-07T10:45:03Z</time>
      </trkpt>
      <trkpt lat="44.12179" lon="3.52653">
        <ele>1456</ele>
        <time>2013-07-07T10:45:09Z</time>
      </trkpt>
      <trkpt lat="44.12181" lon="3.52637">
        <ele>1456</ele>
        <time>2013-07-07T10:45:14Z</time>
      </trkpt>
      <trkpt lat="44.12183" lon="3.5262">
        <ele>1455.5148531164</ele>
        <time>2013-07-07T10:45:20Z</time>
      </trkpt>
      <trkpt lat="44.12185" lon="3.52601">
        <ele>1455</ele>
        <time>2013-07-07T10:45:26Z</time>
      </trkpt>
      <trkpt lat="44.12188" lon="3.52583">
        <ele>1455</ele>
        <time>2013-07-07T10:45:33Z</time>
      </trkpt>
      <trkpt lat="44.1219" lon="3.52566">
        <ele>1455</ele>
        <time>2013-07-07T10:45:39Z</time>
      </trkpt>
      <trkpt lat="44.12192" lon="3.52549">
        <ele>1454</ele>
        <time>2013-07-07T10:45:45Z</time>
      </trkpt>
      <trkpt lat="44.12195" lon="3.52533">
        <ele>1453.6020401499</ele>
        <time>2013-07-07T10:45:50Z</time>
      </trkpt>
      <trkpt lat="44.12201" lon="3.52517">
        <ele>1453</ele>
        <time>2013-07-07T10:45:57Z</time>
      </trkpt>
      <trkpt lat="44.12207" lon="3.52499">
        <ele>1451</ele>
        <time>2013-07-07T10:46:04Z</time>
      </trkpt>
      <trkpt lat="44.1221" lon="3.52481">
        <ele>1451</ele>
        <time>2013-07-07T10:46:10Z</time>
      </trkpt>
      <trkpt lat="44.12211" lon="3.52463">
        <ele>1451</ele>
        <time>2013-07-07T10:46:16Z</time>
      </trkpt>
      <trkpt lat="44.12212" lon="3.52446">
        <ele>1451</ele>
        <time>2013-07-07T10:46:22Z</time>
      </trkpt>
      <trkpt lat="44.12213" lon="3.52429">
        <ele>1451</ele>
        <time>2013-07-07T10:46:28Z</time>
      </trkpt>
      <trkpt lat="44.12214" lon="3.52407">
        <ele>1450</ele>
        <time>2013-07-07T10:46:36Z</time>
      </trkpt>
      <trkpt lat="44.12214" lon="3.52389">
        <ele>1449</ele>
        <time>2013-07-07T10:46:42Z</time>
      </trkpt>
      <trkpt lat="44.12212" lon="3.5237">
        <ele>1449</ele>
        <time>2013-07-07T10:46:49Z</time>
      </trkpt>
      <trkpt lat="44.12213" lon="3.52355">
        <ele>1449</ele>
        <time>2013-07-07T10:46:54Z</time>
      </trkpt>
      <trkpt lat="44.1221" lon="3.52337">
        <ele>1447.5445593491</ele>
        <time>2013-07-07T10:47:00Z</time>
      </trkpt>
      <trkpt lat="44.12209" lon="3.52319">
        <ele>1446</ele>
        <time>2013-07-07T10:47:07Z</time>
      </trkpt>
      <trkpt lat="44.12204" lon="3.52303">
        <ele>1446</ele>
        <time>2013-07-07T10:47:12Z</time>
      </trkpt>
      <trkpt lat="44.12201" lon="3.52287">
        <ele>1446</ele>
        <time>2013-07-07T10:47:17Z</time>
      </trkpt>
      <trkpt lat="44.12199" lon="3.52271">
        <ele>1445</ele>
        <time>2013-07-07T10:47:22Z</time>
      </trkpt>
      <trkpt lat="44.12197" lon="3.52252">
        <ele>1446</ele>
        <time>2013-07-07T10:47:28Z</time>
      </trkpt>
      <trkpt lat="44.12197" lon="3.52233">
        <ele>1445</ele>
        <time>2013-07-07T10:47:34Z</time>
      </trkpt>
      <trkpt lat="44.12201" lon="3.52213">
        <ele>1445</ele>
        <time>2013-07-07T10:47:41Z</time>
      </trkpt>
      <trkpt lat="44.12211" lon="3.52202">
        <ele>1445</ele>
        <time>2013-07-07T10:47:46Z</time>
      </trkpt>
      <trkpt lat="44.12222" lon="3.52193">
        <ele>1444</ele>
        <time>2013-07-07T10:47:51Z</time>
      </trkpt>
      <trkpt lat="44.12233" lon="3.52187">
        <ele>1444</ele>
        <time>2013-07-07T10:47:56Z</time>
      </trkpt>
      <trkpt lat="44.12243" lon="3.5218">
        <ele>1443.0297062327</ele>
        <time>2013-07-07T10:48:00Z</time>
      </trkpt>
      <trkpt lat="44.12252" lon="3.5217">
        <ele>1442</ele>
        <time>2013-07-07T10:48:05Z</time>
      </trkpt>
      <trkpt lat="44.1226" lon="3.5216">
        <ele>1442</ele>
        <time>2013-07-07T10:48:10Z</time>
      </trkpt>
      <trkpt lat="44.12269" lon="3.52149">
        <ele>1442</ele>
        <time>2013-07-07T10:48:16Z</time>
      </trkpt>
      <trkpt lat="44.1228" lon="3.52136">
        <ele>1442</ele>
        <time>2013-07-07T10:48:23Z</time>
      </trkpt>
      <trkpt lat="44.1229" lon="3.52126">
        <ele>1442</ele>
        <time>2013-07-07T10:48:29Z</time>
      </trkpt>
      <trkpt lat="44.123" lon="3.52113">
        <ele>1441</ele>
        <time>2013-07-07T10:48:35Z</time>
      </trkpt>
      <trkpt lat="44.12308" lon="3.52102">
        <ele>1440.52</ele>
        <time>2013-07-07T10:48:40Z</time>
      </trkpt>
      <trkpt lat="44.12316" lon="3.52092">
        <ele>1440</ele>
        <time>2013-07-07T10:48:46Z</time>
      </trkpt>
      <trkpt lat="44.12325" lon="3.52083">
        <ele>1439</ele>
        <time>2013-07-07T10:48:52Z</time>
      </trkpt>
      <trkpt lat="44.12335" lon="3.52074">
        <ele>1439</ele>
        <time>2013-07-07T10:48:58Z</time>
      </trkpt>
      <trkpt lat="44.12344" lon="3.52062">
        <ele>1438</ele>
        <time>2013-07-07T10:49:04Z</time>
      </trkpt>
      <trkpt lat="44.12352" lon="3.52048">
        <ele>1438</ele>
        <time>2013-07-07T10:49:10Z</time>
      </trkpt>
      <trkpt lat="44.12359" lon="3.52033">
        <ele>1438</ele>
        <time>2013-07-07T10:49:17Z</time>
      </trkpt>
      <trkpt lat="44.1236" lon="3.52014">
        <ele>1438</ele>
        <time>2013-07-07T10:49:25Z</time>
      </trkpt>
      <trkpt lat="44.12358" lon="3.51995">
        <ele>1437</ele>
        <time>2013-07-07T10:49:31Z</time>
      </trkpt>
      <trkpt lat="44.12353" lon="3.51977">
        <ele>1437</ele>
        <time>2013-07-07T10:49:37Z</time>
      </trkpt>
      <trkpt lat="44.12348" lon="3.51964">
        <ele>1435</ele>
        <time>2013-07-07T10:49:41Z</time>
      </trkpt>
      <trkpt lat="44.12345" lon="3.5195">
        <ele>1435</ele>
        <time>2013-07-07T10:49:46Z</time>
      </trkpt>
      <trkpt lat="44.12341" lon="3.51935">
        <ele>1433</ele>
        <time>2013-07-07T10:49:51Z</time>
      </trkpt>
      <trkpt lat="44.12338" lon="3.51919">
        <ele>1433</ele>
        <time>2013-07-07T10:49:58Z</time>
      </trkpt>
      <trkpt lat="44.12335" lon="3.51903">
        <ele>1429</ele>
        <time>2013-07-07T10:50:03Z</time>
      </trkpt>
      <trkpt lat="44.12333" lon="3.51889">
        <ele>1429</ele>
        <time>2013-07-07T10:50:06Z</time>
      </trkpt>
      <trkpt lat="44.12335" lon="3.51872">
        <ele>1428.04</ele>
        <time>2013-07-07T10:50:10Z</time>
      </trkpt>
      <trkpt lat="44.1234" lon="3.51853">
        <ele>1427</ele>
        <time>2013-07-07T10:50:18Z</time>
      </trkpt>
      <trkpt lat="44.12343" lon="3.51835">
        <ele>1425</ele>
        <time>2013-07-07T10:50:26Z</time>
      </trkpt>
      <trkpt lat="44.12345" lon="3.51818">
        <ele>1421</ele>
        <time>2013-07-07T10:50:31Z</time>
      </trkpt>
      <trkpt lat="44.12346" lon="3.51799">
        <ele>1420</ele>
        <time>2013-07-07T10:50:38Z</time>
      </trkpt>
      <trkpt lat="44.1235" lon="3.5178">
        <ele>1419</ele>
        <time>2013-07-07T10:50:45Z</time>
      </trkpt>
      <trkpt lat="44.12359" lon="3.51765">
        <ele>1417.48</ele>
        <time>2013-07-07T10:50:51Z</time>
      </trkpt>
      <trkpt lat="44.12366" lon="3.5175">
        <ele>1418</ele>
        <time>2013-07-07T10:50:55Z</time>
      </trkpt>
      <trkpt lat="44.12374" lon="3.51734">
        <ele>1414</ele>
        <time>2013-07-07T10:51:01Z</time>
      </trkpt>
      <trkpt lat="44.12383" lon="3.5172">
        <ele>1413</ele>
        <time>2013-07-07T10:51:08Z</time>
      </trkpt>
      <trkpt lat="44.12395" lon="3.51713">
        <ele>1412</ele>
        <time>2013-07-07T10:51:14Z</time>
      </trkpt>
      <trkpt lat="44.12405" lon="3.51702">
        <ele>1409</ele>
        <time>2013-07-07T10:51:21Z</time>
      </trkpt>
      <trkpt lat="44.12418" lon="3.51693">
        <ele>1407</ele>
        <time>2013-07-07T10:51:27Z</time>
      </trkpt>
      <trkpt lat="44.12429" lon="3.51685">
        <ele>1405</ele>
        <time>2013-07-07T10:51:32Z</time>
      </trkpt>
      <trkpt lat="44.1244" lon="3.51677">
        <ele>1404</ele>
        <time>2013-07-07T10:51:37Z</time>
      </trkpt>
      <trkpt lat="44.12451" lon="3.5167">
        <ele>1403</ele>
        <time>2013-07-07T10:51:44Z</time>
      </trkpt>
      <trkpt lat="44.1246" lon="3.51655">
        <ele>1402.0204145606</ele>
        <time>2013-07-07T10:51:50Z</time>
      </trkpt>
      <trkpt lat="44.12469" lon="3.51639">
        <ele>1399</ele>
        <time>2013-07-07T10:51:56Z</time>
      </trkpt>
      <trkpt lat="44.12475" lon="3.51618">
        <ele>1399</ele>
        <time>2013-07-07T10:52:04Z</time>
      </trkpt>
      <trkpt lat="44.12481" lon="3.51605">
        <ele>1399</ele>
        <time>2013-07-07T10:52:08Z</time>
      </trkpt>
      <trkpt lat="44.12489" lon="3.51591">
        <ele>1397</ele>
        <time>2013-07-07T10:52:16Z</time>
      </trkpt>
      <trkpt lat="44.12493" lon="3.51575">
        <ele>1396</ele>
        <time>2013-07-07T10:52:25Z</time>
      </trkpt>
      <trkpt lat="44.1249" lon="3.51556">
        <ele>1396</ele>
        <time>2013-07-07T10:52:33Z</time>
      </trkpt>
      <trkpt lat="44.12487" lon="3.51539">
        <ele>1396</ele>
        <time>2013-07-07T10:52:39Z</time>
      </trkpt>
      <trkpt lat="44.12485" lon="3.51523">
        <ele>1396</ele>
        <time>2013-07-07T10:52:44Z</time>
      </trkpt>
      <trkpt lat="44.12485" lon="3.51506">
        <ele>1396</ele>
        <time>2013-07-07T10:52:50Z</time>
      </trkpt>
      <trkpt lat="44.12485" lon="3.51489">
        <ele>1396</ele>
        <time>2013-07-07T10:52:56Z</time>
      </trkpt>
      <trkpt lat="44.12486" lon="3.51471">
        <ele>1396</ele>
        <time>2013-07-07T10:53:01Z</time>
      </trkpt>
      <trkpt lat="44.12486" lon="3.51453">
        <ele>1396</ele>
        <time>2013-07-07T10:53:06Z</time>
      </trkpt>
      <trkpt lat="44.12484" lon="3.51437">
        <ele>1396</ele>
        <time>2013-07-07T10:53:14Z</time>
      </trkpt>
      <trkpt lat="44.12483" lon="3.51423">
        <ele>1396</ele>
        <time>2013-07-07T10:53:23Z</time>
      </trkpt>
      <trkpt lat="44.12484" lon="3.5141">
        <ele>1396</ele>
        <time>2013-07-07T10:53:33Z</time>
      </trkpt>
      <trkpt lat="44.12483" lon="3.514">
        <ele>1396</ele>
        <time>2013-07-07T10:53:42Z</time>
      </trkpt>
      <trkpt lat="44.12484" lon="3.5139">
        <ele>1396</ele>
        <time>2013-07-07T10:53:48Z</time>
      </trkpt>
      <trkpt lat="44.12484" lon="3.51377">
        <ele>1396</ele>
        <time>2013-07-07T10:53:54Z</time>
      </trkpt>
      <trkpt lat="44.12487" lon="3.51366">
        <ele>1396</ele>
        <time>2013-07-07T10:53:58Z</time>
      </trkpt>
      <trkpt lat="44.12491" lon="3.51348">
        <ele>1395</ele>
        <time>2013-07-07T10:54:04Z</time>
      </trkpt>
      <trkpt lat="44.12492" lon="3.51333">
        <ele>1395.5148531164</ele>
        <time>2013-07-07T10:54:10Z</time>
      </trkpt>
      <trkpt lat="44.12492" lon="3.51315">
        <ele>1395</ele>
        <time>2013-07-07T10:54:17Z</time>
      </trkpt>
      <trkpt lat="44.12493" lon="3.51297">
        <ele>1394</ele>
        <time>2013-07-07T10:54:22Z</time>
      </trkpt>
      <trkpt lat="44.12492" lon="3.51278">
        <ele>1394</ele>
        <time>2013-07-07T10:54:28Z</time>
      </trkpt>
      <trkpt lat="44.12492" lon="3.51266">
        <ele>1393</ele>
        <time>2013-07-07T10:54:31Z</time>
      </trkpt>
      <trkpt lat="44.12494" lon="3.51253">
        <ele>1393</ele>
        <time>2013-07-07T10:54:35Z</time>
      </trkpt>
      <trkpt lat="44.12495" lon="3.51239">
        <ele>1392.52</ele>
        <time>2013-07-07T10:54:40Z</time>
      </trkpt>
      <trkpt lat="44.12496" lon="3.51225">
        <ele>1392</ele>
        <time>2013-07-07T10:54:45Z</time>
      </trkpt>
      <trkpt lat="44.12496" lon="3.5121">
        <ele>1391.6020401499</ele>
        <time>2013-07-07T10:54:50Z</time>
      </trkpt>
      <trkpt lat="44.12499" lon="3.51196">
        <ele>1391</ele>
        <time>2013-07-07T10:54:54Z</time>
      </trkpt>
      <trkpt lat="44.12501" lon="3.51176">
        <ele>1391</ele>
        <time>2013-07-07T10:54:59Z</time>
      </trkpt>
      <trkpt lat="44.12504" lon="3.51151">
        <ele>1388</ele>
        <time>2013-07-07T10:55:06Z</time>
      </trkpt>
      <trkpt lat="44.12508" lon="3.51132">
        <ele>1387</ele>
        <time>2013-07-07T10:55:12Z</time>
      </trkpt>
      <trkpt lat="44.12513" lon="3.51118">
        <ele>1387</ele>
        <time>2013-07-07T10:55:18Z</time>
      </trkpt>
      <trkpt lat="44.1252" lon="3.51107">
        <ele>1385</ele>
        <time>2013-07-07T10:55:24Z</time>
      </trkpt>
      <trkpt lat="44.12525" lon="3.51092">
        <ele>1383</ele>
        <time>2013-07-07T10:55:32Z</time>
      </trkpt>
      <trkpt lat="44.12529" lon="3.5108">
        <ele>1383</ele>
        <time>2013-07-07T10:55:38Z</time>
      </trkpt>
      <trkpt lat="44.12532" lon="3.51064">
        <ele>1381</ele>
        <time>2013-07-07T10:55:45Z</time>
      </trkpt>
      <trkpt lat="44.1254" lon="3.5105">
        <ele>1380.6020401499</ele>
        <time>2013-07-07T10:55:50Z</time>
      </trkpt>
      <trkpt lat="44.12543" lon="3.51034">
        <ele>1380</ele>
        <time>2013-07-07T10:55:55Z</time>
      </trkpt>
      <trkpt lat="44.12549" lon="3.51017">
        <ele>1377</ele>
        <time>2013-07-07T10:56:02Z</time>
      </trkpt>
      <trkpt lat="44.12553" lon="3.50991">
        <ele>1376</ele>
        <time>2013-07-07T10:56:11Z</time>
      </trkpt>
      <trkpt lat="44.12557" lon="3.50977">
        <ele>1376</ele>
        <time>2013-07-07T10:56:15Z</time>
      </trkpt>
      <trkpt lat="44.12563" lon="3.50963">
        <ele>1376</ele>
        <time>2013-07-07T10:56:21Z</time>
      </trkpt>
      <trkpt lat="44.12569" lon="3.50949">
        <ele>1376</ele>
        <time>2013-07-07T10:56:28Z</time>
      </trkpt>
      <trkpt lat="44.12576" lon="3.50934">
        <ele>1375</ele>
        <time>2013-07-07T10:56:35Z</time>
      </trkpt>
      <trkpt lat="44.1258" lon="3.50919">
        <ele>1374</ele>
        <time>2013-07-07T10:56:41Z</time>
      </trkpt>
      <trkpt lat="44.12586" lon="3.50904">
        <ele>1374</ele>
        <time>2013-07-07T10:56:49Z</time>
      </trkpt>
      <trkpt lat="44.12592" lon="3.50893">
        <ele>1372</ele>
        <time>2013-07-07T10:56:57Z</time>
      </trkpt>
      <trkpt lat="44.12598" lon="3.50882">
        <ele>1371</ele>
        <time>2013-07-07T10:57:07Z</time>
      </trkpt>
      <trkpt lat="44.12603" lon="3.50868">
        <ele>1370</ele>
        <time>2013-07-07T10:57:19Z</time>
      </trkpt>
      <trkpt lat="44.12609" lon="3.50855">
        <ele>1368</ele>
        <time>2013-07-07T10:57:26Z</time>
      </trkpt>
      <trkpt lat="44.12613" lon="3.50841">
        <ele>1365</ele>
        <time>2013-07-07T10:57:33Z</time>
      </trkpt>
      <trkpt lat="44.12614" lon="3.50817">
        <ele>1364</ele>
        <time>2013-07-07T10:57:46Z</time>
      </trkpt>
      <trkpt lat="44.12615" lon="3.50798">
        <ele>1362</ele>
        <time>2013-07-07T10:57:55Z</time>
      </trkpt>
      <trkpt lat="44.12618" lon="3.50786">
        <ele>1360</ele>
        <time>2013-07-07T10:58:02Z</time>
      </trkpt>
      <trkpt lat="44.12619" lon="3.50772">
        <ele>1358</ele>
        <time>2013-07-07T10:58:13Z</time>
      </trkpt>
      <trkpt lat="44.12618" lon="3.50758">
        <ele>1356</ele>
        <time>2013-07-07T10:58:22Z</time>
      </trkpt>
      <trkpt lat="44.12617" lon="3.50739">
        <ele>1353</ele>
        <time>2013-07-07T10:58:31Z</time>
      </trkpt>
      <trkpt lat="44.12618" lon="3.50723">
        <ele>1352</ele>
        <time>2013-07-07T10:58:39Z</time>
      </trkpt>
      <trkpt lat="44.12621" lon="3.50707">
        <ele>1348</ele>
        <time>2013-07-07T10:58:47Z</time>
      </trkpt>
      <trkpt lat="44.12617" lon="3.50689">
        <ele>1346.5148531164</ele>
        <time>2013-07-07T10:58:55Z</time>
      </trkpt>
      <trkpt lat="44.12616" lon="3.50675">
        <ele>1346</ele>
        <time>2013-07-07T10:58:59Z</time>
      </trkpt>
      <trkpt lat="44.1262" lon="3.50659">
        <ele>1343</ele>
        <time>2013-07-07T10:59:06Z</time>
      </trkpt>
      <trkpt lat="44.12621" lon="3.50643">
        <ele>1342</ele>
        <time>2013-07-07T10:59:18Z</time>
      </trkpt>
      <trkpt lat="44.12621" lon="3.50627">
        <ele>1337.0297062327</ele>
        <time>2013-07-07T10:59:25Z</time>
      </trkpt>
      <trkpt lat="44.1262" lon="3.50614">
        <ele>1334</ele>
        <time>2013-07-07T10:59:31Z</time>
      </trkpt>
      <trkpt lat="44.12619" lon="3.50603">
        <ele>1333</ele>
        <time>2013-07-07T10:59:36Z</time>
      </trkpt>
      <trkpt lat="44.12618" lon="3.50585">
        <ele>1331</ele>
        <time>2013-07-07T10:59:44Z</time>
      </trkpt>
      <trkpt lat="44.12618" lon="3.5057">
        <ele>1330</ele>
        <time>2013-07-07T10:59:49Z</time>
      </trkpt>
      <trkpt lat="44.12618" lon="3.50551">
        <ele>1326</ele>
        <time>2013-07-07T10:59:57Z</time>
      </trkpt>
      <trkpt lat="44.1262" lon="3.50537">
        <ele>1324</ele>
        <time>2013-07-07T11:00:04Z</time>
      </trkpt>
      <trkpt lat="44.1262" lon="3.5052">
        <ele>1323</ele>
        <time>2013-07-07T11:00:12Z</time>
      </trkpt>
      <trkpt lat="44.1262" lon="3.50502">
        <ele>1323</ele>
        <time>2013-07-07T11:00:19Z</time>
      </trkpt>
      <trkpt lat="44.12619" lon="3.50486">
        <ele>1322</ele>
        <time>2013-07-07T11:00:25Z</time>
      </trkpt>
      <trkpt lat="44.12617" lon="3.50477">
        <ele>1322</ele>
        <time>2013-07-07T11:00:28Z</time>
      </trkpt>
      <trkpt lat="44.12615" lon="3.50461">
        <ele>1321</ele>
        <time>2013-07-07T11:00:34Z</time>
      </trkpt>
      <trkpt lat="44.12615" lon="3.50443">
        <ele>1321</ele>
        <time>2013-07-07T11:00:42Z</time>
      </trkpt>
      <trkpt lat="44.12611" lon="3.50427">
        <ele>1322</ele>
        <time>2013-07-07T11:00:57Z</time>
      </trkpt>
      <trkpt lat="44.12604" lon="3.50414">
        <ele>1324</ele>
        <time>2013-07-07T11:01:12Z</time>
      </trkpt>
      <trkpt lat="44.126" lon="3.504">
        <ele>1325</ele>
        <time>2013-07-07T11:01:24Z</time>
      </trkpt>
      <trkpt lat="44.12597" lon="3.50386">
        <ele>1326</ele>
        <time>2013-07-07T11:01:32Z</time>
      </trkpt>
      <trkpt lat="44.12595" lon="3.50374">
        <ele>1326.9702937673</ele>
        <time>2013-07-07T11:01:40Z</time>
      </trkpt>
      <trkpt lat="44.1259" lon="3.50364">
        <ele>1330</ele>
        <time>2013-07-07T11:01:51Z</time>
      </trkpt>
      <trkpt lat="44.12584" lon="3.50351">
        <ele>1329</ele>
        <time>2013-07-07T11:02:03Z</time>
      </trkpt>
      <trkpt lat="44.12576" lon="3.50338">
        <ele>1331</ele>
        <time>2013-07-07T11:02:16Z</time>
      </trkpt>
      <trkpt lat="44.12569" lon="3.50324">
        <ele>1333</ele>
        <time>2013-07-07T11:02:29Z</time>
      </trkpt>
      <trkpt lat="44.12558" lon="3.50308">
        <ele>1334</ele>
        <time>2013-07-07T11:02:44Z</time>
      </trkpt>
      <trkpt lat="44.12547" lon="3.503">
        <ele>1335</ele>
        <time>2013-07-07T11:02:52Z</time>
      </trkpt>
      <trkpt lat="44.12541" lon="3.50291">
        <ele>1335</ele>
        <time>2013-07-07T11:02:59Z</time>
      </trkpt>
      <trkpt lat="44.12536" lon="3.50283">
        <ele>1335</ele>
        <time>2013-07-07T11:03:05Z</time>
      </trkpt>
      <trkpt lat="44.1253" lon="3.50276">
        <ele>1336</ele>
        <time>2013-07-07T11:03:11Z</time>
      </trkpt>
      <trkpt lat="44.12527" lon="3.5027">
        <ele>1336</ele>
        <time>2013-07-07T11:03:18Z</time>
      </trkpt>
      <trkpt lat="44.12523" lon="3.50261">
        <ele>1338</ele>
        <time>2013-07-07T11:03:25Z</time>
      </trkpt>
      <trkpt lat="44.12519" lon="3.50254">
        <ele>1339</ele>
        <time>2013-07-07T11:03:33Z</time>
      </trkpt>
      <trkpt lat="44.1252" lon="3.50246">
        <ele>1340.1683015233</ele>
        <time>2013-07-07T11:03:40Z</time>
      </trkpt>
      <trkpt lat="44.12521" lon="3.50237">
        <ele>1341</ele>
        <time>2013-07-07T11:03:55Z</time>
      </trkpt>
      <trkpt lat="44.12521" lon="3.50229">
        <ele>1341</ele>
        <time>2013-07-07T11:04:01Z</time>
      </trkpt>
      <trkpt lat="44.12521" lon="3.50221">
        <ele>1341</ele>
        <time>2013-07-07T11:04:08Z</time>
      </trkpt>
      <trkpt lat="44.12519" lon="3.50213">
        <ele>1341</ele>
        <time>2013-07-07T11:04:13Z</time>
      </trkpt>
      <trkpt lat="44.12519" lon="3.50205">
        <ele>1341</ele>
        <time>2013-07-07T11:04:18Z</time>
      </trkpt>
      <trkpt lat="44.12519" lon="3.50195">
        <ele>1343</ele>
        <time>2013-07-07T11:04:24Z</time>
      </trkpt>
      <trkpt lat="44.1252" lon="3.50186">
        <ele>1343</ele>
        <time>2013-07-07T11:04:29Z</time>
      </trkpt>
      <trkpt lat="44.12521" lon="3.5018">
        <ele>1343</ele>
        <time>2013-07-07T11:04:33Z</time>
      </trkpt>
      <trkpt lat="44.12522" lon="3.50171">
        <ele>1343</ele>
        <time>2013-07-07T11:04:38Z</time>
      </trkpt>
      <trkpt lat="44.12525" lon="3.50159">
        <ele>1344</ele>
        <time>2013-07-07T11:04:43Z</time>
      </trkpt>
      <trkpt lat="44.12525" lon="3.50148">
        <ele>1344</ele>
        <time>2013-07-07T11:04:47Z</time>
      </trkpt>
      <trkpt lat="44.12524" lon="3.50137">
        <ele>1343</ele>
        <time>2013-07-07T11:04:51Z</time>
      </trkpt>
      <trkpt lat="44.12524" lon="3.50129">
        <ele>1343</ele>
        <time>2013-07-07T11:04:54Z</time>
      </trkpt>
      <trkpt lat="44.12524" lon="3.50115">
        <ele>1343</ele>
        <time>2013-07-07T11:04:59Z</time>
      </trkpt>
      <trkpt lat="44.12524" lon="3.50106">
        <ele>1342</ele>
        <time>2013-07-07T11:05:02Z</time>
      </trkpt>
      <trkpt lat="44.12525" lon="3.50098">
        <ele>1342</ele>
        <time>2013-07-07T11:05:05Z</time>
      </trkpt>
      <trkpt lat="44.12526" lon="3.50089">
        <ele>1342</ele>
        <time>2013-07-07T11:05:08Z</time>
      </trkpt>
      <trkpt lat="44.12527" lon="3.5008">
        <ele>1342</ele>
        <time>2013-07-07T11:05:11Z</time>
      </trkpt>
      <trkpt lat="44.12529" lon="3.50071">
        <ele>1342</ele>
        <time>2013-07-07T11:05:14Z</time>
      </trkpt>
      <trkpt lat="44.1253" lon="3.50057">
        <ele>1342</ele>
        <time>2013-07-07T11:05:19Z</time>
      </trkpt>
      <trkpt lat="44.1253" lon="3.50044">
        <ele>1342</ele>
        <time>2013-07-07T11:05:24Z</time>
      </trkpt>
      <trkpt lat="44.12532" lon="3.50031">
        <ele>1341</ele>
        <time>2013-07-07T11:05:30Z</time>
      </trkpt>
      <trkpt lat="44.12533" lon="3.50018">
        <ele>1341</ele>
        <time>2013-07-07T11:05:36Z</time>
      </trkpt>
      <trkpt lat="44.12532" lon="3.50009">
        <ele>1341.9702937673</ele>
        <time>2013-07-07T11:05:40Z</time>
      </trkpt>
      <trkpt lat="44.12529" lon="3.50002">
        <ele>1343</ele>
        <time>2013-07-07T11:05:44Z</time>
      </trkpt>
      <trkpt lat="44.12527" lon="3.49991">
        <ele>1343</ele>
        <time>2013-07-07T11:05:50Z</time>
      </trkpt>
      <trkpt lat="44.12526" lon="3.49983">
        <ele>1343</ele>
        <time>2013-07-07T11:05:55Z</time>
      </trkpt>
      <trkpt lat="44.12524" lon="3.49976">
        <ele>1343</ele>
        <time>2013-07-07T11:05:59Z</time>
      </trkpt>
      <trkpt lat="44.12521" lon="3.49969">
        <ele>1342</ele>
        <time>2013-07-07T11:06:02Z</time>
      </trkpt>
      <trkpt lat="44.12519" lon="3.49961">
        <ele>1342</ele>
        <time>2013-07-07T11:06:05Z</time>
      </trkpt>
      <trkpt lat="44.12519" lon="3.4995">
        <ele>1342</ele>
        <time>2013-07-07T11:06:09Z</time>
      </trkpt>
      <trkpt lat="44.12515" lon="3.49945">
        <ele>1341.5100032</ele>
        <time>2013-07-07T11:06:12Z</time>
      </trkpt>
      <trkpt lat="44.1251" lon="3.49942">
        <ele>1341</ele>
        <time>2013-07-07T11:06:15Z</time>
      </trkpt>
      <trkpt lat="44.12504" lon="3.4994">
        <ele>1341</ele>
        <time>2013-07-07T11:06:18Z</time>
      </trkpt>
      <trkpt lat="44.12498" lon="3.49938">
        <ele>1339</ele>
        <time>2013-07-07T11:06:21Z</time>
      </trkpt>
      <trkpt lat="44.12492" lon="3.49936">
        <ele>1339</ele>
        <time>2013-07-07T11:06:24Z</time>
      </trkpt>
      <trkpt lat="44.12485" lon="3.49934">
        <ele>1339</ele>
        <time>2013-07-07T11:06:27Z</time>
      </trkpt>
      <trkpt lat="44.12478" lon="3.49931">
        <ele>1337.5445593491</ele>
        <time>2013-07-07T11:06:30Z</time>
      </trkpt>
      <trkpt lat="44.12471" lon="3.49929">
        <ele>1336</ele>
        <time>2013-07-07T11:06:33Z</time>
      </trkpt>
      <trkpt lat="44.12463" lon="3.49927">
        <ele>1335</ele>
        <time>2013-07-07T11:06:36Z</time>
      </trkpt>
      <trkpt lat="44.12455" lon="3.49925">
        <ele>1335</ele>
        <time>2013-07-07T11:06:39Z</time>
      </trkpt>
      <trkpt lat="44.12448" lon="3.49924">
        <ele>1334</ele>
        <time>2013-07-07T11:06:42Z</time>
      </trkpt>
      <trkpt lat="44.1244" lon="3.49923">
        <ele>1333.5148531164</ele>
        <time>2013-07-07T11:06:45Z</time>
      </trkpt>
      <trkpt lat="44.12433" lon="3.49921">
        <ele>1333</ele>
        <time>2013-07-07T11:06:48Z</time>
      </trkpt>
      <trkpt lat="44.12427" lon="3.4992">
        <ele>1332</ele>
        <time>2013-07-07T11:06:51Z</time>
      </trkpt>
      <trkpt lat="44.1242" lon="3.49921">
        <ele>1332</ele>
        <time>2013-07-07T11:06:54Z</time>
      </trkpt>
      <trkpt lat="44.12415" lon="3.49925">
        <ele>1332</ele>
        <time>2013-07-07T11:06:57Z</time>
      </trkpt>
      <trkpt lat="44.1241" lon="3.49931">
        <ele>1331.049501939</ele>
        <time>2013-07-07T11:07:00Z</time>
      </trkpt>
      <trkpt lat="44.12405" lon="3.49937">
        <ele>1329</ele>
        <time>2013-07-07T11:07:03Z</time>
      </trkpt>
      <trkpt lat="44.124" lon="3.49943">
        <ele>1329</ele>
        <time>2013-07-07T11:07:06Z</time>
      </trkpt>
      <trkpt lat="44.12394" lon="3.4995">
        <ele>1329</ele>
        <time>2013-07-07T11:07:09Z</time>
      </trkpt>
      <trkpt lat="44.1239" lon="3.49957">
        <ele>1329</ele>
        <time>2013-07-07T11:07:12Z</time>
      </trkpt>
      <trkpt lat="44.12388" lon="3.49966">
        <ele>1329</ele>
        <time>2013-07-07T11:07:16Z</time>
      </trkpt>
      <trkpt lat="44.12387" lon="3.49976">
        <ele>1326.8415709832</ele>
        <time>2013-07-07T11:07:20Z</time>
      </trkpt>
      <trkpt lat="44.12386" lon="3.49983">
        <ele>1325</ele>
        <time>2013-07-07T11:07:23Z</time>
      </trkpt>
      <trkpt lat="44.12383" lon="3.49993">
        <ele>1322</ele>
        <time>2013-07-07T11:07:27Z</time>
      </trkpt>
      <trkpt lat="44.12382" lon="3.50002">
        <ele>1320.8415709832</ele>
        <time>2013-07-07T11:07:30Z</time>
      </trkpt>
      <trkpt lat="44.12381" lon="3.5001">
        <ele>1317</ele>
        <time>2013-07-07T11:07:33Z</time>
      </trkpt>
      <trkpt lat="44.1238" lon="3.50021">
        <ele>1315</ele>
        <time>2013-07-07T11:07:37Z</time>
      </trkpt>
      <trkpt lat="44.1238" lon="3.50031">
        <ele>1312.6200064</ele>
        <time>2013-07-07T11:07:41Z</time>
      </trkpt>
      <trkpt lat="44.12379" lon="3.50041">
        <ele>1311</ele>
        <time>2013-07-07T11:07:46Z</time>
      </trkpt>
      <trkpt lat="44.12382" lon="3.50054">
        <ele>1308</ele>
        <time>2013-07-07T11:07:54Z</time>
      </trkpt>
      <trkpt lat="44.12374" lon="3.50065">
        <ele>1304</ele>
        <time>2013-07-07T11:08:02Z</time>
      </trkpt>
      <trkpt lat="44.12369" lon="3.50083">
        <ele>1300</ele>
        <time>2013-07-07T11:08:11Z</time>
      </trkpt>
      <trkpt lat="44.12364" lon="3.501">
        <ele>1297</ele>
        <time>2013-07-07T11:08:17Z</time>
      </trkpt>
      <trkpt lat="44.12356" lon="3.50118">
        <ele>1291</ele>
        <time>2013-07-07T11:08:25Z</time>
      </trkpt>
      <trkpt lat="44.12343" lon="3.50133">
        <ele>1287</ele>
        <time>2013-07-07T11:08:33Z</time>
      </trkpt>
      <trkpt lat="44.1233" lon="3.50152">
        <ele>1283</ele>
        <time>2013-07-07T11:08:44Z</time>
      </trkpt>
      <trkpt lat="44.1232" lon="3.5017">
        <ele>1276</ele>
        <time>2013-07-07T11:08:56Z</time>
      </trkpt>
      <trkpt lat="44.12313" lon="3.50189">
        <ele>1269.6200064</ele>
        <time>2013-07-07T11:09:05Z</time>
      </trkpt>
      <trkpt lat="44.12306" lon="3.50208">
        <ele>1262.6200064</ele>
        <time>2013-07-07T11:09:17Z</time>
      </trkpt>
      <trkpt lat="44.12297" lon="3.50225">
        <ele>1254.6199936</ele>
        <time>2013-07-07T11:09:30Z</time>
      </trkpt>
      <trkpt lat="44.12288" lon="3.50243">
        <ele>1251</ele>
        <time>2013-07-07T11:09:40Z</time>
      </trkpt>
      <trkpt lat="44.12279" lon="3.50264">
        <ele>1250</ele>
        <time>2013-07-07T11:09:47Z</time>
      </trkpt>
      <trkpt lat="44.1227" lon="3.50283">
        <ele>1250</ele>
        <time>2013-07-07T11:09:54Z</time>
      </trkpt>
      <trkpt lat="44.12264" lon="3.50304">
        <ele>1243</ele>
        <time>2013-07-07T11:10:01Z</time>
      </trkpt>
      <trkpt lat="44.12259" lon="3.50328">
        <ele>1238.6199936</ele>
        <time>2013-07-07T11:10:10Z</time>
      </trkpt>
      <trkpt lat="44.1225" lon="3.50352">
        <ele>1236</ele>
        <time>2013-07-07T11:10:19Z</time>
      </trkpt>
      <trkpt lat="44.12244" lon="3.50375">
        <ele>1233</ele>
        <time>2013-07-07T11:10:29Z</time>
      </trkpt>
      <trkpt lat="44.12229" lon="3.50392">
        <ele>1227</ele>
        <time>2013-07-07T11:10:37Z</time>
      </trkpt>
      <trkpt lat="44.12217" lon="3.50411">
        <ele>1224</ele>
        <time>2013-07-07T11:10:49Z</time>
      </trkpt>
      <trkpt lat="44.12205" lon="3.50427">
        <ele>1220</ele>
        <time>2013-07-07T11:10:59Z</time>
      </trkpt>
      <trkpt lat="44.12194" lon="3.50446">
        <ele>1213</ele>
        <time>2013-07-07T11:11:13Z</time>
      </trkpt>
      <trkpt lat="44.12194" lon="3.50469">
        <ele>1207.6138696677</ele>
        <time>2013-07-07T11:11:25Z</time>
      </trkpt>
      <trkpt lat="44.12175" lon="3.50472">
        <ele>1208</ele>
        <time>2013-07-07T11:11:36Z</time>
      </trkpt>
      <trkpt lat="44.12158" lon="3.50464">
        <ele>1205</ele>
        <time>2013-07-07T11:11:52Z</time>
      </trkpt>
      <trkpt lat="44.1214" lon="3.50464">
        <ele>1204</ele>
        <time>2013-07-07T11:12:11Z</time>
      </trkpt>
      <trkpt lat="44.12122" lon="3.50461">
        <ele>1203</ele>
        <time>2013-07-07T11:12:25Z</time>
      </trkpt>
      <trkpt lat="44.12106" lon="3.50453">
        <ele>1201</ele>
        <time>2013-07-07T11:12:34Z</time>
      </trkpt>
      <trkpt lat="44.12089" lon="3.50457">
        <ele>1200</ele>
        <time>2013-07-07T11:12:44Z</time>
      </trkpt>
      <trkpt lat="44.12074" lon="3.50446">
        <ele>1199</ele>
        <time>2013-07-07T11:12:53Z</time>
      </trkpt>
      <trkpt lat="44.12058" lon="3.50441">
        <ele>1196</ele>
        <time>2013-07-07T11:13:07Z</time>
      </trkpt>
      <trkpt lat="44.12043" lon="3.50442">
        <ele>1196</ele>
        <time>2013-07-07T11:13:21Z</time>
      </trkpt>
      <trkpt lat="44.12024" lon="3.5044">
        <ele>1196</ele>
        <time>2013-07-07T11:13:33Z</time>
      </trkpt>
      <trkpt lat="44.12015" lon="3.50431">
        <ele>1196</ele>
        <time>2013-07-07T11:13:37Z</time>
      </trkpt>
      <trkpt lat="44.12002" lon="3.50424">
        <ele>1194</ele>
        <time>2013-07-07T11:13:43Z</time>
      </trkpt>
      <trkpt lat="44.1199" lon="3.50419">
        <ele>1193.7755051396</ele>
        <time>2013-07-07T11:13:50Z</time>
      </trkpt>
      <trkpt lat="44.11978" lon="3.50419">
        <ele>1193</ele>
        <time>2013-07-07T11:13:55Z</time>
      </trkpt>
      <trkpt lat="44.11967" lon="3.50414">
        <ele>1192.3799936</ele>
        <time>2013-07-07T11:14:00Z</time>
      </trkpt>
      <trkpt lat="44.11957" lon="3.50407">
        <ele>1191</ele>
        <time>2013-07-07T11:14:06Z</time>
      </trkpt>
      <trkpt lat="44.11953" lon="3.50389">
        <ele>1191</ele>
        <time>2013-07-07T11:14:13Z</time>
      </trkpt>
      <trkpt lat="44.11951" lon="3.50373">
        <ele>1191</ele>
        <time>2013-07-07T11:14:20Z</time>
      </trkpt>
      <trkpt lat="44.11946" lon="3.50361">
        <ele>1191</ele>
        <time>2013-07-07T11:14:26Z</time>
      </trkpt>
      <trkpt lat="44.11941" lon="3.50349">
        <ele>1191</ele>
        <time>2013-07-07T11:14:32Z</time>
      </trkpt>
      <trkpt lat="44.11934" lon="3.5034">
        <ele>1191</ele>
        <time>2013-07-07T11:14:37Z</time>
      </trkpt>
      <trkpt lat="44.11923" lon="3.50331">
        <ele>1191</ele>
        <time>2013-07-07T11:14:43Z</time>
      </trkpt>
      <trkpt lat="44.11913" lon="3.50327">
        <ele>1190.7040737693</ele>
        <time>2013-07-07T11:14:50Z</time>
      </trkpt>
      <trkpt lat="44.11904" lon="3.50316">
        <ele>1190</ele>
        <time>2013-07-07T11:14:55Z</time>
      </trkpt>
      <trkpt lat="44.11899" lon="3.50306">
        <ele>1190</ele>
        <time>2013-07-07T11:14:59Z</time>
      </trkpt>
      <trkpt lat="44.11892" lon="3.50291">
        <ele>1188</ele>
        <time>2013-07-07T11:15:04Z</time>
      </trkpt>
      <trkpt lat="44.11886" lon="3.5028">
        <ele>1188</ele>
        <time>2013-07-07T11:15:08Z</time>
      </trkpt>
      <trkpt lat="44.11881" lon="3.50269">
        <ele>1189</ele>
        <time>2013-07-07T11:15:13Z</time>
      </trkpt>
      <trkpt lat="44.11873" lon="3.50259">
        <ele>1189</ele>
        <time>2013-07-07T11:15:20Z</time>
      </trkpt>
      <trkpt lat="44.11866" lon="3.50244">
        <ele>1189</ele>
        <time>2013-07-07T11:15:28Z</time>
      </trkpt>
      <trkpt lat="44.11858" lon="3.50235">
        <ele>1189</ele>
        <time>2013-07-07T11:15:35Z</time>
      </trkpt>
      <trkpt lat="44.11852" lon="3.50227">
        <ele>1189</ele>
        <time>2013-07-07T11:15:40Z</time>
      </trkpt>
      <trkpt lat="44.11845" lon="3.50219">
        <ele>1189</ele>
        <time>2013-07-07T11:15:46Z</time>
      </trkpt>
      <trkpt lat="44.11835" lon="3.50211">
        <ele>1189</ele>
        <time>2013-07-07T11:15:57Z</time>
      </trkpt>
      <trkpt lat="44.1183" lon="3.50206">
        <ele>1188</ele>
        <time>2013-07-07T11:16:04Z</time>
      </trkpt>
      <trkpt lat="44.11826" lon="3.50199">
        <ele>1188</ele>
        <time>2013-07-07T11:16:09Z</time>
      </trkpt>
      <trkpt lat="44.11816" lon="3.50189">
        <ele>1188</ele>
        <time>2013-07-07T11:16:18Z</time>
      </trkpt>
      <trkpt lat="44.11805" lon="3.50184">
        <ele>1188</ele>
        <time>2013-07-07T11:16:23Z</time>
      </trkpt>
      <trkpt lat="44.1179" lon="3.50176">
        <ele>1188</ele>
        <time>2013-07-07T11:16:32Z</time>
      </trkpt>
      <trkpt lat="44.11779" lon="3.50168">
        <ele>1188</ele>
        <time>2013-07-07T11:16:38Z</time>
      </trkpt>
      <trkpt lat="44.11769" lon="3.50161">
        <ele>1187</ele>
        <time>2013-07-07T11:16:42Z</time>
      </trkpt>
      <trkpt lat="44.1176" lon="3.50154">
        <ele>1187</ele>
        <time>2013-07-07T11:16:46Z</time>
      </trkpt>
      <trkpt lat="44.11748" lon="3.50141">
        <ele>1187</ele>
        <time>2013-07-07T11:16:53Z</time>
      </trkpt>
      <trkpt lat="44.11738" lon="3.50131">
        <ele>1187</ele>
        <time>2013-07-07T11:16:59Z</time>
      </trkpt>
      <trkpt lat="44.1173" lon="3.50124">
        <ele>1187</ele>
        <time>2013-07-07T11:17:04Z</time>
      </trkpt>
      <trkpt lat="44.1172" lon="3.5012">
        <ele>1187</ele>
        <time>2013-07-07T11:17:09Z</time>
      </trkpt>
      <trkpt lat="44.11708" lon="3.50118">
        <ele>1187</ele>
        <time>2013-07-07T11:17:15Z</time>
      </trkpt>
      <trkpt lat="44.11697" lon="3.50117">
        <ele>1187</ele>
        <time>2013-07-07T11:17:21Z</time>
      </trkpt>
      <trkpt lat="44.11686" lon="3.50116">
        <ele>1187</ele>
        <time>2013-07-07T11:17:27Z</time>
      </trkpt>
      <trkpt lat="44.11675" lon="3.50115">
        <ele>1187</ele>
        <time>2013-07-07T11:17:33Z</time>
      </trkpt>
      <trkpt lat="44.11664" lon="3.50114">
        <ele>1186</ele>
        <time>2013-07-07T11:17:39Z</time>
      </trkpt>
      <trkpt lat="44.11653" lon="3.50112">
        <ele>1186</ele>
        <time>2013-07-07T11:17:45Z</time>
      </trkpt>
      <trkpt lat="44.11643" lon="3.50105">
        <ele>1186</ele>
        <time>2013-07-07T11:17:51Z</time>
      </trkpt>
      <trkpt lat="44.11635" lon="3.50097">
        <ele>1186</ele>
        <time>2013-07-07T11:17:56Z</time>
      </trkpt>
      <trkpt lat="44.11632" lon="3.50089">
        <ele>1186</ele>
        <time>2013-07-07T11:17:59Z</time>
      </trkpt>
      <trkpt lat="44.11628" lon="3.50082">
        <ele>1184</ele>
        <time>2013-07-07T11:18:02Z</time>
      </trkpt>
      <trkpt lat="44.11625" lon="3.50076">
        <ele>1184</ele>
        <time>2013-07-07T11:18:05Z</time>
      </trkpt>
      <trkpt lat="44.1162" lon="3.50071">
        <ele>1184</ele>
        <time>2013-07-07T11:18:08Z</time>
      </trkpt>
      <trkpt lat="44.11614" lon="3.50064">
        <ele>1184</ele>
        <time>2013-07-07T11:18:13Z</time>
      </trkpt>
      <trkpt lat="44.11611" lon="3.50057">
        <ele>1184</ele>
        <time>2013-07-07T11:18:17Z</time>
      </trkpt>
      <trkpt lat="44.1161" lon="3.5005">
        <ele>1185</ele>
        <time>2013-07-07T11:18:21Z</time>
      </trkpt>
      <trkpt lat="44.11611" lon="3.5004">
        <ele>1185</ele>
        <time>2013-07-07T11:18:26Z</time>
      </trkpt>
      <trkpt lat="44.11612" lon="3.50032">
        <ele>1185</ele>
        <time>2013-07-07T11:18:29Z</time>
      </trkpt>
      <trkpt lat="44.11603" lon="3.50027">
        <ele>1183</ele>
        <time>2013-07-07T11:18:37Z</time>
      </trkpt>
      <trkpt lat="44.11595" lon="3.50023">
        <ele>1180</ele>
        <time>2013-07-07T11:18:41Z</time>
      </trkpt>
      <trkpt lat="44.11588" lon="3.50016">
        <ele>1178.4554786708</ele>
        <time>2013-07-07T11:18:45Z</time>
      </trkpt>
      <trkpt lat="44.11581" lon="3.50012">
        <ele>1176</ele>
        <time>2013-07-07T11:18:49Z</time>
      </trkpt>
      <trkpt lat="44.11574" lon="3.50009">
        <ele>1170.6200064</ele>
        <time>2013-07-07T11:18:53Z</time>
      </trkpt>
      <trkpt lat="44.11566" lon="3.50005">
        <ele>1169</ele>
        <time>2013-07-07T11:18:57Z</time>
      </trkpt>
      <trkpt lat="44.1156" lon="3.50001">
        <ele>1167.6199936</ele>
        <time>2013-07-07T11:19:00Z</time>
      </trkpt>
      <trkpt lat="44.1155" lon="3.49996">
        <ele>1165</ele>
        <time>2013-07-07T11:19:04Z</time>
      </trkpt>
      <trkpt lat="44.11543" lon="3.49994">
        <ele>1163.6200064</ele>
        <time>2013-07-07T11:19:07Z</time>
      </trkpt>
      <trkpt lat="44.1153" lon="3.49998">
        <ele>1161.6138696677</ele>
        <time>2013-07-07T11:19:13Z</time>
      </trkpt>
      <trkpt lat="44.11517" lon="3.50001">
        <ele>1159</ele>
        <time>2013-07-07T11:19:19Z</time>
      </trkpt>
      <trkpt lat="44.11509" lon="3.49999">
        <ele>1156</ele>
        <time>2013-07-07T11:19:22Z</time>
      </trkpt>
      <trkpt lat="44.11502" lon="3.49995">
        <ele>1154.8416090031</ele>
        <time>2013-07-07T11:19:25Z</time>
      </trkpt>
      <trkpt lat="44.11495" lon="3.4999">
        <ele>1153</ele>
        <time>2013-07-07T11:19:28Z</time>
      </trkpt>
      <trkpt lat="44.11489" lon="3.49985">
        <ele>1152</ele>
        <time>2013-07-07T11:19:31Z</time>
      </trkpt>
      <trkpt lat="44.11482" lon="3.49981">
        <ele>1152</ele>
        <time>2013-07-07T11:19:34Z</time>
      </trkpt>
      <trkpt lat="44.11475" lon="3.49977">
        <ele>1151</ele>
        <time>2013-07-07T11:19:37Z</time>
      </trkpt>
      <trkpt lat="44.11468" lon="3.49973">
        <ele>1149.8599808</ele>
        <time>2013-07-07T11:19:40Z</time>
      </trkpt>
      <trkpt lat="44.11461" lon="3.49969">
        <ele>1148</ele>
        <time>2013-07-07T11:19:43Z</time>
      </trkpt>
      <trkpt lat="44.11454" lon="3.49964">
        <ele>1147</ele>
        <time>2013-07-07T11:19:46Z</time>
      </trkpt>
      <trkpt lat="44.11443" lon="3.49958">
        <ele>1146</ele>
        <time>2013-07-07T11:19:51Z</time>
      </trkpt>
      <trkpt lat="44.11436" lon="3.49955">
        <ele>1146</ele>
        <time>2013-07-07T11:19:54Z</time>
      </trkpt>
      <trkpt lat="44.1143" lon="3.49951">
        <ele>1146</ele>
        <time>2013-07-07T11:19:57Z</time>
      </trkpt>
      <trkpt lat="44.11423" lon="3.49948">
        <ele>1143.8599808</ele>
        <time>2013-07-07T11:20:00Z</time>
      </trkpt>
      <trkpt lat="44.11416" lon="3.49946">
        <ele>1142</ele>
        <time>2013-07-07T11:20:03Z</time>
      </trkpt>
      <trkpt lat="44.1141" lon="3.49943">
        <ele>1142</ele>
        <time>2013-07-07T11:20:06Z</time>
      </trkpt>
      <trkpt lat="44.11403" lon="3.4994">
        <ele>1142</ele>
        <time>2013-07-07T11:20:09Z</time>
      </trkpt>
      <trkpt lat="44.11397" lon="3.49936">
        <ele>1142</ele>
        <time>2013-07-07T11:20:12Z</time>
      </trkpt>
      <trkpt lat="44.1139" lon="3.49933">
        <ele>1142</ele>
        <time>2013-07-07T11:20:15Z</time>
      </trkpt>
      <trkpt lat="44.11383" lon="3.49931">
        <ele>1142</ele>
        <time>2013-07-07T11:20:19Z</time>
      </trkpt>
      <trkpt lat="44.11379" lon="3.49939">
        <ele>1140</ele>
        <time>2013-07-07T11:20:23Z</time>
      </trkpt>
      <trkpt lat="44.11377" lon="3.49955">
        <ele>1140</ele>
        <time>2013-07-07T11:20:28Z</time>
      </trkpt>
      <trkpt lat="44.11375" lon="3.49966">
        <ele>1139</ele>
        <time>2013-07-07T11:20:32Z</time>
      </trkpt>
      <trkpt lat="44.11373" lon="3.49977">
        <ele>1138</ele>
        <time>2013-07-07T11:20:36Z</time>
      </trkpt>
      <trkpt lat="44.11372" lon="3.49988">
        <ele>1138</ele>
        <time>2013-07-07T11:20:40Z</time>
      </trkpt>
      <trkpt lat="44.11371" lon="3.5">
        <ele>1138</ele>
        <time>2013-07-07T11:20:44Z</time>
      </trkpt>
      <trkpt lat="44.11371" lon="3.50008">
        <ele>1138</ele>
        <time>2013-07-07T11:20:47Z</time>
      </trkpt>
      <trkpt lat="44.11369" lon="3.5002">
        <ele>1138</ele>
        <time>2013-07-07T11:20:51Z</time>
      </trkpt>
      <trkpt lat="44.11368" lon="3.50029">
        <ele>1138</ele>
        <time>2013-07-07T11:20:54Z</time>
      </trkpt>
      <trkpt lat="44.11366" lon="3.5004">
        <ele>1138</ele>
        <time>2013-07-07T11:20:58Z</time>
      </trkpt>
      <trkpt lat="44.11364" lon="3.50048">
        <ele>1137</ele>
        <time>2013-07-07T11:21:01Z</time>
      </trkpt>
      <trkpt lat="44.11362" lon="3.50059">
        <ele>1137</ele>
        <time>2013-07-07T11:21:05Z</time>
      </trkpt>
      <trkpt lat="44.11361" lon="3.50067">
        <ele>1137</ele>
        <time>2013-07-07T11:21:08Z</time>
      </trkpt>
      <trkpt lat="44.1136" lon="3.50074">
        <ele>1136</ele>
        <time>2013-07-07T11:21:11Z</time>
      </trkpt>
      <trkpt lat="44.11357" lon="3.50087">
        <ele>1136</ele>
        <time>2013-07-07T11:21:16Z</time>
      </trkpt>
      <trkpt lat="44.11353" lon="3.50097">
        <ele>1136</ele>
        <time>2013-07-07T11:21:20Z</time>
      </trkpt>
      <trkpt lat="44.11349" lon="3.5011">
        <ele>1136</ele>
        <time>2013-07-07T11:21:27Z</time>
      </trkpt>
      <trkpt lat="44.11347" lon="3.5012">
        <ele>1136</ele>
        <time>2013-07-07T11:21:34Z</time>
      </trkpt>
      <trkpt lat="44.11343" lon="3.50125">
        <ele>1136</ele>
        <time>2013-07-07T11:22:47Z</time>
      </trkpt>
      <trkpt lat="44.11342" lon="3.5013">
        <ele>1132</ele>
        <time>2013-07-07T11:28:16Z</time>
      </trkpt>
      <trkpt lat="44.11341" lon="3.50137">
        <ele>1132</ele>
        <time>2013-07-07T11:28:20Z</time>
      </trkpt>
      <trkpt lat="44.11339" lon="3.50145">
        <ele>1132</ele>
        <time>2013-07-07T11:28:23Z</time>
      </trkpt>
      <trkpt lat="44.11337" lon="3.50155">
        <ele>1132</ele>
        <time>2013-07-07T11:28:27Z</time>
      </trkpt>
      <trkpt lat="44.11334" lon="3.50165">
        <ele>1131</ele>
        <time>2013-07-07T11:28:31Z</time>
      </trkpt>
      <trkpt lat="44.1133" lon="3.50175">
        <ele>1131</ele>
        <time>2013-07-07T11:28:35Z</time>
      </trkpt>
      <trkpt lat="44.11327" lon="3.50184">
        <ele>1131</ele>
        <time>2013-07-07T11:28:38Z</time>
      </trkpt>
      <trkpt lat="44.11325" lon="3.50193">
        <ele>1131</ele>
        <time>2013-07-07T11:28:41Z</time>
      </trkpt>
      <trkpt lat="44.11321" lon="3.50203">
        <ele>1131</ele>
        <time>2013-07-07T11:28:45Z</time>
      </trkpt>
      <trkpt lat="44.11317" lon="3.50215">
        <ele>1131</ele>
        <time>2013-07-07T11:28:49Z</time>
      </trkpt>
      <trkpt lat="44.11314" lon="3.50226">
        <ele>1132</ele>
        <time>2013-07-07T11:28:53Z</time>
      </trkpt>
      <trkpt lat="44.11311" lon="3.50234">
        <ele>1132</ele>
        <time>2013-07-07T11:28:56Z</time>
      </trkpt>
      <trkpt lat="44.11307" lon="3.50245">
        <ele>1131.5148531164</ele>
        <time>2013-07-07T11:29:00Z</time>
      </trkpt>
      <trkpt lat="44.11304" lon="3.50253">
        <ele>1131</ele>
        <time>2013-07-07T11:29:03Z</time>
      </trkpt>
      <trkpt lat="44.11299" lon="3.50262">
        <ele>1131</ele>
        <time>2013-07-07T11:29:07Z</time>
      </trkpt>
      <trkpt lat="44.11295" lon="3.50272">
        <ele>1130</ele>
        <time>2013-07-07T11:29:11Z</time>
      </trkpt>
      <trkpt lat="44.11291" lon="3.50284">
        <ele>1130</ele>
        <time>2013-07-07T11:29:16Z</time>
      </trkpt>
      <trkpt lat="44.11288" lon="3.50299">
        <ele>1130</ele>
        <time>2013-07-07T11:29:22Z</time>
      </trkpt>
      <trkpt lat="44.11286" lon="3.5032">
        <ele>1129.5148531164</ele>
        <time>2013-07-07T11:29:30Z</time>
      </trkpt>
      <trkpt lat="44.11287" lon="3.50338">
        <ele>1129</ele>
        <time>2013-07-07T11:29:36Z</time>
      </trkpt>
      <trkpt lat="44.11283" lon="3.5036">
        <ele>1129</ele>
        <time>2013-07-07T11:29:45Z</time>
      </trkpt>
      <trkpt lat="44.11279" lon="3.50378">
        <ele>1129</ele>
        <time>2013-07-07T11:29:52Z</time>
      </trkpt>
      <trkpt lat="44.11275" lon="3.50391">
        <ele>1129</ele>
        <time>2013-07-07T11:29:58Z</time>
      </trkpt>
      <trkpt lat="44.11271" lon="3.504">
        <ele>1129</ele>
        <time>2013-07-07T11:30:02Z</time>
      </trkpt>
      <trkpt lat="44.11268" lon="3.50412">
        <ele>1129</ele>
        <time>2013-07-07T11:30:07Z</time>
      </trkpt>
      <trkpt lat="44.11267" lon="3.50423">
        <ele>1130</ele>
        <time>2013-07-07T11:30:12Z</time>
      </trkpt>
      <trkpt lat="44.11265" lon="3.50433">
        <ele>1130</ele>
        <time>2013-07-07T11:30:17Z</time>
      </trkpt>
      <trkpt lat="44.11263" lon="3.50444">
        <ele>1131</ele>
        <time>2013-07-07T11:30:23Z</time>
      </trkpt>
      <trkpt lat="44.11261" lon="3.50453">
        <ele>1131</ele>
        <time>2013-07-07T11:30:28Z</time>
      </trkpt>
      <trkpt lat="44.11259" lon="3.50462">
        <ele>1131</ele>
        <time>2013-07-07T11:30:33Z</time>
      </trkpt>
      <trkpt lat="44.11257" lon="3.50471">
        <ele>1131</ele>
        <time>2013-07-07T11:30:38Z</time>
      </trkpt>
      <trkpt lat="44.11255" lon="3.50479">
        <ele>1132</ele>
        <time>2013-07-07T11:30:43Z</time>
      </trkpt>
      <trkpt lat="44.11253" lon="3.50488">
        <ele>1132</ele>
        <time>2013-07-07T11:30:48Z</time>
      </trkpt>
      <trkpt lat="44.11251" lon="3.50498">
        <ele>1133</ele>
        <time>2013-07-07T11:30:52Z</time>
      </trkpt>
      <trkpt lat="44.11248" lon="3.50507">
        <ele>1133</ele>
        <time>2013-07-07T11:30:56Z</time>
      </trkpt>
      <trkpt lat="44.11246" lon="3.50517">
        <ele>1133.4899968</ele>
        <time>2013-07-07T11:31:00Z</time>
      </trkpt>
      <trkpt lat="44.11243" lon="3.50527">
        <ele>1134</ele>
        <time>2013-07-07T11:31:04Z</time>
      </trkpt>
      <trkpt lat="44.1124" lon="3.50537">
        <ele>1134</ele>
        <time>2013-07-07T11:31:08Z</time>
      </trkpt>
      <trkpt lat="44.11237" lon="3.50546">
        <ele>1134</ele>
        <time>2013-07-07T11:31:12Z</time>
      </trkpt>
      <trkpt lat="44.11234" lon="3.50556">
        <ele>1134</ele>
        <time>2013-07-07T11:31:16Z</time>
      </trkpt>
      <trkpt lat="44.1123" lon="3.50567">
        <ele>1134</ele>
        <time>2013-07-07T11:31:21Z</time>
      </trkpt>
      <trkpt lat="44.11227" lon="3.50578">
        <ele>1134</ele>
        <time>2013-07-07T11:31:26Z</time>
      </trkpt>
      <trkpt lat="44.11224" lon="3.50588">
        <ele>1134.4899968</ele>
        <time>2013-07-07T11:31:30Z</time>
      </trkpt>
      <trkpt lat="44.11221" lon="3.50599">
        <ele>1135</ele>
        <time>2013-07-07T11:31:34Z</time>
      </trkpt>
      <trkpt lat="44.11218" lon="3.50611">
        <ele>1135</ele>
        <time>2013-07-07T11:31:39Z</time>
      </trkpt>
      <trkpt lat="44.11215" lon="3.5062">
        <ele>1135</ele>
        <time>2013-07-07T11:31:43Z</time>
      </trkpt>
      <trkpt lat="44.11213" lon="3.5063">
        <ele>1135</ele>
        <time>2013-07-07T11:31:47Z</time>
      </trkpt>
      <trkpt lat="44.11209" lon="3.50647">
        <ele>1135</ele>
        <time>2013-07-07T11:31:54Z</time>
      </trkpt>
      <trkpt lat="44.11206" lon="3.50661">
        <ele>1135</ele>
        <time>2013-07-07T11:32:00Z</time>
      </trkpt>
      <trkpt lat="44.11206" lon="3.50681">
        <ele>1135</ele>
        <time>2013-07-07T11:32:08Z</time>
      </trkpt>
      <trkpt lat="44.11203" lon="3.50693">
        <ele>1137</ele>
        <time>2013-07-07T11:32:14Z</time>
      </trkpt>
      <trkpt lat="44.11201" lon="3.50703">
        <ele>1137</ele>
        <time>2013-07-07T11:32:20Z</time>
      </trkpt>
      <trkpt lat="44.11198" lon="3.50714">
        <ele>1137</ele>
        <time>2013-07-07T11:32:26Z</time>
      </trkpt>
      <trkpt lat="44.11197" lon="3.50722">
        <ele>1137</ele>
        <time>2013-07-07T11:32:31Z</time>
      </trkpt>
      <trkpt lat="44.11196" lon="3.50731">
        <ele>1137</ele>
        <time>2013-07-07T11:32:36Z</time>
      </trkpt>
      <trkpt lat="44.11196" lon="3.5074">
        <ele>1136</ele>
        <time>2013-07-07T11:32:41Z</time>
      </trkpt>
      <trkpt lat="44.11194" lon="3.50749">
        <ele>1136</ele>
        <time>2013-07-07T11:32:46Z</time>
      </trkpt>
      <trkpt lat="44.11193" lon="3.50758">
        <ele>1136</ele>
        <time>2013-07-07T11:32:50Z</time>
      </trkpt>
      <trkpt lat="44.11191" lon="3.50769">
        <ele>1136</ele>
        <time>2013-07-07T11:32:54Z</time>
      </trkpt>
      <trkpt lat="44.11189" lon="3.5078">
        <ele>1136</ele>
        <time>2013-07-07T11:32:58Z</time>
      </trkpt>
      <trkpt lat="44.11186" lon="3.5079">
        <ele>1136</ele>
        <time>2013-07-07T11:33:02Z</time>
      </trkpt>
      <trkpt lat="44.11182" lon="3.50799">
        <ele>1136</ele>
        <time>2013-07-07T11:33:06Z</time>
      </trkpt>
      <trkpt lat="44.11177" lon="3.50807">
        <ele>1135.6138569944</ele>
        <time>2013-07-07T11:33:10Z</time>
      </trkpt>
      <trkpt lat="44.11169" lon="3.50811">
        <ele>1135</ele>
        <time>2013-07-07T11:33:14Z</time>
      </trkpt>
      <trkpt lat="44.11161" lon="3.50813">
        <ele>1135</ele>
        <time>2013-07-07T11:33:18Z</time>
      </trkpt>
      <trkpt lat="44.11153" lon="3.50817">
        <ele>1134</ele>
        <time>2013-07-07T11:33:23Z</time>
      </trkpt>
      <trkpt lat="44.11147" lon="3.50822">
        <ele>1134</ele>
        <time>2013-07-07T11:33:28Z</time>
      </trkpt>
      <trkpt lat="44.1114" lon="3.50828">
        <ele>1135</ele>
        <time>2013-07-07T11:33:33Z</time>
      </trkpt>
      <trkpt lat="44.11133" lon="3.50837">
        <ele>1135</ele>
        <time>2013-07-07T11:33:38Z</time>
      </trkpt>
      <trkpt lat="44.11126" lon="3.50847">
        <ele>1135</ele>
        <time>2013-07-07T11:33:43Z</time>
      </trkpt>
      <trkpt lat="44.1112" lon="3.50858">
        <ele>1135</ele>
        <time>2013-07-07T11:33:48Z</time>
      </trkpt>
      <trkpt lat="44.11114" lon="3.50868">
        <ele>1135</ele>
        <time>2013-07-07T11:33:53Z</time>
      </trkpt>
      <trkpt lat="44.11109" lon="3.50881">
        <ele>1135</ele>
        <time>2013-07-07T11:33:59Z</time>
      </trkpt>
      <trkpt lat="44.11102" lon="3.50893">
        <ele>1137.6161693215</ele>
        <time>2013-07-07T11:34:05Z</time>
      </trkpt>
      <trkpt lat="44.11098" lon="3.50903">
        <ele>1137.5841507617</ele>
        <time>2013-07-07T11:34:10Z</time>
      </trkpt>
      <trkpt lat="44.11092" lon="3.50916">
        <ele>1138</ele>
        <time>2013-07-07T11:34:16Z</time>
      </trkpt>
      <trkpt lat="44.11087" lon="3.50929">
        <ele>1138</ele>
        <time>2013-07-07T11:34:23Z</time>
      </trkpt>
      <trkpt lat="44.1108" lon="3.50942">
        <ele>1138</ele>
        <time>2013-07-07T11:34:31Z</time>
      </trkpt>
      <trkpt lat="44.11075" lon="3.50958">
        <ele>1138.366334626</ele>
        <time>2013-07-07T11:34:40Z</time>
      </trkpt>
      <trkpt lat="44.11069" lon="3.50972">
        <ele>1139</ele>
        <time>2013-07-07T11:34:49Z</time>
      </trkpt>
      <trkpt lat="44.11064" lon="3.50984">
        <ele>1139</ele>
        <time>2013-07-07T11:34:57Z</time>
      </trkpt>
      <trkpt lat="44.11057" lon="3.50998">
        <ele>1140</ele>
        <time>2013-07-07T11:35:06Z</time>
      </trkpt>
      <trkpt lat="44.1105" lon="3.51011">
        <ele>1140</ele>
        <time>2013-07-07T11:35:13Z</time>
      </trkpt>
      <trkpt lat="44.11043" lon="3.51025">
        <ele>1139</ele>
        <time>2013-07-07T11:35:22Z</time>
      </trkpt>
      <trkpt lat="44.11037" lon="3.51035">
        <ele>1141</ele>
        <time>2013-07-07T11:35:37Z</time>
      </trkpt>
      <trkpt lat="44.11031" lon="3.51048">
        <ele>1142</ele>
        <time>2013-07-07T11:35:46Z</time>
      </trkpt>
      <trkpt lat="44.11025" lon="3.51061">
        <ele>1141</ele>
        <time>2013-07-07T11:35:54Z</time>
      </trkpt>
      <trkpt lat="44.11019" lon="3.51076">
        <ele>1140</ele>
        <time>2013-07-07T11:36:02Z</time>
      </trkpt>
      <trkpt lat="44.11012" lon="3.51089">
        <ele>1140</ele>
        <time>2013-07-07T11:36:08Z</time>
      </trkpt>
      <trkpt lat="44.11007" lon="3.51102">
        <ele>1141</ele>
        <time>2013-07-07T11:36:14Z</time>
      </trkpt>
      <trkpt lat="44.11" lon="3.51116">
        <ele>1141</ele>
        <time>2013-07-07T11:36:20Z</time>
      </trkpt>
      <trkpt lat="44.10995" lon="3.51127">
        <ele>1141</ele>
        <time>2013-07-07T11:36:26Z</time>
      </trkpt>
      <trkpt lat="44.10988" lon="3.51139">
        <ele>1142</ele>
        <time>2013-07-07T11:36:32Z</time>
      </trkpt>
      <trkpt lat="44.10982" lon="3.51149">
        <ele>1142</ele>
        <time>2013-07-07T11:36:37Z</time>
      </trkpt>
      <trkpt lat="44.10978" lon="3.51162">
        <ele>1143</ele>
        <time>2013-07-07T11:36:43Z</time>
      </trkpt>
      <trkpt lat="44.10972" lon="3.51175">
        <ele>1143</ele>
        <time>2013-07-07T11:36:49Z</time>
      </trkpt>
      <trkpt lat="44.10966" lon="3.51189">
        <ele>1143</ele>
        <time>2013-07-07T11:36:56Z</time>
      </trkpt>
      <trkpt lat="44.1096" lon="3.51202">
        <ele>1143</ele>
        <time>2013-07-07T11:37:03Z</time>
      </trkpt>
      <trkpt lat="44.10954" lon="3.51216">
        <ele>1143</ele>
        <time>2013-07-07T11:37:12Z</time>
      </trkpt>
      <trkpt lat="44.10946" lon="3.5123">
        <ele>1143</ele>
        <time>2013-07-07T11:37:21Z</time>
      </trkpt>
      <trkpt lat="44.1094" lon="3.51244">
        <ele>1143.5841507617</ele>
        <time>2013-07-07T11:37:30Z</time>
      </trkpt>
      <trkpt lat="44.10933" lon="3.51257">
        <ele>1144</ele>
        <time>2013-07-07T11:37:38Z</time>
      </trkpt>
      <trkpt lat="44.10929" lon="3.51269">
        <ele>1144</ele>
        <time>2013-07-07T11:37:45Z</time>
      </trkpt>
      <trkpt lat="44.10923" lon="3.5128">
        <ele>1144</ele>
        <time>2013-07-07T11:37:51Z</time>
      </trkpt>
      <trkpt lat="44.10918" lon="3.51292">
        <ele>1144</ele>
        <time>2013-07-07T11:37:56Z</time>
      </trkpt>
      <trkpt lat="44.10911" lon="3.51303">
        <ele>1145</ele>
        <time>2013-07-07T11:38:01Z</time>
      </trkpt>
      <trkpt lat="44.10907" lon="3.51311">
        <ele>1145</ele>
        <time>2013-07-07T11:38:05Z</time>
      </trkpt>
      <trkpt lat="44.10902" lon="3.51321">
        <ele>1145</ele>
        <time>2013-07-07T11:38:10Z</time>
      </trkpt>
      <trkpt lat="44.10897" lon="3.51334">
        <ele>1145</ele>
        <time>2013-07-07T11:38:16Z</time>
      </trkpt>
      <trkpt lat="44.10892" lon="3.51345">
        <ele>1145</ele>
        <time>2013-07-07T11:38:21Z</time>
      </trkpt>
      <trkpt lat="44.10885" lon="3.51357">
        <ele>1145</ele>
        <time>2013-07-07T11:38:27Z</time>
      </trkpt>
      <trkpt lat="44.10879" lon="3.51369">
        <ele>1146</ele>
        <time>2013-07-07T11:38:33Z</time>
      </trkpt>
      <trkpt lat="44.10874" lon="3.51382">
        <ele>1146</ele>
        <time>2013-07-07T11:38:41Z</time>
      </trkpt>
      <trkpt lat="44.10869" lon="3.51394">
        <ele>1146</ele>
        <time>2013-07-07T11:38:48Z</time>
      </trkpt>
      <trkpt lat="44.10865" lon="3.51404">
        <ele>1146</ele>
        <time>2013-07-07T11:38:54Z</time>
      </trkpt>
      <trkpt lat="44.1086" lon="3.51417">
        <ele>1147</ele>
        <time>2013-07-07T11:39:02Z</time>
      </trkpt>
      <trkpt lat="44.10854" lon="3.51428">
        <ele>1147</ele>
        <time>2013-07-07T11:39:09Z</time>
      </trkpt>
      <trkpt lat="44.10849" lon="3.51439">
        <ele>1147</ele>
        <time>2013-07-07T11:39:16Z</time>
      </trkpt>
      <trkpt lat="44.10844" lon="3.51449">
        <ele>1147</ele>
        <time>2013-07-07T11:39:22Z</time>
      </trkpt>
      <trkpt lat="44.10839" lon="3.51461">
        <ele>1147</ele>
        <time>2013-07-07T11:39:29Z</time>
      </trkpt>
      <trkpt lat="44.10833" lon="3.51471">
        <ele>1148</ele>
        <time>2013-07-07T11:39:36Z</time>
      </trkpt>
      <trkpt lat="44.10826" lon="3.51486">
        <ele>1149</ele>
        <time>2013-07-07T11:39:45Z</time>
      </trkpt>
      <trkpt lat="44.1082" lon="3.51497">
        <ele>1149</ele>
        <time>2013-07-07T11:39:52Z</time>
      </trkpt>
      <trkpt lat="44.10812" lon="3.5151">
        <ele>1149</ele>
        <time>2013-07-07T11:40:01Z</time>
      </trkpt>
      <trkpt lat="44.10804" lon="3.51525">
        <ele>1150</ele>
        <time>2013-07-07T11:40:11Z</time>
      </trkpt>
      <trkpt lat="44.10798" lon="3.51542">
        <ele>1150.3900032</ele>
        <time>2013-07-07T11:40:20Z</time>
      </trkpt>
      <trkpt lat="44.10791" lon="3.51555">
        <ele>1151</ele>
        <time>2013-07-07T11:40:28Z</time>
      </trkpt>
      <trkpt lat="44.10786" lon="3.51566">
        <ele>1151</ele>
        <time>2013-07-07T11:40:35Z</time>
      </trkpt>
      <trkpt lat="44.10782" lon="3.51575">
        <ele>1151.366334626</ele>
        <time>2013-07-07T11:40:40Z</time>
      </trkpt>
      <trkpt lat="44.10777" lon="3.51586">
        <ele>1152</ele>
        <time>2013-07-07T11:40:47Z</time>
      </trkpt>
      <trkpt lat="44.10774" lon="3.51593">
        <ele>1152</ele>
        <time>2013-07-07T11:40:52Z</time>
      </trkpt>
      <trkpt lat="44.10767" lon="3.516">
        <ele>1152</ele>
        <time>2013-07-07T11:40:58Z</time>
      </trkpt>
      <trkpt lat="44.10758" lon="3.51607">
        <ele>1153</ele>
        <time>2013-07-07T11:41:04Z</time>
      </trkpt>
      <trkpt lat="44.10755" lon="3.51626">
        <ele>1153</ele>
        <time>2013-07-07T11:41:15Z</time>
      </trkpt>
      <trkpt lat="44.10752" lon="3.51639">
        <ele>1154</ele>
        <time>2013-07-07T11:41:22Z</time>
      </trkpt>
      <trkpt lat="44.10749" lon="3.5165">
        <ele>1154</ele>
        <time>2013-07-07T11:41:28Z</time>
      </trkpt>
      <trkpt lat="44.10747" lon="3.51661">
        <ele>1154</ele>
        <time>2013-07-07T11:41:34Z</time>
      </trkpt>
      <trkpt lat="44.10745" lon="3.5167">
        <ele>1154</ele>
        <time>2013-07-07T11:41:39Z</time>
      </trkpt>
      <trkpt lat="44.10743" lon="3.51681">
        <ele>1154</ele>
        <time>2013-07-07T11:41:45Z</time>
      </trkpt>
      <trkpt lat="44.10741" lon="3.51692">
        <ele>1154</ele>
        <time>2013-07-07T11:41:51Z</time>
      </trkpt>
      <trkpt lat="44.10738" lon="3.51703">
        <ele>1154</ele>
        <time>2013-07-07T11:41:56Z</time>
      </trkpt>
      <trkpt lat="44.10735" lon="3.51715">
        <ele>1155</ele>
        <time>2013-07-07T11:42:01Z</time>
      </trkpt>
      <trkpt lat="44.10731" lon="3.51724">
        <ele>1155</ele>
        <time>2013-07-07T11:42:05Z</time>
      </trkpt>
      <trkpt lat="44.10726" lon="3.51735">
        <ele>1155</ele>
        <time>2013-07-07T11:42:10Z</time>
      </trkpt>
      <trkpt lat="44.10722" lon="3.51749">
        <ele>1155</ele>
        <time>2013-07-07T11:42:16Z</time>
      </trkpt>
      <trkpt lat="44.10719" lon="3.51759">
        <ele>1156</ele>
        <time>2013-07-07T11:42:22Z</time>
      </trkpt>
      <trkpt lat="44.10716" lon="3.51771">
        <ele>1156</ele>
        <time>2013-07-07T11:42:28Z</time>
      </trkpt>
      <trkpt lat="44.10714" lon="3.51783">
        <ele>1156</ele>
        <time>2013-07-07T11:42:34Z</time>
      </trkpt>
      <trkpt lat="44.1071" lon="3.51795">
        <ele>1156</ele>
        <time>2013-07-07T11:42:41Z</time>
      </trkpt>
      <trkpt lat="44.10707" lon="3.51806">
        <ele>1156</ele>
        <time>2013-07-07T11:42:47Z</time>
      </trkpt>
      <trkpt lat="44.10703" lon="3.51819">
        <ele>1156</ele>
        <time>2013-07-07T11:42:55Z</time>
      </trkpt>
      <trkpt lat="44.107" lon="3.51829">
        <ele>1157</ele>
        <time>2013-07-07T11:43:01Z</time>
      </trkpt>
      <trkpt lat="44.10696" lon="3.51837">
        <ele>1157</ele>
        <time>2013-07-07T11:43:06Z</time>
      </trkpt>
      <trkpt lat="44.10692" lon="3.51846">
        <ele>1157</ele>
        <time>2013-07-07T11:43:12Z</time>
      </trkpt>
      <trkpt lat="44.10687" lon="3.51855">
        <ele>1157</ele>
        <time>2013-07-07T11:43:18Z</time>
      </trkpt>
      <trkpt lat="44.10683" lon="3.51866">
        <ele>1158</ele>
        <time>2013-07-07T11:43:26Z</time>
      </trkpt>
      <trkpt lat="44.10676" lon="3.51869">
        <ele>1160</ele>
        <time>2013-07-07T11:43:34Z</time>
      </trkpt>
      <trkpt lat="44.10669" lon="3.51871">
        <ele>1162</ele>
        <time>2013-07-07T11:43:44Z</time>
      </trkpt>
      <trkpt lat="44.10663" lon="3.51875">
        <ele>1164</ele>
        <time>2013-07-07T11:43:51Z</time>
      </trkpt>
      <trkpt lat="44.10654" lon="3.51876">
        <ele>1164.4899968</ele>
        <time>2013-07-07T11:44:00Z</time>
      </trkpt>
      <trkpt lat="44.10645" lon="3.51877">
        <ele>1165</ele>
        <time>2013-07-07T11:44:08Z</time>
      </trkpt>
      <trkpt lat="44.10637" lon="3.51879">
        <ele>1166</ele>
        <time>2013-07-07T11:44:15Z</time>
      </trkpt>
      <trkpt lat="44.10626" lon="3.51885">
        <ele>1168</ele>
        <time>2013-07-07T11:44:27Z</time>
      </trkpt>
      <trkpt lat="44.10616" lon="3.519">
        <ele>1170</ele>
        <time>2013-07-07T11:44:42Z</time>
      </trkpt>
      <trkpt lat="44.1061" lon="3.51912">
        <ele>1172</ele>
        <time>2013-07-07T11:44:55Z</time>
      </trkpt>
      <trkpt lat="44.10605" lon="3.51926">
        <ele>1173</ele>
        <time>2013-07-07T11:45:06Z</time>
      </trkpt>
      <trkpt lat="44.10603" lon="3.51938">
        <ele>1174</ele>
        <time>2013-07-07T11:45:15Z</time>
      </trkpt>
      <trkpt lat="44.10602" lon="3.5195">
        <ele>1174</ele>
        <time>2013-07-07T11:45:23Z</time>
      </trkpt>
      <trkpt lat="44.10599" lon="3.51962">
        <ele>1176</ele>
        <time>2013-07-07T11:45:33Z</time>
      </trkpt>
      <trkpt lat="44.10594" lon="3.51983">
        <ele>1177.6597872846</ele>
        <time>2013-07-07T11:45:50Z</time>
      </trkpt>
      <trkpt lat="44.10587" lon="3.52002">
        <ele>1180</ele>
        <time>2013-07-07T11:46:06Z</time>
      </trkpt>
      <trkpt lat="44.10581" lon="3.52026">
        <ele>1182</ele>
        <time>2013-07-07T11:46:23Z</time>
      </trkpt>
      <trkpt lat="44.10577" lon="3.52051">
        <ele>1184</ele>
        <time>2013-07-07T11:46:41Z</time>
      </trkpt>
      <trkpt lat="44.10568" lon="3.52071">
        <ele>1186</ele>
        <time>2013-07-07T11:47:01Z</time>
      </trkpt>
      <trkpt lat="44.10565" lon="3.52096">
        <ele>1187</ele>
        <time>2013-07-07T11:47:17Z</time>
      </trkpt>
      <trkpt lat="44.10558" lon="3.52119">
        <ele>1190</ele>
        <time>2013-07-07T11:47:33Z</time>
      </trkpt>
      <trkpt lat="44.10551" lon="3.5213">
        <ele>1190</ele>
        <time>2013-07-07T11:47:45Z</time>
      </trkpt>
      <trkpt lat="44.10533" lon="3.52125">
        <ele>1196</ele>
        <time>2013-07-07T11:48:13Z</time>
      </trkpt>
      <trkpt lat="44.10518" lon="3.52123">
        <ele>1199.9702937673</ele>
        <time>2013-07-07T11:48:40Z</time>
      </trkpt>
      <trkpt lat="44.10503" lon="3.52127">
        <ele>1206</ele>
        <time>2013-07-07T11:49:11Z</time>
      </trkpt>
      <trkpt lat="44.10492" lon="3.52125">
        <ele>1208</ele>
        <time>2013-07-07T11:49:24Z</time>
      </trkpt>
      <trkpt lat="44.10496" lon="3.52139">
        <ele>1209</ele>
        <time>2013-07-07T11:49:48Z</time>
      </trkpt>
      <trkpt lat="44.10498" lon="3.52156">
        <ele>1209</ele>
        <time>2013-07-07T11:50:00Z</time>
      </trkpt>
      <trkpt lat="44.10504" lon="3.5217">
        <ele>1209</ele>
        <time>2013-07-07T11:50:09Z</time>
      </trkpt>
      <trkpt lat="44.1051" lon="3.5219">
        <ele>1209</ele>
        <time>2013-07-07T11:50:19Z</time>
      </trkpt>
      <trkpt lat="44.10508" lon="3.52216">
        <ele>1207.5100032</ele>
        <time>2013-07-07T11:50:30Z</time>
      </trkpt>
      <trkpt lat="44.10499" lon="3.52241">
        <ele>1207</ele>
        <time>2013-07-07T11:50:39Z</time>
      </trkpt>
      <trkpt lat="44.10493" lon="3.52266">
        <ele>1208</ele>
        <time>2013-07-07T11:50:49Z</time>
      </trkpt>
      <trkpt lat="44.10491" lon="3.52292">
        <ele>1209</ele>
        <time>2013-07-07T11:50:59Z</time>
      </trkpt>
      <trkpt lat="44.10485" lon="3.52317">
        <ele>1208.7920817175</ele>
        <time>2013-07-07T11:51:10Z</time>
      </trkpt>
      <trkpt lat="44.10477" lon="3.5234">
        <ele>1210</ele>
        <time>2013-07-07T11:51:21Z</time>
      </trkpt>
      <trkpt lat="44.1047" lon="3.52364">
        <ele>1210</ele>
        <time>2013-07-07T11:51:30Z</time>
      </trkpt>
      <trkpt lat="44.10467" lon="3.5239">
        <ele>1210</ele>
        <time>2013-07-07T11:51:41Z</time>
      </trkpt>
      <trkpt lat="44.10463" lon="3.52415">
        <ele>1210</ele>
        <time>2013-07-07T11:51:50Z</time>
      </trkpt>
      <trkpt lat="44.1046" lon="3.5244">
        <ele>1210</ele>
        <time>2013-07-07T11:51:58Z</time>
      </trkpt>
      <trkpt lat="44.10453" lon="3.52465">
        <ele>1210</ele>
        <time>2013-07-07T11:52:07Z</time>
      </trkpt>
      <trkpt lat="44.10449" lon="3.52492">
        <ele>1210</ele>
        <time>2013-07-07T11:52:18Z</time>
      </trkpt>
      <trkpt lat="44.10444" lon="3.52518">
        <ele>1209</ele>
        <time>2013-07-07T11:52:28Z</time>
      </trkpt>
      <trkpt lat="44.10435" lon="3.52536">
        <ele>1210</ele>
        <time>2013-07-07T11:52:36Z</time>
      </trkpt>
      <trkpt lat="44.1042" lon="3.52549">
        <ele>1210</ele>
        <time>2013-07-07T11:52:47Z</time>
      </trkpt>
      <trkpt lat="44.10405" lon="3.52552">
        <ele>1208</ele>
        <time>2013-07-07T11:52:53Z</time>
      </trkpt>
      <trkpt lat="44.10388" lon="3.52557">
        <ele>1205</ele>
        <time>2013-07-07T11:53:01Z</time>
      </trkpt>
      <trkpt lat="44.104" lon="3.52572">
        <ele>1206</ele>
        <time>2013-07-07T11:53:17Z</time>
      </trkpt>
      <trkpt lat="44.10413" lon="3.52583">
        <ele>1206</ele>
        <time>2013-07-07T11:53:25Z</time>
      </trkpt>
      <trkpt lat="44.10428" lon="3.52597">
        <ele>1206</ele>
        <time>2013-07-07T11:53:33Z</time>
      </trkpt>
      <trkpt lat="44.10443" lon="3.52613">
        <ele>1206</ele>
        <time>2013-07-07T11:53:40Z</time>
      </trkpt>
      <trkpt lat="44.10455" lon="3.52634">
        <ele>1206</ele>
        <time>2013-07-07T11:53:49Z</time>
      </trkpt>
      <trkpt lat="44.10458" lon="3.52656">
        <ele>1205</ele>
        <time>2013-07-07T11:54:02Z</time>
      </trkpt>
      <trkpt lat="44.1046" lon="3.52681">
        <ele>1205</ele>
        <time>2013-07-07T11:54:15Z</time>
      </trkpt>
      <trkpt lat="44.10459" lon="3.52704">
        <ele>1206</ele>
        <time>2013-07-07T11:54:26Z</time>
      </trkpt>
      <trkpt lat="44.10459" lon="3.52729">
        <ele>1206</ele>
        <time>2013-07-07T11:54:40Z</time>
      </trkpt>
      <trkpt lat="44.10462" lon="3.52751">
        <ele>1206</ele>
        <time>2013-07-07T11:54:51Z</time>
      </trkpt>
      <trkpt lat="44.10466" lon="3.52775">
        <ele>1207</ele>
        <time>2013-07-07T11:55:04Z</time>
      </trkpt>
      <trkpt lat="44.10471" lon="3.52799">
        <ele>1207</ele>
        <time>2013-07-07T11:55:27Z</time>
      </trkpt>
      <trkpt lat="44.10471" lon="3.52826">
        <ele>1209</ele>
        <time>2013-07-07T11:55:41Z</time>
      </trkpt>
      <trkpt lat="44.10466" lon="3.5285">
        <ele>1210</ele>
        <time>2013-07-07T11:55:53Z</time>
      </trkpt>
      <trkpt lat="44.10458" lon="3.52875">
        <ele>1209</ele>
        <time>2013-07-07T11:56:04Z</time>
      </trkpt>
      <trkpt lat="44.10454" lon="3.52901">
        <ele>1210</ele>
        <time>2013-07-07T11:56:13Z</time>
      </trkpt>
      <trkpt lat="44.10447" lon="3.52925">
        <ele>1210</ele>
        <time>2013-07-07T11:56:22Z</time>
      </trkpt>
      <trkpt lat="44.1044" lon="3.52948">
        <ele>1210</ele>
        <time>2013-07-07T11:56:31Z</time>
      </trkpt>
      <trkpt lat="44.10432" lon="3.52971">
        <ele>1210.3979598501</ele>
        <time>2013-07-07T11:56:50Z</time>
      </trkpt>
      <trkpt lat="44.10423" lon="3.52994">
        <ele>1214</ele>
        <time>2013-07-07T11:57:12Z</time>
      </trkpt>
      <trkpt lat="44.10408" lon="3.5301">
        <ele>1219</ele>
        <time>2013-07-07T11:57:45Z</time>
      </trkpt>
      <trkpt lat="44.10391" lon="3.53017">
        <ele>1223.4851468836</ele>
        <time>2013-07-07T11:58:10Z</time>
      </trkpt>
      <trkpt lat="44.10381" lon="3.53022">
        <ele>1227</ele>
        <time>2013-07-07T11:58:35Z</time>
      </trkpt>
      <trkpt lat="44.10366" lon="3.53033">
        <ele>1232</ele>
        <time>2013-07-07T11:59:08Z</time>
      </trkpt>
      <trkpt lat="44.10353" lon="3.53045">
        <ele>1237</ele>
        <time>2013-07-07T11:59:37Z</time>
      </trkpt>
      <trkpt lat="44.10341" lon="3.53044">
        <ele>1241</ele>
        <time>2013-07-07T12:00:03Z</time>
      </trkpt>
      <trkpt lat="44.10329" lon="3.53053">
        <ele>1246</ele>
        <time>2013-07-07T12:00:31Z</time>
      </trkpt>
      <trkpt lat="44.10337" lon="3.5307">
        <ele>1246</ele>
        <time>2013-07-07T12:00:46Z</time>
      </trkpt>
      <trkpt lat="44.10345" lon="3.53089">
        <ele>1245</ele>
        <time>2013-07-07T12:00:59Z</time>
      </trkpt>
      <trkpt lat="44.10345" lon="3.53108">
        <ele>1243</ele>
        <time>2013-07-07T12:01:09Z</time>
      </trkpt>
      <trkpt lat="44.10356" lon="3.53119">
        <ele>1243</ele>
        <time>2013-07-07T12:01:19Z</time>
      </trkpt>
      <trkpt lat="44.10372" lon="3.53129">
        <ele>1241</ele>
        <time>2013-07-07T12:01:28Z</time>
      </trkpt>
      <trkpt lat="44.1038" lon="3.53152">
        <ele>1239</ele>
        <time>2013-07-07T12:01:37Z</time>
      </trkpt>
      <trkpt lat="44.10388" lon="3.5318">
        <ele>1238</ele>
        <time>2013-07-07T12:01:46Z</time>
      </trkpt>
      <trkpt lat="44.10392" lon="3.53208">
        <ele>1237</ele>
        <time>2013-07-07T12:01:54Z</time>
      </trkpt>
      <trkpt lat="44.10399" lon="3.53229">
        <ele>1235</ele>
        <time>2013-07-07T12:02:01Z</time>
      </trkpt>
      <trkpt lat="44.104" lon="3.5325">
        <ele>1235</ele>
        <time>2013-07-07T12:02:07Z</time>
      </trkpt>
      <trkpt lat="44.10397" lon="3.53275">
        <ele>1235</ele>
        <time>2013-07-07T12:02:14Z</time>
      </trkpt>
      <trkpt lat="44.10395" lon="3.53293">
        <ele>1235</ele>
        <time>2013-07-07T12:02:19Z</time>
      </trkpt>
      <trkpt lat="44.10395" lon="3.5332">
        <ele>1231</ele>
        <time>2013-07-07T12:02:27Z</time>
      </trkpt>
      <trkpt lat="44.10394" lon="3.53346">
        <ele>1230</ele>
        <time>2013-07-07T12:02:35Z</time>
      </trkpt>
      <trkpt lat="44.10387" lon="3.53371">
        <ele>1229</ele>
        <time>2013-07-07T12:02:43Z</time>
      </trkpt>
      <trkpt lat="44.10386" lon="3.53397">
        <ele>1229</ele>
        <time>2013-07-07T12:02:51Z</time>
      </trkpt>
      <trkpt lat="44.10389" lon="3.53424">
        <ele>1227</ele>
        <time>2013-07-07T12:03:01Z</time>
      </trkpt>
      <trkpt lat="44.10396" lon="3.5345">
        <ele>1227</ele>
        <time>2013-07-07T12:03:09Z</time>
      </trkpt>
      <trkpt lat="44.10398" lon="3.53475">
        <ele>1225</ele>
        <time>2013-07-07T12:03:17Z</time>
      </trkpt>
      <trkpt lat="44.10398" lon="3.53502">
        <ele>1224</ele>
        <time>2013-07-07T12:03:25Z</time>
      </trkpt>
      <trkpt lat="44.1039" lon="3.53528">
        <ele>1223</ele>
        <time>2013-07-07T12:03:34Z</time>
      </trkpt>
      <trkpt lat="44.10383" lon="3.53551">
        <ele>1222</ele>
        <time>2013-07-07T12:03:42Z</time>
      </trkpt>
      <trkpt lat="44.10383" lon="3.53577">
        <ele>1221</ele>
        <time>2013-07-07T12:03:52Z</time>
      </trkpt>
      <trkpt lat="44.10383" lon="3.53602">
        <ele>1219</ele>
        <time>2013-07-07T12:04:01Z</time>
      </trkpt>
      <trkpt lat="44.10387" lon="3.53628">
        <ele>1219</ele>
        <time>2013-07-07T12:04:10Z</time>
      </trkpt>
      <trkpt lat="44.10387" lon="3.53651">
        <ele>1219</ele>
        <time>2013-07-07T12:04:18Z</time>
      </trkpt>
      <trkpt lat="44.10392" lon="3.53661">
        <ele>1218</ele>
        <time>2013-07-07T12:04:22Z</time>
      </trkpt>
      <trkpt lat="44.10396" lon="3.53679">
        <ele>1217.5148531164</ele>
        <time>2013-07-07T12:04:30Z</time>
      </trkpt>
      <trkpt lat="44.10407" lon="3.53697">
        <ele>1218</ele>
        <time>2013-07-07T12:04:38Z</time>
      </trkpt>
      <trkpt lat="44.10409" lon="3.53721">
        <ele>1216</ele>
        <time>2013-07-07T12:04:49Z</time>
      </trkpt>
      <trkpt lat="44.10411" lon="3.53734">
        <ele>1216</ele>
        <time>2013-07-07T12:04:56Z</time>
      </trkpt>
      <trkpt lat="44.10418" lon="3.53744">
        <ele>1216</ele>
        <time>2013-07-07T12:05:01Z</time>
      </trkpt>
      <trkpt lat="44.10422" lon="3.53765">
        <ele>1218</ele>
        <time>2013-07-07T12:05:29Z</time>
      </trkpt>
      <trkpt lat="44.10433" lon="3.53771">
        <ele>1219</ele>
        <time>2013-07-07T12:05:51Z</time>
      </trkpt>
      <trkpt lat="44.1044" lon="3.53769">
        <ele>1220</ele>
        <time>2013-07-07T12:06:01Z</time>
      </trkpt>
      <trkpt lat="44.10447" lon="3.5377">
        <ele>1222</ele>
        <time>2013-07-07T12:06:14Z</time>
      </trkpt>
      <trkpt lat="44.1045" lon="3.5378">
        <ele>1225</ele>
        <time>2013-07-07T12:06:34Z</time>
      </trkpt>
      <trkpt lat="44.1045" lon="3.53796">
        <ele>1227</ele>
        <time>2013-07-07T12:06:59Z</time>
      </trkpt>
      <trkpt lat="44.10445" lon="3.53812">
        <ele>1230.4851468836</ele>
        <time>2013-07-07T12:07:10Z</time>
      </trkpt>
      <trkpt lat="44.10442" lon="3.53828">
        <ele>1234</ele>
        <time>2013-07-07T12:07:36Z</time>
      </trkpt>
      <trkpt lat="44.10435" lon="3.53841">
        <ele>1238</ele>
        <time>2013-07-07T12:07:58Z</time>
      </trkpt>
      <trkpt lat="44.10443" lon="3.53851">
        <ele>1244</ele>
        <time>2013-07-07T12:08:42Z</time>
      </trkpt>
      <trkpt lat="44.10452" lon="3.53856">
        <ele>1245</ele>
        <time>2013-07-07T12:08:58Z</time>
      </trkpt>
      <trkpt lat="44.10461" lon="3.53858">
        <ele>1246</ele>
        <time>2013-07-07T12:09:09Z</time>
      </trkpt>
      <trkpt lat="44.10469" lon="3.53866">
        <ele>1249</ele>
        <time>2013-07-07T12:09:22Z</time>
      </trkpt>
      <trkpt lat="44.10474" lon="3.53884">
        <ele>1253</ele>
        <time>2013-07-07T12:09:52Z</time>
      </trkpt>
      <trkpt lat="44.1047" lon="3.53904">
        <ele>1259</ele>
        <time>2013-07-07T12:10:49Z</time>
      </trkpt>
      <trkpt lat="44.10469" lon="3.5392">
        <ele>1265</ele>
        <time>2013-07-07T12:11:14Z</time>
      </trkpt>
      <trkpt lat="44.10467" lon="3.53938">
        <ele>1268</ele>
        <time>2013-07-07T12:11:34Z</time>
      </trkpt>
      <trkpt lat="44.10462" lon="3.53949">
        <ele>1269</ele>
        <time>2013-07-07T12:11:56Z</time>
      </trkpt>
      <trkpt lat="44.10462" lon="3.53964">
        <ele>1272</ele>
        <time>2013-07-07T12:12:19Z</time>
      </trkpt>
      <trkpt lat="44.10455" lon="3.53978">
        <ele>1276</ele>
        <time>2013-07-07T12:12:43Z</time>
      </trkpt>
      <trkpt lat="44.10449" lon="3.53991">
        <ele>1280</ele>
        <time>2013-07-07T12:13:06Z</time>
      </trkpt>
      <trkpt lat="44.10447" lon="3.54006">
        <ele>1282</ele>
        <time>2013-07-07T12:13:24Z</time>
      </trkpt>
      <trkpt lat="44.10437" lon="3.54018">
        <ele>1283</ele>
        <time>2013-07-07T12:13:39Z</time>
      </trkpt>
      <trkpt lat="44.10426" lon="3.54033">
        <ele>1285</ele>
        <time>2013-07-07T12:13:55Z</time>
      </trkpt>
      <trkpt lat="44.10414" lon="3.54044">
        <ele>1285</ele>
        <time>2013-07-07T12:14:08Z</time>
      </trkpt>
      <trkpt lat="44.10404" lon="3.54051">
        <ele>1289</ele>
        <time>2013-07-07T12:14:21Z</time>
      </trkpt>
      <trkpt lat="44.10395" lon="3.54062">
        <ele>1291</ele>
        <time>2013-07-07T12:14:37Z</time>
      </trkpt>
      <trkpt lat="44.10385" lon="3.54067">
        <ele>1291</ele>
        <time>2013-07-07T12:14:43Z</time>
      </trkpt>
      <trkpt lat="44.10376" lon="3.54079">
        <ele>1295</ele>
        <time>2013-07-07T12:15:02Z</time>
      </trkpt>
      <trkpt lat="44.10364" lon="3.54085">
        <ele>1297</ele>
        <time>2013-07-07T12:15:13Z</time>
      </trkpt>
      <trkpt lat="44.10353" lon="3.54091">
        <ele>1299</ele>
        <time>2013-07-07T12:15:25Z</time>
      </trkpt>
      <trkpt lat="44.10345" lon="3.54098">
        <ele>1300</ele>
        <time>2013-07-07T12:15:32Z</time>
      </trkpt>
      <trkpt lat="44.10338" lon="3.54105">
        <ele>1300</ele>
        <time>2013-07-07T12:15:39Z</time>
      </trkpt>
      <trkpt lat="44.10332" lon="3.5411">
        <ele>1301</ele>
        <time>2013-07-07T12:15:45Z</time>
      </trkpt>
      <trkpt lat="44.10321" lon="3.54106">
        <ele>1301</ele>
        <time>2013-07-07T12:15:56Z</time>
      </trkpt>
      <trkpt lat="44.10312" lon="3.54102">
        <ele>1302</ele>
        <time>2013-07-07T12:16:02Z</time>
      </trkpt>
      <trkpt lat="44.10305" lon="3.54092">
        <ele>1302</ele>
        <time>2013-07-07T12:16:07Z</time>
      </trkpt>
      <trkpt lat="44.103" lon="3.54079">
        <ele>1302</ele>
        <time>2013-07-07T12:16:12Z</time>
      </trkpt>
      <trkpt lat="44.10298" lon="3.54065">
        <ele>1302</ele>
        <time>2013-07-07T12:16:17Z</time>
      </trkpt>
      <trkpt lat="44.10294" lon="3.54051">
        <ele>1301</ele>
        <time>2013-07-07T12:16:23Z</time>
      </trkpt>
      <trkpt lat="44.1029" lon="3.54034">
        <ele>1302</ele>
        <time>2013-07-07T12:16:33Z</time>
      </trkpt>
      <trkpt lat="44.10283" lon="3.54018">
        <ele>1303</ele>
        <time>2013-07-07T12:16:44Z</time>
      </trkpt>
      <trkpt lat="44.10275" lon="3.54003">
        <ele>1304</ele>
        <time>2013-07-07T12:16:54Z</time>
      </trkpt>
      <trkpt lat="44.10269" lon="3.53991">
        <ele>1305</ele>
        <time>2013-07-07T12:17:03Z</time>
      </trkpt>
      <trkpt lat="44.10262" lon="3.53976">
        <ele>1306</ele>
        <time>2013-07-07T12:17:14Z</time>
      </trkpt>
      <trkpt lat="44.10254" lon="3.53959">
        <ele>1308</ele>
        <time>2013-07-07T12:17:27Z</time>
      </trkpt>
      <trkpt lat="44.10245" lon="3.53946">
        <ele>1309</ele>
        <time>2013-07-07T12:17:38Z</time>
      </trkpt>
      <trkpt lat="44.10236" lon="3.53934">
        <ele>1311</ele>
        <time>2013-07-07T12:17:48Z</time>
      </trkpt>
      <trkpt lat="44.10227" lon="3.53919">
        <ele>1313</ele>
        <time>2013-07-07T12:18:01Z</time>
      </trkpt>
      <trkpt lat="44.10219" lon="3.53902">
        <ele>1314</ele>
        <time>2013-07-07T12:18:13Z</time>
      </trkpt>
      <trkpt lat="44.10208" lon="3.53884">
        <ele>1315</ele>
        <time>2013-07-07T12:18:26Z</time>
      </trkpt>
      <trkpt lat="44.10196" lon="3.53871">
        <ele>1317</ele>
        <time>2013-07-07T12:18:36Z</time>
      </trkpt>
      <trkpt lat="44.10186" lon="3.53861">
        <ele>1317</ele>
        <time>2013-07-07T12:18:45Z</time>
      </trkpt>
      <trkpt lat="44.10176" lon="3.5385">
        <ele>1319</ele>
        <time>2013-07-07T12:18:54Z</time>
      </trkpt>
      <trkpt lat="44.10163" lon="3.5384">
        <ele>1320</ele>
        <time>2013-07-07T12:19:04Z</time>
      </trkpt>
      <trkpt lat="44.1015" lon="3.53834">
        <ele>1321</ele>
        <time>2013-07-07T12:19:13Z</time>
      </trkpt>
      <trkpt lat="44.10136" lon="3.53829">
        <ele>1321</ele>
        <time>2013-07-07T12:19:23Z</time>
      </trkpt>
      <trkpt lat="44.10121" lon="3.53834">
        <ele>1321</ele>
        <time>2013-07-07T12:19:31Z</time>
      </trkpt>
      <trkpt lat="44.10111" lon="3.53847">
        <ele>1321</ele>
        <time>2013-07-07T12:19:39Z</time>
      </trkpt>
      <trkpt lat="44.10103" lon="3.53863">
        <ele>1321</ele>
        <time>2013-07-07T12:19:47Z</time>
      </trkpt>
      <trkpt lat="44.10096" lon="3.5388">
        <ele>1320</ele>
        <time>2013-07-07T12:19:55Z</time>
      </trkpt>
      <trkpt lat="44.10089" lon="3.53898">
        <ele>1321</ele>
        <time>2013-07-07T12:20:03Z</time>
      </trkpt>
      <trkpt lat="44.10083" lon="3.53918">
        <ele>1321</ele>
        <time>2013-07-07T12:20:13Z</time>
      </trkpt>
      <trkpt lat="44.10076" lon="3.53936">
        <ele>1322</ele>
        <time>2013-07-07T12:20:22Z</time>
      </trkpt>
      <trkpt lat="44.10072" lon="3.53962">
        <ele>1322</ele>
        <time>2013-07-07T12:20:34Z</time>
      </trkpt>
      <trkpt lat="44.10066" lon="3.53984">
        <ele>1323</ele>
        <time>2013-07-07T12:20:44Z</time>
      </trkpt>
      <trkpt lat="44.1006" lon="3.54004">
        <ele>1323</ele>
        <time>2013-07-07T12:20:55Z</time>
      </trkpt>
      <trkpt lat="44.10054" lon="3.54024">
        <ele>1324</ele>
        <time>2013-07-07T12:21:08Z</time>
      </trkpt>
      <trkpt lat="44.10042" lon="3.54039">
        <ele>1324</ele>
        <time>2013-07-07T12:21:16Z</time>
      </trkpt>
      <trkpt lat="44.10036" lon="3.54058">
        <ele>1324</ele>
        <time>2013-07-07T12:21:25Z</time>
      </trkpt>
      <trkpt lat="44.10026" lon="3.54068">
        <ele>1325</ele>
        <time>2013-07-07T12:21:37Z</time>
      </trkpt>
      <trkpt lat="44.10013" lon="3.54067">
        <ele>1325</ele>
        <time>2013-07-07T12:21:46Z</time>
      </trkpt>
      <trkpt lat="44.09999" lon="3.5407">
        <ele>1327</ele>
        <time>2013-07-07T12:21:54Z</time>
      </trkpt>
      <trkpt lat="44.09986" lon="3.54069">
        <ele>1326</ele>
        <time>2013-07-07T12:22:02Z</time>
      </trkpt>
      <trkpt lat="44.09973" lon="3.54066">
        <ele>1326</ele>
        <time>2013-07-07T12:22:10Z</time>
      </trkpt>
      <trkpt lat="44.09961" lon="3.54062">
        <ele>1326</ele>
        <time>2013-07-07T12:22:19Z</time>
      </trkpt>
      <trkpt lat="44.09949" lon="3.54059">
        <ele>1327</ele>
        <time>2013-07-07T12:22:27Z</time>
      </trkpt>
      <trkpt lat="44.09937" lon="3.54053">
        <ele>1328</ele>
        <time>2013-07-07T12:22:37Z</time>
      </trkpt>
      <trkpt lat="44.09924" lon="3.54047">
        <ele>1328</ele>
        <time>2013-07-07T12:22:44Z</time>
      </trkpt>
      <trkpt lat="44.0991" lon="3.5404">
        <ele>1328</ele>
        <time>2013-07-07T12:22:53Z</time>
      </trkpt>
      <trkpt lat="44.09898" lon="3.54032">
        <ele>1328</ele>
        <time>2013-07-07T12:22:59Z</time>
      </trkpt>
      <trkpt lat="44.09884" lon="3.54023">
        <ele>1328</ele>
        <time>2013-07-07T12:23:09Z</time>
      </trkpt>
      <trkpt lat="44.0987" lon="3.54016">
        <ele>1329</ele>
        <time>2013-07-07T12:23:17Z</time>
      </trkpt>
      <trkpt lat="44.09857" lon="3.5401">
        <ele>1330</ele>
        <time>2013-07-07T12:23:25Z</time>
      </trkpt>
      <trkpt lat="44.09843" lon="3.54006">
        <ele>1330</ele>
        <time>2013-07-07T12:23:35Z</time>
      </trkpt>
      <trkpt lat="44.0983" lon="3.53998">
        <ele>1331</ele>
        <time>2013-07-07T12:23:42Z</time>
      </trkpt>
      <trkpt lat="44.09817" lon="3.53991">
        <ele>1332</ele>
        <time>2013-07-07T12:23:52Z</time>
      </trkpt>
      <trkpt lat="44.09806" lon="3.5399">
        <ele>1332</ele>
        <time>2013-07-07T12:24:00Z</time>
      </trkpt>
      <trkpt lat="44.0979" lon="3.53991">
        <ele>1333</ele>
        <time>2013-07-07T12:24:14Z</time>
      </trkpt>
      <trkpt lat="44.09778" lon="3.53999">
        <ele>1333</ele>
        <time>2013-07-07T12:24:29Z</time>
      </trkpt>
      <trkpt lat="44.09767" lon="3.54008">
        <ele>1333</ele>
        <time>2013-07-07T12:24:36Z</time>
      </trkpt>
      <trkpt lat="44.09759" lon="3.54011">
        <ele>1333</ele>
        <time>2013-07-07T12:24:39Z</time>
      </trkpt>
      <trkpt lat="44.09748" lon="3.5401">
        <ele>1333</ele>
        <time>2013-07-07T12:24:44Z</time>
      </trkpt>
      <trkpt lat="44.09736" lon="3.54007">
        <ele>1333</ele>
        <time>2013-07-07T12:24:49Z</time>
      </trkpt>
      <trkpt lat="44.09726" lon="3.54005">
        <ele>1334</ele>
        <time>2013-07-07T12:24:54Z</time>
      </trkpt>
      <trkpt lat="44.09716" lon="3.54001">
        <ele>1334</ele>
        <time>2013-07-07T12:24:59Z</time>
      </trkpt>
      <trkpt lat="44.09708" lon="3.53998">
        <ele>1333</ele>
        <time>2013-07-07T12:25:03Z</time>
      </trkpt>
      <trkpt lat="44.09699" lon="3.53993">
        <ele>1333</ele>
        <time>2013-07-07T12:25:08Z</time>
      </trkpt>
      <trkpt lat="44.0969" lon="3.53989">
        <ele>1333</ele>
        <time>2013-07-07T12:25:13Z</time>
      </trkpt>
      <trkpt lat="44.09681" lon="3.53985">
        <ele>1333</ele>
        <time>2013-07-07T12:25:18Z</time>
      </trkpt>
      <trkpt lat="44.09671" lon="3.53979">
        <ele>1334</ele>
        <time>2013-07-07T12:25:24Z</time>
      </trkpt>
      <trkpt lat="44.09663" lon="3.53973">
        <ele>1334</ele>
        <time>2013-07-07T12:25:30Z</time>
      </trkpt>
      <trkpt lat="44.09656" lon="3.53963">
        <ele>1334</ele>
        <time>2013-07-07T12:25:37Z</time>
      </trkpt>
      <trkpt lat="44.09651" lon="3.53953">
        <ele>1335</ele>
        <time>2013-07-07T12:25:44Z</time>
      </trkpt>
      <trkpt lat="44.09645" lon="3.53942">
        <ele>1335</ele>
        <time>2013-07-07T12:25:52Z</time>
      </trkpt>
      <trkpt lat="44.09639" lon="3.53928">
        <ele>1335</ele>
        <time>2013-07-07T12:26:03Z</time>
      </trkpt>
      <trkpt lat="44.09634" lon="3.53914">
        <ele>1336.4851468836</ele>
        <time>2013-07-07T12:26:10Z</time>
      </trkpt>
      <trkpt lat="44.09628" lon="3.53902">
        <ele>1337</ele>
        <time>2013-07-07T12:26:16Z</time>
      </trkpt>
      <trkpt lat="44.09622" lon="3.53892">
        <ele>1337</ele>
        <time>2013-07-07T12:26:21Z</time>
      </trkpt>
      <trkpt lat="44.09615" lon="3.53878">
        <ele>1337</ele>
        <time>2013-07-07T12:26:29Z</time>
      </trkpt>
      <trkpt lat="44.09608" lon="3.53863">
        <ele>1337</ele>
        <time>2013-07-07T12:26:36Z</time>
      </trkpt>
      <trkpt lat="44.09601" lon="3.53849">
        <ele>1336</ele>
        <time>2013-07-07T12:26:42Z</time>
      </trkpt>
      <trkpt lat="44.09594" lon="3.53832">
        <ele>1336</ele>
        <time>2013-07-07T12:26:48Z</time>
      </trkpt>
      <trkpt lat="44.09585" lon="3.5382">
        <ele>1336</ele>
        <time>2013-07-07T12:26:54Z</time>
      </trkpt>
      <trkpt lat="44.09576" lon="3.53816">
        <ele>1336</ele>
        <time>2013-07-07T12:26:59Z</time>
      </trkpt>
      <trkpt lat="44.09568" lon="3.53811">
        <ele>1336</ele>
        <time>2013-07-07T12:27:03Z</time>
      </trkpt>
      <trkpt lat="44.09557" lon="3.53806">
        <ele>1336</ele>
        <time>2013-07-07T12:27:08Z</time>
      </trkpt>
      <trkpt lat="44.09547" lon="3.53805">
        <ele>1336</ele>
        <time>2013-07-07T12:27:13Z</time>
      </trkpt>
      <trkpt lat="44.09537" lon="3.53806">
        <ele>1336</ele>
        <time>2013-07-07T12:27:18Z</time>
      </trkpt>
      <trkpt lat="44.09524" lon="3.53815">
        <ele>1335</ele>
        <time>2013-07-07T12:27:27Z</time>
      </trkpt>
      <trkpt lat="44.09509" lon="3.53822">
        <ele>1334</ele>
        <time>2013-07-07T12:27:34Z</time>
      </trkpt>
      <trkpt lat="44.09496" lon="3.53824">
        <ele>1332</ele>
        <time>2013-07-07T12:27:41Z</time>
      </trkpt>
      <trkpt lat="44.09483" lon="3.53832">
        <ele>1332</ele>
        <time>2013-07-07T12:27:47Z</time>
      </trkpt>
      <trkpt lat="44.09473" lon="3.53841">
        <ele>1331</ele>
        <time>2013-07-07T12:27:53Z</time>
      </trkpt>
      <trkpt lat="44.09463" lon="3.53855">
        <ele>1329.732669252</ele>
        <time>2013-07-07T12:28:00Z</time>
      </trkpt>
      <trkpt lat="44.09453" lon="3.53862">
        <ele>1328</ele>
        <time>2013-07-07T12:28:05Z</time>
      </trkpt>
      <trkpt lat="44.09444" lon="3.53873">
        <ele>1326</ele>
        <time>2013-07-07T12:28:11Z</time>
      </trkpt>
      <trkpt lat="44.09436" lon="3.53888">
        <ele>1326</ele>
        <time>2013-07-07T12:28:18Z</time>
      </trkpt>
      <trkpt lat="44.09424" lon="3.539">
        <ele>1322.2277393354</ele>
        <time>2013-07-07T12:28:25Z</time>
      </trkpt>
      <trkpt lat="44.09415" lon="3.53906">
        <ele>1320.6138569944</ele>
        <time>2013-07-07T12:28:30Z</time>
      </trkpt>
      <trkpt lat="44.09406" lon="3.53911">
        <ele>1320</ele>
        <time>2013-07-07T12:28:34Z</time>
      </trkpt>
      <trkpt lat="44.09399" lon="3.53925">
        <ele>1316</ele>
        <time>2013-07-07T12:28:41Z</time>
      </trkpt>
      <trkpt lat="44.09394" lon="3.53941">
        <ele>1313</ele>
        <time>2013-07-07T12:28:47Z</time>
      </trkpt>
      <trkpt lat="44.09385" lon="3.53952">
        <ele>1311</ele>
        <time>2013-07-07T12:28:51Z</time>
      </trkpt>
      <trkpt lat="44.09372" lon="3.53966">
        <ele>1308</ele>
        <time>2013-07-07T12:28:58Z</time>
      </trkpt>
      <trkpt lat="44.09355" lon="3.5398">
        <ele>1303</ele>
        <time>2013-07-07T12:29:06Z</time>
      </trkpt>
      <trkpt lat="44.09341" lon="3.53998">
        <ele>1300</ele>
        <time>2013-07-07T12:29:16Z</time>
      </trkpt>
      <trkpt lat="44.09328" lon="3.54018">
        <ele>1297</ele>
        <time>2013-07-07T12:29:24Z</time>
      </trkpt>
      <trkpt lat="44.09313" lon="3.54034">
        <ele>1293</ele>
        <time>2013-07-07T12:29:31Z</time>
      </trkpt>
      <trkpt lat="44.09303" lon="3.54041">
        <ele>1293.64</ele>
        <time>2013-07-07T12:29:35Z</time>
      </trkpt>
      <trkpt lat="44.09292" lon="3.54047">
        <ele>1293</ele>
        <time>2013-07-07T12:29:39Z</time>
      </trkpt>
      <trkpt lat="44.09285" lon="3.54057">
        <ele>1290.6138696677</ele>
        <time>2013-07-07T12:29:45Z</time>
      </trkpt>
      <trkpt lat="44.09281" lon="3.54071">
        <ele>1288</ele>
        <time>2013-07-07T12:29:51Z</time>
      </trkpt>
      <trkpt lat="44.09275" lon="3.54083">
        <ele>1285</ele>
        <time>2013-07-07T12:29:56Z</time>
      </trkpt>
      <trkpt lat="44.09269" lon="3.54096">
        <ele>1280.6138569944</ele>
        <time>2013-07-07T12:30:02Z</time>
      </trkpt>
      <trkpt lat="44.09277" lon="3.5412">
        <ele>1276.2909224199</ele>
        <time>2013-07-07T12:30:15Z</time>
      </trkpt>
      <trkpt lat="44.0929" lon="3.54138">
        <ele>1273</ele>
        <time>2013-07-07T12:30:26Z</time>
      </trkpt>
      <trkpt lat="44.09294" lon="3.5416">
        <ele>1269</ele>
        <time>2013-07-07T12:30:38Z</time>
      </trkpt>
      <trkpt lat="44.09283" lon="3.54182">
        <ele>1262.4081475386</ele>
        <time>2013-07-07T12:30:50Z</time>
      </trkpt>
      <trkpt lat="44.09266" lon="3.54192">
        <ele>1255</ele>
        <time>2013-07-07T12:31:02Z</time>
      </trkpt>
      <trkpt lat="44.09248" lon="3.54192">
        <ele>1255</ele>
        <time>2013-07-07T12:31:14Z</time>
      </trkpt>
      <trkpt lat="44.0923" lon="3.54198">
        <ele>1255</ele>
        <time>2013-07-07T12:31:27Z</time>
      </trkpt>
      <trkpt lat="44.09215" lon="3.5421">
        <ele>1250.8162950773</ele>
        <time>2013-07-07T12:31:50Z</time>
      </trkpt>
      <trkpt lat="44.09215" lon="3.54234">
        <ele>1242</ele>
        <time>2013-07-07T12:32:08Z</time>
      </trkpt>
      <trkpt lat="44.09203" lon="3.54247">
        <ele>1241</ele>
        <time>2013-07-07T12:32:16Z</time>
      </trkpt>
      <trkpt lat="44.09191" lon="3.54263">
        <ele>1239.3861430056</ele>
        <time>2013-07-07T12:32:30Z</time>
      </trkpt>
      <trkpt lat="44.09184" lon="3.54285">
        <ele>1239</ele>
        <time>2013-07-07T12:32:44Z</time>
      </trkpt>
      <trkpt lat="44.09183" lon="3.54307">
        <ele>1240.3861430056</ele>
        <time>2013-07-07T12:33:00Z</time>
      </trkpt>
      <trkpt lat="44.09174" lon="3.54323">
        <ele>1241</ele>
        <time>2013-07-07T12:33:09Z</time>
      </trkpt>
      <trkpt lat="44.09161" lon="3.54326">
        <ele>1240</ele>
        <time>2013-07-07T12:33:19Z</time>
      </trkpt>
      <trkpt lat="44.09153" lon="3.54335">
        <ele>1237</ele>
        <time>2013-07-07T12:33:23Z</time>
      </trkpt>
      <trkpt lat="44.09146" lon="3.54342">
        <ele>1235</ele>
        <time>2013-07-07T12:33:28Z</time>
      </trkpt>
      <trkpt lat="44.09139" lon="3.54347">
        <ele>1234</ele>
        <time>2013-07-07T12:33:32Z</time>
      </trkpt>
      <trkpt lat="44.09132" lon="3.54353">
        <ele>1233</ele>
        <time>2013-07-07T12:33:36Z</time>
      </trkpt>
      <trkpt lat="44.09124" lon="3.54358">
        <ele>1232.6199936</ele>
        <time>2013-07-07T12:33:40Z</time>
      </trkpt>
      <trkpt lat="44.09117" lon="3.54363">
        <ele>1232</ele>
        <time>2013-07-07T12:33:43Z</time>
      </trkpt>
      <trkpt lat="44.09109" lon="3.5437">
        <ele>1232</ele>
        <time>2013-07-07T12:33:47Z</time>
      </trkpt>
      <trkpt lat="44.09099" lon="3.54376">
        <ele>1231</ele>
        <time>2013-07-07T12:33:51Z</time>
      </trkpt>
      <trkpt lat="44.0909" lon="3.54388">
        <ele>1231</ele>
        <time>2013-07-07T12:33:57Z</time>
      </trkpt>
      <trkpt lat="44.09085" lon="3.54402">
        <ele>1230</ele>
        <time>2013-07-07T12:34:02Z</time>
      </trkpt>
      <trkpt lat="44.09084" lon="3.5442">
        <ele>1230</ele>
        <time>2013-07-07T12:34:08Z</time>
      </trkpt>
      <trkpt lat="44.09089" lon="3.54436">
        <ele>1232</ele>
        <time>2013-07-07T12:34:13Z</time>
      </trkpt>
      <trkpt lat="44.09096" lon="3.54451">
        <ele>1232</ele>
        <time>2013-07-07T12:34:18Z</time>
      </trkpt>
      <trkpt lat="44.09103" lon="3.54467">
        <ele>1233</ele>
        <time>2013-07-07T12:34:23Z</time>
      </trkpt>
      <trkpt lat="44.0911" lon="3.54484">
        <ele>1233</ele>
        <time>2013-07-07T12:34:29Z</time>
      </trkpt>
      <trkpt lat="44.09114" lon="3.54498">
        <ele>1235</ele>
        <time>2013-07-07T12:34:37Z</time>
      </trkpt>
      <trkpt lat="44.09114" lon="3.54501">
        <ele>1235</ele>
        <time>2013-07-07T12:34:41Z</time>
      </trkpt>
    </trkseg>
  </trk>
</gpx>